<?xml version="1.0" encoding="UTF-8"?>
<gpx xmlns="http://www.topografix.com/GPX/1/1" xmlns:gpsies="https://www.gpsies.com/GPX/1/0" creator="AllTrails https://www.alltrails.com/ - Giro_Abetito-4609013_course" version="1.1" xmlns:xsi="http://www.w3.org/2001/XMLSchema-instance" xsi:schemaLocation="http://www.topografix.com/GPX/1/1 http://www.topografix.com/GPX/1/1/gpx.xsd https://www.gpsies.com/GPX/1/0 https://www.gpsies.com/gpsies.xsd">
  <metadata>
    <name>Giro_Abetito-4609013_course</name>
    <link href="https://www.gpsies.com/">
      <text>Giro_Abetito-4609013_course on AllTrails</text>
    </link>
    <time>2024-05-14T08:55:21Z</time>
  </metadata>
  <trk>
    <name>Giro_Abetito-4609013_course on AllTrails</name>
    <trkseg>
      <trkpt lat="42.85089997" lon="13.55580992">
        <ele>205.00000</ele>
        <time>2024-05-13T12:19:52Z</time>
      </trkpt>
      <trkpt lat="42.85102511" lon="13.55610036">
        <ele>204.00000</ele>
        <time>2024-05-13T12:19:55Z</time>
      </trkpt>
      <trkpt lat="42.85114992" lon="13.55638995">
        <ele>202.00000</ele>
        <time>2024-05-13T12:19:59Z</time>
      </trkpt>
      <trkpt lat="42.85135318" lon="13.55620329">
        <ele>200.00000</ele>
        <time>2024-05-13T12:20:03Z</time>
      </trkpt>
      <trkpt lat="42.85155653" lon="13.55601662">
        <ele>196.00000</ele>
        <time>2024-05-13T12:20:07Z</time>
      </trkpt>
      <trkpt lat="42.85175995" lon="13.55582996">
        <ele>193.00000</ele>
        <time>2024-05-13T12:20:11Z</time>
      </trkpt>
      <trkpt lat="42.85187336" lon="13.55607354">
        <ele>192.00000</ele>
        <time>2024-05-13T12:20:15Z</time>
      </trkpt>
      <trkpt lat="42.85198685" lon="13.55631720">
        <ele>193.00000</ele>
        <time>2024-05-13T12:20:18Z</time>
      </trkpt>
      <trkpt lat="42.85209992" lon="13.55655994">
        <ele>195.00000</ele>
        <time>2024-05-13T12:20:21Z</time>
      </trkpt>
      <trkpt lat="42.85222004" lon="13.55680352">
        <ele>197.00000</ele>
        <time>2024-05-13T12:20:25Z</time>
      </trkpt>
      <trkpt lat="42.85234015" lon="13.55704718">
        <ele>198.00000</ele>
        <time>2024-05-13T12:20:28Z</time>
      </trkpt>
      <trkpt lat="42.85245993" lon="13.55728992">
        <ele>197.00000</ele>
        <time>2024-05-13T12:20:32Z</time>
      </trkpt>
      <trkpt lat="42.85258993" lon="13.55753995">
        <ele>194.00000</ele>
        <time>2024-05-13T12:20:35Z</time>
      </trkpt>
      <trkpt lat="42.85259999" lon="13.55759996">
        <ele>193.00000</ele>
        <time>2024-05-13T12:20:36Z</time>
      </trkpt>
      <trkpt lat="42.85260996" lon="13.55764992">
        <ele>193.00000</ele>
        <time>2024-05-13T12:20:37Z</time>
      </trkpt>
      <trkpt lat="42.85259999" lon="13.55772997">
        <ele>192.00000</ele>
        <time>2024-05-13T12:20:38Z</time>
      </trkpt>
      <trkpt lat="42.85254986" lon="13.55799551">
        <ele>193.00000</ele>
        <time>2024-05-13T12:20:41Z</time>
      </trkpt>
      <trkpt lat="42.85249999" lon="13.55825996">
        <ele>193.00000</ele>
        <time>2024-05-13T12:20:44Z</time>
      </trkpt>
      <trkpt lat="42.85244484" lon="13.55853044">
        <ele>192.00000</ele>
        <time>2024-05-13T12:20:47Z</time>
      </trkpt>
      <trkpt lat="42.85238994" lon="13.55879992">
        <ele>192.00000</ele>
        <time>2024-05-13T12:20:51Z</time>
      </trkpt>
      <trkpt lat="42.85231995" lon="13.55917995">
        <ele>191.00000</ele>
        <time>2024-05-13T12:20:55Z</time>
      </trkpt>
      <trkpt lat="42.85231995" lon="13.55931993">
        <ele>190.00000</ele>
        <time>2024-05-13T12:20:57Z</time>
      </trkpt>
      <trkpt lat="42.85234996" lon="13.55945999">
        <ele>189.00000</ele>
        <time>2024-05-13T12:20:59Z</time>
      </trkpt>
      <trkpt lat="42.85239991" lon="13.55956996">
        <ele>189.00000</ele>
        <time>2024-05-13T12:21:00Z</time>
      </trkpt>
      <trkpt lat="42.85244995" lon="13.55962998">
        <ele>188.00000</ele>
        <time>2024-05-13T12:21:01Z</time>
      </trkpt>
      <trkpt lat="42.85250997" lon="13.55969997">
        <ele>187.00000</ele>
        <time>2024-05-13T12:21:02Z</time>
      </trkpt>
      <trkpt lat="42.85258993" lon="13.55968999">
        <ele>186.00000</ele>
        <time>2024-05-13T12:21:04Z</time>
      </trkpt>
      <trkpt lat="42.85265992" lon="13.55966996">
        <ele>185.00000</ele>
        <time>2024-05-13T12:21:05Z</time>
      </trkpt>
      <trkpt lat="42.85270996" lon="13.55961992">
        <ele>184.00000</ele>
        <time>2024-05-13T12:21:06Z</time>
      </trkpt>
      <trkpt lat="42.85275992" lon="13.55951992">
        <ele>184.00000</ele>
        <time>2024-05-13T12:21:07Z</time>
      </trkpt>
      <trkpt lat="42.85283996" lon="13.55930996">
        <ele>184.00000</ele>
        <time>2024-05-13T12:21:10Z</time>
      </trkpt>
      <trkpt lat="42.85296997" lon="13.55900997">
        <ele>181.00000</ele>
        <time>2024-05-13T12:21:14Z</time>
      </trkpt>
      <trkpt lat="42.85306510" lon="13.55877460">
        <ele>179.00000</ele>
        <time>2024-05-13T12:21:17Z</time>
      </trkpt>
      <trkpt lat="42.85315998" lon="13.55853999">
        <ele>178.00000</ele>
        <time>2024-05-13T12:21:20Z</time>
      </trkpt>
      <trkpt lat="42.85331999" lon="13.55846992">
        <ele>173.00000</ele>
        <time>2024-05-13T12:21:23Z</time>
      </trkpt>
      <trkpt lat="42.85337992" lon="13.55843991">
        <ele>172.00000</ele>
        <time>2024-05-13T12:21:24Z</time>
      </trkpt>
      <trkpt lat="42.85340993" lon="13.55840999">
        <ele>171.00000</ele>
        <time>2024-05-13T12:21:25Z</time>
      </trkpt>
      <trkpt lat="42.85345997" lon="13.55836993">
        <ele>169.00000</ele>
        <time>2024-05-13T12:21:26Z</time>
      </trkpt>
      <trkpt lat="42.85352996" lon="13.55828996">
        <ele>167.00000</ele>
        <time>2024-05-13T12:21:27Z</time>
      </trkpt>
      <trkpt lat="42.85351999" lon="13.55824998">
        <ele>167.00000</ele>
        <time>2024-05-13T12:21:28Z</time>
      </trkpt>
      <trkpt lat="42.85347992" lon="13.55788998">
        <ele>168.00000</ele>
        <time>2024-05-13T12:21:32Z</time>
      </trkpt>
      <trkpt lat="42.85342996" lon="13.55758999">
        <ele>171.00000</ele>
        <time>2024-05-13T12:21:36Z</time>
      </trkpt>
      <trkpt lat="42.85339996" lon="13.55738991">
        <ele>174.00000</ele>
        <time>2024-05-13T12:21:38Z</time>
      </trkpt>
      <trkpt lat="42.85337992" lon="13.55729998">
        <ele>175.00000</ele>
        <time>2024-05-13T12:21:39Z</time>
      </trkpt>
      <trkpt lat="42.85333994" lon="13.55716997">
        <ele>177.00000</ele>
        <time>2024-05-13T12:21:41Z</time>
      </trkpt>
      <trkpt lat="42.85329996" lon="13.55704994">
        <ele>178.00000</ele>
        <time>2024-05-13T12:21:42Z</time>
      </trkpt>
      <trkpt lat="42.85322997" lon="13.55688993">
        <ele>177.00000</ele>
        <time>2024-05-13T12:21:44Z</time>
      </trkpt>
      <trkpt lat="42.85313475" lon="13.55668466">
        <ele>175.00000</ele>
        <time>2024-05-13T12:21:47Z</time>
      </trkpt>
      <trkpt lat="42.85303995" lon="13.55647997">
        <ele>174.00000</ele>
        <time>2024-05-13T12:21:50Z</time>
      </trkpt>
      <trkpt lat="42.85293979" lon="13.55625961">
        <ele>175.00000</ele>
        <time>2024-05-13T12:21:53Z</time>
      </trkpt>
      <trkpt lat="42.85283996" lon="13.55603992">
        <ele>175.00000</ele>
        <time>2024-05-13T12:21:56Z</time>
      </trkpt>
      <trkpt lat="42.85267467" lon="13.55568939">
        <ele>175.00000</ele>
        <time>2024-05-13T12:22:01Z</time>
      </trkpt>
      <trkpt lat="42.85250997" lon="13.55533995">
        <ele>174.00000</ele>
        <time>2024-05-13T12:22:06Z</time>
      </trkpt>
      <trkpt lat="42.85235473" lon="13.55501448">
        <ele>176.00000</ele>
        <time>2024-05-13T12:22:11Z</time>
      </trkpt>
      <trkpt lat="42.85219992" lon="13.55468994">
        <ele>179.00000</ele>
        <time>2024-05-13T12:22:15Z</time>
      </trkpt>
      <trkpt lat="42.85208475" lon="13.55445457">
        <ele>179.00000</ele>
        <time>2024-05-13T12:22:18Z</time>
      </trkpt>
      <trkpt lat="42.85196992" lon="13.55421996">
        <ele>179.00000</ele>
        <time>2024-05-13T12:22:22Z</time>
      </trkpt>
      <trkpt lat="42.85191996" lon="13.55409993">
        <ele>179.00000</ele>
        <time>2024-05-13T12:22:23Z</time>
      </trkpt>
      <trkpt lat="42.85186992" lon="13.55397999">
        <ele>179.00000</ele>
        <time>2024-05-13T12:22:25Z</time>
      </trkpt>
      <trkpt lat="42.85182994" lon="13.55385996">
        <ele>180.00000</ele>
        <time>2024-05-13T12:22:27Z</time>
      </trkpt>
      <trkpt lat="42.85181997" lon="13.55383993">
        <ele>180.00000</ele>
        <time>2024-05-13T12:22:27Z</time>
      </trkpt>
      <trkpt lat="42.85180999" lon="13.55372996">
        <ele>180.00000</ele>
        <time>2024-05-13T12:22:28Z</time>
      </trkpt>
      <trkpt lat="42.85178996" lon="13.55365997">
        <ele>181.00000</ele>
        <time>2024-05-13T12:22:29Z</time>
      </trkpt>
      <trkpt lat="42.85178996" lon="13.55358998">
        <ele>181.00000</ele>
        <time>2024-05-13T12:22:30Z</time>
      </trkpt>
      <trkpt lat="42.85177999" lon="13.55350993">
        <ele>181.00000</ele>
        <time>2024-05-13T12:22:31Z</time>
      </trkpt>
      <trkpt lat="42.85177999" lon="13.55334992">
        <ele>182.00000</ele>
        <time>2024-05-13T12:22:33Z</time>
      </trkpt>
      <trkpt lat="42.85177999" lon="13.55310995">
        <ele>179.00000</ele>
        <time>2024-05-13T12:22:36Z</time>
      </trkpt>
      <trkpt lat="42.85177999" lon="13.55291993">
        <ele>177.00000</ele>
        <time>2024-05-13T12:22:38Z</time>
      </trkpt>
      <trkpt lat="42.85177999" lon="13.55282999">
        <ele>175.00000</ele>
        <time>2024-05-13T12:22:39Z</time>
      </trkpt>
      <trkpt lat="42.85177999" lon="13.55274994">
        <ele>174.00000</ele>
        <time>2024-05-13T12:22:40Z</time>
      </trkpt>
      <trkpt lat="42.85176993" lon="13.55267995">
        <ele>174.00000</ele>
        <time>2024-05-13T12:22:41Z</time>
      </trkpt>
      <trkpt lat="42.85173992" lon="13.55258993">
        <ele>174.00000</ele>
        <time>2024-05-13T12:22:42Z</time>
      </trkpt>
      <trkpt lat="42.85171997" lon="13.55251994">
        <ele>173.00000</ele>
        <time>2024-05-13T12:22:43Z</time>
      </trkpt>
      <trkpt lat="42.85168997" lon="13.55246999">
        <ele>174.00000</ele>
        <time>2024-05-13T12:22:43Z</time>
      </trkpt>
      <trkpt lat="42.85165996" lon="13.55241995">
        <ele>174.00000</ele>
        <time>2024-05-13T12:22:44Z</time>
      </trkpt>
      <trkpt lat="42.85160992" lon="13.55235993">
        <ele>175.00000</ele>
        <time>2024-05-13T12:22:45Z</time>
      </trkpt>
      <trkpt lat="42.85144999" lon="13.55219992">
        <ele>178.00000</ele>
        <time>2024-05-13T12:22:48Z</time>
      </trkpt>
      <trkpt lat="42.85140993" lon="13.55214997">
        <ele>178.00000</ele>
        <time>2024-05-13T12:22:49Z</time>
      </trkpt>
      <trkpt lat="42.85136994" lon="13.55208995">
        <ele>178.00000</ele>
        <time>2024-05-13T12:22:50Z</time>
      </trkpt>
      <trkpt lat="42.85132996" lon="13.55202994">
        <ele>179.00000</ele>
        <time>2024-05-13T12:22:51Z</time>
      </trkpt>
      <trkpt lat="42.85130993" lon="13.55197998">
        <ele>179.00000</ele>
        <time>2024-05-13T12:22:52Z</time>
      </trkpt>
      <trkpt lat="42.85128998" lon="13.55191997">
        <ele>178.00000</ele>
        <time>2024-05-13T12:22:53Z</time>
      </trkpt>
      <trkpt lat="42.85125997" lon="13.55183992">
        <ele>178.00000</ele>
        <time>2024-05-13T12:22:54Z</time>
      </trkpt>
      <trkpt lat="42.85122997" lon="13.55175996">
        <ele>178.00000</ele>
        <time>2024-05-13T12:22:55Z</time>
      </trkpt>
      <trkpt lat="42.85118998" lon="13.55157991">
        <ele>177.00000</ele>
        <time>2024-05-13T12:22:57Z</time>
      </trkpt>
      <trkpt lat="42.85114992" lon="13.55141999">
        <ele>176.00000</ele>
        <time>2024-05-13T12:22:59Z</time>
      </trkpt>
      <trkpt lat="42.85107473" lon="13.55106418">
        <ele>174.00000</ele>
        <time>2024-05-13T12:23:03Z</time>
      </trkpt>
      <trkpt lat="42.85099997" lon="13.55070996">
        <ele>175.00000</ele>
        <time>2024-05-13T12:23:08Z</time>
      </trkpt>
      <trkpt lat="42.85095479" lon="13.55046940">
        <ele>177.00000</ele>
        <time>2024-05-13T12:23:11Z</time>
      </trkpt>
      <trkpt lat="42.85090995" lon="13.55022992">
        <ele>177.00000</ele>
        <time>2024-05-13T12:23:13Z</time>
      </trkpt>
      <trkpt lat="42.85084473" lon="13.54985408">
        <ele>175.00000</ele>
        <time>2024-05-13T12:23:18Z</time>
      </trkpt>
      <trkpt lat="42.85077994" lon="13.54947991">
        <ele>171.00000</ele>
        <time>2024-05-13T12:23:23Z</time>
      </trkpt>
      <trkpt lat="42.85074993" lon="13.54937992">
        <ele>170.00000</ele>
        <time>2024-05-13T12:23:24Z</time>
      </trkpt>
      <trkpt lat="42.85071993" lon="13.54930993">
        <ele>170.00000</ele>
        <time>2024-05-13T12:23:25Z</time>
      </trkpt>
      <trkpt lat="42.85068992" lon="13.54924991">
        <ele>170.00000</ele>
        <time>2024-05-13T12:23:26Z</time>
      </trkpt>
      <trkpt lat="42.85064994" lon="13.54917992">
        <ele>170.00000</ele>
        <time>2024-05-13T12:23:27Z</time>
      </trkpt>
      <trkpt lat="42.85060996" lon="13.54910993">
        <ele>170.00000</ele>
        <time>2024-05-13T12:23:28Z</time>
      </trkpt>
      <trkpt lat="42.85054994" lon="13.54903995">
        <ele>171.00000</ele>
        <time>2024-05-13T12:23:29Z</time>
      </trkpt>
      <trkpt lat="42.85043997" lon="13.54892998">
        <ele>170.00000</ele>
        <time>2024-05-13T12:23:31Z</time>
      </trkpt>
      <trkpt lat="42.85025993" lon="13.54875999">
        <ele>170.00000</ele>
        <time>2024-05-13T12:23:35Z</time>
      </trkpt>
      <trkpt lat="42.85006999" lon="13.54858992">
        <ele>171.00000</ele>
        <time>2024-05-13T12:23:38Z</time>
      </trkpt>
      <trkpt lat="42.84999992" lon="13.54850996">
        <ele>171.00000</ele>
        <time>2024-05-13T12:23:40Z</time>
      </trkpt>
      <trkpt lat="42.84994997" lon="13.54843997">
        <ele>172.00000</ele>
        <time>2024-05-13T12:23:41Z</time>
      </trkpt>
      <trkpt lat="42.84992993" lon="13.54839999">
        <ele>172.00000</ele>
        <time>2024-05-13T12:23:41Z</time>
      </trkpt>
      <trkpt lat="42.84990998" lon="13.54834995">
        <ele>172.00000</ele>
        <time>2024-05-13T12:23:42Z</time>
      </trkpt>
      <trkpt lat="42.84988995" lon="13.54827996">
        <ele>172.00000</ele>
        <time>2024-05-13T12:23:43Z</time>
      </trkpt>
      <trkpt lat="42.84986992" lon="13.54820997">
        <ele>172.00000</ele>
        <time>2024-05-13T12:23:44Z</time>
      </trkpt>
      <trkpt lat="42.84985994" lon="13.54805993">
        <ele>171.00000</ele>
        <time>2024-05-13T12:23:46Z</time>
      </trkpt>
      <trkpt lat="42.84983488" lon="13.54777922">
        <ele>169.00000</ele>
        <time>2024-05-13T12:23:49Z</time>
      </trkpt>
      <trkpt lat="42.84980999" lon="13.54749994">
        <ele>167.00000</ele>
        <time>2024-05-13T12:23:52Z</time>
      </trkpt>
      <trkpt lat="42.84977990" lon="13.54719920">
        <ele>166.00000</ele>
        <time>2024-05-13T12:23:56Z</time>
      </trkpt>
      <trkpt lat="42.84974997" lon="13.54689996">
        <ele>166.00000</ele>
        <time>2024-05-13T12:23:59Z</time>
      </trkpt>
      <trkpt lat="42.84971988" lon="13.54652906">
        <ele>167.00000</ele>
        <time>2024-05-13T12:24:04Z</time>
      </trkpt>
      <trkpt lat="42.84968996" lon="13.54615992">
        <ele>169.00000</ele>
        <time>2024-05-13T12:24:08Z</time>
      </trkpt>
      <trkpt lat="42.84966993" lon="13.54603998">
        <ele>170.00000</ele>
        <time>2024-05-13T12:24:10Z</time>
      </trkpt>
      <trkpt lat="42.84965995" lon="13.54588994">
        <ele>169.00000</ele>
        <time>2024-05-13T12:24:11Z</time>
      </trkpt>
      <trkpt lat="42.84964998" lon="13.54583999">
        <ele>169.00000</ele>
        <time>2024-05-13T12:24:12Z</time>
      </trkpt>
      <trkpt lat="42.84963992" lon="13.54575994">
        <ele>169.00000</ele>
        <time>2024-05-13T12:24:13Z</time>
      </trkpt>
      <trkpt lat="42.84960991" lon="13.54564997">
        <ele>169.00000</ele>
        <time>2024-05-13T12:24:14Z</time>
      </trkpt>
      <trkpt lat="42.84957999" lon="13.54553991">
        <ele>169.00000</ele>
        <time>2024-05-13T12:24:16Z</time>
      </trkpt>
      <trkpt lat="42.84954998" lon="13.54543992">
        <ele>169.00000</ele>
        <time>2024-05-13T12:24:17Z</time>
      </trkpt>
      <trkpt lat="42.84947999" lon="13.54521998">
        <ele>168.00000</ele>
        <time>2024-05-13T12:24:20Z</time>
      </trkpt>
      <trkpt lat="42.84938997" lon="13.54498998">
        <ele>169.00000</ele>
        <time>2024-05-13T12:24:23Z</time>
      </trkpt>
      <trkpt lat="42.84933993" lon="13.54484992">
        <ele>169.00000</ele>
        <time>2024-05-13T12:24:25Z</time>
      </trkpt>
      <trkpt lat="42.84930992" lon="13.54477993">
        <ele>168.00000</ele>
        <time>2024-05-13T12:24:26Z</time>
      </trkpt>
      <trkpt lat="42.84929995" lon="13.54471991">
        <ele>168.00000</ele>
        <time>2024-05-13T12:24:26Z</time>
      </trkpt>
      <trkpt lat="42.84925997" lon="13.54458999">
        <ele>167.00000</ele>
        <time>2024-05-13T12:24:28Z</time>
      </trkpt>
      <trkpt lat="42.84921999" lon="13.54443996">
        <ele>167.00000</ele>
        <time>2024-05-13T12:24:30Z</time>
      </trkpt>
      <trkpt lat="42.84917992" lon="13.54426997">
        <ele>167.00000</ele>
        <time>2024-05-13T12:24:32Z</time>
      </trkpt>
      <trkpt lat="42.84915997" lon="13.54410996">
        <ele>167.00000</ele>
        <time>2024-05-13T12:24:34Z</time>
      </trkpt>
      <trkpt lat="42.84906995" lon="13.54373998">
        <ele>169.00000</ele>
        <time>2024-05-13T12:24:39Z</time>
      </trkpt>
      <trkpt lat="42.84899996" lon="13.54345995">
        <ele>172.00000</ele>
        <time>2024-05-13T12:24:42Z</time>
      </trkpt>
      <trkpt lat="42.84897993" lon="13.54337998">
        <ele>174.00000</ele>
        <time>2024-05-13T12:24:43Z</time>
      </trkpt>
      <trkpt lat="42.84893995" lon="13.54318996">
        <ele>175.00000</ele>
        <time>2024-05-13T12:24:45Z</time>
      </trkpt>
      <trkpt lat="42.84892997" lon="13.54306994">
        <ele>176.00000</ele>
        <time>2024-05-13T12:24:47Z</time>
      </trkpt>
      <trkpt lat="42.84891991" lon="13.54287992">
        <ele>177.00000</ele>
        <time>2024-05-13T12:24:49Z</time>
      </trkpt>
      <trkpt lat="42.84891991" lon="13.54277992">
        <ele>177.00000</ele>
        <time>2024-05-13T12:24:50Z</time>
      </trkpt>
      <trkpt lat="42.84891991" lon="13.54267993">
        <ele>178.00000</ele>
        <time>2024-05-13T12:24:51Z</time>
      </trkpt>
      <trkpt lat="42.84892997" lon="13.54256995">
        <ele>179.00000</ele>
        <time>2024-05-13T12:24:53Z</time>
      </trkpt>
      <trkpt lat="42.84893995" lon="13.54248999">
        <ele>179.00000</ele>
        <time>2024-05-13T12:24:54Z</time>
      </trkpt>
      <trkpt lat="42.84895998" lon="13.54231992">
        <ele>181.00000</ele>
        <time>2024-05-13T12:24:56Z</time>
      </trkpt>
      <trkpt lat="42.84900994" lon="13.54218992">
        <ele>181.00000</ele>
        <time>2024-05-13T12:24:57Z</time>
      </trkpt>
      <trkpt lat="42.84905998" lon="13.54200996">
        <ele>182.00000</ele>
        <time>2024-05-13T12:25:00Z</time>
      </trkpt>
      <trkpt lat="42.84908998" lon="13.54183997">
        <ele>182.00000</ele>
        <time>2024-05-13T12:25:02Z</time>
      </trkpt>
      <trkpt lat="42.84918998" lon="13.54159992">
        <ele>182.00000</ele>
        <time>2024-05-13T12:25:05Z</time>
      </trkpt>
      <trkpt lat="42.84924999" lon="13.54145994">
        <ele>182.00000</ele>
        <time>2024-05-13T12:25:07Z</time>
      </trkpt>
      <trkpt lat="42.84926994" lon="13.54139992">
        <ele>182.00000</ele>
        <time>2024-05-13T12:25:08Z</time>
      </trkpt>
      <trkpt lat="42.84931998" lon="13.54125995">
        <ele>181.00000</ele>
        <time>2024-05-13T12:25:09Z</time>
      </trkpt>
      <trkpt lat="42.84933993" lon="13.54117998">
        <ele>181.00000</ele>
        <time>2024-05-13T12:25:10Z</time>
      </trkpt>
      <trkpt lat="42.84937991" lon="13.54097999">
        <ele>182.00000</ele>
        <time>2024-05-13T12:25:13Z</time>
      </trkpt>
      <trkpt lat="42.84938997" lon="13.54085996">
        <ele>183.00000</ele>
        <time>2024-05-13T12:25:14Z</time>
      </trkpt>
      <trkpt lat="42.84941998" lon="13.54074999">
        <ele>183.00000</ele>
        <time>2024-05-13T12:25:16Z</time>
      </trkpt>
      <trkpt lat="42.84942995" lon="13.54071998">
        <ele>182.00000</ele>
        <time>2024-05-13T12:25:16Z</time>
      </trkpt>
      <trkpt lat="42.84942995" lon="13.54065997">
        <ele>183.00000</ele>
        <time>2024-05-13T12:25:17Z</time>
      </trkpt>
      <trkpt lat="42.84943993" lon="13.54058998">
        <ele>182.00000</ele>
        <time>2024-05-13T12:25:18Z</time>
      </trkpt>
      <trkpt lat="42.84943993" lon="13.54049996">
        <ele>183.00000</ele>
        <time>2024-05-13T12:25:19Z</time>
      </trkpt>
      <trkpt lat="42.84943993" lon="13.54038999">
        <ele>183.00000</ele>
        <time>2024-05-13T12:25:20Z</time>
      </trkpt>
      <trkpt lat="42.84941998" lon="13.54010995">
        <ele>184.00000</ele>
        <time>2024-05-13T12:25:23Z</time>
      </trkpt>
      <trkpt lat="42.84940992" lon="13.54003996">
        <ele>184.00000</ele>
        <time>2024-05-13T12:25:24Z</time>
      </trkpt>
      <trkpt lat="42.84939995" lon="13.53991993">
        <ele>185.00000</ele>
        <time>2024-05-13T12:25:26Z</time>
      </trkpt>
      <trkpt lat="42.84938997" lon="13.53977995">
        <ele>186.00000</ele>
        <time>2024-05-13T12:25:27Z</time>
      </trkpt>
      <trkpt lat="42.84937991" lon="13.53952992">
        <ele>186.00000</ele>
        <time>2024-05-13T12:25:30Z</time>
      </trkpt>
      <trkpt lat="42.84937991" lon="13.53941995">
        <ele>186.00000</ele>
        <time>2024-05-13T12:25:31Z</time>
      </trkpt>
      <trkpt lat="42.84938997" lon="13.53905995">
        <ele>183.00000</ele>
        <time>2024-05-13T12:25:36Z</time>
      </trkpt>
      <trkpt lat="42.84943004" lon="13.53865393">
        <ele>182.00000</ele>
        <time>2024-05-13T12:25:41Z</time>
      </trkpt>
      <trkpt lat="42.84946993" lon="13.53824992">
        <ele>183.00000</ele>
        <time>2024-05-13T12:25:45Z</time>
      </trkpt>
      <trkpt lat="42.84945996" lon="13.53813995">
        <ele>184.00000</ele>
        <time>2024-05-13T12:25:47Z</time>
      </trkpt>
      <trkpt lat="42.84949994" lon="13.53788992">
        <ele>187.00000</ele>
        <time>2024-05-13T12:25:50Z</time>
      </trkpt>
      <trkpt lat="42.84954998" lon="13.53761432">
        <ele>187.00000</ele>
        <time>2024-05-13T12:25:53Z</time>
      </trkpt>
      <trkpt lat="42.84959994" lon="13.53733998">
        <ele>187.00000</ele>
        <time>2024-05-13T12:25:56Z</time>
      </trkpt>
      <trkpt lat="42.84966004" lon="13.53696414">
        <ele>185.00000</ele>
        <time>2024-05-13T12:26:01Z</time>
      </trkpt>
      <trkpt lat="42.84971997" lon="13.53658997">
        <ele>185.00000</ele>
        <time>2024-05-13T12:26:05Z</time>
      </trkpt>
      <trkpt lat="42.84975333" lon="13.53627917">
        <ele>188.00000</ele>
        <time>2024-05-13T12:26:09Z</time>
      </trkpt>
      <trkpt lat="42.84978677" lon="13.53596845">
        <ele>190.00000</ele>
        <time>2024-05-13T12:26:13Z</time>
      </trkpt>
      <trkpt lat="42.84981996" lon="13.53565991">
        <ele>189.00000</ele>
        <time>2024-05-13T12:26:16Z</time>
      </trkpt>
      <trkpt lat="42.84984000" lon="13.53532573">
        <ele>186.00000</ele>
        <time>2024-05-13T12:26:20Z</time>
      </trkpt>
      <trkpt lat="42.84986003" lon="13.53499162">
        <ele>183.00000</ele>
        <time>2024-05-13T12:26:24Z</time>
      </trkpt>
      <trkpt lat="42.84987998" lon="13.53465995">
        <ele>183.00000</ele>
        <time>2024-05-13T12:26:28Z</time>
      </trkpt>
      <trkpt lat="42.84988660" lon="13.53436583">
        <ele>183.00000</ele>
        <time>2024-05-13T12:26:32Z</time>
      </trkpt>
      <trkpt lat="42.84989330" lon="13.53407179">
        <ele>184.00000</ele>
        <time>2024-05-13T12:26:35Z</time>
      </trkpt>
      <trkpt lat="42.84989993" lon="13.53377994">
        <ele>187.00000</ele>
        <time>2024-05-13T12:26:39Z</time>
      </trkpt>
      <trkpt lat="42.84990998" lon="13.53336998">
        <ele>191.00000</ele>
        <time>2024-05-13T12:26:43Z</time>
      </trkpt>
      <trkpt lat="42.84990487" lon="13.53303411">
        <ele>196.00000</ele>
        <time>2024-05-13T12:26:47Z</time>
      </trkpt>
      <trkpt lat="42.84989993" lon="13.53269993">
        <ele>197.00000</ele>
        <time>2024-05-13T12:26:51Z</time>
      </trkpt>
      <trkpt lat="42.84987998" lon="13.53242995">
        <ele>196.00000</ele>
        <time>2024-05-13T12:26:54Z</time>
      </trkpt>
      <trkpt lat="42.84983991" lon="13.53218997">
        <ele>195.00000</ele>
        <time>2024-05-13T12:26:57Z</time>
      </trkpt>
      <trkpt lat="42.84978996" lon="13.53190993">
        <ele>195.00000</ele>
        <time>2024-05-13T12:27:01Z</time>
      </trkpt>
      <trkpt lat="42.84973992" lon="13.53169997">
        <ele>198.00000</ele>
        <time>2024-05-13T12:27:03Z</time>
      </trkpt>
      <trkpt lat="42.84967998" lon="13.53141993">
        <ele>198.00000</ele>
        <time>2024-05-13T12:27:07Z</time>
      </trkpt>
      <trkpt lat="42.84958996" lon="13.53115992">
        <ele>199.00000</ele>
        <time>2024-05-13T12:27:10Z</time>
      </trkpt>
      <trkpt lat="42.84948997" lon="13.53086999">
        <ele>196.00000</ele>
        <time>2024-05-13T12:27:14Z</time>
      </trkpt>
      <trkpt lat="42.84941998" lon="13.53070998">
        <ele>193.00000</ele>
        <time>2024-05-13T12:27:16Z</time>
      </trkpt>
      <trkpt lat="42.84935996" lon="13.53058995">
        <ele>192.00000</ele>
        <time>2024-05-13T12:27:18Z</time>
      </trkpt>
      <trkpt lat="42.84926994" lon="13.53048996">
        <ele>192.00000</ele>
        <time>2024-05-13T12:27:20Z</time>
      </trkpt>
      <trkpt lat="42.84918998" lon="13.53039993">
        <ele>193.00000</ele>
        <time>2024-05-13T12:27:21Z</time>
      </trkpt>
      <trkpt lat="42.84907992" lon="13.53030991">
        <ele>194.00000</ele>
        <time>2024-05-13T12:27:23Z</time>
      </trkpt>
      <trkpt lat="42.84894992" lon="13.53023992">
        <ele>195.00000</ele>
        <time>2024-05-13T12:27:26Z</time>
      </trkpt>
      <trkpt lat="42.84869997" lon="13.53012995">
        <ele>194.00000</ele>
        <time>2024-05-13T12:27:30Z</time>
      </trkpt>
      <trkpt lat="42.84846997" lon="13.53002996">
        <ele>192.00000</ele>
        <time>2024-05-13T12:27:34Z</time>
      </trkpt>
      <trkpt lat="42.84827509" lon="13.52995494">
        <ele>191.00000</ele>
        <time>2024-05-13T12:27:37Z</time>
      </trkpt>
      <trkpt lat="42.84807996" lon="13.52987992">
        <ele>190.00000</ele>
        <time>2024-05-13T12:27:40Z</time>
      </trkpt>
      <trkpt lat="42.84789003" lon="13.52974992">
        <ele>191.00000</ele>
        <time>2024-05-13T12:27:44Z</time>
      </trkpt>
      <trkpt lat="42.84769993" lon="13.52961991">
        <ele>190.00000</ele>
        <time>2024-05-13T12:27:47Z</time>
      </trkpt>
      <trkpt lat="42.84744998" lon="13.52941992">
        <ele>187.00000</ele>
        <time>2024-05-13T12:27:52Z</time>
      </trkpt>
      <trkpt lat="42.84722995" lon="13.52923493">
        <ele>187.00000</ele>
        <time>2024-05-13T12:27:56Z</time>
      </trkpt>
      <trkpt lat="42.84700993" lon="13.52904994">
        <ele>186.00000</ele>
        <time>2024-05-13T12:28:00Z</time>
      </trkpt>
      <trkpt lat="42.84678999" lon="13.52885993">
        <ele>184.00000</ele>
        <time>2024-05-13T12:28:04Z</time>
      </trkpt>
      <trkpt lat="42.84673995" lon="13.52881995">
        <ele>184.00000</ele>
        <time>2024-05-13T12:28:05Z</time>
      </trkpt>
      <trkpt lat="42.84655999" lon="13.52867997">
        <ele>184.00000</ele>
        <time>2024-05-13T12:28:08Z</time>
      </trkpt>
      <trkpt lat="42.84642999" lon="13.52856991">
        <ele>184.00000</ele>
        <time>2024-05-13T12:28:11Z</time>
      </trkpt>
      <trkpt lat="42.84622496" lon="13.52838995">
        <ele>185.00000</ele>
        <time>2024-05-13T12:28:15Z</time>
      </trkpt>
      <trkpt lat="42.84601994" lon="13.52820999">
        <ele>186.00000</ele>
        <time>2024-05-13T12:28:19Z</time>
      </trkpt>
      <trkpt lat="42.84583998" lon="13.52803993">
        <ele>184.00000</ele>
        <time>2024-05-13T12:28:22Z</time>
      </trkpt>
      <trkpt lat="42.84576999" lon="13.52793993">
        <ele>186.00000</ele>
        <time>2024-05-13T12:28:24Z</time>
      </trkpt>
      <trkpt lat="42.84566991" lon="13.52779995">
        <ele>188.00000</ele>
        <time>2024-05-13T12:28:26Z</time>
      </trkpt>
      <trkpt lat="42.84554997" lon="13.52755998">
        <ele>189.00000</ele>
        <time>2024-05-13T12:28:29Z</time>
      </trkpt>
      <trkpt lat="42.84543992" lon="13.52735999">
        <ele>189.00000</ele>
        <time>2024-05-13T12:28:32Z</time>
      </trkpt>
      <trkpt lat="42.84531997" lon="13.52717994">
        <ele>189.00000</ele>
        <time>2024-05-13T12:28:35Z</time>
      </trkpt>
      <trkpt lat="42.84509995" lon="13.52697995">
        <ele>189.00000</ele>
        <time>2024-05-13T12:28:39Z</time>
      </trkpt>
      <trkpt lat="42.84488000" lon="13.52681499">
        <ele>190.00000</ele>
        <time>2024-05-13T12:28:43Z</time>
      </trkpt>
      <trkpt lat="42.84465998" lon="13.52664995">
        <ele>191.00000</ele>
        <time>2024-05-13T12:28:48Z</time>
      </trkpt>
      <trkpt lat="42.84441992" lon="13.52647997">
        <ele>191.00000</ele>
        <time>2024-05-13T12:28:52Z</time>
      </trkpt>
      <trkpt lat="42.84419998" lon="13.52630998">
        <ele>194.00000</ele>
        <time>2024-05-13T12:28:56Z</time>
      </trkpt>
      <trkpt lat="42.84397996" lon="13.52613992">
        <ele>193.00000</ele>
        <time>2024-05-13T12:29:00Z</time>
      </trkpt>
      <trkpt lat="42.84383000" lon="13.52601989">
        <ele>191.00000</ele>
        <time>2024-05-13T12:29:03Z</time>
      </trkpt>
      <trkpt lat="42.84367997" lon="13.52589994">
        <ele>190.00000</ele>
        <time>2024-05-13T12:29:06Z</time>
      </trkpt>
      <trkpt lat="42.84351996" lon="13.52575996">
        <ele>190.00000</ele>
        <time>2024-05-13T12:29:09Z</time>
      </trkpt>
      <trkpt lat="42.84337989" lon="13.52562996">
        <ele>192.00000</ele>
        <time>2024-05-13T12:29:11Z</time>
      </trkpt>
      <trkpt lat="42.84323992" lon="13.52549996">
        <ele>196.00000</ele>
        <time>2024-05-13T12:29:14Z</time>
      </trkpt>
      <trkpt lat="42.84310991" lon="13.52536492">
        <ele>199.00000</ele>
        <time>2024-05-13T12:29:17Z</time>
      </trkpt>
      <trkpt lat="42.84297999" lon="13.52522998">
        <ele>199.00000</ele>
        <time>2024-05-13T12:29:19Z</time>
      </trkpt>
      <trkpt lat="42.84287991" lon="13.52513995">
        <ele>198.00000</ele>
        <time>2024-05-13T12:29:21Z</time>
      </trkpt>
      <trkpt lat="42.84276994" lon="13.52501993">
        <ele>195.00000</ele>
        <time>2024-05-13T12:29:23Z</time>
      </trkpt>
      <trkpt lat="42.84266995" lon="13.52491993">
        <ele>193.00000</ele>
        <time>2024-05-13T12:29:25Z</time>
      </trkpt>
      <trkpt lat="42.84255998" lon="13.52483997">
        <ele>192.00000</ele>
        <time>2024-05-13T12:29:27Z</time>
      </trkpt>
      <trkpt lat="42.84234993" lon="13.52475992">
        <ele>195.00000</ele>
        <time>2024-05-13T12:29:31Z</time>
      </trkpt>
      <trkpt lat="42.84219997" lon="13.52468498">
        <ele>198.00000</ele>
        <time>2024-05-13T12:29:33Z</time>
      </trkpt>
      <trkpt lat="42.84204994" lon="13.52460997">
        <ele>201.00000</ele>
        <time>2024-05-13T12:29:36Z</time>
      </trkpt>
      <trkpt lat="42.84191993" lon="13.52450997">
        <ele>201.00000</ele>
        <time>2024-05-13T12:29:38Z</time>
      </trkpt>
      <trkpt lat="42.84189999" lon="13.52447996">
        <ele>201.00000</ele>
        <time>2024-05-13T12:29:39Z</time>
      </trkpt>
      <trkpt lat="42.84186998" lon="13.52443998">
        <ele>200.00000</ele>
        <time>2024-05-13T12:29:39Z</time>
      </trkpt>
      <trkpt lat="42.84178993" lon="13.52430998">
        <ele>199.00000</ele>
        <time>2024-05-13T12:29:41Z</time>
      </trkpt>
      <trkpt lat="42.84172992" lon="13.52415994">
        <ele>198.00000</ele>
        <time>2024-05-13T12:29:43Z</time>
      </trkpt>
      <trkpt lat="42.84162472" lon="13.52391452">
        <ele>197.00000</ele>
        <time>2024-05-13T12:29:47Z</time>
      </trkpt>
      <trkpt lat="42.84151995" lon="13.52366994">
        <ele>197.00000</ele>
        <time>2024-05-13T12:29:50Z</time>
      </trkpt>
      <trkpt lat="42.84144996" lon="13.52350993">
        <ele>198.00000</ele>
        <time>2024-05-13T12:29:52Z</time>
      </trkpt>
      <trkpt lat="42.84137997" lon="13.52338998">
        <ele>199.00000</ele>
        <time>2024-05-13T12:29:54Z</time>
      </trkpt>
      <trkpt lat="42.84125994" lon="13.52324992">
        <ele>200.00000</ele>
        <time>2024-05-13T12:29:57Z</time>
      </trkpt>
      <trkpt lat="42.84119993" lon="13.52320994">
        <ele>200.00000</ele>
        <time>2024-05-13T12:29:58Z</time>
      </trkpt>
      <trkpt lat="42.84111997" lon="13.52314992">
        <ele>199.00000</ele>
        <time>2024-05-13T12:29:59Z</time>
      </trkpt>
      <trkpt lat="42.84103992" lon="13.52309997">
        <ele>199.00000</ele>
        <time>2024-05-13T12:30:01Z</time>
      </trkpt>
      <trkpt lat="42.84093992" lon="13.52306996">
        <ele>200.00000</ele>
        <time>2024-05-13T12:30:02Z</time>
      </trkpt>
      <trkpt lat="42.84066525" lon="13.52304490">
        <ele>200.00000</ele>
        <time>2024-05-13T12:30:07Z</time>
      </trkpt>
      <trkpt lat="42.84038999" lon="13.52301992">
        <ele>199.00000</ele>
        <time>2024-05-13T12:30:11Z</time>
      </trkpt>
      <trkpt lat="42.84010525" lon="13.52301992">
        <ele>197.00000</ele>
        <time>2024-05-13T12:30:16Z</time>
      </trkpt>
      <trkpt lat="42.83981993" lon="13.52301992">
        <ele>199.00000</ele>
        <time>2024-05-13T12:30:20Z</time>
      </trkpt>
      <trkpt lat="42.83977995" lon="13.52301992">
        <ele>199.00000</ele>
        <time>2024-05-13T12:30:21Z</time>
      </trkpt>
      <trkpt lat="42.83956018" lon="13.52300492">
        <ele>202.00000</ele>
        <time>2024-05-13T12:30:24Z</time>
      </trkpt>
      <trkpt lat="42.83933999" lon="13.52298991">
        <ele>204.00000</ele>
        <time>2024-05-13T12:30:28Z</time>
      </trkpt>
      <trkpt lat="42.83919992" lon="13.52293996">
        <ele>205.00000</ele>
        <time>2024-05-13T12:30:30Z</time>
      </trkpt>
      <trkpt lat="42.83907998" lon="13.52284993">
        <ele>206.00000</ele>
        <time>2024-05-13T12:30:32Z</time>
      </trkpt>
      <trkpt lat="42.83887479" lon="13.52259479">
        <ele>206.00000</ele>
        <time>2024-05-13T12:30:37Z</time>
      </trkpt>
      <trkpt lat="42.83866994" lon="13.52233998">
        <ele>206.00000</ele>
        <time>2024-05-13T12:30:41Z</time>
      </trkpt>
      <trkpt lat="42.83854982" lon="13.52216480">
        <ele>206.00000</ele>
        <time>2024-05-13T12:30:44Z</time>
      </trkpt>
      <trkpt lat="42.83842996" lon="13.52198995">
        <ele>206.00000</ele>
        <time>2024-05-13T12:30:47Z</time>
      </trkpt>
      <trkpt lat="42.83833994" lon="13.52185995">
        <ele>205.00000</ele>
        <time>2024-05-13T12:30:49Z</time>
      </trkpt>
      <trkpt lat="42.83824992" lon="13.52168996">
        <ele>206.00000</ele>
        <time>2024-05-13T12:30:51Z</time>
      </trkpt>
      <trkpt lat="42.83819996" lon="13.52158997">
        <ele>207.00000</ele>
        <time>2024-05-13T12:30:53Z</time>
      </trkpt>
      <trkpt lat="42.83812997" lon="13.52138997">
        <ele>209.00000</ele>
        <time>2024-05-13T12:30:56Z</time>
      </trkpt>
      <trkpt lat="42.83807993" lon="13.52116995">
        <ele>210.00000</ele>
        <time>2024-05-13T12:30:58Z</time>
      </trkpt>
      <trkpt lat="42.83802998" lon="13.52095998">
        <ele>211.00000</ele>
        <time>2024-05-13T12:31:01Z</time>
      </trkpt>
      <trkpt lat="42.83799997" lon="13.52081992">
        <ele>212.00000</ele>
        <time>2024-05-13T12:31:03Z</time>
      </trkpt>
      <trkpt lat="42.83796996" lon="13.52075999">
        <ele>213.00000</ele>
        <time>2024-05-13T12:31:03Z</time>
      </trkpt>
      <trkpt lat="42.83789997" lon="13.52068992">
        <ele>214.00000</ele>
        <time>2024-05-13T12:31:05Z</time>
      </trkpt>
      <trkpt lat="42.83782999" lon="13.52062999">
        <ele>216.00000</ele>
        <time>2024-05-13T12:31:06Z</time>
      </trkpt>
      <trkpt lat="42.83763997" lon="13.52054994">
        <ele>218.00000</ele>
        <time>2024-05-13T12:31:09Z</time>
      </trkpt>
      <trkpt lat="42.83743998" lon="13.52048993">
        <ele>220.00000</ele>
        <time>2024-05-13T12:31:13Z</time>
      </trkpt>
      <trkpt lat="42.83730997" lon="13.52042991">
        <ele>221.00000</ele>
        <time>2024-05-13T12:31:15Z</time>
      </trkpt>
      <trkpt lat="42.83717997" lon="13.52030997">
        <ele>221.00000</ele>
        <time>2024-05-13T12:31:17Z</time>
      </trkpt>
      <trkpt lat="42.83704997" lon="13.52013998">
        <ele>220.00000</ele>
        <time>2024-05-13T12:31:20Z</time>
      </trkpt>
      <trkpt lat="42.83689993" lon="13.51993999">
        <ele>219.00000</ele>
        <time>2024-05-13T12:31:24Z</time>
      </trkpt>
      <trkpt lat="42.83674998" lon="13.51978995">
        <ele>217.00000</ele>
        <time>2024-05-13T12:31:27Z</time>
      </trkpt>
      <trkpt lat="42.83663992" lon="13.51970999">
        <ele>217.00000</ele>
        <time>2024-05-13T12:31:28Z</time>
      </trkpt>
      <trkpt lat="42.83645996" lon="13.51965995">
        <ele>218.00000</ele>
        <time>2024-05-13T12:31:31Z</time>
      </trkpt>
      <trkpt lat="42.83630993" lon="13.51963992">
        <ele>219.00000</ele>
        <time>2024-05-13T12:31:34Z</time>
      </trkpt>
      <trkpt lat="42.83615997" lon="13.51963992">
        <ele>220.00000</ele>
        <time>2024-05-13T12:31:36Z</time>
      </trkpt>
      <trkpt lat="42.83600994" lon="13.51964998">
        <ele>222.00000</ele>
        <time>2024-05-13T12:31:39Z</time>
      </trkpt>
      <trkpt lat="42.83584993" lon="13.51963992">
        <ele>224.00000</ele>
        <time>2024-05-13T12:31:41Z</time>
      </trkpt>
      <trkpt lat="42.83571993" lon="13.51960999">
        <ele>226.00000</ele>
        <time>2024-05-13T12:31:43Z</time>
      </trkpt>
      <trkpt lat="42.83557995" lon="13.51953992">
        <ele>226.00000</ele>
        <time>2024-05-13T12:31:46Z</time>
      </trkpt>
      <trkpt lat="42.83536998" lon="13.51939994">
        <ele>226.00000</ele>
        <time>2024-05-13T12:31:49Z</time>
      </trkpt>
      <trkpt lat="42.83525993" lon="13.51929995">
        <ele>225.00000</ele>
        <time>2024-05-13T12:31:52Z</time>
      </trkpt>
      <trkpt lat="42.83516999" lon="13.51919995">
        <ele>224.00000</ele>
        <time>2024-05-13T12:31:53Z</time>
      </trkpt>
      <trkpt lat="42.83498995" lon="13.51894992">
        <ele>222.00000</ele>
        <time>2024-05-13T12:31:58Z</time>
      </trkpt>
      <trkpt lat="42.83484485" lon="13.51876476">
        <ele>221.00000</ele>
        <time>2024-05-13T12:32:01Z</time>
      </trkpt>
      <trkpt lat="42.83469993" lon="13.51857994">
        <ele>221.00000</ele>
        <time>2024-05-13T12:32:04Z</time>
      </trkpt>
      <trkpt lat="42.83468996" lon="13.51854993">
        <ele>220.00000</ele>
        <time>2024-05-13T12:32:04Z</time>
      </trkpt>
      <trkpt lat="42.83459994" lon="13.51840996">
        <ele>220.00000</ele>
        <time>2024-05-13T12:32:06Z</time>
      </trkpt>
      <trkpt lat="42.83450991" lon="13.51829999">
        <ele>220.00000</ele>
        <time>2024-05-13T12:32:08Z</time>
      </trkpt>
      <trkpt lat="42.83441998" lon="13.51819999">
        <ele>220.00000</ele>
        <time>2024-05-13T12:32:10Z</time>
      </trkpt>
      <trkpt lat="42.83429995" lon="13.51810997">
        <ele>220.00000</ele>
        <time>2024-05-13T12:32:12Z</time>
      </trkpt>
      <trkpt lat="42.83421998" lon="13.51804995">
        <ele>219.00000</ele>
        <time>2024-05-13T12:32:14Z</time>
      </trkpt>
      <trkpt lat="42.83401999" lon="13.51794996">
        <ele>219.00000</ele>
        <time>2024-05-13T12:32:17Z</time>
      </trkpt>
      <trkpt lat="42.83383995" lon="13.51784996">
        <ele>217.00000</ele>
        <time>2024-05-13T12:32:20Z</time>
      </trkpt>
      <trkpt lat="42.83365001" lon="13.51774494">
        <ele>216.00000</ele>
        <time>2024-05-13T12:32:24Z</time>
      </trkpt>
      <trkpt lat="42.83345991" lon="13.51763991">
        <ele>216.00000</ele>
        <time>2024-05-13T12:32:27Z</time>
      </trkpt>
      <trkpt lat="42.83317510" lon="13.51748996">
        <ele>218.00000</ele>
        <time>2024-05-13T12:32:32Z</time>
      </trkpt>
      <trkpt lat="42.83288994" lon="13.51733992">
        <ele>219.00000</ele>
        <time>2024-05-13T12:32:37Z</time>
      </trkpt>
      <trkpt lat="42.83264997" lon="13.51714999">
        <ele>216.00000</ele>
        <time>2024-05-13T12:32:41Z</time>
      </trkpt>
      <trkpt lat="42.83242492" lon="13.51693332">
        <ele>215.00000</ele>
        <time>2024-05-13T12:32:46Z</time>
      </trkpt>
      <trkpt lat="42.83219994" lon="13.51671664">
        <ele>213.00000</ele>
        <time>2024-05-13T12:32:50Z</time>
      </trkpt>
      <trkpt lat="42.83197497" lon="13.51649997">
        <ele>209.00000</ele>
        <time>2024-05-13T12:32:54Z</time>
      </trkpt>
      <trkpt lat="42.83174992" lon="13.51628330">
        <ele>206.00000</ele>
        <time>2024-05-13T12:32:59Z</time>
      </trkpt>
      <trkpt lat="42.83152495" lon="13.51606663">
        <ele>204.00000</ele>
        <time>2024-05-13T12:33:03Z</time>
      </trkpt>
      <trkpt lat="42.83129998" lon="13.51584996">
        <ele>206.00000</ele>
        <time>2024-05-13T12:33:08Z</time>
      </trkpt>
      <trkpt lat="42.83111994" lon="13.51558995">
        <ele>208.00000</ele>
        <time>2024-05-13T12:33:12Z</time>
      </trkpt>
      <trkpt lat="42.83107995" lon="13.51551996">
        <ele>208.00000</ele>
        <time>2024-05-13T12:33:13Z</time>
      </trkpt>
      <trkpt lat="42.83105992" lon="13.51548995">
        <ele>208.00000</ele>
        <time>2024-05-13T12:33:13Z</time>
      </trkpt>
      <trkpt lat="42.83091994" lon="13.51512995">
        <ele>207.00000</ele>
        <time>2024-05-13T12:33:18Z</time>
      </trkpt>
      <trkpt lat="42.83081718" lon="13.51478680">
        <ele>207.00000</ele>
        <time>2024-05-13T12:33:23Z</time>
      </trkpt>
      <trkpt lat="42.83071450" lon="13.51444364">
        <ele>207.00000</ele>
        <time>2024-05-13T12:33:27Z</time>
      </trkpt>
      <trkpt lat="42.83061183" lon="13.51410049">
        <ele>205.00000</ele>
        <time>2024-05-13T12:33:31Z</time>
      </trkpt>
      <trkpt lat="42.83050999" lon="13.51375993">
        <ele>204.00000</ele>
        <time>2024-05-13T12:33:36Z</time>
      </trkpt>
      <trkpt lat="42.83049993" lon="13.51373998">
        <ele>204.00000</ele>
        <time>2024-05-13T12:33:36Z</time>
      </trkpt>
      <trkpt lat="42.83043472" lon="13.51343924">
        <ele>203.00000</ele>
        <time>2024-05-13T12:33:40Z</time>
      </trkpt>
      <trkpt lat="42.83036992" lon="13.51313992">
        <ele>202.00000</ele>
        <time>2024-05-13T12:33:43Z</time>
      </trkpt>
      <trkpt lat="42.83034997" lon="13.51303992">
        <ele>202.00000</ele>
        <time>2024-05-13T12:33:44Z</time>
      </trkpt>
      <trkpt lat="42.83028996" lon="13.51277992">
        <ele>201.00000</ele>
        <time>2024-05-13T12:33:48Z</time>
      </trkpt>
      <trkpt lat="42.83024981" lon="13.51245914">
        <ele>200.00000</ele>
        <time>2024-05-13T12:33:52Z</time>
      </trkpt>
      <trkpt lat="42.83020991" lon="13.51213996">
        <ele>198.00000</ele>
        <time>2024-05-13T12:33:55Z</time>
      </trkpt>
      <trkpt lat="42.83018996" lon="13.51190996">
        <ele>195.00000</ele>
        <time>2024-05-13T12:33:58Z</time>
      </trkpt>
      <trkpt lat="42.83016985" lon="13.51163922">
        <ele>193.00000</ele>
        <time>2024-05-13T12:34:01Z</time>
      </trkpt>
      <trkpt lat="42.83014998" lon="13.51136991">
        <ele>193.00000</ele>
        <time>2024-05-13T12:34:04Z</time>
      </trkpt>
      <trkpt lat="42.83011998" lon="13.51116992">
        <ele>197.00000</ele>
        <time>2024-05-13T12:34:07Z</time>
      </trkpt>
      <trkpt lat="42.83010992" lon="13.51108996">
        <ele>199.00000</ele>
        <time>2024-05-13T12:34:08Z</time>
      </trkpt>
      <trkpt lat="42.83008997" lon="13.51101997">
        <ele>200.00000</ele>
        <time>2024-05-13T12:34:09Z</time>
      </trkpt>
      <trkpt lat="42.83005996" lon="13.51090991">
        <ele>202.00000</ele>
        <time>2024-05-13T12:34:10Z</time>
      </trkpt>
      <trkpt lat="42.82987992" lon="13.51080992">
        <ele>201.00000</ele>
        <time>2024-05-13T12:34:13Z</time>
      </trkpt>
      <trkpt lat="42.82966006" lon="13.51071001">
        <ele>200.00000</ele>
        <time>2024-05-13T12:34:17Z</time>
      </trkpt>
      <trkpt lat="42.82943995" lon="13.51060993">
        <ele>201.00000</ele>
        <time>2024-05-13T12:34:21Z</time>
      </trkpt>
      <trkpt lat="42.82916016" lon="13.51051504">
        <ele>200.00000</ele>
        <time>2024-05-13T12:34:25Z</time>
      </trkpt>
      <trkpt lat="42.82887996" lon="13.51041999">
        <ele>200.00000</ele>
        <time>2024-05-13T12:34:30Z</time>
      </trkpt>
      <trkpt lat="42.82864015" lon="13.51034665">
        <ele>202.00000</ele>
        <time>2024-05-13T12:34:34Z</time>
      </trkpt>
      <trkpt lat="42.82840043" lon="13.51027339">
        <ele>202.00000</ele>
        <time>2024-05-13T12:34:38Z</time>
      </trkpt>
      <trkpt lat="42.82815995" lon="13.51019997">
        <ele>204.00000</ele>
        <time>2024-05-13T12:34:42Z</time>
      </trkpt>
      <trkpt lat="42.82790221" lon="13.51011003">
        <ele>204.00000</ele>
        <time>2024-05-13T12:34:46Z</time>
      </trkpt>
      <trkpt lat="42.82764446" lon="13.51002009">
        <ele>203.00000</ele>
        <time>2024-05-13T12:34:50Z</time>
      </trkpt>
      <trkpt lat="42.82738672" lon="13.50993015">
        <ele>203.00000</ele>
        <time>2024-05-13T12:34:54Z</time>
      </trkpt>
      <trkpt lat="42.82712898" lon="13.50984030">
        <ele>204.00000</ele>
        <time>2024-05-13T12:34:59Z</time>
      </trkpt>
      <trkpt lat="42.82686998" lon="13.50974994">
        <ele>207.00000</ele>
        <time>2024-05-13T12:35:03Z</time>
      </trkpt>
      <trkpt lat="42.82677995" lon="13.50971993">
        <ele>207.00000</ele>
        <time>2024-05-13T12:35:04Z</time>
      </trkpt>
      <trkpt lat="42.82647737" lon="13.50961432">
        <ele>206.00000</ele>
        <time>2024-05-13T12:35:09Z</time>
      </trkpt>
      <trkpt lat="42.82617478" lon="13.50950871">
        <ele>205.00000</ele>
        <time>2024-05-13T12:35:14Z</time>
      </trkpt>
      <trkpt lat="42.82587228" lon="13.50940310">
        <ele>208.00000</ele>
        <time>2024-05-13T12:35:19Z</time>
      </trkpt>
      <trkpt lat="42.82556969" lon="13.50929749">
        <ele>213.00000</ele>
        <time>2024-05-13T12:35:24Z</time>
      </trkpt>
      <trkpt lat="42.82526711" lon="13.50919188">
        <ele>211.00000</ele>
        <time>2024-05-13T12:35:29Z</time>
      </trkpt>
      <trkpt lat="42.82496460" lon="13.50908626">
        <ele>207.00000</ele>
        <time>2024-05-13T12:35:34Z</time>
      </trkpt>
      <trkpt lat="42.82465992" lon="13.50897998">
        <ele>207.00000</ele>
        <time>2024-05-13T12:35:39Z</time>
      </trkpt>
      <trkpt lat="42.82447996" lon="13.50890999">
        <ele>207.00000</ele>
        <time>2024-05-13T12:35:42Z</time>
      </trkpt>
      <trkpt lat="42.82430998" lon="13.50880991">
        <ele>208.00000</ele>
        <time>2024-05-13T12:35:45Z</time>
      </trkpt>
      <trkpt lat="42.82408995" lon="13.50873992">
        <ele>208.00000</ele>
        <time>2024-05-13T12:35:49Z</time>
      </trkpt>
      <trkpt lat="42.82390999" lon="13.50867999">
        <ele>207.00000</ele>
        <time>2024-05-13T12:35:52Z</time>
      </trkpt>
      <trkpt lat="42.82380999" lon="13.50866993">
        <ele>206.00000</ele>
        <time>2024-05-13T12:35:54Z</time>
      </trkpt>
      <trkpt lat="42.82371997" lon="13.50864998">
        <ele>205.00000</ele>
        <time>2024-05-13T12:35:55Z</time>
      </trkpt>
      <trkpt lat="42.82360992" lon="13.50860992">
        <ele>205.00000</ele>
        <time>2024-05-13T12:35:57Z</time>
      </trkpt>
      <trkpt lat="42.82334991" lon="13.50851998">
        <ele>205.00000</ele>
        <time>2024-05-13T12:36:01Z</time>
      </trkpt>
      <trkpt lat="42.82315009" lon="13.50844999">
        <ele>206.00000</ele>
        <time>2024-05-13T12:36:04Z</time>
      </trkpt>
      <trkpt lat="42.82294993" lon="13.50837992">
        <ele>206.00000</ele>
        <time>2024-05-13T12:36:08Z</time>
      </trkpt>
      <trkpt lat="42.82279008" lon="13.50832493">
        <ele>207.00000</ele>
        <time>2024-05-13T12:36:10Z</time>
      </trkpt>
      <trkpt lat="42.82262999" lon="13.50826995">
        <ele>207.00000</ele>
        <time>2024-05-13T12:36:13Z</time>
      </trkpt>
      <trkpt lat="42.82235993" lon="13.50815998">
        <ele>209.00000</ele>
        <time>2024-05-13T12:36:18Z</time>
      </trkpt>
      <trkpt lat="42.82234995" lon="13.50814992">
        <ele>209.00000</ele>
        <time>2024-05-13T12:36:18Z</time>
      </trkpt>
      <trkpt lat="42.82234995" lon="13.50813995">
        <ele>209.00000</ele>
        <time>2024-05-13T12:36:18Z</time>
      </trkpt>
      <trkpt lat="42.82233998" lon="13.50812997">
        <ele>209.00000</ele>
        <time>2024-05-13T12:36:18Z</time>
      </trkpt>
      <trkpt lat="42.82230997" lon="13.50810994">
        <ele>209.00000</ele>
        <time>2024-05-13T12:36:19Z</time>
      </trkpt>
      <trkpt lat="42.82222992" lon="13.50805998">
        <ele>209.00000</ele>
        <time>2024-05-13T12:36:20Z</time>
      </trkpt>
      <trkpt lat="42.82220997" lon="13.50802998">
        <ele>209.00000</ele>
        <time>2024-05-13T12:36:20Z</time>
      </trkpt>
      <trkpt lat="42.82214996" lon="13.50796996">
        <ele>209.00000</ele>
        <time>2024-05-13T12:36:22Z</time>
      </trkpt>
      <trkpt lat="42.82210998" lon="13.50790995">
        <ele>209.00000</ele>
        <time>2024-05-13T12:36:23Z</time>
      </trkpt>
      <trkpt lat="42.82205994" lon="13.50778992">
        <ele>209.00000</ele>
        <time>2024-05-13T12:36:24Z</time>
      </trkpt>
      <trkpt lat="42.82201996" lon="13.50764994">
        <ele>208.00000</ele>
        <time>2024-05-13T12:36:26Z</time>
      </trkpt>
      <trkpt lat="42.82195994" lon="13.50739999">
        <ele>207.00000</ele>
        <time>2024-05-13T12:36:29Z</time>
      </trkpt>
      <trkpt lat="42.82190999" lon="13.50716999">
        <ele>207.00000</ele>
        <time>2024-05-13T12:36:32Z</time>
      </trkpt>
      <trkpt lat="42.82183974" lon="13.50684595">
        <ele>209.00000</ele>
        <time>2024-05-13T12:36:36Z</time>
      </trkpt>
      <trkpt lat="42.82176959" lon="13.50652190">
        <ele>212.00000</ele>
        <time>2024-05-13T12:36:40Z</time>
      </trkpt>
      <trkpt lat="42.82169993" lon="13.50619995">
        <ele>214.00000</ele>
        <time>2024-05-13T12:36:44Z</time>
      </trkpt>
      <trkpt lat="42.82167487" lon="13.50596937">
        <ele>215.00000</ele>
        <time>2024-05-13T12:36:47Z</time>
      </trkpt>
      <trkpt lat="42.82164998" lon="13.50573996">
        <ele>217.00000</ele>
        <time>2024-05-13T12:36:49Z</time>
      </trkpt>
      <trkpt lat="42.82158996" lon="13.50536998">
        <ele>219.00000</ele>
        <time>2024-05-13T12:36:54Z</time>
      </trkpt>
      <trkpt lat="42.82157999" lon="13.50507996">
        <ele>220.00000</ele>
        <time>2024-05-13T12:36:57Z</time>
      </trkpt>
      <trkpt lat="42.82152316" lon="13.50465894">
        <ele>223.00000</ele>
        <time>2024-05-13T12:37:02Z</time>
      </trkpt>
      <trkpt lat="42.82146633" lon="13.50423800">
        <ele>220.00000</ele>
        <time>2024-05-13T12:37:07Z</time>
      </trkpt>
      <trkpt lat="42.82140992" lon="13.50381991">
        <ele>221.00000</ele>
        <time>2024-05-13T12:37:12Z</time>
      </trkpt>
      <trkpt lat="42.82138997" lon="13.50359997">
        <ele>224.00000</ele>
        <time>2024-05-13T12:37:15Z</time>
      </trkpt>
      <trkpt lat="42.82135996" lon="13.50335991">
        <ele>228.00000</ele>
        <time>2024-05-13T12:37:18Z</time>
      </trkpt>
      <trkpt lat="42.82134999" lon="13.50320996">
        <ele>230.00000</ele>
        <time>2024-05-13T12:37:20Z</time>
      </trkpt>
      <trkpt lat="42.82135996" lon="13.50306998">
        <ele>231.00000</ele>
        <time>2024-05-13T12:37:21Z</time>
      </trkpt>
      <trkpt lat="42.82138997" lon="13.50283998">
        <ele>234.00000</ele>
        <time>2024-05-13T12:37:24Z</time>
      </trkpt>
      <trkpt lat="42.82139995" lon="13.50276991">
        <ele>235.00000</ele>
        <time>2024-05-13T12:37:25Z</time>
      </trkpt>
      <trkpt lat="42.82144999" lon="13.50264997">
        <ele>234.00000</ele>
        <time>2024-05-13T12:37:26Z</time>
      </trkpt>
      <trkpt lat="42.82149994" lon="13.50251996">
        <ele>233.00000</ele>
        <time>2024-05-13T12:37:28Z</time>
      </trkpt>
      <trkpt lat="42.82155996" lon="13.50238996">
        <ele>230.00000</ele>
        <time>2024-05-13T12:37:30Z</time>
      </trkpt>
      <trkpt lat="42.82160991" lon="13.50230991">
        <ele>227.00000</ele>
        <time>2024-05-13T12:37:31Z</time>
      </trkpt>
      <trkpt lat="42.82167999" lon="13.50220992">
        <ele>226.00000</ele>
        <time>2024-05-13T12:37:33Z</time>
      </trkpt>
      <trkpt lat="42.82180999" lon="13.50210992">
        <ele>225.00000</ele>
        <time>2024-05-13T12:37:35Z</time>
      </trkpt>
      <trkpt lat="42.82187998" lon="13.50204999">
        <ele>226.00000</ele>
        <time>2024-05-13T12:37:36Z</time>
      </trkpt>
      <trkpt lat="42.82206991" lon="13.50193994">
        <ele>227.00000</ele>
        <time>2024-05-13T12:37:40Z</time>
      </trkpt>
      <trkpt lat="42.82228994" lon="13.50180993">
        <ele>229.00000</ele>
        <time>2024-05-13T12:37:44Z</time>
      </trkpt>
      <trkpt lat="42.82249999" lon="13.50167993">
        <ele>226.00000</ele>
        <time>2024-05-13T12:37:47Z</time>
      </trkpt>
      <trkpt lat="42.82271993" lon="13.50152998">
        <ele>223.00000</ele>
        <time>2024-05-13T12:37:51Z</time>
      </trkpt>
      <trkpt lat="42.82288983" lon="13.50138992">
        <ele>221.00000</ele>
        <time>2024-05-13T12:37:54Z</time>
      </trkpt>
      <trkpt lat="42.82305998" lon="13.50124994">
        <ele>220.00000</ele>
        <time>2024-05-13T12:37:58Z</time>
      </trkpt>
      <trkpt lat="42.82330993" lon="13.50102991">
        <ele>219.00000</ele>
        <time>2024-05-13T12:38:02Z</time>
      </trkpt>
      <trkpt lat="42.82346994" lon="13.50091994">
        <ele>219.00000</ele>
        <time>2024-05-13T12:38:05Z</time>
      </trkpt>
      <trkpt lat="42.82361998" lon="13.50081995">
        <ele>219.00000</ele>
        <time>2024-05-13T12:38:08Z</time>
      </trkpt>
      <trkpt lat="42.82378996" lon="13.50071995">
        <ele>217.00000</ele>
        <time>2024-05-13T12:38:11Z</time>
      </trkpt>
      <trkpt lat="42.82387998" lon="13.50065994">
        <ele>216.00000</ele>
        <time>2024-05-13T12:38:12Z</time>
      </trkpt>
      <trkpt lat="42.82397998" lon="13.50058995">
        <ele>216.00000</ele>
        <time>2024-05-13T12:38:14Z</time>
      </trkpt>
      <trkpt lat="42.82404997" lon="13.50051996">
        <ele>216.00000</ele>
        <time>2024-05-13T12:38:16Z</time>
      </trkpt>
      <trkpt lat="42.82410998" lon="13.50043999">
        <ele>216.00000</ele>
        <time>2024-05-13T12:38:17Z</time>
      </trkpt>
      <trkpt lat="42.82417997" lon="13.50031997">
        <ele>215.00000</ele>
        <time>2024-05-13T12:38:19Z</time>
      </trkpt>
      <trkpt lat="42.82421995" lon="13.50023992">
        <ele>215.00000</ele>
        <time>2024-05-13T12:38:20Z</time>
      </trkpt>
      <trkpt lat="42.82423999" lon="13.50018996">
        <ele>215.00000</ele>
        <time>2024-05-13T12:38:21Z</time>
      </trkpt>
      <trkpt lat="42.82436999" lon="13.49983993">
        <ele>215.00000</ele>
        <time>2024-05-13T12:38:25Z</time>
      </trkpt>
      <trkpt lat="42.82446010" lon="13.49959451">
        <ele>215.00000</ele>
        <time>2024-05-13T12:38:28Z</time>
      </trkpt>
      <trkpt lat="42.82454995" lon="13.49934993">
        <ele>216.00000</ele>
        <time>2024-05-13T12:38:32Z</time>
      </trkpt>
      <trkpt lat="42.82462505" lon="13.49914960">
        <ele>215.00000</ele>
        <time>2024-05-13T12:38:34Z</time>
      </trkpt>
      <trkpt lat="42.82469999" lon="13.49894994">
        <ele>214.00000</ele>
        <time>2024-05-13T12:38:37Z</time>
      </trkpt>
      <trkpt lat="42.82476997" lon="13.49879999">
        <ele>214.00000</ele>
        <time>2024-05-13T12:38:39Z</time>
      </trkpt>
      <trkpt lat="42.82483996" lon="13.49865993">
        <ele>216.00000</ele>
        <time>2024-05-13T12:38:41Z</time>
      </trkpt>
      <trkpt lat="42.82496997" lon="13.49846991">
        <ele>219.00000</ele>
        <time>2024-05-13T12:38:44Z</time>
      </trkpt>
      <trkpt lat="42.82510994" lon="13.49827998">
        <ele>222.00000</ele>
        <time>2024-05-13T12:38:47Z</time>
      </trkpt>
      <trkpt lat="42.82525001" lon="13.49810488">
        <ele>224.00000</ele>
        <time>2024-05-13T12:38:50Z</time>
      </trkpt>
      <trkpt lat="42.82538998" lon="13.49792995">
        <ele>224.00000</ele>
        <time>2024-05-13T12:38:53Z</time>
      </trkpt>
      <trkpt lat="42.82554002" lon="13.49771973">
        <ele>224.00000</ele>
        <time>2024-05-13T12:38:57Z</time>
      </trkpt>
      <trkpt lat="42.82568997" lon="13.49750993">
        <ele>225.00000</ele>
        <time>2024-05-13T12:39:00Z</time>
      </trkpt>
      <trkpt lat="42.82573993" lon="13.49745998">
        <ele>225.00000</ele>
        <time>2024-05-13T12:39:01Z</time>
      </trkpt>
      <trkpt lat="42.82591494" lon="13.49724490">
        <ele>226.00000</ele>
        <time>2024-05-13T12:39:05Z</time>
      </trkpt>
      <trkpt lat="42.82608996" lon="13.49702998">
        <ele>227.00000</ele>
        <time>2024-05-13T12:39:09Z</time>
      </trkpt>
      <trkpt lat="42.82625491" lon="13.49688992">
        <ele>230.00000</ele>
        <time>2024-05-13T12:39:12Z</time>
      </trkpt>
      <trkpt lat="42.82641995" lon="13.49674995">
        <ele>233.00000</ele>
        <time>2024-05-13T12:39:15Z</time>
      </trkpt>
      <trkpt lat="42.82663998" lon="13.49660997">
        <ele>234.00000</ele>
        <time>2024-05-13T12:39:19Z</time>
      </trkpt>
      <trkpt lat="42.82688993" lon="13.49649991">
        <ele>232.00000</ele>
        <time>2024-05-13T12:39:23Z</time>
      </trkpt>
      <trkpt lat="42.82712470" lon="13.49640000">
        <ele>230.00000</ele>
        <time>2024-05-13T12:39:27Z</time>
      </trkpt>
      <trkpt lat="42.82735998" lon="13.49629992">
        <ele>230.00000</ele>
        <time>2024-05-13T12:39:31Z</time>
      </trkpt>
      <trkpt lat="42.82765997" lon="13.49617998">
        <ele>228.00000</ele>
        <time>2024-05-13T12:39:36Z</time>
      </trkpt>
      <trkpt lat="42.82781478" lon="13.49613002">
        <ele>227.00000</ele>
        <time>2024-05-13T12:39:39Z</time>
      </trkpt>
      <trkpt lat="42.82796993" lon="13.49607998">
        <ele>228.00000</ele>
        <time>2024-05-13T12:39:41Z</time>
      </trkpt>
      <trkpt lat="42.82818996" lon="13.49603991">
        <ele>227.00000</ele>
        <time>2024-05-13T12:39:45Z</time>
      </trkpt>
      <trkpt lat="42.82842993" lon="13.49599993">
        <ele>226.00000</ele>
        <time>2024-05-13T12:39:49Z</time>
      </trkpt>
      <trkpt lat="42.82865465" lon="13.49601485">
        <ele>225.00000</ele>
        <time>2024-05-13T12:39:52Z</time>
      </trkpt>
      <trkpt lat="42.82887996" lon="13.49602994">
        <ele>225.00000</ele>
        <time>2024-05-13T12:39:56Z</time>
      </trkpt>
      <trkpt lat="42.82917995" lon="13.49603991">
        <ele>228.00000</ele>
        <time>2024-05-13T12:40:01Z</time>
      </trkpt>
      <trkpt lat="42.82935999" lon="13.49605995">
        <ele>227.00000</ele>
        <time>2024-05-13T12:40:03Z</time>
      </trkpt>
      <trkpt lat="42.82954473" lon="13.49607990">
        <ele>227.00000</ele>
        <time>2024-05-13T12:40:06Z</time>
      </trkpt>
      <trkpt lat="42.82972997" lon="13.49609993">
        <ele>228.00000</ele>
        <time>2024-05-13T12:40:09Z</time>
      </trkpt>
      <trkpt lat="42.83000456" lon="13.49611485">
        <ele>230.00000</ele>
        <time>2024-05-13T12:40:14Z</time>
      </trkpt>
      <trkpt lat="42.83027999" lon="13.49612994">
        <ele>230.00000</ele>
        <time>2024-05-13T12:40:18Z</time>
      </trkpt>
      <trkpt lat="42.83040999" lon="13.49613999">
        <ele>230.00000</ele>
        <time>2024-05-13T12:40:20Z</time>
      </trkpt>
      <trkpt lat="42.83056975" lon="13.49611493">
        <ele>230.00000</ele>
        <time>2024-05-13T12:40:23Z</time>
      </trkpt>
      <trkpt lat="42.83072993" lon="13.49608995">
        <ele>231.00000</ele>
        <time>2024-05-13T12:40:25Z</time>
      </trkpt>
      <trkpt lat="42.83088969" lon="13.49605995">
        <ele>231.00000</ele>
        <time>2024-05-13T12:40:28Z</time>
      </trkpt>
      <trkpt lat="42.83104995" lon="13.49602994">
        <ele>231.00000</ele>
        <time>2024-05-13T12:40:31Z</time>
      </trkpt>
      <trkpt lat="42.83127467" lon="13.49597495">
        <ele>231.00000</ele>
        <time>2024-05-13T12:40:34Z</time>
      </trkpt>
      <trkpt lat="42.83149997" lon="13.49591997">
        <ele>232.00000</ele>
        <time>2024-05-13T12:40:38Z</time>
      </trkpt>
      <trkpt lat="42.83166971" lon="13.49587999">
        <ele>232.00000</ele>
        <time>2024-05-13T12:40:41Z</time>
      </trkpt>
      <trkpt lat="42.83183994" lon="13.49583992">
        <ele>232.00000</ele>
        <time>2024-05-13T12:40:43Z</time>
      </trkpt>
      <trkpt lat="42.83199995" lon="13.49575996">
        <ele>232.00000</ele>
        <time>2024-05-13T12:40:46Z</time>
      </trkpt>
      <trkpt lat="42.83217991" lon="13.49562996">
        <ele>232.00000</ele>
        <time>2024-05-13T12:40:49Z</time>
      </trkpt>
      <trkpt lat="42.83226993" lon="13.49552996">
        <ele>233.00000</ele>
        <time>2024-05-13T12:40:51Z</time>
      </trkpt>
      <trkpt lat="42.83242994" lon="13.49537992">
        <ele>233.00000</ele>
        <time>2024-05-13T12:40:54Z</time>
      </trkpt>
      <trkpt lat="42.83258995" lon="13.49519996">
        <ele>233.00000</ele>
        <time>2024-05-13T12:40:58Z</time>
      </trkpt>
      <trkpt lat="42.83275994" lon="13.49498991">
        <ele>233.00000</ele>
        <time>2024-05-13T12:41:01Z</time>
      </trkpt>
      <trkpt lat="42.83294996" lon="13.49477995">
        <ele>233.00000</ele>
        <time>2024-05-13T12:41:05Z</time>
      </trkpt>
      <trkpt lat="42.83314333" lon="13.49456319">
        <ele>232.00000</ele>
        <time>2024-05-13T12:41:09Z</time>
      </trkpt>
      <trkpt lat="42.83333670" lon="13.49434643">
        <ele>233.00000</ele>
        <time>2024-05-13T12:41:13Z</time>
      </trkpt>
      <trkpt lat="42.83352999" lon="13.49412993">
        <ele>235.00000</ele>
        <time>2024-05-13T12:41:17Z</time>
      </trkpt>
      <trkpt lat="42.83372662" lon="13.49391317">
        <ele>237.00000</ele>
        <time>2024-05-13T12:41:21Z</time>
      </trkpt>
      <trkpt lat="42.83392335" lon="13.49369642">
        <ele>240.00000</ele>
        <time>2024-05-13T12:41:25Z</time>
      </trkpt>
      <trkpt lat="42.83411999" lon="13.49347991">
        <ele>241.00000</ele>
        <time>2024-05-13T12:41:29Z</time>
      </trkpt>
      <trkpt lat="42.83424999" lon="13.49333994">
        <ele>242.00000</ele>
        <time>2024-05-13T12:41:32Z</time>
      </trkpt>
      <trkpt lat="42.83442995" lon="13.49318998">
        <ele>243.00000</ele>
        <time>2024-05-13T12:41:35Z</time>
      </trkpt>
      <trkpt lat="42.83459994" lon="13.49308999">
        <ele>243.00000</ele>
        <time>2024-05-13T12:41:38Z</time>
      </trkpt>
      <trkpt lat="42.83467998" lon="13.49306995">
        <ele>243.00000</ele>
        <time>2024-05-13T12:41:40Z</time>
      </trkpt>
      <trkpt lat="42.83473991" lon="13.49304992">
        <ele>242.00000</ele>
        <time>2024-05-13T12:41:41Z</time>
      </trkpt>
      <trkpt lat="42.83498995" lon="13.49302997">
        <ele>241.00000</ele>
        <time>2024-05-13T12:41:45Z</time>
      </trkpt>
      <trkpt lat="42.83513998" lon="13.49303995">
        <ele>240.00000</ele>
        <time>2024-05-13T12:41:47Z</time>
      </trkpt>
      <trkpt lat="42.83536998" lon="13.49305998">
        <ele>237.00000</ele>
        <time>2024-05-13T12:41:51Z</time>
      </trkpt>
      <trkpt lat="42.83560995" lon="13.49306995">
        <ele>235.00000</ele>
        <time>2024-05-13T12:41:55Z</time>
      </trkpt>
      <trkpt lat="42.83590994" lon="13.49310994">
        <ele>236.00000</ele>
        <time>2024-05-13T12:41:59Z</time>
      </trkpt>
      <trkpt lat="42.83615461" lon="13.49312989">
        <ele>238.00000</ele>
        <time>2024-05-13T12:42:03Z</time>
      </trkpt>
      <trkpt lat="42.83639995" lon="13.49314992">
        <ele>238.00000</ele>
        <time>2024-05-13T12:42:07Z</time>
      </trkpt>
      <trkpt lat="42.83667999" lon="13.49315998">
        <ele>238.00000</ele>
        <time>2024-05-13T12:42:12Z</time>
      </trkpt>
      <trkpt lat="42.83685995" lon="13.49314992">
        <ele>241.00000</ele>
        <time>2024-05-13T12:42:15Z</time>
      </trkpt>
      <trkpt lat="42.83707997" lon="13.49309996">
        <ele>243.00000</ele>
        <time>2024-05-13T12:42:18Z</time>
      </trkpt>
      <trkpt lat="42.83727971" lon="13.49302000">
        <ele>244.00000</ele>
        <time>2024-05-13T12:42:22Z</time>
      </trkpt>
      <trkpt lat="42.83747996" lon="13.49293995">
        <ele>243.00000</ele>
        <time>2024-05-13T12:42:25Z</time>
      </trkpt>
      <trkpt lat="42.83768640" lon="13.49283996">
        <ele>245.00000</ele>
        <time>2024-05-13T12:42:28Z</time>
      </trkpt>
      <trkpt lat="42.83789293" lon="13.49274004">
        <ele>246.00000</ele>
        <time>2024-05-13T12:42:32Z</time>
      </trkpt>
      <trkpt lat="42.83809997" lon="13.49263996">
        <ele>246.00000</ele>
        <time>2024-05-13T12:42:35Z</time>
      </trkpt>
      <trkpt lat="42.83825981" lon="13.49254994">
        <ele>245.00000</ele>
        <time>2024-05-13T12:42:38Z</time>
      </trkpt>
      <trkpt lat="42.83841999" lon="13.49245992">
        <ele>244.00000</ele>
        <time>2024-05-13T12:42:41Z</time>
      </trkpt>
      <trkpt lat="42.83856483" lon="13.49234492">
        <ele>245.00000</ele>
        <time>2024-05-13T12:42:44Z</time>
      </trkpt>
      <trkpt lat="42.83870992" lon="13.49222992">
        <ele>245.00000</ele>
        <time>2024-05-13T12:42:46Z</time>
      </trkpt>
      <trkpt lat="42.83879994" lon="13.49215993">
        <ele>245.00000</ele>
        <time>2024-05-13T12:42:48Z</time>
      </trkpt>
      <trkpt lat="42.83896992" lon="13.49198995">
        <ele>245.00000</ele>
        <time>2024-05-13T12:42:51Z</time>
      </trkpt>
      <trkpt lat="42.83909993" lon="13.49184486">
        <ele>245.00000</ele>
        <time>2024-05-13T12:42:54Z</time>
      </trkpt>
      <trkpt lat="42.83922993" lon="13.49169993">
        <ele>245.00000</ele>
        <time>2024-05-13T12:42:57Z</time>
      </trkpt>
      <trkpt lat="42.83937997" lon="13.49148477">
        <ele>247.00000</ele>
        <time>2024-05-13T12:43:00Z</time>
      </trkpt>
      <trkpt lat="42.83952992" lon="13.49126994">
        <ele>247.00000</ele>
        <time>2024-05-13T12:43:04Z</time>
      </trkpt>
      <trkpt lat="42.83967493" lon="13.49109484">
        <ele>246.00000</ele>
        <time>2024-05-13T12:43:07Z</time>
      </trkpt>
      <trkpt lat="42.83981993" lon="13.49091991">
        <ele>245.00000</ele>
        <time>2024-05-13T12:43:10Z</time>
      </trkpt>
      <trkpt lat="42.83994994" lon="13.49072998">
        <ele>246.00000</ele>
        <time>2024-05-13T12:43:13Z</time>
      </trkpt>
      <trkpt lat="42.84002998" lon="13.49056997">
        <ele>248.00000</ele>
        <time>2024-05-13T12:43:15Z</time>
      </trkpt>
      <trkpt lat="42.84016015" lon="13.49024944">
        <ele>248.00000</ele>
        <time>2024-05-13T12:43:20Z</time>
      </trkpt>
      <trkpt lat="42.84028999" lon="13.48992993">
        <ele>249.00000</ele>
        <time>2024-05-13T12:43:24Z</time>
      </trkpt>
      <trkpt lat="42.84037993" lon="13.48969993">
        <ele>253.00000</ele>
        <time>2024-05-13T12:43:27Z</time>
      </trkpt>
      <trkpt lat="42.84041999" lon="13.48961996">
        <ele>254.00000</ele>
        <time>2024-05-13T12:43:28Z</time>
      </trkpt>
      <trkpt lat="42.84047992" lon="13.48950999">
        <ele>256.00000</ele>
        <time>2024-05-13T12:43:30Z</time>
      </trkpt>
      <trkpt lat="42.84062996" lon="13.48935996">
        <ele>255.00000</ele>
        <time>2024-05-13T12:43:33Z</time>
      </trkpt>
      <trkpt lat="42.84064999" lon="13.48933992">
        <ele>255.00000</ele>
        <time>2024-05-13T12:43:33Z</time>
      </trkpt>
      <trkpt lat="42.84074999" lon="13.48925996">
        <ele>255.00000</ele>
        <time>2024-05-13T12:43:35Z</time>
      </trkpt>
      <trkpt lat="42.84088997" lon="13.48917991">
        <ele>255.00000</ele>
        <time>2024-05-13T12:43:37Z</time>
      </trkpt>
      <trkpt lat="42.84105978" lon="13.48908495">
        <ele>254.00000</ele>
        <time>2024-05-13T12:43:40Z</time>
      </trkpt>
      <trkpt lat="42.84122994" lon="13.48898998">
        <ele>253.00000</ele>
        <time>2024-05-13T12:43:43Z</time>
      </trkpt>
      <trkpt lat="42.84140998" lon="13.48887993">
        <ele>251.00000</ele>
        <time>2024-05-13T12:43:46Z</time>
      </trkpt>
      <trkpt lat="42.84143999" lon="13.48885998">
        <ele>251.00000</ele>
        <time>2024-05-13T12:43:47Z</time>
      </trkpt>
      <trkpt lat="42.84149992" lon="13.48882997">
        <ele>251.00000</ele>
        <time>2024-05-13T12:43:48Z</time>
      </trkpt>
      <trkpt lat="42.84161995" lon="13.48877993">
        <ele>250.00000</ele>
        <time>2024-05-13T12:43:50Z</time>
      </trkpt>
      <trkpt lat="42.84180996" lon="13.48868999">
        <ele>251.00000</ele>
        <time>2024-05-13T12:43:53Z</time>
      </trkpt>
      <trkpt lat="42.84192999" lon="13.48864993">
        <ele>253.00000</ele>
        <time>2024-05-13T12:43:55Z</time>
      </trkpt>
      <trkpt lat="42.84201993" lon="13.48862998">
        <ele>253.00000</ele>
        <time>2024-05-13T12:43:57Z</time>
      </trkpt>
      <trkpt lat="42.84211993" lon="13.48859997">
        <ele>253.00000</ele>
        <time>2024-05-13T12:43:58Z</time>
      </trkpt>
      <trkpt lat="42.84228991" lon="13.48854993">
        <ele>253.00000</ele>
        <time>2024-05-13T12:44:01Z</time>
      </trkpt>
      <trkpt lat="42.84238999" lon="13.48851992">
        <ele>253.00000</ele>
        <time>2024-05-13T12:44:03Z</time>
      </trkpt>
      <trkpt lat="42.84255478" lon="13.48847500">
        <ele>253.00000</ele>
        <time>2024-05-13T12:44:05Z</time>
      </trkpt>
      <trkpt lat="42.84271999" lon="13.48842998">
        <ele>255.00000</ele>
        <time>2024-05-13T12:44:08Z</time>
      </trkpt>
      <trkpt lat="42.84275997" lon="13.48841993">
        <ele>255.00000</ele>
        <time>2024-05-13T12:44:09Z</time>
      </trkpt>
      <trkpt lat="42.84303992" lon="13.48833996">
        <ele>256.00000</ele>
        <time>2024-05-13T12:44:13Z</time>
      </trkpt>
      <trkpt lat="42.84329633" lon="13.48826335">
        <ele>255.00000</ele>
        <time>2024-05-13T12:44:17Z</time>
      </trkpt>
      <trkpt lat="42.84355273" lon="13.48818674">
        <ele>255.00000</ele>
        <time>2024-05-13T12:44:22Z</time>
      </trkpt>
      <trkpt lat="42.84380997" lon="13.48810996">
        <ele>255.00000</ele>
        <time>2024-05-13T12:44:26Z</time>
      </trkpt>
      <trkpt lat="42.84405967" lon="13.48804249">
        <ele>255.00000</ele>
        <time>2024-05-13T12:44:30Z</time>
      </trkpt>
      <trkpt lat="42.84430936" lon="13.48797510">
        <ele>255.00000</ele>
        <time>2024-05-13T12:44:34Z</time>
      </trkpt>
      <trkpt lat="42.84455906" lon="13.48790762">
        <ele>255.00000</ele>
        <time>2024-05-13T12:44:38Z</time>
      </trkpt>
      <trkpt lat="42.84480993" lon="13.48783998">
        <ele>256.00000</ele>
        <time>2024-05-13T12:44:42Z</time>
      </trkpt>
      <trkpt lat="42.84503633" lon="13.48779003">
        <ele>255.00000</ele>
        <time>2024-05-13T12:44:46Z</time>
      </trkpt>
      <trkpt lat="42.84526272" lon="13.48774007">
        <ele>253.00000</ele>
        <time>2024-05-13T12:44:50Z</time>
      </trkpt>
      <trkpt lat="42.84548996" lon="13.48768995">
        <ele>254.00000</ele>
        <time>2024-05-13T12:44:53Z</time>
      </trkpt>
      <trkpt lat="42.84554997" lon="13.48767997">
        <ele>255.00000</ele>
        <time>2024-05-13T12:44:54Z</time>
      </trkpt>
      <trkpt lat="42.84579992" lon="13.48766991">
        <ele>256.00000</ele>
        <time>2024-05-13T12:44:58Z</time>
      </trkpt>
      <trkpt lat="42.84596471" lon="13.48766983">
        <ele>259.00000</ele>
        <time>2024-05-13T12:45:01Z</time>
      </trkpt>
      <trkpt lat="42.84612991" lon="13.48766991">
        <ele>261.00000</ele>
        <time>2024-05-13T12:45:03Z</time>
      </trkpt>
      <trkpt lat="42.84630996" lon="13.48768995">
        <ele>262.00000</ele>
        <time>2024-05-13T12:45:06Z</time>
      </trkpt>
      <trkpt lat="42.84642999" lon="13.48771995">
        <ele>261.00000</ele>
        <time>2024-05-13T12:45:08Z</time>
      </trkpt>
      <trkpt lat="42.84656996" lon="13.48777997">
        <ele>260.00000</ele>
        <time>2024-05-13T12:45:11Z</time>
      </trkpt>
      <trkpt lat="42.84673484" lon="13.48790486">
        <ele>259.00000</ele>
        <time>2024-05-13T12:45:14Z</time>
      </trkpt>
      <trkpt lat="42.84689996" lon="13.48802992">
        <ele>259.00000</ele>
        <time>2024-05-13T12:45:17Z</time>
      </trkpt>
      <trkpt lat="42.84710984" lon="13.48819479">
        <ele>259.00000</ele>
        <time>2024-05-13T12:45:21Z</time>
      </trkpt>
      <trkpt lat="42.84731998" lon="13.48835991">
        <ele>260.00000</ele>
        <time>2024-05-13T12:45:24Z</time>
      </trkpt>
      <trkpt lat="42.84756992" lon="13.48859486">
        <ele>258.00000</ele>
        <time>2024-05-13T12:45:29Z</time>
      </trkpt>
      <trkpt lat="42.84781996" lon="13.48882997">
        <ele>257.00000</ele>
        <time>2024-05-13T12:45:34Z</time>
      </trkpt>
      <trkpt lat="42.84797494" lon="13.48901999">
        <ele>257.00000</ele>
        <time>2024-05-13T12:45:38Z</time>
      </trkpt>
      <trkpt lat="42.84812992" lon="13.48920992">
        <ele>257.00000</ele>
        <time>2024-05-13T12:45:41Z</time>
      </trkpt>
      <trkpt lat="42.84836998" lon="13.48943992">
        <ele>257.00000</ele>
        <time>2024-05-13T12:45:46Z</time>
      </trkpt>
      <trkpt lat="42.84849998" lon="13.48951997">
        <ele>257.00000</ele>
        <time>2024-05-13T12:45:48Z</time>
      </trkpt>
      <trkpt lat="42.84854994" lon="13.48954997">
        <ele>257.00000</ele>
        <time>2024-05-13T12:45:49Z</time>
      </trkpt>
      <trkpt lat="42.84858992" lon="13.48955995">
        <ele>257.00000</ele>
        <time>2024-05-13T12:45:49Z</time>
      </trkpt>
      <trkpt lat="42.84862998" lon="13.48956992">
        <ele>257.00000</ele>
        <time>2024-05-13T12:45:50Z</time>
      </trkpt>
      <trkpt lat="42.84869997" lon="13.48956992">
        <ele>257.00000</ele>
        <time>2024-05-13T12:45:51Z</time>
      </trkpt>
      <trkpt lat="42.84874993" lon="13.48955995">
        <ele>258.00000</ele>
        <time>2024-05-13T12:45:52Z</time>
      </trkpt>
      <trkpt lat="42.84877994" lon="13.48954997">
        <ele>258.00000</ele>
        <time>2024-05-13T12:45:52Z</time>
      </trkpt>
      <trkpt lat="42.84880994" lon="13.48953992">
        <ele>258.00000</ele>
        <time>2024-05-13T12:45:53Z</time>
      </trkpt>
      <trkpt lat="42.84884992" lon="13.48951997">
        <ele>259.00000</ele>
        <time>2024-05-13T12:45:54Z</time>
      </trkpt>
      <trkpt lat="42.84887993" lon="13.48948996">
        <ele>260.00000</ele>
        <time>2024-05-13T12:45:54Z</time>
      </trkpt>
      <trkpt lat="42.84894992" lon="13.48940991">
        <ele>260.00000</ele>
        <time>2024-05-13T12:45:56Z</time>
      </trkpt>
      <trkpt lat="42.84903994" lon="13.48927999">
        <ele>261.00000</ele>
        <time>2024-05-13T12:45:58Z</time>
      </trkpt>
      <trkpt lat="42.84915997" lon="13.48906969">
        <ele>263.00000</ele>
        <time>2024-05-13T12:46:01Z</time>
      </trkpt>
      <trkpt lat="42.84927992" lon="13.48885998">
        <ele>263.00000</ele>
        <time>2024-05-13T12:46:04Z</time>
      </trkpt>
      <trkpt lat="42.84941000" lon="13.48859963">
        <ele>262.00000</ele>
        <time>2024-05-13T12:46:08Z</time>
      </trkpt>
      <trkpt lat="42.84953992" lon="13.48833996">
        <ele>263.00000</ele>
        <time>2024-05-13T12:46:11Z</time>
      </trkpt>
      <trkpt lat="42.84961997" lon="13.48818993">
        <ele>264.00000</ele>
        <time>2024-05-13T12:46:14Z</time>
      </trkpt>
      <trkpt lat="42.84966993" lon="13.48806998">
        <ele>264.00000</ele>
        <time>2024-05-13T12:46:15Z</time>
      </trkpt>
      <trkpt lat="42.84972994" lon="13.48787996">
        <ele>266.00000</ele>
        <time>2024-05-13T12:46:18Z</time>
      </trkpt>
      <trkpt lat="42.84979993" lon="13.48760998">
        <ele>268.00000</ele>
        <time>2024-05-13T12:46:21Z</time>
      </trkpt>
      <trkpt lat="42.84986992" lon="13.48735995">
        <ele>268.00000</ele>
        <time>2024-05-13T12:46:24Z</time>
      </trkpt>
      <trkpt lat="42.84997997" lon="13.48701998">
        <ele>267.00000</ele>
        <time>2024-05-13T12:46:29Z</time>
      </trkpt>
      <trkpt lat="42.85002993" lon="13.48687992">
        <ele>266.00000</ele>
        <time>2024-05-13T12:46:30Z</time>
      </trkpt>
      <trkpt lat="42.85013998" lon="13.48666995">
        <ele>264.00000</ele>
        <time>2024-05-13T12:46:33Z</time>
      </trkpt>
      <trkpt lat="42.85031341" lon="13.48641305">
        <ele>263.00000</ele>
        <time>2024-05-13T12:46:38Z</time>
      </trkpt>
      <trkpt lat="42.85048683" lon="13.48615623">
        <ele>266.00000</ele>
        <time>2024-05-13T12:46:42Z</time>
      </trkpt>
      <trkpt lat="42.85065991" lon="13.48589999">
        <ele>267.00000</ele>
        <time>2024-05-13T12:46:46Z</time>
      </trkpt>
      <trkpt lat="42.85081330" lon="13.48566639">
        <ele>267.00000</ele>
        <time>2024-05-13T12:46:49Z</time>
      </trkpt>
      <trkpt lat="42.85096677" lon="13.48543287">
        <ele>269.00000</ele>
        <time>2024-05-13T12:46:53Z</time>
      </trkpt>
      <trkpt lat="42.85111991" lon="13.48519993">
        <ele>271.00000</ele>
        <time>2024-05-13T12:46:57Z</time>
      </trkpt>
      <trkpt lat="42.85125997" lon="13.48498972">
        <ele>271.00000</ele>
        <time>2024-05-13T12:47:00Z</time>
      </trkpt>
      <trkpt lat="42.85139995" lon="13.48477992">
        <ele>271.00000</ele>
        <time>2024-05-13T12:47:03Z</time>
      </trkpt>
      <trkpt lat="42.85151503" lon="13.48460474">
        <ele>272.00000</ele>
        <time>2024-05-13T12:47:06Z</time>
      </trkpt>
      <trkpt lat="42.85162995" lon="13.48442997">
        <ele>272.00000</ele>
        <time>2024-05-13T12:47:09Z</time>
      </trkpt>
      <trkpt lat="42.85169994" lon="13.48433995">
        <ele>271.00000</ele>
        <time>2024-05-13T12:47:10Z</time>
      </trkpt>
      <trkpt lat="42.85175995" lon="13.48426996">
        <ele>271.00000</ele>
        <time>2024-05-13T12:47:12Z</time>
      </trkpt>
      <trkpt lat="42.85189993" lon="13.48415999">
        <ele>269.00000</ele>
        <time>2024-05-13T12:47:14Z</time>
      </trkpt>
      <trkpt lat="42.85200999" lon="13.48408992">
        <ele>268.00000</ele>
        <time>2024-05-13T12:47:16Z</time>
      </trkpt>
      <trkpt lat="42.85206992" lon="13.48405991">
        <ele>267.00000</ele>
        <time>2024-05-13T12:47:17Z</time>
      </trkpt>
      <trkpt lat="42.85214996" lon="13.48403996">
        <ele>267.00000</ele>
        <time>2024-05-13T12:47:19Z</time>
      </trkpt>
      <trkpt lat="42.85222993" lon="13.48402999">
        <ele>266.00000</ele>
        <time>2024-05-13T12:47:20Z</time>
      </trkpt>
      <trkpt lat="42.85223999" lon="13.48402999">
        <ele>266.00000</ele>
        <time>2024-05-13T12:47:20Z</time>
      </trkpt>
      <trkpt lat="42.85233998" lon="13.48402999">
        <ele>267.00000</ele>
        <time>2024-05-13T12:47:22Z</time>
      </trkpt>
      <trkpt lat="42.85263997" lon="13.48410995">
        <ele>271.00000</ele>
        <time>2024-05-13T12:47:27Z</time>
      </trkpt>
      <trkpt lat="42.85269998" lon="13.48410995">
        <ele>272.00000</ele>
        <time>2024-05-13T12:47:28Z</time>
      </trkpt>
      <trkpt lat="42.85290995" lon="13.48413996">
        <ele>274.00000</ele>
        <time>2024-05-13T12:47:31Z</time>
      </trkpt>
      <trkpt lat="42.85303995" lon="13.48412998">
        <ele>275.00000</ele>
        <time>2024-05-13T12:47:33Z</time>
      </trkpt>
      <trkpt lat="42.85318999" lon="13.48409998">
        <ele>276.00000</ele>
        <time>2024-05-13T12:47:35Z</time>
      </trkpt>
      <trkpt lat="42.85345997" lon="13.48400996">
        <ele>277.00000</ele>
        <time>2024-05-13T12:47:40Z</time>
      </trkpt>
      <trkpt lat="42.85371998" lon="13.48386998">
        <ele>277.00000</ele>
        <time>2024-05-13T12:47:44Z</time>
      </trkpt>
      <trkpt lat="42.85385996" lon="13.48377996">
        <ele>277.00000</ele>
        <time>2024-05-13T12:47:47Z</time>
      </trkpt>
      <trkpt lat="42.85395995" lon="13.48368993">
        <ele>277.00000</ele>
        <time>2024-05-13T12:47:49Z</time>
      </trkpt>
      <trkpt lat="42.85401997" lon="13.48363998">
        <ele>276.00000</ele>
        <time>2024-05-13T12:47:50Z</time>
      </trkpt>
      <trkpt lat="42.85408996" lon="13.48353998">
        <ele>276.00000</ele>
        <time>2024-05-13T12:47:51Z</time>
      </trkpt>
      <trkpt lat="42.85416992" lon="13.48339992">
        <ele>277.00000</ele>
        <time>2024-05-13T12:47:54Z</time>
      </trkpt>
      <trkpt lat="42.85426991" lon="13.48311997">
        <ele>278.00000</ele>
        <time>2024-05-13T12:47:57Z</time>
      </trkpt>
      <trkpt lat="42.85432993" lon="13.48290991">
        <ele>279.00000</ele>
        <time>2024-05-13T12:48:00Z</time>
      </trkpt>
      <trkpt lat="42.85435994" lon="13.48277991">
        <ele>279.00000</ele>
        <time>2024-05-13T12:48:01Z</time>
      </trkpt>
      <trkpt lat="42.85438994" lon="13.48261998">
        <ele>279.00000</ele>
        <time>2024-05-13T12:48:03Z</time>
      </trkpt>
      <trkpt lat="42.85440998" lon="13.48244992">
        <ele>279.00000</ele>
        <time>2024-05-13T12:48:05Z</time>
      </trkpt>
      <trkpt lat="42.85445993" lon="13.48217993">
        <ele>279.00000</ele>
        <time>2024-05-13T12:48:09Z</time>
      </trkpt>
      <trkpt lat="42.85448994" lon="13.48203996">
        <ele>280.00000</ele>
        <time>2024-05-13T12:48:10Z</time>
      </trkpt>
      <trkpt lat="42.85453998" lon="13.48184994">
        <ele>280.00000</ele>
        <time>2024-05-13T12:48:13Z</time>
      </trkpt>
      <trkpt lat="42.85457996" lon="13.48172999">
        <ele>280.00000</ele>
        <time>2024-05-13T12:48:14Z</time>
      </trkpt>
      <trkpt lat="42.85470996" lon="13.48148994">
        <ele>278.00000</ele>
        <time>2024-05-13T12:48:18Z</time>
      </trkpt>
      <trkpt lat="42.85476998" lon="13.48139991">
        <ele>278.00000</ele>
        <time>2024-05-13T12:48:19Z</time>
      </trkpt>
      <trkpt lat="42.85493007" lon="13.48113966">
        <ele>280.00000</ele>
        <time>2024-05-13T12:48:23Z</time>
      </trkpt>
      <trkpt lat="42.85508992" lon="13.48087999">
        <ele>281.00000</ele>
        <time>2024-05-13T12:48:27Z</time>
      </trkpt>
      <trkpt lat="42.85528002" lon="13.48061981">
        <ele>280.00000</ele>
        <time>2024-05-13T12:48:32Z</time>
      </trkpt>
      <trkpt lat="42.85546995" lon="13.48035997">
        <ele>281.00000</ele>
        <time>2024-05-13T12:48:36Z</time>
      </trkpt>
      <trkpt lat="42.85568000" lon="13.48012737">
        <ele>281.00000</ele>
        <time>2024-05-13T12:48:40Z</time>
      </trkpt>
      <trkpt lat="42.85589005" lon="13.47989478">
        <ele>281.00000</ele>
        <time>2024-05-13T12:48:45Z</time>
      </trkpt>
      <trkpt lat="42.85610010" lon="13.47966226">
        <ele>282.00000</ele>
        <time>2024-05-13T12:48:49Z</time>
      </trkpt>
      <trkpt lat="42.85630999" lon="13.47942992">
        <ele>283.00000</ele>
        <time>2024-05-13T12:48:53Z</time>
      </trkpt>
      <trkpt lat="42.85655658" lon="13.47919321">
        <ele>283.00000</ele>
        <time>2024-05-13T12:48:58Z</time>
      </trkpt>
      <trkpt lat="42.85680326" lon="13.47895659">
        <ele>283.00000</ele>
        <time>2024-05-13T12:49:03Z</time>
      </trkpt>
      <trkpt lat="42.85704994" lon="13.47871997">
        <ele>282.00000</ele>
        <time>2024-05-13T12:49:08Z</time>
      </trkpt>
      <trkpt lat="42.85724993" lon="13.47854998">
        <ele>283.00000</ele>
        <time>2024-05-13T12:49:11Z</time>
      </trkpt>
      <trkpt lat="42.85734993" lon="13.47845996">
        <ele>284.00000</ele>
        <time>2024-05-13T12:49:13Z</time>
      </trkpt>
      <trkpt lat="42.85739997" lon="13.47841998">
        <ele>285.00000</ele>
        <time>2024-05-13T12:49:14Z</time>
      </trkpt>
      <trkpt lat="42.85745998" lon="13.47836994">
        <ele>285.00000</ele>
        <time>2024-05-13T12:49:15Z</time>
      </trkpt>
      <trkpt lat="42.85770490" lon="13.47817498">
        <ele>286.00000</ele>
        <time>2024-05-13T12:49:20Z</time>
      </trkpt>
      <trkpt lat="42.85794999" lon="13.47797993">
        <ele>286.00000</ele>
        <time>2024-05-13T12:49:25Z</time>
      </trkpt>
      <trkpt lat="42.85815996" lon="13.47781992">
        <ele>287.00000</ele>
        <time>2024-05-13T12:49:28Z</time>
      </trkpt>
      <trkpt lat="42.85830991" lon="13.47767994">
        <ele>287.00000</ele>
        <time>2024-05-13T12:49:31Z</time>
      </trkpt>
      <trkpt lat="42.85845994" lon="13.47753996">
        <ele>287.00000</ele>
        <time>2024-05-13T12:49:34Z</time>
      </trkpt>
      <trkpt lat="42.85862993" lon="13.47737995">
        <ele>288.00000</ele>
        <time>2024-05-13T12:49:37Z</time>
      </trkpt>
      <trkpt lat="42.85889999" lon="13.47716999">
        <ele>290.00000</ele>
        <time>2024-05-13T12:49:42Z</time>
      </trkpt>
      <trkpt lat="42.85913318" lon="13.47699330">
        <ele>291.00000</ele>
        <time>2024-05-13T12:49:47Z</time>
      </trkpt>
      <trkpt lat="42.85936645" lon="13.47681669">
        <ele>292.00000</ele>
        <time>2024-05-13T12:49:51Z</time>
      </trkpt>
      <trkpt lat="42.85959997" lon="13.47663992">
        <ele>292.00000</ele>
        <time>2024-05-13T12:49:55Z</time>
      </trkpt>
      <trkpt lat="42.85986643" lon="13.47648334">
        <ele>291.00000</ele>
        <time>2024-05-13T12:50:00Z</time>
      </trkpt>
      <trkpt lat="42.86013289" lon="13.47632677">
        <ele>291.00000</ele>
        <time>2024-05-13T12:50:05Z</time>
      </trkpt>
      <trkpt lat="42.86039943" lon="13.47617019">
        <ele>294.00000</ele>
        <time>2024-05-13T12:50:09Z</time>
      </trkpt>
      <trkpt lat="42.86066589" lon="13.47601370">
        <ele>295.00000</ele>
        <time>2024-05-13T12:50:14Z</time>
      </trkpt>
      <trkpt lat="42.86093244" lon="13.47585713">
        <ele>296.00000</ele>
        <time>2024-05-13T12:50:19Z</time>
      </trkpt>
      <trkpt lat="42.86119999" lon="13.47569997">
        <ele>297.00000</ele>
        <time>2024-05-13T12:50:23Z</time>
      </trkpt>
      <trkpt lat="42.86146980" lon="13.47554205">
        <ele>297.00000</ele>
        <time>2024-05-13T12:50:28Z</time>
      </trkpt>
      <trkpt lat="42.86173962" lon="13.47538414">
        <ele>298.00000</ele>
        <time>2024-05-13T12:50:33Z</time>
      </trkpt>
      <trkpt lat="42.86200943" lon="13.47522622">
        <ele>300.00000</ele>
        <time>2024-05-13T12:50:37Z</time>
      </trkpt>
      <trkpt lat="42.86227924" lon="13.47506839">
        <ele>300.00000</ele>
        <time>2024-05-13T12:50:42Z</time>
      </trkpt>
      <trkpt lat="42.86254998" lon="13.47490997">
        <ele>298.00000</ele>
        <time>2024-05-13T12:50:47Z</time>
      </trkpt>
      <trkpt lat="42.86277478" lon="13.47478249">
        <ele>297.00000</ele>
        <time>2024-05-13T12:50:51Z</time>
      </trkpt>
      <trkpt lat="42.86299958" lon="13.47465508">
        <ele>299.00000</ele>
        <time>2024-05-13T12:50:54Z</time>
      </trkpt>
      <trkpt lat="42.86322447" lon="13.47452768">
        <ele>300.00000</ele>
        <time>2024-05-13T12:50:58Z</time>
      </trkpt>
      <trkpt lat="42.86344994" lon="13.47439994">
        <ele>301.00000</ele>
        <time>2024-05-13T12:51:02Z</time>
      </trkpt>
      <trkpt lat="42.86358992" lon="13.47430991">
        <ele>301.00000</ele>
        <time>2024-05-13T12:51:05Z</time>
      </trkpt>
      <trkpt lat="42.86383995" lon="13.47413993">
        <ele>302.00000</ele>
        <time>2024-05-13T12:51:09Z</time>
      </trkpt>
      <trkpt lat="42.86394992" lon="13.47406994">
        <ele>302.00000</ele>
        <time>2024-05-13T12:51:11Z</time>
      </trkpt>
      <trkpt lat="42.86401991" lon="13.47402996">
        <ele>301.00000</ele>
        <time>2024-05-13T12:51:12Z</time>
      </trkpt>
      <trkpt lat="42.86410993" lon="13.47393994">
        <ele>301.00000</ele>
        <time>2024-05-13T12:51:14Z</time>
      </trkpt>
      <trkpt lat="42.86414992" lon="13.47384992">
        <ele>301.00000</ele>
        <time>2024-05-13T12:51:15Z</time>
      </trkpt>
      <trkpt lat="42.86419996" lon="13.47374992">
        <ele>301.00000</ele>
        <time>2024-05-13T12:51:17Z</time>
      </trkpt>
      <trkpt lat="42.86427992" lon="13.47348991">
        <ele>301.00000</ele>
        <time>2024-05-13T12:51:20Z</time>
      </trkpt>
      <trkpt lat="42.86434999" lon="13.47318992">
        <ele>302.00000</ele>
        <time>2024-05-13T12:51:24Z</time>
      </trkpt>
      <trkpt lat="42.86436994" lon="13.47312999">
        <ele>303.00000</ele>
        <time>2024-05-13T12:51:25Z</time>
      </trkpt>
      <trkpt lat="42.86443498" lon="13.47290955">
        <ele>304.00000</ele>
        <time>2024-05-13T12:51:27Z</time>
      </trkpt>
      <trkpt lat="42.86449994" lon="13.47268994">
        <ele>305.00000</ele>
        <time>2024-05-13T12:51:30Z</time>
      </trkpt>
      <trkpt lat="42.86457999" lon="13.47241996">
        <ele>305.00000</ele>
        <time>2024-05-13T12:51:34Z</time>
      </trkpt>
      <trkpt lat="42.86463992" lon="13.47212995">
        <ele>307.00000</ele>
        <time>2024-05-13T12:51:37Z</time>
      </trkpt>
      <trkpt lat="42.86469994" lon="13.47184999">
        <ele>307.00000</ele>
        <time>2024-05-13T12:51:41Z</time>
      </trkpt>
      <trkpt lat="42.86469994" lon="13.47156928">
        <ele>309.00000</ele>
        <time>2024-05-13T12:51:44Z</time>
      </trkpt>
      <trkpt lat="42.86469994" lon="13.47128991">
        <ele>310.00000</ele>
        <time>2024-05-13T12:51:47Z</time>
      </trkpt>
      <trkpt lat="42.86467999" lon="13.47100996">
        <ele>313.00000</ele>
        <time>2024-05-13T12:51:50Z</time>
      </trkpt>
      <trkpt lat="42.86468996" lon="13.47093997">
        <ele>313.00000</ele>
        <time>2024-05-13T12:51:51Z</time>
      </trkpt>
      <trkpt lat="42.86471997" lon="13.47081994">
        <ele>314.00000</ele>
        <time>2024-05-13T12:51:53Z</time>
      </trkpt>
      <trkpt lat="42.86479993" lon="13.47058994">
        <ele>313.00000</ele>
        <time>2024-05-13T12:51:56Z</time>
      </trkpt>
      <trkpt lat="42.86496011" lon="13.47027285">
        <ele>315.00000</ele>
        <time>2024-05-13T12:52:00Z</time>
      </trkpt>
      <trkpt lat="42.86512029" lon="13.46995577">
        <ele>319.00000</ele>
        <time>2024-05-13T12:52:05Z</time>
      </trkpt>
      <trkpt lat="42.86527996" lon="13.46963994">
        <ele>323.00000</ele>
        <time>2024-05-13T12:52:09Z</time>
      </trkpt>
      <trkpt lat="42.86542757" lon="13.46935453">
        <ele>321.00000</ele>
        <time>2024-05-13T12:52:13Z</time>
      </trkpt>
      <trkpt lat="42.86557526" lon="13.46906921">
        <ele>321.00000</ele>
        <time>2024-05-13T12:52:18Z</time>
      </trkpt>
      <trkpt lat="42.86572295" lon="13.46878389">
        <ele>317.00000</ele>
        <time>2024-05-13T12:52:22Z</time>
      </trkpt>
      <trkpt lat="42.86586997" lon="13.46849991">
        <ele>315.00000</ele>
        <time>2024-05-13T12:52:26Z</time>
      </trkpt>
      <trkpt lat="42.86602009" lon="13.46821459">
        <ele>316.00000</ele>
        <time>2024-05-13T12:52:30Z</time>
      </trkpt>
      <trkpt lat="42.86616995" lon="13.46792994">
        <ele>314.00000</ele>
        <time>2024-05-13T12:52:34Z</time>
      </trkpt>
      <trkpt lat="42.86632996" lon="13.46771981">
        <ele>310.00000</ele>
        <time>2024-05-13T12:52:38Z</time>
      </trkpt>
      <trkpt lat="42.86648998" lon="13.46750993">
        <ele>309.00000</ele>
        <time>2024-05-13T12:52:41Z</time>
      </trkpt>
      <trkpt lat="42.86670992" lon="13.46722997">
        <ele>311.00000</ele>
        <time>2024-05-13T12:52:46Z</time>
      </trkpt>
      <trkpt lat="42.86688501" lon="13.46700483">
        <ele>310.00000</ele>
        <time>2024-05-13T12:52:50Z</time>
      </trkpt>
      <trkpt lat="42.86706011" lon="13.46677970">
        <ele>309.00000</ele>
        <time>2024-05-13T12:52:54Z</time>
      </trkpt>
      <trkpt lat="42.86723521" lon="13.46655456">
        <ele>307.00000</ele>
        <time>2024-05-13T12:52:58Z</time>
      </trkpt>
      <trkpt lat="42.86740997" lon="13.46632992">
        <ele>307.00000</ele>
        <time>2024-05-13T12:53:01Z</time>
      </trkpt>
      <trkpt lat="42.86759505" lon="13.46608978">
        <ele>307.00000</ele>
        <time>2024-05-13T12:53:05Z</time>
      </trkpt>
      <trkpt lat="42.86778012" lon="13.46584964">
        <ele>307.00000</ele>
        <time>2024-05-13T12:53:10Z</time>
      </trkpt>
      <trkpt lat="42.86796519" lon="13.46560958">
        <ele>308.00000</ele>
        <time>2024-05-13T12:53:14Z</time>
      </trkpt>
      <trkpt lat="42.86814993" lon="13.46536994">
        <ele>311.00000</ele>
        <time>2024-05-13T12:53:18Z</time>
      </trkpt>
      <trkpt lat="42.86832494" lon="13.46514984">
        <ele>314.00000</ele>
        <time>2024-05-13T12:53:22Z</time>
      </trkpt>
      <trkpt lat="42.86849996" lon="13.46492998">
        <ele>313.00000</ele>
        <time>2024-05-13T12:53:25Z</time>
      </trkpt>
      <trkpt lat="42.86862996" lon="13.46475983">
        <ele>312.00000</ele>
        <time>2024-05-13T12:53:28Z</time>
      </trkpt>
      <trkpt lat="42.86875996" lon="13.46458992">
        <ele>312.00000</ele>
        <time>2024-05-13T12:53:31Z</time>
      </trkpt>
      <trkpt lat="42.86884998" lon="13.46446998">
        <ele>311.00000</ele>
        <time>2024-05-13T12:53:33Z</time>
      </trkpt>
      <trkpt lat="42.86898502" lon="13.46429480">
        <ele>310.00000</ele>
        <time>2024-05-13T12:53:36Z</time>
      </trkpt>
      <trkpt lat="42.86911997" lon="13.46411995">
        <ele>308.00000</ele>
        <time>2024-05-13T12:53:39Z</time>
      </trkpt>
      <trkpt lat="42.86923505" lon="13.46393974">
        <ele>307.00000</ele>
        <time>2024-05-13T12:53:42Z</time>
      </trkpt>
      <trkpt lat="42.86934996" lon="13.46375995">
        <ele>307.00000</ele>
        <time>2024-05-13T12:53:45Z</time>
      </trkpt>
      <trkpt lat="42.86948994" lon="13.46343993">
        <ele>310.00000</ele>
        <time>2024-05-13T12:53:49Z</time>
      </trkpt>
      <trkpt lat="42.86959991" lon="13.46306995">
        <ele>312.00000</ele>
        <time>2024-05-13T12:53:54Z</time>
      </trkpt>
      <trkpt lat="42.86960997" lon="13.46303994">
        <ele>312.00000</ele>
        <time>2024-05-13T12:53:54Z</time>
      </trkpt>
      <trkpt lat="42.86972011" lon="13.46266921">
        <ele>313.00000</ele>
        <time>2024-05-13T12:53:59Z</time>
      </trkpt>
      <trkpt lat="42.86983033" lon="13.46229848">
        <ele>315.00000</ele>
        <time>2024-05-13T12:54:04Z</time>
      </trkpt>
      <trkpt lat="42.86993997" lon="13.46192993">
        <ele>317.00000</ele>
        <time>2024-05-13T12:54:08Z</time>
      </trkpt>
      <trkpt lat="42.87005010" lon="13.46159432">
        <ele>318.00000</ele>
        <time>2024-05-13T12:54:13Z</time>
      </trkpt>
      <trkpt lat="42.87015999" lon="13.46125996">
        <ele>318.00000</ele>
        <time>2024-05-13T12:54:17Z</time>
      </trkpt>
      <trkpt lat="42.87016997" lon="13.46120992">
        <ele>318.00000</ele>
        <time>2024-05-13T12:54:18Z</time>
      </trkpt>
      <trkpt lat="42.87025337" lon="13.46092267">
        <ele>318.00000</ele>
        <time>2024-05-13T12:54:21Z</time>
      </trkpt>
      <trkpt lat="42.87033685" lon="13.46063551">
        <ele>319.00000</ele>
        <time>2024-05-13T12:54:25Z</time>
      </trkpt>
      <trkpt lat="42.87041991" lon="13.46034994">
        <ele>319.00000</ele>
        <time>2024-05-13T12:54:28Z</time>
      </trkpt>
      <trkpt lat="42.87051010" lon="13.46004936">
        <ele>319.00000</ele>
        <time>2024-05-13T12:54:32Z</time>
      </trkpt>
      <trkpt lat="42.87060029" lon="13.45974879">
        <ele>319.00000</ele>
        <time>2024-05-13T12:54:36Z</time>
      </trkpt>
      <trkpt lat="42.87068998" lon="13.45944997">
        <ele>319.00000</ele>
        <time>2024-05-13T12:54:40Z</time>
      </trkpt>
      <trkpt lat="42.87077992" lon="13.45910992">
        <ele>318.00000</ele>
        <time>2024-05-13T12:54:44Z</time>
      </trkpt>
      <trkpt lat="42.87079995" lon="13.45897992">
        <ele>319.00000</ele>
        <time>2024-05-13T12:54:46Z</time>
      </trkpt>
      <trkpt lat="42.87081998" lon="13.45885997">
        <ele>319.00000</ele>
        <time>2024-05-13T12:54:47Z</time>
      </trkpt>
      <trkpt lat="42.87082996" lon="13.45864439">
        <ele>323.00000</ele>
        <time>2024-05-13T12:54:50Z</time>
      </trkpt>
      <trkpt lat="42.87083993" lon="13.45842998">
        <ele>324.00000</ele>
        <time>2024-05-13T12:54:52Z</time>
      </trkpt>
      <trkpt lat="42.87083490" lon="13.45820442">
        <ele>324.00000</ele>
        <time>2024-05-13T12:54:55Z</time>
      </trkpt>
      <trkpt lat="42.87082996" lon="13.45797996">
        <ele>324.00000</ele>
        <time>2024-05-13T12:54:57Z</time>
      </trkpt>
      <trkpt lat="42.87081990" lon="13.45769422">
        <ele>324.00000</ele>
        <time>2024-05-13T12:55:01Z</time>
      </trkpt>
      <trkpt lat="42.87080992" lon="13.45740999">
        <ele>326.00000</ele>
        <time>2024-05-13T12:55:04Z</time>
      </trkpt>
      <trkpt lat="42.87080992" lon="13.45703992">
        <ele>325.00000</ele>
        <time>2024-05-13T12:55:09Z</time>
      </trkpt>
      <trkpt lat="42.87082996" lon="13.45671999">
        <ele>325.00000</ele>
        <time>2024-05-13T12:55:12Z</time>
      </trkpt>
      <trkpt lat="42.87085996" lon="13.45648940">
        <ele>325.00000</ele>
        <time>2024-05-13T12:55:15Z</time>
      </trkpt>
      <trkpt lat="42.87088997" lon="13.45625999">
        <ele>328.00000</ele>
        <time>2024-05-13T12:55:18Z</time>
      </trkpt>
      <trkpt lat="42.87091998" lon="13.45598992">
        <ele>330.00000</ele>
        <time>2024-05-13T12:55:21Z</time>
      </trkpt>
      <trkpt lat="42.87095502" lon="13.45568918">
        <ele>331.00000</ele>
        <time>2024-05-13T12:55:25Z</time>
      </trkpt>
      <trkpt lat="42.87098997" lon="13.45538995">
        <ele>332.00000</ele>
        <time>2024-05-13T12:55:28Z</time>
      </trkpt>
      <trkpt lat="42.87100992" lon="13.45512994">
        <ele>331.00000</ele>
        <time>2024-05-13T12:55:31Z</time>
      </trkpt>
      <trkpt lat="42.87100992" lon="13.45502994">
        <ele>330.00000</ele>
        <time>2024-05-13T12:55:32Z</time>
      </trkpt>
      <trkpt lat="42.87099994" lon="13.45486993">
        <ele>330.00000</ele>
        <time>2024-05-13T12:55:34Z</time>
      </trkpt>
      <trkpt lat="42.87097999" lon="13.45477991">
        <ele>329.00000</ele>
        <time>2024-05-13T12:55:35Z</time>
      </trkpt>
      <trkpt lat="42.87092995" lon="13.45464999">
        <ele>329.00000</ele>
        <time>2024-05-13T12:55:37Z</time>
      </trkpt>
      <trkpt lat="42.87087991" lon="13.45456995">
        <ele>329.00000</ele>
        <time>2024-05-13T12:55:38Z</time>
      </trkpt>
      <trkpt lat="42.87080992" lon="13.45445998">
        <ele>329.00000</ele>
        <time>2024-05-13T12:55:40Z</time>
      </trkpt>
      <trkpt lat="42.87079995" lon="13.45445998">
        <ele>329.00000</ele>
        <time>2024-05-13T12:55:40Z</time>
      </trkpt>
      <trkpt lat="42.87060993" lon="13.45425998">
        <ele>329.00000</ele>
        <time>2024-05-13T12:55:44Z</time>
      </trkpt>
      <trkpt lat="42.87047985" lon="13.45410986">
        <ele>329.00000</ele>
        <time>2024-05-13T12:55:47Z</time>
      </trkpt>
      <trkpt lat="42.87034993" lon="13.45395999">
        <ele>330.00000</ele>
        <time>2024-05-13T12:55:50Z</time>
      </trkpt>
      <trkpt lat="42.87032998" lon="13.45391993">
        <ele>330.00000</ele>
        <time>2024-05-13T12:55:50Z</time>
      </trkpt>
      <trkpt lat="42.87031992" lon="13.45387995">
        <ele>330.00000</ele>
        <time>2024-05-13T12:55:51Z</time>
      </trkpt>
      <trkpt lat="42.87030994" lon="13.45383997">
        <ele>330.00000</ele>
        <time>2024-05-13T12:55:51Z</time>
      </trkpt>
      <trkpt lat="42.87029997" lon="13.45379998">
        <ele>330.00000</ele>
        <time>2024-05-13T12:55:52Z</time>
      </trkpt>
      <trkpt lat="42.87029997" lon="13.45374994">
        <ele>329.00000</ele>
        <time>2024-05-13T12:55:52Z</time>
      </trkpt>
      <trkpt lat="42.87029997" lon="13.45368993">
        <ele>329.00000</ele>
        <time>2024-05-13T12:55:53Z</time>
      </trkpt>
      <trkpt lat="42.87030994" lon="13.45363997">
        <ele>328.00000</ele>
        <time>2024-05-13T12:55:53Z</time>
      </trkpt>
      <trkpt lat="42.87032998" lon="13.45361994">
        <ele>328.00000</ele>
        <time>2024-05-13T12:55:54Z</time>
      </trkpt>
      <trkpt lat="42.87033995" lon="13.45358993">
        <ele>327.00000</ele>
        <time>2024-05-13T12:55:54Z</time>
      </trkpt>
      <trkpt lat="42.87039997" lon="13.45352992">
        <ele>326.00000</ele>
        <time>2024-05-13T12:55:55Z</time>
      </trkpt>
      <trkpt lat="42.87048999" lon="13.45344996">
        <ele>323.00000</ele>
        <time>2024-05-13T12:55:57Z</time>
      </trkpt>
      <trkpt lat="42.87069995" lon="13.45321996">
        <ele>322.00000</ele>
        <time>2024-05-13T12:56:01Z</time>
      </trkpt>
      <trkpt lat="42.87085996" lon="13.45306992">
        <ele>322.00000</ele>
        <time>2024-05-13T12:56:05Z</time>
      </trkpt>
      <trkpt lat="42.87109994" lon="13.45286993">
        <ele>330.00000</ele>
        <time>2024-05-13T12:56:09Z</time>
      </trkpt>
      <trkpt lat="42.87116993" lon="13.45280991">
        <ele>334.00000</ele>
        <time>2024-05-13T12:56:10Z</time>
      </trkpt>
      <trkpt lat="42.87118996" lon="13.45278996">
        <ele>335.00000</ele>
        <time>2024-05-13T12:56:11Z</time>
      </trkpt>
      <trkpt lat="42.87120999" lon="13.45276993">
        <ele>336.00000</ele>
        <time>2024-05-13T12:56:11Z</time>
      </trkpt>
      <trkpt lat="42.87122994" lon="13.45272995">
        <ele>338.00000</ele>
        <time>2024-05-13T12:56:12Z</time>
      </trkpt>
      <trkpt lat="42.87123992" lon="13.45269994">
        <ele>339.00000</ele>
        <time>2024-05-13T12:56:12Z</time>
      </trkpt>
      <trkpt lat="42.87124997" lon="13.45263993">
        <ele>340.00000</ele>
        <time>2024-05-13T12:56:13Z</time>
      </trkpt>
      <trkpt lat="42.87125995" lon="13.45258997">
        <ele>342.00000</ele>
        <time>2024-05-13T12:56:14Z</time>
      </trkpt>
      <trkpt lat="42.87123992" lon="13.45250993">
        <ele>342.00000</ele>
        <time>2024-05-13T12:56:15Z</time>
      </trkpt>
      <trkpt lat="42.87122994" lon="13.45247992">
        <ele>343.00000</ele>
        <time>2024-05-13T12:56:15Z</time>
      </trkpt>
      <trkpt lat="42.87121997" lon="13.45244999">
        <ele>343.00000</ele>
        <time>2024-05-13T12:56:15Z</time>
      </trkpt>
      <trkpt lat="42.87118996" lon="13.45240993">
        <ele>343.00000</ele>
        <time>2024-05-13T12:56:16Z</time>
      </trkpt>
      <trkpt lat="42.87114998" lon="13.45236995">
        <ele>343.00000</ele>
        <time>2024-05-13T12:56:17Z</time>
      </trkpt>
      <trkpt lat="42.87108996" lon="13.45232997">
        <ele>342.00000</ele>
        <time>2024-05-13T12:56:18Z</time>
      </trkpt>
      <trkpt lat="42.87102995" lon="13.45228998">
        <ele>341.00000</ele>
        <time>2024-05-13T12:56:19Z</time>
      </trkpt>
      <trkpt lat="42.87094999" lon="13.45226995">
        <ele>340.00000</ele>
        <time>2024-05-13T12:56:20Z</time>
      </trkpt>
      <trkpt lat="42.87084999" lon="13.45225998">
        <ele>338.00000</ele>
        <time>2024-05-13T12:56:22Z</time>
      </trkpt>
      <trkpt lat="42.87066995" lon="13.45224992">
        <ele>336.00000</ele>
        <time>2024-05-13T12:56:25Z</time>
      </trkpt>
      <trkpt lat="42.87059996" lon="13.45222997">
        <ele>335.00000</ele>
        <time>2024-05-13T12:56:26Z</time>
      </trkpt>
      <trkpt lat="42.87056995" lon="13.45219996">
        <ele>335.00000</ele>
        <time>2024-05-13T12:56:26Z</time>
      </trkpt>
      <trkpt lat="42.87053994" lon="13.45217993">
        <ele>335.00000</ele>
        <time>2024-05-13T12:56:27Z</time>
      </trkpt>
      <trkpt lat="42.87050994" lon="13.45214992">
        <ele>334.00000</ele>
        <time>2024-05-13T12:56:28Z</time>
      </trkpt>
      <trkpt lat="42.87047993" lon="13.45210994">
        <ele>334.00000</ele>
        <time>2024-05-13T12:56:28Z</time>
      </trkpt>
      <trkpt lat="42.87041991" lon="13.45196996">
        <ele>336.00000</ele>
        <time>2024-05-13T12:56:30Z</time>
      </trkpt>
      <trkpt lat="42.87037993" lon="13.45188992">
        <ele>336.00000</ele>
        <time>2024-05-13T12:56:31Z</time>
      </trkpt>
      <trkpt lat="42.87031992" lon="13.45173996">
        <ele>336.00000</ele>
        <time>2024-05-13T12:56:33Z</time>
      </trkpt>
      <trkpt lat="42.87026996" lon="13.45159999">
        <ele>337.00000</ele>
        <time>2024-05-13T12:56:35Z</time>
      </trkpt>
      <trkpt lat="42.87014993" lon="13.45120998">
        <ele>340.00000</ele>
        <time>2024-05-13T12:56:40Z</time>
      </trkpt>
      <trkpt lat="42.87009998" lon="13.45104997">
        <ele>340.00000</ele>
        <time>2024-05-13T12:56:42Z</time>
      </trkpt>
      <trkpt lat="42.87003996" lon="13.45084997">
        <ele>340.00000</ele>
        <time>2024-05-13T12:56:45Z</time>
      </trkpt>
      <trkpt lat="42.86996997" lon="13.45063992">
        <ele>342.00000</ele>
        <time>2024-05-13T12:56:47Z</time>
      </trkpt>
      <trkpt lat="42.86990996" lon="13.45045996">
        <ele>344.00000</ele>
        <time>2024-05-13T12:56:50Z</time>
      </trkpt>
      <trkpt lat="42.86985992" lon="13.45034999">
        <ele>345.00000</ele>
        <time>2024-05-13T12:56:51Z</time>
      </trkpt>
      <trkpt lat="42.86978993" lon="13.45021999">
        <ele>346.00000</ele>
        <time>2024-05-13T12:56:53Z</time>
      </trkpt>
      <trkpt lat="42.86961995" lon="13.44991992">
        <ele>348.00000</ele>
        <time>2024-05-13T12:56:58Z</time>
      </trkpt>
      <trkpt lat="42.86950478" lon="13.44970467">
        <ele>348.00000</ele>
        <time>2024-05-13T12:57:01Z</time>
      </trkpt>
      <trkpt lat="42.86938995" lon="13.44948993">
        <ele>350.00000</ele>
        <time>2024-05-13T12:57:04Z</time>
      </trkpt>
      <trkpt lat="42.86927981" lon="13.44928465">
        <ele>353.00000</ele>
        <time>2024-05-13T12:57:07Z</time>
      </trkpt>
      <trkpt lat="42.86916992" lon="13.44907997">
        <ele>354.00000</ele>
        <time>2024-05-13T12:57:10Z</time>
      </trkpt>
      <trkpt lat="42.86903975" lon="13.44884972">
        <ele>356.00000</ele>
        <time>2024-05-13T12:57:13Z</time>
      </trkpt>
      <trkpt lat="42.86890991" lon="13.44861997">
        <ele>356.00000</ele>
        <time>2024-05-13T12:57:17Z</time>
      </trkpt>
      <trkpt lat="42.86882995" lon="13.44861997">
        <ele>355.00000</ele>
        <time>2024-05-13T12:57:18Z</time>
      </trkpt>
      <trkpt lat="42.86879994" lon="13.44860999">
        <ele>355.00000</ele>
        <time>2024-05-13T12:57:18Z</time>
      </trkpt>
      <trkpt lat="42.86872996" lon="13.44859994">
        <ele>354.00000</ele>
        <time>2024-05-13T12:57:20Z</time>
      </trkpt>
      <trkpt lat="42.86866994" lon="13.44857999">
        <ele>353.00000</ele>
        <time>2024-05-13T12:57:20Z</time>
      </trkpt>
      <trkpt lat="42.86859995" lon="13.44853992">
        <ele>353.00000</ele>
        <time>2024-05-13T12:57:22Z</time>
      </trkpt>
      <trkpt lat="42.86854991" lon="13.44848996">
        <ele>352.00000</ele>
        <time>2024-05-13T12:57:23Z</time>
      </trkpt>
      <trkpt lat="42.86849996" lon="13.44840992">
        <ele>352.00000</ele>
        <time>2024-05-13T12:57:24Z</time>
      </trkpt>
      <trkpt lat="42.86846995" lon="13.44831998">
        <ele>352.00000</ele>
        <time>2024-05-13T12:57:25Z</time>
      </trkpt>
      <trkpt lat="42.86845997" lon="13.44823993">
        <ele>354.00000</ele>
        <time>2024-05-13T12:57:26Z</time>
      </trkpt>
      <trkpt lat="42.86838973" lon="13.44782897">
        <ele>360.00000</ele>
        <time>2024-05-13T12:57:31Z</time>
      </trkpt>
      <trkpt lat="42.86831991" lon="13.44741993">
        <ele>360.00000</ele>
        <time>2024-05-13T12:57:36Z</time>
      </trkpt>
      <trkpt lat="42.86827993" lon="13.44700997">
        <ele>356.00000</ele>
        <time>2024-05-13T12:57:41Z</time>
      </trkpt>
      <trkpt lat="42.86826996" lon="13.44668995">
        <ele>356.00000</ele>
        <time>2024-05-13T12:57:45Z</time>
      </trkpt>
      <trkpt lat="42.86830994" lon="13.44640991">
        <ele>356.00000</ele>
        <time>2024-05-13T12:57:48Z</time>
      </trkpt>
      <trkpt lat="42.86833995" lon="13.44622995">
        <ele>356.00000</ele>
        <time>2024-05-13T12:57:50Z</time>
      </trkpt>
      <trkpt lat="42.86839996" lon="13.44593994">
        <ele>355.00000</ele>
        <time>2024-05-13T12:57:54Z</time>
      </trkpt>
      <trkpt lat="42.86851010" lon="13.44559175">
        <ele>352.00000</ele>
        <time>2024-05-13T12:57:58Z</time>
      </trkpt>
      <trkpt lat="42.86862032" lon="13.44524365">
        <ele>350.00000</ele>
        <time>2024-05-13T12:58:03Z</time>
      </trkpt>
      <trkpt lat="42.86873046" lon="13.44489555">
        <ele>350.00000</ele>
        <time>2024-05-13T12:58:07Z</time>
      </trkpt>
      <trkpt lat="42.86883993" lon="13.44454997">
        <ele>351.00000</ele>
        <time>2024-05-13T12:58:11Z</time>
      </trkpt>
      <trkpt lat="42.86888502" lon="13.44433447">
        <ele>353.00000</ele>
        <time>2024-05-13T12:58:14Z</time>
      </trkpt>
      <trkpt lat="42.86892995" lon="13.44411998">
        <ele>355.00000</ele>
        <time>2024-05-13T12:58:17Z</time>
      </trkpt>
      <trkpt lat="42.86898996" lon="13.44392996">
        <ele>358.00000</ele>
        <time>2024-05-13T12:58:19Z</time>
      </trkpt>
      <trkpt lat="42.86901997" lon="13.44373994">
        <ele>358.00000</ele>
        <time>2024-05-13T12:58:21Z</time>
      </trkpt>
      <trkpt lat="42.86903992" lon="13.44357993">
        <ele>358.00000</ele>
        <time>2024-05-13T12:58:23Z</time>
      </trkpt>
      <trkpt lat="42.86904495" lon="13.44334934">
        <ele>358.00000</ele>
        <time>2024-05-13T12:58:26Z</time>
      </trkpt>
      <trkpt lat="42.86904998" lon="13.44311993">
        <ele>359.00000</ele>
        <time>2024-05-13T12:58:29Z</time>
      </trkpt>
      <trkpt lat="42.86899994" lon="13.44276999">
        <ele>361.00000</ele>
        <time>2024-05-13T12:58:33Z</time>
      </trkpt>
      <trkpt lat="42.86893473" lon="13.44249933">
        <ele>361.00000</ele>
        <time>2024-05-13T12:58:36Z</time>
      </trkpt>
      <trkpt lat="42.86886993" lon="13.44222994">
        <ele>361.00000</ele>
        <time>2024-05-13T12:58:40Z</time>
      </trkpt>
      <trkpt lat="42.86879978" lon="13.44192593">
        <ele>363.00000</ele>
        <time>2024-05-13T12:58:43Z</time>
      </trkpt>
      <trkpt lat="42.86872962" lon="13.44162200">
        <ele>363.00000</ele>
        <time>2024-05-13T12:58:47Z</time>
      </trkpt>
      <trkpt lat="42.86865997" lon="13.44131992">
        <ele>363.00000</ele>
        <time>2024-05-13T12:58:51Z</time>
      </trkpt>
      <trkpt lat="42.86856994" lon="13.44091993">
        <ele>363.00000</ele>
        <time>2024-05-13T12:58:56Z</time>
      </trkpt>
      <trkpt lat="42.86848302" lon="13.44059254">
        <ele>359.00000</ele>
        <time>2024-05-13T12:59:00Z</time>
      </trkpt>
      <trkpt lat="42.86839619" lon="13.44026522">
        <ele>357.00000</ele>
        <time>2024-05-13T12:59:04Z</time>
      </trkpt>
      <trkpt lat="42.86830994" lon="13.43993992">
        <ele>355.00000</ele>
        <time>2024-05-13T12:59:08Z</time>
      </trkpt>
      <trkpt lat="42.86825981" lon="13.43959911">
        <ele>356.00000</ele>
        <time>2024-05-13T12:59:12Z</time>
      </trkpt>
      <trkpt lat="42.86820994" lon="13.43925998">
        <ele>358.00000</ele>
        <time>2024-05-13T12:59:16Z</time>
      </trkpt>
      <trkpt lat="42.86816996" lon="13.43896997">
        <ele>357.00000</ele>
        <time>2024-05-13T12:59:20Z</time>
      </trkpt>
      <trkpt lat="42.86815999" lon="13.43894993">
        <ele>357.00000</ele>
        <time>2024-05-13T12:59:20Z</time>
      </trkpt>
      <trkpt lat="42.86813987" lon="13.43871432">
        <ele>357.00000</ele>
        <time>2024-05-13T12:59:23Z</time>
      </trkpt>
      <trkpt lat="42.86811992" lon="13.43847996">
        <ele>357.00000</ele>
        <time>2024-05-13T12:59:26Z</time>
      </trkpt>
      <trkpt lat="42.86806996" lon="13.43832992">
        <ele>357.00000</ele>
        <time>2024-05-13T12:59:27Z</time>
      </trkpt>
      <trkpt lat="42.86800995" lon="13.43810998">
        <ele>359.00000</ele>
        <time>2024-05-13T12:59:30Z</time>
      </trkpt>
      <trkpt lat="42.86785975" lon="13.43785970">
        <ele>363.00000</ele>
        <time>2024-05-13T12:59:34Z</time>
      </trkpt>
      <trkpt lat="42.86770996" lon="13.43760992">
        <ele>365.00000</ele>
        <time>2024-05-13T12:59:38Z</time>
      </trkpt>
      <trkpt lat="42.86747996" lon="13.43732996">
        <ele>365.00000</ele>
        <time>2024-05-13T12:59:43Z</time>
      </trkpt>
      <trkpt lat="42.86731492" lon="13.43715989">
        <ele>363.00000</ele>
        <time>2024-05-13T12:59:46Z</time>
      </trkpt>
      <trkpt lat="42.86714997" lon="13.43698999">
        <ele>363.00000</ele>
        <time>2024-05-13T12:59:49Z</time>
      </trkpt>
      <trkpt lat="42.86697998" lon="13.43678992">
        <ele>367.00000</ele>
        <time>2024-05-13T12:59:53Z</time>
      </trkpt>
      <trkpt lat="42.86685484" lon="13.43662982">
        <ele>370.00000</ele>
        <time>2024-05-13T12:59:56Z</time>
      </trkpt>
      <trkpt lat="42.86672995" lon="13.43646998">
        <ele>371.00000</ele>
        <time>2024-05-13T12:59:58Z</time>
      </trkpt>
      <trkpt lat="42.86657472" lon="13.43618961">
        <ele>374.00000</ele>
        <time>2024-05-13T13:00:03Z</time>
      </trkpt>
      <trkpt lat="42.86641957" lon="13.43590931">
        <ele>376.00000</ele>
        <time>2024-05-13T13:00:07Z</time>
      </trkpt>
      <trkpt lat="42.86626442" lon="13.43562902">
        <ele>372.00000</ele>
        <time>2024-05-13T13:00:11Z</time>
      </trkpt>
      <trkpt lat="42.86610994" lon="13.43534999">
        <ele>371.00000</ele>
        <time>2024-05-13T13:00:15Z</time>
      </trkpt>
      <trkpt lat="42.86596301" lon="13.43501279">
        <ele>373.00000</ele>
        <time>2024-05-13T13:00:20Z</time>
      </trkpt>
      <trkpt lat="42.86581615" lon="13.43467558">
        <ele>376.00000</ele>
        <time>2024-05-13T13:00:24Z</time>
      </trkpt>
      <trkpt lat="42.86566997" lon="13.43433997">
        <ele>376.00000</ele>
        <time>2024-05-13T13:00:29Z</time>
      </trkpt>
      <trkpt lat="42.86563997" lon="13.43425992">
        <ele>376.00000</ele>
        <time>2024-05-13T13:00:30Z</time>
      </trkpt>
      <trkpt lat="42.86552639" lon="13.43395273">
        <ele>376.00000</ele>
        <time>2024-05-13T13:00:34Z</time>
      </trkpt>
      <trkpt lat="42.86541282" lon="13.43364553">
        <ele>374.00000</ele>
        <time>2024-05-13T13:00:38Z</time>
      </trkpt>
      <trkpt lat="42.86529991" lon="13.43333993">
        <ele>373.00000</ele>
        <time>2024-05-13T13:00:42Z</time>
      </trkpt>
      <trkpt lat="42.86515968" lon="13.43301940">
        <ele>373.00000</ele>
        <time>2024-05-13T13:00:46Z</time>
      </trkpt>
      <trkpt lat="42.86501996" lon="13.43269997">
        <ele>371.00000</ele>
        <time>2024-05-13T13:00:51Z</time>
      </trkpt>
      <trkpt lat="42.86496480" lon="13.43242429">
        <ele>372.00000</ele>
        <time>2024-05-13T13:00:54Z</time>
      </trkpt>
      <trkpt lat="42.86490999" lon="13.43214995">
        <ele>376.00000</ele>
        <time>2024-05-13T13:00:57Z</time>
      </trkpt>
      <trkpt lat="42.86487487" lon="13.43189933">
        <ele>378.00000</ele>
        <time>2024-05-13T13:01:00Z</time>
      </trkpt>
      <trkpt lat="42.86483991" lon="13.43164997">
        <ele>379.00000</ele>
        <time>2024-05-13T13:01:03Z</time>
      </trkpt>
      <trkpt lat="42.86480999" lon="13.43141997">
        <ele>380.00000</ele>
        <time>2024-05-13T13:01:06Z</time>
      </trkpt>
      <trkpt lat="42.86477998" lon="13.43125996">
        <ele>380.00000</ele>
        <time>2024-05-13T13:01:08Z</time>
      </trkpt>
      <trkpt lat="42.86474998" lon="13.43110992">
        <ele>380.00000</ele>
        <time>2024-05-13T13:01:10Z</time>
      </trkpt>
      <trkpt lat="42.86470999" lon="13.43100992">
        <ele>381.00000</ele>
        <time>2024-05-13T13:01:11Z</time>
      </trkpt>
      <trkpt lat="42.86470999" lon="13.43098998">
        <ele>381.00000</ele>
        <time>2024-05-13T13:01:11Z</time>
      </trkpt>
      <trkpt lat="42.86456993" lon="13.43068999">
        <ele>381.00000</ele>
        <time>2024-05-13T13:01:16Z</time>
      </trkpt>
      <trkpt lat="42.86442996" lon="13.43044993">
        <ele>382.00000</ele>
        <time>2024-05-13T13:01:19Z</time>
      </trkpt>
      <trkpt lat="42.86426994" lon="13.43015992">
        <ele>386.00000</ele>
        <time>2024-05-13T13:01:24Z</time>
      </trkpt>
      <trkpt lat="42.86411974" lon="13.42988457">
        <ele>389.00000</ele>
        <time>2024-05-13T13:01:28Z</time>
      </trkpt>
      <trkpt lat="42.86396996" lon="13.42960998">
        <ele>390.00000</ele>
        <time>2024-05-13T13:01:32Z</time>
      </trkpt>
      <trkpt lat="42.86390994" lon="13.42949992">
        <ele>390.00000</ele>
        <time>2024-05-13T13:01:33Z</time>
      </trkpt>
      <trkpt lat="42.86377994" lon="13.42930999">
        <ele>389.00000</ele>
        <time>2024-05-13T13:01:36Z</time>
      </trkpt>
      <trkpt lat="42.86365999" lon="13.42913992">
        <ele>388.00000</ele>
        <time>2024-05-13T13:01:39Z</time>
      </trkpt>
      <trkpt lat="42.86356997" lon="13.42898997">
        <ele>386.00000</ele>
        <time>2024-05-13T13:01:41Z</time>
      </trkpt>
      <trkpt lat="42.86344994" lon="13.42871999">
        <ele>386.00000</ele>
        <time>2024-05-13T13:01:45Z</time>
      </trkpt>
      <trkpt lat="42.86335992" lon="13.42840994">
        <ele>389.00000</ele>
        <time>2024-05-13T13:01:49Z</time>
      </trkpt>
      <trkpt lat="42.86330997" lon="13.42812999">
        <ele>392.00000</ele>
        <time>2024-05-13T13:01:52Z</time>
      </trkpt>
      <trkpt lat="42.86325993" lon="13.42786998">
        <ele>392.00000</ele>
        <time>2024-05-13T13:01:55Z</time>
      </trkpt>
      <trkpt lat="42.86317996" lon="13.42749992">
        <ele>394.00000</ele>
        <time>2024-05-13T13:02:00Z</time>
      </trkpt>
      <trkpt lat="42.86307997" lon="13.42712994">
        <ele>394.00000</ele>
        <time>2024-05-13T13:02:05Z</time>
      </trkpt>
      <trkpt lat="42.86302993" lon="13.42683993">
        <ele>392.00000</ele>
        <time>2024-05-13T13:02:08Z</time>
      </trkpt>
      <trkpt lat="42.86298994" lon="13.42642997">
        <ele>389.00000</ele>
        <time>2024-05-13T13:02:13Z</time>
      </trkpt>
      <trkpt lat="42.86294996" lon="13.42605999">
        <ele>387.00000</ele>
        <time>2024-05-13T13:02:17Z</time>
      </trkpt>
      <trkpt lat="42.86294996" lon="13.42571994">
        <ele>386.00000</ele>
        <time>2024-05-13T13:02:21Z</time>
      </trkpt>
      <trkpt lat="42.86296991" lon="13.42542992">
        <ele>387.00000</ele>
        <time>2024-05-13T13:02:25Z</time>
      </trkpt>
      <trkpt lat="42.86298994" lon="13.42515927">
        <ele>388.00000</ele>
        <time>2024-05-13T13:02:28Z</time>
      </trkpt>
      <trkpt lat="42.86300998" lon="13.42488996">
        <ele>388.00000</ele>
        <time>2024-05-13T13:02:31Z</time>
      </trkpt>
      <trkpt lat="42.86301492" lon="13.42466440">
        <ele>388.00000</ele>
        <time>2024-05-13T13:02:34Z</time>
      </trkpt>
      <trkpt lat="42.86301995" lon="13.42443994">
        <ele>387.00000</ele>
        <time>2024-05-13T13:02:37Z</time>
      </trkpt>
      <trkpt lat="42.86299657" lon="13.42414925">
        <ele>386.00000</ele>
        <time>2024-05-13T13:02:40Z</time>
      </trkpt>
      <trkpt lat="42.86297318" lon="13.42385857">
        <ele>389.00000</ele>
        <time>2024-05-13T13:02:43Z</time>
      </trkpt>
      <trkpt lat="42.86294996" lon="13.42356998">
        <ele>392.00000</ele>
        <time>2024-05-13T13:02:47Z</time>
      </trkpt>
      <trkpt lat="42.86291484" lon="13.42316396">
        <ele>394.00000</ele>
        <time>2024-05-13T13:02:52Z</time>
      </trkpt>
      <trkpt lat="42.86287997" lon="13.42275995">
        <ele>394.00000</ele>
        <time>2024-05-13T13:02:56Z</time>
      </trkpt>
      <trkpt lat="42.86287486" lon="13.42248930">
        <ele>394.00000</ele>
        <time>2024-05-13T13:03:00Z</time>
      </trkpt>
      <trkpt lat="42.86286992" lon="13.42221999">
        <ele>393.00000</ele>
        <time>2024-05-13T13:03:03Z</time>
      </trkpt>
      <trkpt lat="42.86287997" lon="13.42198999">
        <ele>392.00000</ele>
        <time>2024-05-13T13:03:06Z</time>
      </trkpt>
      <trkpt lat="42.86290998" lon="13.42160996">
        <ele>393.00000</ele>
        <time>2024-05-13T13:03:10Z</time>
      </trkpt>
      <trkpt lat="42.86290487" lon="13.42138440">
        <ele>395.00000</ele>
        <time>2024-05-13T13:03:13Z</time>
      </trkpt>
      <trkpt lat="42.86289992" lon="13.42115993">
        <ele>397.00000</ele>
        <time>2024-05-13T13:03:15Z</time>
      </trkpt>
      <trkpt lat="42.86287981" lon="13.42086422">
        <ele>400.00000</ele>
        <time>2024-05-13T13:03:19Z</time>
      </trkpt>
      <trkpt lat="42.86285994" lon="13.42056993">
        <ele>400.00000</ele>
        <time>2024-05-13T13:03:22Z</time>
      </trkpt>
      <trkpt lat="42.86282985" lon="13.42020238">
        <ele>400.00000</ele>
        <time>2024-05-13T13:03:27Z</time>
      </trkpt>
      <trkpt lat="42.86279976" lon="13.41983484">
        <ele>399.00000</ele>
        <time>2024-05-13T13:03:31Z</time>
      </trkpt>
      <trkpt lat="42.86276992" lon="13.41946997">
        <ele>397.00000</ele>
        <time>2024-05-13T13:03:35Z</time>
      </trkpt>
      <trkpt lat="42.86277998" lon="13.41921994">
        <ele>396.00000</ele>
        <time>2024-05-13T13:03:38Z</time>
      </trkpt>
      <trkpt lat="42.86280998" lon="13.41903998">
        <ele>398.00000</ele>
        <time>2024-05-13T13:03:40Z</time>
      </trkpt>
      <trkpt lat="42.86285994" lon="13.41874997">
        <ele>400.00000</ele>
        <time>2024-05-13T13:03:44Z</time>
      </trkpt>
      <trkpt lat="42.86288995" lon="13.41862994">
        <ele>399.00000</ele>
        <time>2024-05-13T13:03:45Z</time>
      </trkpt>
      <trkpt lat="42.86293999" lon="13.41840991">
        <ele>400.00000</ele>
        <time>2024-05-13T13:03:48Z</time>
      </trkpt>
      <trkpt lat="42.86295994" lon="13.41821998">
        <ele>399.00000</ele>
        <time>2024-05-13T13:03:50Z</time>
      </trkpt>
      <trkpt lat="42.86294996" lon="13.41804999">
        <ele>398.00000</ele>
        <time>2024-05-13T13:03:52Z</time>
      </trkpt>
      <trkpt lat="42.86290998" lon="13.41777993">
        <ele>398.00000</ele>
        <time>2024-05-13T13:03:56Z</time>
      </trkpt>
      <trkpt lat="42.86286313" lon="13.41745580">
        <ele>398.00000</ele>
        <time>2024-05-13T13:04:00Z</time>
      </trkpt>
      <trkpt lat="42.86281635" lon="13.41713176">
        <ele>398.00000</ele>
        <time>2024-05-13T13:04:03Z</time>
      </trkpt>
      <trkpt lat="42.86276992" lon="13.41680997">
        <ele>399.00000</ele>
        <time>2024-05-13T13:04:07Z</time>
      </trkpt>
      <trkpt lat="42.86272315" lon="13.41649926">
        <ele>400.00000</ele>
        <time>2024-05-13T13:04:11Z</time>
      </trkpt>
      <trkpt lat="42.86267638" lon="13.41618854">
        <ele>399.00000</ele>
        <time>2024-05-13T13:04:15Z</time>
      </trkpt>
      <trkpt lat="42.86262994" lon="13.41587992">
        <ele>397.00000</ele>
        <time>2024-05-13T13:04:18Z</time>
      </trkpt>
      <trkpt lat="42.86260488" lon="13.41556920">
        <ele>398.00000</ele>
        <time>2024-05-13T13:04:22Z</time>
      </trkpt>
      <trkpt lat="42.86257999" lon="13.41525999">
        <ele>399.00000</ele>
        <time>2024-05-13T13:04:26Z</time>
      </trkpt>
      <trkpt lat="42.86255987" lon="13.41497258">
        <ele>398.00000</ele>
        <time>2024-05-13T13:04:29Z</time>
      </trkpt>
      <trkpt lat="42.86253984" lon="13.41468525">
        <ele>400.00000</ele>
        <time>2024-05-13T13:04:33Z</time>
      </trkpt>
      <trkpt lat="42.86251997" lon="13.41439993">
        <ele>404.00000</ele>
        <time>2024-05-13T13:04:36Z</time>
      </trkpt>
      <trkpt lat="42.86250488" lon="13.41407915">
        <ele>408.00000</ele>
        <time>2024-05-13T13:04:40Z</time>
      </trkpt>
      <trkpt lat="42.86248996" lon="13.41375997">
        <ele>411.00000</ele>
        <time>2024-05-13T13:04:43Z</time>
      </trkpt>
      <trkpt lat="42.86243481" lon="13.41346425">
        <ele>411.00000</ele>
        <time>2024-05-13T13:04:47Z</time>
      </trkpt>
      <trkpt lat="42.86237999" lon="13.41316997">
        <ele>411.00000</ele>
        <time>2024-05-13T13:04:51Z</time>
      </trkpt>
      <trkpt lat="42.86232979" lon="13.41283922">
        <ele>411.00000</ele>
        <time>2024-05-13T13:04:55Z</time>
      </trkpt>
      <trkpt lat="42.86227991" lon="13.41250997">
        <ele>411.00000</ele>
        <time>2024-05-13T13:04:59Z</time>
      </trkpt>
      <trkpt lat="42.86227991" lon="13.41213991">
        <ele>415.00000</ele>
        <time>2024-05-13T13:05:03Z</time>
      </trkpt>
      <trkpt lat="42.86226994" lon="13.41182995">
        <ele>419.00000</ele>
        <time>2024-05-13T13:05:07Z</time>
      </trkpt>
      <trkpt lat="42.86225996" lon="13.41175996">
        <ele>419.00000</ele>
        <time>2024-05-13T13:05:07Z</time>
      </trkpt>
      <trkpt lat="42.86222996" lon="13.41162996">
        <ele>419.00000</ele>
        <time>2024-05-13T13:05:09Z</time>
      </trkpt>
      <trkpt lat="42.86219995" lon="13.41151999">
        <ele>420.00000</ele>
        <time>2024-05-13T13:05:10Z</time>
      </trkpt>
      <trkpt lat="42.86215997" lon="13.41142997">
        <ele>420.00000</ele>
        <time>2024-05-13T13:05:12Z</time>
      </trkpt>
      <trkpt lat="42.86208998" lon="13.41129996">
        <ele>419.00000</ele>
        <time>2024-05-13T13:05:14Z</time>
      </trkpt>
      <trkpt lat="42.86193466" lon="13.41092932">
        <ele>415.00000</ele>
        <time>2024-05-13T13:05:19Z</time>
      </trkpt>
      <trkpt lat="42.86177993" lon="13.41055992">
        <ele>413.00000</ele>
        <time>2024-05-13T13:05:24Z</time>
      </trkpt>
      <trkpt lat="42.86167968" lon="13.41027276">
        <ele>412.00000</ele>
        <time>2024-05-13T13:05:27Z</time>
      </trkpt>
      <trkpt lat="42.86157952" lon="13.40998560">
        <ele>413.00000</ele>
        <time>2024-05-13T13:05:31Z</time>
      </trkpt>
      <trkpt lat="42.86147994" lon="13.40969994">
        <ele>412.00000</ele>
        <time>2024-05-13T13:05:35Z</time>
      </trkpt>
      <trkpt lat="42.86137475" lon="13.40937933">
        <ele>414.00000</ele>
        <time>2024-05-13T13:05:39Z</time>
      </trkpt>
      <trkpt lat="42.86126998" lon="13.40905998">
        <ele>415.00000</ele>
        <time>2024-05-13T13:05:43Z</time>
      </trkpt>
      <trkpt lat="42.86123997" lon="13.40891992">
        <ele>415.00000</ele>
        <time>2024-05-13T13:05:45Z</time>
      </trkpt>
      <trkpt lat="42.86120996" lon="13.40862999">
        <ele>417.00000</ele>
        <time>2024-05-13T13:05:48Z</time>
      </trkpt>
      <trkpt lat="42.86120996" lon="13.40851994">
        <ele>417.00000</ele>
        <time>2024-05-13T13:05:49Z</time>
      </trkpt>
      <trkpt lat="42.86120996" lon="13.40836999">
        <ele>417.00000</ele>
        <time>2024-05-13T13:05:51Z</time>
      </trkpt>
      <trkpt lat="42.86122991" lon="13.40824996">
        <ele>418.00000</ele>
        <time>2024-05-13T13:05:53Z</time>
      </trkpt>
      <trkpt lat="42.86128993" lon="13.40807997">
        <ele>419.00000</ele>
        <time>2024-05-13T13:05:55Z</time>
      </trkpt>
      <trkpt lat="42.86133997" lon="13.40791996">
        <ele>418.00000</ele>
        <time>2024-05-13T13:05:57Z</time>
      </trkpt>
      <trkpt lat="42.86153996" lon="13.40767999">
        <ele>417.00000</ele>
        <time>2024-05-13T13:06:01Z</time>
      </trkpt>
      <trkpt lat="42.86166502" lon="13.40752987">
        <ele>416.00000</ele>
        <time>2024-05-13T13:06:04Z</time>
      </trkpt>
      <trkpt lat="42.86178999" lon="13.40737991">
        <ele>420.00000</ele>
        <time>2024-05-13T13:06:07Z</time>
      </trkpt>
      <trkpt lat="42.86187993" lon="13.40718998">
        <ele>421.00000</ele>
        <time>2024-05-13T13:06:09Z</time>
      </trkpt>
      <trkpt lat="42.86197992" lon="13.40695998">
        <ele>421.00000</ele>
        <time>2024-05-13T13:06:12Z</time>
      </trkpt>
      <trkpt lat="42.86206995" lon="13.40675999">
        <ele>421.00000</ele>
        <time>2024-05-13T13:06:15Z</time>
      </trkpt>
      <trkpt lat="42.86227254" lon="13.40648984">
        <ele>421.00000</ele>
        <time>2024-05-13T13:06:20Z</time>
      </trkpt>
      <trkpt lat="42.86247513" lon="13.40621969">
        <ele>422.00000</ele>
        <time>2024-05-13T13:06:24Z</time>
      </trkpt>
      <trkpt lat="42.86267772" lon="13.40594954">
        <ele>423.00000</ele>
        <time>2024-05-13T13:06:29Z</time>
      </trkpt>
      <trkpt lat="42.86287997" lon="13.40567998">
        <ele>423.00000</ele>
        <time>2024-05-13T13:06:33Z</time>
      </trkpt>
      <trkpt lat="42.86305750" lon="13.40545736">
        <ele>423.00000</ele>
        <time>2024-05-13T13:06:37Z</time>
      </trkpt>
      <trkpt lat="42.86323503" lon="13.40523473">
        <ele>423.00000</ele>
        <time>2024-05-13T13:06:41Z</time>
      </trkpt>
      <trkpt lat="42.86341264" lon="13.40501219">
        <ele>424.00000</ele>
        <time>2024-05-13T13:06:45Z</time>
      </trkpt>
      <trkpt lat="42.86358992" lon="13.40478999">
        <ele>425.00000</ele>
        <time>2024-05-13T13:06:49Z</time>
      </trkpt>
      <trkpt lat="42.86369998" lon="13.40463484">
        <ele>428.00000</ele>
        <time>2024-05-13T13:06:51Z</time>
      </trkpt>
      <trkpt lat="42.86380995" lon="13.40447994">
        <ele>432.00000</ele>
        <time>2024-05-13T13:06:54Z</time>
      </trkpt>
      <trkpt lat="42.86386996" lon="13.40434994">
        <ele>433.00000</ele>
        <time>2024-05-13T13:06:56Z</time>
      </trkpt>
      <trkpt lat="42.86389997" lon="13.40424994">
        <ele>432.00000</ele>
        <time>2024-05-13T13:06:57Z</time>
      </trkpt>
      <trkpt lat="42.86392997" lon="13.40414995">
        <ele>432.00000</ele>
        <time>2024-05-13T13:06:58Z</time>
      </trkpt>
      <trkpt lat="42.86394992" lon="13.40406998">
        <ele>432.00000</ele>
        <time>2024-05-13T13:06:59Z</time>
      </trkpt>
      <trkpt lat="42.86396996" lon="13.40385993">
        <ele>430.00000</ele>
        <time>2024-05-13T13:07:02Z</time>
      </trkpt>
      <trkpt lat="42.86396996" lon="13.40375994">
        <ele>430.00000</ele>
        <time>2024-05-13T13:07:03Z</time>
      </trkpt>
      <trkpt lat="42.86397993" lon="13.40363999">
        <ele>430.00000</ele>
        <time>2024-05-13T13:07:04Z</time>
      </trkpt>
      <trkpt lat="42.86397993" lon="13.40350999">
        <ele>430.00000</ele>
        <time>2024-05-13T13:07:06Z</time>
      </trkpt>
      <trkpt lat="42.86398999" lon="13.40340999">
        <ele>430.00000</ele>
        <time>2024-05-13T13:07:07Z</time>
      </trkpt>
      <trkpt lat="42.86398999" lon="13.40324998">
        <ele>430.00000</ele>
        <time>2024-05-13T13:07:09Z</time>
      </trkpt>
      <trkpt lat="42.86398999" lon="13.40296994">
        <ele>429.00000</ele>
        <time>2024-05-13T13:07:12Z</time>
      </trkpt>
      <trkpt lat="42.86397993" lon="13.40259997">
        <ele>430.00000</ele>
        <time>2024-05-13T13:07:16Z</time>
      </trkpt>
      <trkpt lat="42.86397490" lon="13.40218397">
        <ele>431.00000</ele>
        <time>2024-05-13T13:07:21Z</time>
      </trkpt>
      <trkpt lat="42.86396996" lon="13.40176999">
        <ele>435.00000</ele>
        <time>2024-05-13T13:07:26Z</time>
      </trkpt>
      <trkpt lat="42.86397490" lon="13.40143413">
        <ele>439.00000</ele>
        <time>2024-05-13T13:07:30Z</time>
      </trkpt>
      <trkpt lat="42.86397993" lon="13.40109994">
        <ele>444.00000</ele>
        <time>2024-05-13T13:07:34Z</time>
      </trkpt>
      <trkpt lat="42.86394992" lon="13.40067992">
        <ele>454.00000</ele>
        <time>2024-05-13T13:07:39Z</time>
      </trkpt>
      <trkpt lat="42.86391992" lon="13.40051991">
        <ele>457.00000</ele>
        <time>2024-05-13T13:07:41Z</time>
      </trkpt>
      <trkpt lat="42.86386996" lon="13.40036996">
        <ele>460.00000</ele>
        <time>2024-05-13T13:07:43Z</time>
      </trkpt>
      <trkpt lat="42.86379997" lon="13.40026997">
        <ele>459.00000</ele>
        <time>2024-05-13T13:07:45Z</time>
      </trkpt>
      <trkpt lat="42.86370995" lon="13.40016997">
        <ele>457.00000</ele>
        <time>2024-05-13T13:07:46Z</time>
      </trkpt>
      <trkpt lat="42.86350996" lon="13.40002999">
        <ele>449.00000</ele>
        <time>2024-05-13T13:07:50Z</time>
      </trkpt>
      <trkpt lat="42.86338993" lon="13.39998993">
        <ele>443.00000</ele>
        <time>2024-05-13T13:07:52Z</time>
      </trkpt>
      <trkpt lat="42.86330997" lon="13.39996998">
        <ele>440.00000</ele>
        <time>2024-05-13T13:07:53Z</time>
      </trkpt>
      <trkpt lat="42.86320997" lon="13.39993997">
        <ele>438.00000</ele>
        <time>2024-05-13T13:07:55Z</time>
      </trkpt>
      <trkpt lat="42.86312992" lon="13.39991994">
        <ele>436.00000</ele>
        <time>2024-05-13T13:07:56Z</time>
      </trkpt>
      <trkpt lat="42.86303998" lon="13.39986998">
        <ele>435.00000</ele>
        <time>2024-05-13T13:07:58Z</time>
      </trkpt>
      <trkpt lat="42.86291996" lon="13.39979999">
        <ele>435.00000</ele>
        <time>2024-05-13T13:08:00Z</time>
      </trkpt>
      <trkpt lat="42.86283999" lon="13.39968994">
        <ele>436.00000</ele>
        <time>2024-05-13T13:08:02Z</time>
      </trkpt>
      <trkpt lat="42.86277998" lon="13.39954996">
        <ele>437.00000</ele>
        <time>2024-05-13T13:08:04Z</time>
      </trkpt>
      <trkpt lat="42.86273991" lon="13.39943999">
        <ele>438.00000</ele>
        <time>2024-05-13T13:08:05Z</time>
      </trkpt>
      <trkpt lat="42.86271996" lon="13.39932993">
        <ele>439.00000</ele>
        <time>2024-05-13T13:08:06Z</time>
      </trkpt>
      <trkpt lat="42.86269993" lon="13.39915995">
        <ele>440.00000</ele>
        <time>2024-05-13T13:08:08Z</time>
      </trkpt>
      <trkpt lat="42.86268996" lon="13.39897999">
        <ele>441.00000</ele>
        <time>2024-05-13T13:08:11Z</time>
      </trkpt>
      <trkpt lat="42.86270999" lon="13.39863994">
        <ele>443.00000</ele>
        <time>2024-05-13T13:08:15Z</time>
      </trkpt>
      <trkpt lat="42.86274502" lon="13.39827910">
        <ele>447.00000</ele>
        <time>2024-05-13T13:08:19Z</time>
      </trkpt>
      <trkpt lat="42.86277998" lon="13.39791993">
        <ele>448.00000</ele>
        <time>2024-05-13T13:08:23Z</time>
      </trkpt>
      <trkpt lat="42.86279498" lon="13.39768432">
        <ele>447.00000</ele>
        <time>2024-05-13T13:08:26Z</time>
      </trkpt>
      <trkpt lat="42.86280998" lon="13.39744996">
        <ele>444.00000</ele>
        <time>2024-05-13T13:08:29Z</time>
      </trkpt>
      <trkpt lat="42.86287997" lon="13.39726991">
        <ele>445.00000</ele>
        <time>2024-05-13T13:08:31Z</time>
      </trkpt>
      <trkpt lat="42.86294996" lon="13.39705995">
        <ele>445.00000</ele>
        <time>2024-05-13T13:08:34Z</time>
      </trkpt>
      <trkpt lat="42.86298994" lon="13.39691997">
        <ele>445.00000</ele>
        <time>2024-05-13T13:08:36Z</time>
      </trkpt>
      <trkpt lat="42.86300998" lon="13.39680992">
        <ele>444.00000</ele>
        <time>2024-05-13T13:08:37Z</time>
      </trkpt>
      <trkpt lat="42.86302993" lon="13.39673993">
        <ele>444.00000</ele>
        <time>2024-05-13T13:08:38Z</time>
      </trkpt>
      <trkpt lat="42.86302993" lon="13.39667991">
        <ele>444.00000</ele>
        <time>2024-05-13T13:08:38Z</time>
      </trkpt>
      <trkpt lat="42.86301995" lon="13.39654999">
        <ele>443.00000</ele>
        <time>2024-05-13T13:08:40Z</time>
      </trkpt>
      <trkpt lat="42.86298994" lon="13.39640993">
        <ele>441.00000</ele>
        <time>2024-05-13T13:08:42Z</time>
      </trkpt>
      <trkpt lat="42.86297997" lon="13.39630994">
        <ele>440.00000</ele>
        <time>2024-05-13T13:08:43Z</time>
      </trkpt>
      <trkpt lat="42.86295994" lon="13.39620994">
        <ele>440.00000</ele>
        <time>2024-05-13T13:08:44Z</time>
      </trkpt>
      <trkpt lat="42.86292993" lon="13.39609997">
        <ele>439.00000</ele>
        <time>2024-05-13T13:08:45Z</time>
      </trkpt>
      <trkpt lat="42.86288995" lon="13.39597994">
        <ele>438.00000</ele>
        <time>2024-05-13T13:08:47Z</time>
      </trkpt>
      <trkpt lat="42.86283999" lon="13.39582999">
        <ele>438.00000</ele>
        <time>2024-05-13T13:08:49Z</time>
      </trkpt>
      <trkpt lat="42.86279993" lon="13.39564994">
        <ele>441.00000</ele>
        <time>2024-05-13T13:08:51Z</time>
      </trkpt>
      <trkpt lat="42.86273991" lon="13.39540997">
        <ele>447.00000</ele>
        <time>2024-05-13T13:08:54Z</time>
      </trkpt>
      <trkpt lat="42.86269976" lon="13.39516438">
        <ele>453.00000</ele>
        <time>2024-05-13T13:08:57Z</time>
      </trkpt>
      <trkpt lat="42.86265995" lon="13.39491996">
        <ele>454.00000</ele>
        <time>2024-05-13T13:09:00Z</time>
      </trkpt>
      <trkpt lat="42.86263983" lon="13.39454906">
        <ele>453.00000</ele>
        <time>2024-05-13T13:09:04Z</time>
      </trkpt>
      <trkpt lat="42.86261997" lon="13.39417993">
        <ele>455.00000</ele>
        <time>2024-05-13T13:09:09Z</time>
      </trkpt>
      <trkpt lat="42.86257982" lon="13.39382411">
        <ele>456.00000</ele>
        <time>2024-05-13T13:09:13Z</time>
      </trkpt>
      <trkpt lat="42.86253992" lon="13.39346998">
        <ele>455.00000</ele>
        <time>2024-05-13T13:09:17Z</time>
      </trkpt>
      <trkpt lat="42.86243992" lon="13.39306999">
        <ele>455.00000</ele>
        <time>2024-05-13T13:09:22Z</time>
      </trkpt>
      <trkpt lat="42.86235979" lon="13.39286958">
        <ele>456.00000</ele>
        <time>2024-05-13T13:09:25Z</time>
      </trkpt>
      <trkpt lat="42.86227991" lon="13.39266993">
        <ele>457.00000</ele>
        <time>2024-05-13T13:09:28Z</time>
      </trkpt>
      <trkpt lat="42.86215972" lon="13.39240950">
        <ele>457.00000</ele>
        <time>2024-05-13T13:09:31Z</time>
      </trkpt>
      <trkpt lat="42.86203994" lon="13.39214991">
        <ele>455.00000</ele>
        <time>2024-05-13T13:09:35Z</time>
      </trkpt>
      <trkpt lat="42.86188974" lon="13.39187960">
        <ele>453.00000</ele>
        <time>2024-05-13T13:09:39Z</time>
      </trkpt>
      <trkpt lat="42.86173995" lon="13.39160995">
        <ele>451.00000</ele>
        <time>2024-05-13T13:09:43Z</time>
      </trkpt>
      <trkpt lat="42.86161992" lon="13.39126998">
        <ele>451.00000</ele>
        <time>2024-05-13T13:09:47Z</time>
      </trkpt>
      <trkpt lat="42.86156997" lon="13.39110997">
        <ele>451.00000</ele>
        <time>2024-05-13T13:09:49Z</time>
      </trkpt>
      <trkpt lat="42.86152998" lon="13.39094996">
        <ele>452.00000</ele>
        <time>2024-05-13T13:09:51Z</time>
      </trkpt>
      <trkpt lat="42.86151993" lon="13.39083999">
        <ele>453.00000</ele>
        <time>2024-05-13T13:09:53Z</time>
      </trkpt>
      <trkpt lat="42.86151993" lon="13.39070999">
        <ele>454.00000</ele>
        <time>2024-05-13T13:09:54Z</time>
      </trkpt>
      <trkpt lat="42.86154993" lon="13.39051997">
        <ele>456.00000</ele>
        <time>2024-05-13T13:09:56Z</time>
      </trkpt>
      <trkpt lat="42.86158991" lon="13.39038996">
        <ele>457.00000</ele>
        <time>2024-05-13T13:09:58Z</time>
      </trkpt>
      <trkpt lat="42.86158991" lon="13.39017991">
        <ele>458.00000</ele>
        <time>2024-05-13T13:10:00Z</time>
      </trkpt>
      <trkpt lat="42.86158991" lon="13.39007992">
        <ele>459.00000</ele>
        <time>2024-05-13T13:10:02Z</time>
      </trkpt>
      <trkpt lat="42.86157994" lon="13.38998998">
        <ele>459.00000</ele>
        <time>2024-05-13T13:10:03Z</time>
      </trkpt>
      <trkpt lat="42.86154993" lon="13.38990993">
        <ele>459.00000</ele>
        <time>2024-05-13T13:10:04Z</time>
      </trkpt>
      <trkpt lat="42.86151993" lon="13.38980994">
        <ele>459.00000</ele>
        <time>2024-05-13T13:10:05Z</time>
      </trkpt>
      <trkpt lat="42.86145974" lon="13.38941900">
        <ele>460.00000</ele>
        <time>2024-05-13T13:10:10Z</time>
      </trkpt>
      <trkpt lat="42.86139998" lon="13.38902992">
        <ele>459.00000</ele>
        <time>2024-05-13T13:10:14Z</time>
      </trkpt>
      <trkpt lat="42.86136654" lon="13.38874594">
        <ele>458.00000</ele>
        <time>2024-05-13T13:10:18Z</time>
      </trkpt>
      <trkpt lat="42.86133309" lon="13.38846196">
        <ele>459.00000</ele>
        <time>2024-05-13T13:10:21Z</time>
      </trkpt>
      <trkpt lat="42.86129998" lon="13.38817999">
        <ele>459.00000</ele>
        <time>2024-05-13T13:10:25Z</time>
      </trkpt>
      <trkpt lat="42.86132999" lon="13.38778998">
        <ele>462.00000</ele>
        <time>2024-05-13T13:10:29Z</time>
      </trkpt>
      <trkpt lat="42.86134994" lon="13.38761991">
        <ele>463.00000</ele>
        <time>2024-05-13T13:10:31Z</time>
      </trkpt>
      <trkpt lat="42.86135992" lon="13.38749997">
        <ele>464.00000</ele>
        <time>2024-05-13T13:10:33Z</time>
      </trkpt>
      <trkpt lat="42.86135992" lon="13.38740995">
        <ele>464.00000</ele>
        <time>2024-05-13T13:10:34Z</time>
      </trkpt>
      <trkpt lat="42.86135992" lon="13.38730995">
        <ele>465.00000</ele>
        <time>2024-05-13T13:10:35Z</time>
      </trkpt>
      <trkpt lat="42.86133997" lon="13.38720995">
        <ele>465.00000</ele>
        <time>2024-05-13T13:10:36Z</time>
      </trkpt>
      <trkpt lat="42.86129998" lon="13.38699999">
        <ele>465.00000</ele>
        <time>2024-05-13T13:10:39Z</time>
      </trkpt>
      <trkpt lat="42.86126998" lon="13.38688993">
        <ele>466.00000</ele>
        <time>2024-05-13T13:10:40Z</time>
      </trkpt>
      <trkpt lat="42.86124994" lon="13.38673998">
        <ele>467.00000</ele>
        <time>2024-05-13T13:10:42Z</time>
      </trkpt>
      <trkpt lat="42.86121994" lon="13.38663998">
        <ele>467.00000</ele>
        <time>2024-05-13T13:10:43Z</time>
      </trkpt>
      <trkpt lat="42.86118993" lon="13.38653999">
        <ele>466.00000</ele>
        <time>2024-05-13T13:10:44Z</time>
      </trkpt>
      <trkpt lat="42.86114995" lon="13.38633991">
        <ele>466.00000</ele>
        <time>2024-05-13T13:10:47Z</time>
      </trkpt>
      <trkpt lat="42.86110997" lon="13.38615995">
        <ele>465.00000</ele>
        <time>2024-05-13T13:10:49Z</time>
      </trkpt>
      <trkpt lat="42.86107996" lon="13.38591998">
        <ele>465.00000</ele>
        <time>2024-05-13T13:10:52Z</time>
      </trkpt>
      <trkpt lat="42.86106999" lon="13.38573994">
        <ele>466.00000</ele>
        <time>2024-05-13T13:10:54Z</time>
      </trkpt>
      <trkpt lat="42.86107996" lon="13.38549435">
        <ele>469.00000</ele>
        <time>2024-05-13T13:10:57Z</time>
      </trkpt>
      <trkpt lat="42.86108993" lon="13.38524993">
        <ele>472.00000</ele>
        <time>2024-05-13T13:11:00Z</time>
      </trkpt>
      <trkpt lat="42.86112992" lon="13.38499998">
        <ele>473.00000</ele>
        <time>2024-05-13T13:11:03Z</time>
      </trkpt>
      <trkpt lat="42.86115665" lon="13.38460570">
        <ele>474.00000</ele>
        <time>2024-05-13T13:11:07Z</time>
      </trkpt>
      <trkpt lat="42.86118339" lon="13.38421141">
        <ele>475.00000</ele>
        <time>2024-05-13T13:11:12Z</time>
      </trkpt>
      <trkpt lat="42.86120996" lon="13.38381998">
        <ele>479.00000</ele>
        <time>2024-05-13T13:11:17Z</time>
      </trkpt>
      <trkpt lat="42.86120996" lon="13.38343994">
        <ele>482.00000</ele>
        <time>2024-05-13T13:11:21Z</time>
      </trkpt>
      <trkpt lat="42.86119488" lon="13.38313920">
        <ele>486.00000</ele>
        <time>2024-05-13T13:11:25Z</time>
      </trkpt>
      <trkpt lat="42.86117996" lon="13.38283997">
        <ele>491.00000</ele>
        <time>2024-05-13T13:11:28Z</time>
      </trkpt>
      <trkpt lat="42.86116990" lon="13.38255926">
        <ele>492.00000</ele>
        <time>2024-05-13T13:11:32Z</time>
      </trkpt>
      <trkpt lat="42.86115992" lon="13.38227997">
        <ele>490.00000</ele>
        <time>2024-05-13T13:11:35Z</time>
      </trkpt>
      <trkpt lat="42.86114995" lon="13.38197998">
        <ele>490.00000</ele>
        <time>2024-05-13T13:11:38Z</time>
      </trkpt>
      <trkpt lat="42.86111994" lon="13.38164999">
        <ele>492.00000</ele>
        <time>2024-05-13T13:11:42Z</time>
      </trkpt>
      <trkpt lat="42.86105993" lon="13.38126995">
        <ele>493.00000</ele>
        <time>2024-05-13T13:11:47Z</time>
      </trkpt>
      <trkpt lat="42.86095968" lon="13.38090257">
        <ele>495.00000</ele>
        <time>2024-05-13T13:11:51Z</time>
      </trkpt>
      <trkpt lat="42.86085952" lon="13.38053519">
        <ele>496.00000</ele>
        <time>2024-05-13T13:11:56Z</time>
      </trkpt>
      <trkpt lat="42.86075994" lon="13.38016999">
        <ele>500.00000</ele>
        <time>2024-05-13T13:12:01Z</time>
      </trkpt>
      <trkpt lat="42.86067972" lon="13.37988275">
        <ele>503.00000</ele>
        <time>2024-05-13T13:12:04Z</time>
      </trkpt>
      <trkpt lat="42.86059959" lon="13.37959550">
        <ele>504.00000</ele>
        <time>2024-05-13T13:12:08Z</time>
      </trkpt>
      <trkpt lat="42.86051996" lon="13.37930993">
        <ele>505.00000</ele>
        <time>2024-05-13T13:12:11Z</time>
      </trkpt>
      <trkpt lat="42.86047998" lon="13.37917992">
        <ele>504.00000</ele>
        <time>2024-05-13T13:12:13Z</time>
      </trkpt>
      <trkpt lat="42.86045995" lon="13.37904992">
        <ele>504.00000</ele>
        <time>2024-05-13T13:12:15Z</time>
      </trkpt>
      <trkpt lat="42.86044998" lon="13.37897993">
        <ele>504.00000</ele>
        <time>2024-05-13T13:12:16Z</time>
      </trkpt>
      <trkpt lat="42.86043992" lon="13.37890994">
        <ele>504.00000</ele>
        <time>2024-05-13T13:12:16Z</time>
      </trkpt>
      <trkpt lat="42.86043992" lon="13.37883995">
        <ele>505.00000</ele>
        <time>2024-05-13T13:12:17Z</time>
      </trkpt>
      <trkpt lat="42.86043489" lon="13.37861943">
        <ele>507.00000</ele>
        <time>2024-05-13T13:12:20Z</time>
      </trkpt>
      <trkpt lat="42.86042994" lon="13.37839999">
        <ele>509.00000</ele>
        <time>2024-05-13T13:12:22Z</time>
      </trkpt>
      <trkpt lat="42.86044998" lon="13.37817938">
        <ele>510.00000</ele>
        <time>2024-05-13T13:12:25Z</time>
      </trkpt>
      <trkpt lat="42.86046992" lon="13.37795994">
        <ele>509.00000</ele>
        <time>2024-05-13T13:12:28Z</time>
      </trkpt>
      <trkpt lat="42.86046992" lon="13.37765995">
        <ele>509.00000</ele>
        <time>2024-05-13T13:12:31Z</time>
      </trkpt>
      <trkpt lat="42.86044998" lon="13.37756993">
        <ele>509.00000</ele>
        <time>2024-05-13T13:12:32Z</time>
      </trkpt>
      <trkpt lat="42.86044998" lon="13.37752995">
        <ele>509.00000</ele>
        <time>2024-05-13T13:12:33Z</time>
      </trkpt>
      <trkpt lat="42.86041997" lon="13.37747999">
        <ele>509.00000</ele>
        <time>2024-05-13T13:12:33Z</time>
      </trkpt>
      <trkpt lat="42.86036993" lon="13.37739994">
        <ele>508.00000</ele>
        <time>2024-05-13T13:12:35Z</time>
      </trkpt>
      <trkpt lat="42.86031997" lon="13.37732995">
        <ele>508.00000</ele>
        <time>2024-05-13T13:12:36Z</time>
      </trkpt>
      <trkpt lat="42.86018997" lon="13.37716994">
        <ele>508.00000</ele>
        <time>2024-05-13T13:12:39Z</time>
      </trkpt>
      <trkpt lat="42.86009995" lon="13.37701999">
        <ele>510.00000</ele>
        <time>2024-05-13T13:12:41Z</time>
      </trkpt>
      <trkpt lat="42.85996299" lon="13.37663928">
        <ele>517.00000</ele>
        <time>2024-05-13T13:12:46Z</time>
      </trkpt>
      <trkpt lat="42.85982611" lon="13.37625866">
        <ele>517.00000</ele>
        <time>2024-05-13T13:12:51Z</time>
      </trkpt>
      <trkpt lat="42.85968999" lon="13.37587997">
        <ele>517.00000</ele>
        <time>2024-05-13T13:12:56Z</time>
      </trkpt>
      <trkpt lat="42.85957482" lon="13.37568475">
        <ele>519.00000</ele>
        <time>2024-05-13T13:12:59Z</time>
      </trkpt>
      <trkpt lat="42.85945999" lon="13.37548996">
        <ele>520.00000</ele>
        <time>2024-05-13T13:13:02Z</time>
      </trkpt>
      <trkpt lat="42.85937994" lon="13.37537999">
        <ele>521.00000</ele>
        <time>2024-05-13T13:13:04Z</time>
      </trkpt>
      <trkpt lat="42.85923996" lon="13.37523993">
        <ele>520.00000</ele>
        <time>2024-05-13T13:13:06Z</time>
      </trkpt>
      <trkpt lat="42.85901994" lon="13.37510992">
        <ele>518.00000</ele>
        <time>2024-05-13T13:13:10Z</time>
      </trkpt>
      <trkpt lat="42.85872993" lon="13.37518997">
        <ele>512.00000</ele>
        <time>2024-05-13T13:13:15Z</time>
      </trkpt>
      <trkpt lat="42.85852993" lon="13.37520992">
        <ele>509.00000</ele>
        <time>2024-05-13T13:13:18Z</time>
      </trkpt>
      <trkpt lat="42.85845994" lon="13.37520992">
        <ele>508.00000</ele>
        <time>2024-05-13T13:13:19Z</time>
      </trkpt>
      <trkpt lat="42.85837998" lon="13.37519994">
        <ele>506.00000</ele>
        <time>2024-05-13T13:13:21Z</time>
      </trkpt>
      <trkpt lat="42.85830999" lon="13.37516994">
        <ele>506.00000</ele>
        <time>2024-05-13T13:13:22Z</time>
      </trkpt>
      <trkpt lat="42.85823992" lon="13.37510992">
        <ele>505.00000</ele>
        <time>2024-05-13T13:13:23Z</time>
      </trkpt>
      <trkpt lat="42.85817999" lon="13.37503993">
        <ele>504.00000</ele>
        <time>2024-05-13T13:13:24Z</time>
      </trkpt>
      <trkpt lat="42.85812995" lon="13.37497992">
        <ele>503.00000</ele>
        <time>2024-05-13T13:13:25Z</time>
      </trkpt>
      <trkpt lat="42.85809994" lon="13.37491999">
        <ele>503.00000</ele>
        <time>2024-05-13T13:13:26Z</time>
      </trkpt>
      <trkpt lat="42.85805996" lon="13.37482997">
        <ele>502.00000</ele>
        <time>2024-05-13T13:13:27Z</time>
      </trkpt>
      <trkpt lat="42.85803993" lon="13.37473995">
        <ele>502.00000</ele>
        <time>2024-05-13T13:13:29Z</time>
      </trkpt>
      <trkpt lat="42.85803993" lon="13.37465998">
        <ele>502.00000</ele>
        <time>2024-05-13T13:13:29Z</time>
      </trkpt>
      <trkpt lat="42.85803993" lon="13.37451992">
        <ele>501.00000</ele>
        <time>2024-05-13T13:13:31Z</time>
      </trkpt>
      <trkpt lat="42.85804999" lon="13.37435999">
        <ele>500.00000</ele>
        <time>2024-05-13T13:13:33Z</time>
      </trkpt>
      <trkpt lat="42.85804999" lon="13.37421993">
        <ele>499.00000</ele>
        <time>2024-05-13T13:13:35Z</time>
      </trkpt>
      <trkpt lat="42.85803993" lon="13.37412999">
        <ele>498.00000</ele>
        <time>2024-05-13T13:13:36Z</time>
      </trkpt>
      <trkpt lat="42.85799995" lon="13.37400997">
        <ele>498.00000</ele>
        <time>2024-05-13T13:13:37Z</time>
      </trkpt>
      <trkpt lat="42.85795996" lon="13.37388994">
        <ele>498.00000</ele>
        <time>2024-05-13T13:13:39Z</time>
      </trkpt>
      <trkpt lat="42.85792996" lon="13.37378994">
        <ele>500.00000</ele>
        <time>2024-05-13T13:13:40Z</time>
      </trkpt>
      <trkpt lat="42.85789995" lon="13.37370998">
        <ele>503.00000</ele>
        <time>2024-05-13T13:13:41Z</time>
      </trkpt>
      <trkpt lat="42.85787992" lon="13.37354997">
        <ele>507.00000</ele>
        <time>2024-05-13T13:13:43Z</time>
      </trkpt>
      <trkpt lat="42.85789995" lon="13.37339993">
        <ele>509.00000</ele>
        <time>2024-05-13T13:13:45Z</time>
      </trkpt>
      <trkpt lat="42.85794999" lon="13.37325995">
        <ele>510.00000</ele>
        <time>2024-05-13T13:13:47Z</time>
      </trkpt>
      <trkpt lat="42.85800992" lon="13.37313992">
        <ele>509.00000</ele>
        <time>2024-05-13T13:13:48Z</time>
      </trkpt>
      <trkpt lat="42.85808997" lon="13.37298997">
        <ele>509.00000</ele>
        <time>2024-05-13T13:13:51Z</time>
      </trkpt>
      <trkpt lat="42.85814998" lon="13.37289995">
        <ele>509.00000</ele>
        <time>2024-05-13T13:13:52Z</time>
      </trkpt>
      <trkpt lat="42.85823992" lon="13.37267993">
        <ele>509.00000</ele>
        <time>2024-05-13T13:13:55Z</time>
      </trkpt>
      <trkpt lat="42.85827999" lon="13.37256995">
        <ele>508.00000</ele>
        <time>2024-05-13T13:13:56Z</time>
      </trkpt>
      <trkpt lat="42.85830999" lon="13.37235999">
        <ele>508.00000</ele>
        <time>2024-05-13T13:13:59Z</time>
      </trkpt>
      <trkpt lat="42.85828996" lon="13.37220995">
        <ele>512.00000</ele>
        <time>2024-05-13T13:14:01Z</time>
      </trkpt>
      <trkpt lat="42.85828996" lon="13.37196998">
        <ele>513.00000</ele>
        <time>2024-05-13T13:14:04Z</time>
      </trkpt>
      <trkpt lat="42.85829993" lon="13.37170997">
        <ele>515.00000</ele>
        <time>2024-05-13T13:14:07Z</time>
      </trkpt>
      <trkpt lat="42.85833992" lon="13.37133999">
        <ele>517.00000</ele>
        <time>2024-05-13T13:14:11Z</time>
      </trkpt>
      <trkpt lat="42.85836992" lon="13.37109994">
        <ele>520.00000</ele>
        <time>2024-05-13T13:14:14Z</time>
      </trkpt>
      <trkpt lat="42.85835995" lon="13.37083993">
        <ele>524.00000</ele>
        <time>2024-05-13T13:14:17Z</time>
      </trkpt>
      <trkpt lat="42.85834997" lon="13.37059996">
        <ele>522.00000</ele>
        <time>2024-05-13T13:14:20Z</time>
      </trkpt>
      <trkpt lat="42.85829993" lon="13.37037993">
        <ele>524.00000</ele>
        <time>2024-05-13T13:14:22Z</time>
      </trkpt>
      <trkpt lat="42.85826993" lon="13.37026996">
        <ele>525.00000</ele>
        <time>2024-05-13T13:14:24Z</time>
      </trkpt>
      <trkpt lat="42.85822995" lon="13.37014993">
        <ele>528.00000</ele>
        <time>2024-05-13T13:14:25Z</time>
      </trkpt>
      <trkpt lat="42.85819994" lon="13.37008992">
        <ele>530.00000</ele>
        <time>2024-05-13T13:14:26Z</time>
      </trkpt>
      <trkpt lat="42.85816993" lon="13.36995991">
        <ele>532.00000</ele>
        <time>2024-05-13T13:14:28Z</time>
      </trkpt>
      <trkpt lat="42.85813992" lon="13.36978993">
        <ele>534.00000</ele>
        <time>2024-05-13T13:14:30Z</time>
      </trkpt>
      <trkpt lat="42.85811997" lon="13.36965993">
        <ele>536.00000</ele>
        <time>2024-05-13T13:14:31Z</time>
      </trkpt>
      <trkpt lat="42.85811997" lon="13.36957996">
        <ele>536.00000</ele>
        <time>2024-05-13T13:14:32Z</time>
      </trkpt>
      <trkpt lat="42.85810992" lon="13.36951995">
        <ele>537.00000</ele>
        <time>2024-05-13T13:14:33Z</time>
      </trkpt>
      <trkpt lat="42.85811997" lon="13.36939992">
        <ele>537.00000</ele>
        <time>2024-05-13T13:14:35Z</time>
      </trkpt>
      <trkpt lat="42.85812995" lon="13.36931996">
        <ele>536.00000</ele>
        <time>2024-05-13T13:14:36Z</time>
      </trkpt>
      <trkpt lat="42.85813992" lon="13.36921996">
        <ele>536.00000</ele>
        <time>2024-05-13T13:14:37Z</time>
      </trkpt>
      <trkpt lat="42.85814998" lon="13.36913991">
        <ele>535.00000</ele>
        <time>2024-05-13T13:14:38Z</time>
      </trkpt>
      <trkpt lat="42.85817999" lon="13.36902994">
        <ele>534.00000</ele>
        <time>2024-05-13T13:14:39Z</time>
      </trkpt>
      <trkpt lat="42.85820991" lon="13.36888996">
        <ele>533.00000</ele>
        <time>2024-05-13T13:14:41Z</time>
      </trkpt>
      <trkpt lat="42.85821997" lon="13.36871998">
        <ele>535.00000</ele>
        <time>2024-05-13T13:14:43Z</time>
      </trkpt>
      <trkpt lat="42.85822995" lon="13.36855997">
        <ele>535.00000</ele>
        <time>2024-05-13T13:14:45Z</time>
      </trkpt>
      <trkpt lat="42.85822995" lon="13.36822997">
        <ele>538.00000</ele>
        <time>2024-05-13T13:14:49Z</time>
      </trkpt>
      <trkpt lat="42.85823992" lon="13.36803996">
        <ele>538.00000</ele>
        <time>2024-05-13T13:14:51Z</time>
      </trkpt>
      <trkpt lat="42.85823992" lon="13.36784994">
        <ele>539.00000</ele>
        <time>2024-05-13T13:14:53Z</time>
      </trkpt>
      <trkpt lat="42.85827999" lon="13.36768993">
        <ele>536.00000</ele>
        <time>2024-05-13T13:14:55Z</time>
      </trkpt>
      <trkpt lat="42.85830999" lon="13.36758993">
        <ele>534.00000</ele>
        <time>2024-05-13T13:14:56Z</time>
      </trkpt>
      <trkpt lat="42.85832994" lon="13.36751994">
        <ele>533.00000</ele>
        <time>2024-05-13T13:14:57Z</time>
      </trkpt>
      <trkpt lat="42.85832994" lon="13.36745993">
        <ele>533.00000</ele>
        <time>2024-05-13T13:14:58Z</time>
      </trkpt>
      <trkpt lat="42.85832994" lon="13.36741995">
        <ele>533.00000</ele>
        <time>2024-05-13T13:14:58Z</time>
      </trkpt>
      <trkpt lat="42.85831997" lon="13.36734996">
        <ele>534.00000</ele>
        <time>2024-05-13T13:14:59Z</time>
      </trkpt>
      <trkpt lat="42.85830999" lon="13.36727997">
        <ele>535.00000</ele>
        <time>2024-05-13T13:15:00Z</time>
      </trkpt>
      <trkpt lat="42.85828996" lon="13.36722993">
        <ele>537.00000</ele>
        <time>2024-05-13T13:15:01Z</time>
      </trkpt>
      <trkpt lat="42.85826993" lon="13.36717997">
        <ele>538.00000</ele>
        <time>2024-05-13T13:15:01Z</time>
      </trkpt>
      <trkpt lat="42.85824998" lon="13.36713999">
        <ele>539.00000</ele>
        <time>2024-05-13T13:15:02Z</time>
      </trkpt>
      <trkpt lat="42.85820991" lon="13.36706992">
        <ele>541.00000</ele>
        <time>2024-05-13T13:15:03Z</time>
      </trkpt>
      <trkpt lat="42.85817999" lon="13.36701996">
        <ele>542.00000</ele>
        <time>2024-05-13T13:15:04Z</time>
      </trkpt>
      <trkpt lat="42.85813992" lon="13.36691997">
        <ele>543.00000</ele>
        <time>2024-05-13T13:15:05Z</time>
      </trkpt>
      <trkpt lat="42.85811997" lon="13.36681997">
        <ele>543.00000</ele>
        <time>2024-05-13T13:15:06Z</time>
      </trkpt>
      <trkpt lat="42.85809994" lon="13.36675995">
        <ele>542.00000</ele>
        <time>2024-05-13T13:15:07Z</time>
      </trkpt>
      <trkpt lat="42.85807999" lon="13.36667999">
        <ele>542.00000</ele>
        <time>2024-05-13T13:15:08Z</time>
      </trkpt>
      <trkpt lat="42.85803993" lon="13.36657991">
        <ele>542.00000</ele>
        <time>2024-05-13T13:15:09Z</time>
      </trkpt>
      <trkpt lat="42.85799995" lon="13.36648997">
        <ele>541.00000</ele>
        <time>2024-05-13T13:15:11Z</time>
      </trkpt>
      <trkpt lat="42.85796994" lon="13.36642996">
        <ele>541.00000</ele>
        <time>2024-05-13T13:15:11Z</time>
      </trkpt>
      <trkpt lat="42.85789995" lon="13.36633994">
        <ele>542.00000</ele>
        <time>2024-05-13T13:15:13Z</time>
      </trkpt>
      <trkpt lat="42.85779995" lon="13.36622997">
        <ele>544.00000</ele>
        <time>2024-05-13T13:15:15Z</time>
      </trkpt>
      <trkpt lat="42.85772996" lon="13.36614992">
        <ele>545.00000</ele>
        <time>2024-05-13T13:15:17Z</time>
      </trkpt>
      <trkpt lat="42.85759996" lon="13.36601992">
        <ele>547.00000</ele>
        <time>2024-05-13T13:15:19Z</time>
      </trkpt>
      <trkpt lat="42.85741665" lon="13.36585991">
        <ele>550.00000</ele>
        <time>2024-05-13T13:15:23Z</time>
      </trkpt>
      <trkpt lat="42.85723334" lon="13.36569998">
        <ele>549.00000</ele>
        <time>2024-05-13T13:15:26Z</time>
      </trkpt>
      <trkpt lat="42.85704994" lon="13.36553997">
        <ele>549.00000</ele>
        <time>2024-05-13T13:15:30Z</time>
      </trkpt>
      <trkpt lat="42.85697995" lon="13.36548993">
        <ele>550.00000</ele>
        <time>2024-05-13T13:15:31Z</time>
      </trkpt>
      <trkpt lat="42.85692991" lon="13.36546998">
        <ele>552.00000</ele>
        <time>2024-05-13T13:15:32Z</time>
      </trkpt>
      <trkpt lat="42.85687996" lon="13.36544995">
        <ele>553.00000</ele>
        <time>2024-05-13T13:15:33Z</time>
      </trkpt>
      <trkpt lat="42.85682992" lon="13.36546998">
        <ele>555.00000</ele>
        <time>2024-05-13T13:15:33Z</time>
      </trkpt>
      <trkpt lat="42.85677996" lon="13.36550996">
        <ele>558.00000</ele>
        <time>2024-05-13T13:15:34Z</time>
      </trkpt>
      <trkpt lat="42.85670997" lon="13.36554994">
        <ele>561.00000</ele>
        <time>2024-05-13T13:15:35Z</time>
      </trkpt>
      <trkpt lat="42.85665993" lon="13.36556998">
        <ele>563.00000</ele>
        <time>2024-05-13T13:15:36Z</time>
      </trkpt>
      <trkpt lat="42.85661995" lon="13.36557995">
        <ele>564.00000</ele>
        <time>2024-05-13T13:15:37Z</time>
      </trkpt>
      <trkpt lat="42.85658994" lon="13.36557995">
        <ele>565.00000</ele>
        <time>2024-05-13T13:15:37Z</time>
      </trkpt>
      <trkpt lat="42.85655993" lon="13.36556998">
        <ele>566.00000</ele>
        <time>2024-05-13T13:15:38Z</time>
      </trkpt>
      <trkpt lat="42.85652993" lon="13.36550996">
        <ele>566.00000</ele>
        <time>2024-05-13T13:15:39Z</time>
      </trkpt>
      <trkpt lat="42.85648995" lon="13.36543997">
        <ele>566.00000</ele>
        <time>2024-05-13T13:15:40Z</time>
      </trkpt>
      <trkpt lat="42.85646991" lon="13.36532992">
        <ele>564.00000</ele>
        <time>2024-05-13T13:15:41Z</time>
      </trkpt>
      <trkpt lat="42.85645994" lon="13.36527996">
        <ele>563.00000</ele>
        <time>2024-05-13T13:15:42Z</time>
      </trkpt>
      <trkpt lat="42.85645994" lon="13.36519991">
        <ele>562.00000</ele>
        <time>2024-05-13T13:15:43Z</time>
      </trkpt>
      <trkpt lat="42.85644996" lon="13.36510998">
        <ele>561.00000</ele>
        <time>2024-05-13T13:15:44Z</time>
      </trkpt>
      <trkpt lat="42.85643999" lon="13.36503999">
        <ele>561.00000</ele>
        <time>2024-05-13T13:15:45Z</time>
      </trkpt>
      <trkpt lat="42.85640998" lon="13.36495994">
        <ele>561.00000</ele>
        <time>2024-05-13T13:15:46Z</time>
      </trkpt>
      <trkpt lat="42.85637998" lon="13.36487998">
        <ele>561.00000</ele>
        <time>2024-05-13T13:15:47Z</time>
      </trkpt>
      <trkpt lat="42.85630999" lon="13.36477998">
        <ele>561.00000</ele>
        <time>2024-05-13T13:15:48Z</time>
      </trkpt>
      <trkpt lat="42.85619993" lon="13.36463992">
        <ele>562.00000</ele>
        <time>2024-05-13T13:15:51Z</time>
      </trkpt>
      <trkpt lat="42.85612994" lon="13.36452995">
        <ele>561.00000</ele>
        <time>2024-05-13T13:15:53Z</time>
      </trkpt>
      <trkpt lat="42.85606993" lon="13.36441998">
        <ele>560.00000</ele>
        <time>2024-05-13T13:15:54Z</time>
      </trkpt>
      <trkpt lat="42.85596993" lon="13.36427992">
        <ele>559.00000</ele>
        <time>2024-05-13T13:15:56Z</time>
      </trkpt>
      <trkpt lat="42.85587999" lon="13.36417992">
        <ele>559.00000</ele>
        <time>2024-05-13T13:15:58Z</time>
      </trkpt>
      <trkpt lat="42.85578997" lon="13.36411999">
        <ele>561.00000</ele>
        <time>2024-05-13T13:16:00Z</time>
      </trkpt>
      <trkpt lat="42.85568998" lon="13.36400994">
        <ele>564.00000</ele>
        <time>2024-05-13T13:16:02Z</time>
      </trkpt>
      <trkpt lat="42.85556995" lon="13.36383995">
        <ele>568.00000</ele>
        <time>2024-05-13T13:16:05Z</time>
      </trkpt>
      <trkpt lat="42.85539996" lon="13.36358992">
        <ele>572.00000</ele>
        <time>2024-05-13T13:16:09Z</time>
      </trkpt>
      <trkpt lat="42.85525999" lon="13.36337995">
        <ele>573.00000</ele>
        <time>2024-05-13T13:16:12Z</time>
      </trkpt>
      <trkpt lat="42.85515999" lon="13.36324995">
        <ele>574.00000</ele>
        <time>2024-05-13T13:16:14Z</time>
      </trkpt>
      <trkpt lat="42.85508992" lon="13.36314995">
        <ele>575.00000</ele>
        <time>2024-05-13T13:16:16Z</time>
      </trkpt>
      <trkpt lat="42.85500995" lon="13.36307996">
        <ele>578.00000</ele>
        <time>2024-05-13T13:16:17Z</time>
      </trkpt>
      <trkpt lat="42.85492999" lon="13.36302992">
        <ele>580.00000</ele>
        <time>2024-05-13T13:16:19Z</time>
      </trkpt>
      <trkpt lat="42.85481994" lon="13.36297997">
        <ele>582.00000</ele>
        <time>2024-05-13T13:16:21Z</time>
      </trkpt>
      <trkpt lat="42.85473997" lon="13.36293999">
        <ele>583.00000</ele>
        <time>2024-05-13T13:16:22Z</time>
      </trkpt>
      <trkpt lat="42.85465992" lon="13.36289992">
        <ele>584.00000</ele>
        <time>2024-05-13T13:16:23Z</time>
      </trkpt>
      <trkpt lat="42.85460997" lon="13.36284996">
        <ele>585.00000</ele>
        <time>2024-05-13T13:16:24Z</time>
      </trkpt>
      <trkpt lat="42.85457996" lon="13.36279992">
        <ele>585.00000</ele>
        <time>2024-05-13T13:16:25Z</time>
      </trkpt>
      <trkpt lat="42.85455993" lon="13.36274997">
        <ele>584.00000</ele>
        <time>2024-05-13T13:16:26Z</time>
      </trkpt>
      <trkpt lat="42.85453998" lon="13.36268995">
        <ele>583.00000</ele>
        <time>2024-05-13T13:16:27Z</time>
      </trkpt>
      <trkpt lat="42.85452992" lon="13.36263991">
        <ele>583.00000</ele>
        <time>2024-05-13T13:16:27Z</time>
      </trkpt>
      <trkpt lat="42.85450997" lon="13.36258996">
        <ele>582.00000</ele>
        <time>2024-05-13T13:16:28Z</time>
      </trkpt>
      <trkpt lat="42.85449991" lon="13.36254998">
        <ele>581.00000</ele>
        <time>2024-05-13T13:16:28Z</time>
      </trkpt>
      <trkpt lat="42.85447997" lon="13.36250999">
        <ele>581.00000</ele>
        <time>2024-05-13T13:16:29Z</time>
      </trkpt>
      <trkpt lat="42.85443998" lon="13.36243992">
        <ele>581.00000</ele>
        <time>2024-05-13T13:16:30Z</time>
      </trkpt>
      <trkpt lat="42.85438994" lon="13.36237999">
        <ele>582.00000</ele>
        <time>2024-05-13T13:16:31Z</time>
      </trkpt>
      <trkpt lat="42.85433999" lon="13.36232995">
        <ele>583.00000</ele>
        <time>2024-05-13T13:16:32Z</time>
      </trkpt>
      <trkpt lat="42.85427997" lon="13.36229994">
        <ele>585.00000</ele>
        <time>2024-05-13T13:16:33Z</time>
      </trkpt>
      <trkpt lat="42.85413991" lon="13.36224999">
        <ele>588.00000</ele>
        <time>2024-05-13T13:16:35Z</time>
      </trkpt>
      <trkpt lat="42.85387999" lon="13.36213993">
        <ele>591.00000</ele>
        <time>2024-05-13T13:16:40Z</time>
      </trkpt>
      <trkpt lat="42.85372995" lon="13.36206994">
        <ele>591.00000</ele>
        <time>2024-05-13T13:16:42Z</time>
      </trkpt>
      <trkpt lat="42.85364999" lon="13.36203994">
        <ele>591.00000</ele>
        <time>2024-05-13T13:16:44Z</time>
      </trkpt>
      <trkpt lat="42.85359995" lon="13.36200993">
        <ele>590.00000</ele>
        <time>2024-05-13T13:16:44Z</time>
      </trkpt>
      <trkpt lat="42.85353993" lon="13.36199996">
        <ele>591.00000</ele>
        <time>2024-05-13T13:16:45Z</time>
      </trkpt>
      <trkpt lat="42.85345997" lon="13.36201999">
        <ele>592.00000</ele>
        <time>2024-05-13T13:16:47Z</time>
      </trkpt>
      <trkpt lat="42.85338998" lon="13.36206994">
        <ele>595.00000</ele>
        <time>2024-05-13T13:16:48Z</time>
      </trkpt>
      <trkpt lat="42.85331999" lon="13.36209995">
        <ele>597.00000</ele>
        <time>2024-05-13T13:16:49Z</time>
      </trkpt>
      <trkpt lat="42.85325998" lon="13.36210993">
        <ele>598.00000</ele>
        <time>2024-05-13T13:16:50Z</time>
      </trkpt>
      <trkpt lat="42.85319996" lon="13.36211998">
        <ele>599.00000</ele>
        <time>2024-05-13T13:16:51Z</time>
      </trkpt>
      <trkpt lat="42.85309997" lon="13.36210993">
        <ele>600.00000</ele>
        <time>2024-05-13T13:16:53Z</time>
      </trkpt>
      <trkpt lat="42.85297994" lon="13.36204991">
        <ele>599.00000</ele>
        <time>2024-05-13T13:16:55Z</time>
      </trkpt>
      <trkpt lat="42.85281993" lon="13.36194992">
        <ele>597.00000</ele>
        <time>2024-05-13T13:16:58Z</time>
      </trkpt>
      <trkpt lat="42.85273997" lon="13.36189996">
        <ele>595.00000</ele>
        <time>2024-05-13T13:16:59Z</time>
      </trkpt>
      <trkpt lat="42.85268993" lon="13.36186995">
        <ele>595.00000</ele>
        <time>2024-05-13T13:17:00Z</time>
      </trkpt>
      <trkpt lat="42.85251994" lon="13.36179996">
        <ele>593.00000</ele>
        <time>2024-05-13T13:17:03Z</time>
      </trkpt>
      <trkpt lat="42.85229992" lon="13.36175998">
        <ele>597.00000</ele>
        <time>2024-05-13T13:17:06Z</time>
      </trkpt>
      <trkpt lat="42.85214996" lon="13.36170994">
        <ele>600.00000</ele>
        <time>2024-05-13T13:17:09Z</time>
      </trkpt>
      <trkpt lat="42.85203999" lon="13.36166996">
        <ele>603.00000</ele>
        <time>2024-05-13T13:17:11Z</time>
      </trkpt>
      <trkpt lat="42.85185995" lon="13.36157994">
        <ele>606.00000</ele>
        <time>2024-05-13T13:17:14Z</time>
      </trkpt>
      <trkpt lat="42.85171997" lon="13.36150995">
        <ele>607.00000</ele>
        <time>2024-05-13T13:17:16Z</time>
      </trkpt>
      <trkpt lat="42.85159994" lon="13.36140995">
        <ele>609.00000</ele>
        <time>2024-05-13T13:17:18Z</time>
      </trkpt>
      <trkpt lat="42.85146994" lon="13.36127995">
        <ele>612.00000</ele>
        <time>2024-05-13T13:17:21Z</time>
      </trkpt>
      <trkpt lat="42.85136994" lon="13.36119999">
        <ele>613.00000</ele>
        <time>2024-05-13T13:17:23Z</time>
      </trkpt>
      <trkpt lat="42.85129996" lon="13.36114995">
        <ele>614.00000</ele>
        <time>2024-05-13T13:17:24Z</time>
      </trkpt>
      <trkpt lat="42.85122997" lon="13.36112991">
        <ele>616.00000</ele>
        <time>2024-05-13T13:17:25Z</time>
      </trkpt>
      <trkpt lat="42.85115998" lon="13.36109999">
        <ele>617.00000</ele>
        <time>2024-05-13T13:17:26Z</time>
      </trkpt>
      <trkpt lat="42.85108999" lon="13.36106998">
        <ele>618.00000</ele>
        <time>2024-05-13T13:17:27Z</time>
      </trkpt>
      <trkpt lat="42.85103995" lon="13.36102992">
        <ele>618.00000</ele>
        <time>2024-05-13T13:17:28Z</time>
      </trkpt>
      <trkpt lat="42.85099997" lon="13.36095993">
        <ele>617.00000</ele>
        <time>2024-05-13T13:17:29Z</time>
      </trkpt>
      <trkpt lat="42.85092998" lon="13.36083998">
        <ele>616.00000</ele>
        <time>2024-05-13T13:17:31Z</time>
      </trkpt>
      <trkpt lat="42.85088991" lon="13.36075994">
        <ele>616.00000</ele>
        <time>2024-05-13T13:17:32Z</time>
      </trkpt>
      <trkpt lat="42.85085999" lon="13.36069992">
        <ele>615.00000</ele>
        <time>2024-05-13T13:17:33Z</time>
      </trkpt>
      <trkpt lat="42.85081992" lon="13.36064997">
        <ele>615.00000</ele>
        <time>2024-05-13T13:17:34Z</time>
      </trkpt>
      <trkpt lat="42.85078992" lon="13.36061996">
        <ele>614.00000</ele>
        <time>2024-05-13T13:17:35Z</time>
      </trkpt>
      <trkpt lat="42.85075999" lon="13.36057998">
        <ele>614.00000</ele>
        <time>2024-05-13T13:17:35Z</time>
      </trkpt>
      <trkpt lat="42.85072999" lon="13.36054997">
        <ele>614.00000</ele>
        <time>2024-05-13T13:17:36Z</time>
      </trkpt>
      <trkpt lat="42.85068992" lon="13.36051996">
        <ele>614.00000</ele>
        <time>2024-05-13T13:17:37Z</time>
      </trkpt>
      <trkpt lat="42.85063996" lon="13.36049993">
        <ele>614.00000</ele>
        <time>2024-05-13T13:17:37Z</time>
      </trkpt>
      <trkpt lat="42.85058992" lon="13.36046992">
        <ele>615.00000</ele>
        <time>2024-05-13T13:17:38Z</time>
      </trkpt>
      <trkpt lat="42.85051994" lon="13.36044997">
        <ele>615.00000</ele>
        <time>2024-05-13T13:17:39Z</time>
      </trkpt>
      <trkpt lat="42.85046998" lon="13.36043992">
        <ele>616.00000</ele>
        <time>2024-05-13T13:17:40Z</time>
      </trkpt>
      <trkpt lat="42.85043997" lon="13.36043992">
        <ele>617.00000</ele>
        <time>2024-05-13T13:17:41Z</time>
      </trkpt>
      <trkpt lat="42.85033998" lon="13.36042994">
        <ele>619.00000</ele>
        <time>2024-05-13T13:17:42Z</time>
      </trkpt>
      <trkpt lat="42.85030997" lon="13.36041997">
        <ele>619.00000</ele>
        <time>2024-05-13T13:17:43Z</time>
      </trkpt>
      <trkpt lat="42.85026999" lon="13.36040999">
        <ele>620.00000</ele>
        <time>2024-05-13T13:17:44Z</time>
      </trkpt>
      <trkpt lat="42.85022992" lon="13.36038996">
        <ele>621.00000</ele>
        <time>2024-05-13T13:17:44Z</time>
      </trkpt>
      <trkpt lat="42.85018994" lon="13.36035995">
        <ele>622.00000</ele>
        <time>2024-05-13T13:17:45Z</time>
      </trkpt>
      <trkpt lat="42.85013998" lon="13.36030991">
        <ele>623.00000</ele>
        <time>2024-05-13T13:17:46Z</time>
      </trkpt>
      <trkpt lat="42.85010998" lon="13.36025996">
        <ele>623.00000</ele>
        <time>2024-05-13T13:17:47Z</time>
      </trkpt>
      <trkpt lat="42.85008994" lon="13.36019994">
        <ele>622.00000</ele>
        <time>2024-05-13T13:17:47Z</time>
      </trkpt>
      <trkpt lat="42.85006999" lon="13.36013993">
        <ele>621.00000</ele>
        <time>2024-05-13T13:17:48Z</time>
      </trkpt>
      <trkpt lat="42.85004996" lon="13.36008997">
        <ele>621.00000</ele>
        <time>2024-05-13T13:17:49Z</time>
      </trkpt>
      <trkpt lat="42.85000998" lon="13.36001998">
        <ele>620.00000</ele>
        <time>2024-05-13T13:17:50Z</time>
      </trkpt>
      <trkpt lat="42.84997997" lon="13.35998998">
        <ele>620.00000</ele>
        <time>2024-05-13T13:17:51Z</time>
      </trkpt>
      <trkpt lat="42.84993999" lon="13.35993994">
        <ele>620.00000</ele>
        <time>2024-05-13T13:17:51Z</time>
      </trkpt>
      <trkpt lat="42.84988995" lon="13.35989995">
        <ele>621.00000</ele>
        <time>2024-05-13T13:17:52Z</time>
      </trkpt>
      <trkpt lat="42.84977998" lon="13.35982996">
        <ele>622.00000</ele>
        <time>2024-05-13T13:17:54Z</time>
      </trkpt>
      <trkpt lat="42.84967998" lon="13.35976995">
        <ele>622.00000</ele>
        <time>2024-05-13T13:17:56Z</time>
      </trkpt>
      <trkpt lat="42.84961997" lon="13.35971999">
        <ele>622.00000</ele>
        <time>2024-05-13T13:17:57Z</time>
      </trkpt>
      <trkpt lat="42.84947999" lon="13.35963995">
        <ele>623.00000</ele>
        <time>2024-05-13T13:18:00Z</time>
      </trkpt>
      <trkpt lat="42.84936994" lon="13.35956996">
        <ele>624.00000</ele>
        <time>2024-05-13T13:18:02Z</time>
      </trkpt>
      <trkpt lat="42.84921504" lon="13.35947994">
        <ele>627.00000</ele>
        <time>2024-05-13T13:18:04Z</time>
      </trkpt>
      <trkpt lat="42.84905998" lon="13.35938991">
        <ele>629.00000</ele>
        <time>2024-05-13T13:18:07Z</time>
      </trkpt>
      <trkpt lat="42.84881011" lon="13.35926502">
        <ele>634.00000</ele>
        <time>2024-05-13T13:18:11Z</time>
      </trkpt>
      <trkpt lat="42.84855999" lon="13.35913997">
        <ele>638.00000</ele>
        <time>2024-05-13T13:18:15Z</time>
      </trkpt>
      <trkpt lat="42.84839009" lon="13.35907995">
        <ele>640.00000</ele>
        <time>2024-05-13T13:18:18Z</time>
      </trkpt>
      <trkpt lat="42.84821994" lon="13.35901994">
        <ele>641.00000</ele>
        <time>2024-05-13T13:18:21Z</time>
      </trkpt>
      <trkpt lat="42.84803998" lon="13.35894995">
        <ele>641.00000</ele>
        <time>2024-05-13T13:18:24Z</time>
      </trkpt>
      <trkpt lat="42.84791995" lon="13.35887996">
        <ele>640.00000</ele>
        <time>2024-05-13T13:18:26Z</time>
      </trkpt>
      <trkpt lat="42.84778995" lon="13.35877996">
        <ele>640.00000</ele>
        <time>2024-05-13T13:18:29Z</time>
      </trkpt>
      <trkpt lat="42.84765995" lon="13.35867997">
        <ele>641.00000</ele>
        <time>2024-05-13T13:18:31Z</time>
      </trkpt>
      <trkpt lat="42.84743992" lon="13.35842994">
        <ele>640.00000</ele>
        <time>2024-05-13T13:18:36Z</time>
      </trkpt>
      <trkpt lat="42.84728997" lon="13.35828996">
        <ele>639.00000</ele>
        <time>2024-05-13T13:18:38Z</time>
      </trkpt>
      <trkpt lat="42.84717991" lon="13.35818996">
        <ele>639.00000</ele>
        <time>2024-05-13T13:18:41Z</time>
      </trkpt>
      <trkpt lat="42.84710993" lon="13.35810991">
        <ele>638.00000</ele>
        <time>2024-05-13T13:18:42Z</time>
      </trkpt>
      <trkpt lat="42.84708998" lon="13.35808997">
        <ele>638.00000</ele>
        <time>2024-05-13T13:18:42Z</time>
      </trkpt>
      <trkpt lat="42.84707992" lon="13.35807999">
        <ele>638.00000</ele>
        <time>2024-05-13T13:18:43Z</time>
      </trkpt>
      <trkpt lat="42.84705997" lon="13.35806993">
        <ele>638.00000</ele>
        <time>2024-05-13T13:18:43Z</time>
      </trkpt>
      <trkpt lat="42.84703994" lon="13.35806993">
        <ele>639.00000</ele>
        <time>2024-05-13T13:18:43Z</time>
      </trkpt>
      <trkpt lat="42.84702996" lon="13.35806993">
        <ele>639.00000</ele>
        <time>2024-05-13T13:18:43Z</time>
      </trkpt>
      <trkpt lat="42.84701999" lon="13.35807999">
        <ele>639.00000</ele>
        <time>2024-05-13T13:18:44Z</time>
      </trkpt>
      <trkpt lat="42.84699996" lon="13.35808997">
        <ele>640.00000</ele>
        <time>2024-05-13T13:18:44Z</time>
      </trkpt>
      <trkpt lat="42.84698998" lon="13.35810991">
        <ele>641.00000</ele>
        <time>2024-05-13T13:18:44Z</time>
      </trkpt>
      <trkpt lat="42.84697992" lon="13.35811997">
        <ele>641.00000</ele>
        <time>2024-05-13T13:18:44Z</time>
      </trkpt>
      <trkpt lat="42.84696995" lon="13.35814998">
        <ele>642.00000</ele>
        <time>2024-05-13T13:18:45Z</time>
      </trkpt>
      <trkpt lat="42.84696995" lon="13.35817999">
        <ele>643.00000</ele>
        <time>2024-05-13T13:18:45Z</time>
      </trkpt>
      <trkpt lat="42.84696995" lon="13.35820999">
        <ele>644.00000</ele>
        <time>2024-05-13T13:18:46Z</time>
      </trkpt>
      <trkpt lat="42.84696995" lon="13.35822994">
        <ele>644.00000</ele>
        <time>2024-05-13T13:18:46Z</time>
      </trkpt>
      <trkpt lat="42.84697992" lon="13.35825995">
        <ele>645.00000</ele>
        <time>2024-05-13T13:18:46Z</time>
      </trkpt>
      <trkpt lat="42.84698998" lon="13.35828996">
        <ele>645.00000</ele>
        <time>2024-05-13T13:18:47Z</time>
      </trkpt>
      <trkpt lat="42.84704999" lon="13.35835995">
        <ele>646.00000</ele>
        <time>2024-05-13T13:18:48Z</time>
      </trkpt>
      <trkpt lat="42.84707992" lon="13.35840999">
        <ele>646.00000</ele>
        <time>2024-05-13T13:18:49Z</time>
      </trkpt>
      <trkpt lat="42.84727991" lon="13.35861492">
        <ele>648.00000</ele>
        <time>2024-05-13T13:18:53Z</time>
      </trkpt>
      <trkpt lat="42.84747999" lon="13.35881995">
        <ele>648.00000</ele>
        <time>2024-05-13T13:18:57Z</time>
      </trkpt>
      <trkpt lat="42.84762994" lon="13.35896998">
        <ele>648.00000</ele>
        <time>2024-05-13T13:19:00Z</time>
      </trkpt>
      <trkpt lat="42.84770999" lon="13.35905992">
        <ele>649.00000</ele>
        <time>2024-05-13T13:19:01Z</time>
      </trkpt>
      <trkpt lat="42.84782993" lon="13.35921993">
        <ele>652.00000</ele>
        <time>2024-05-13T13:19:04Z</time>
      </trkpt>
      <trkpt lat="42.84790998" lon="13.35937994">
        <ele>654.00000</ele>
        <time>2024-05-13T13:19:06Z</time>
      </trkpt>
      <trkpt lat="42.84803998" lon="13.35960994">
        <ele>657.00000</ele>
        <time>2024-05-13T13:19:10Z</time>
      </trkpt>
      <trkpt lat="42.84806999" lon="13.35965998">
        <ele>657.00000</ele>
        <time>2024-05-13T13:19:10Z</time>
      </trkpt>
      <trkpt lat="42.84808994" lon="13.35970994">
        <ele>658.00000</ele>
        <time>2024-05-13T13:19:11Z</time>
      </trkpt>
      <trkpt lat="42.84811994" lon="13.35976995">
        <ele>658.00000</ele>
        <time>2024-05-13T13:19:12Z</time>
      </trkpt>
      <trkpt lat="42.84812992" lon="13.35984991">
        <ele>658.00000</ele>
        <time>2024-05-13T13:19:13Z</time>
      </trkpt>
      <trkpt lat="42.84813998" lon="13.35993994">
        <ele>659.00000</ele>
        <time>2024-05-13T13:19:14Z</time>
      </trkpt>
      <trkpt lat="42.84814995" lon="13.35997992">
        <ele>659.00000</ele>
        <time>2024-05-13T13:19:14Z</time>
      </trkpt>
      <trkpt lat="42.84816998" lon="13.36001998">
        <ele>659.00000</ele>
        <time>2024-05-13T13:19:15Z</time>
      </trkpt>
      <trkpt lat="42.84819999" lon="13.36006994">
        <ele>659.00000</ele>
        <time>2024-05-13T13:19:16Z</time>
      </trkpt>
      <trkpt lat="42.84823997" lon="13.36011998">
        <ele>659.00000</ele>
        <time>2024-05-13T13:19:17Z</time>
      </trkpt>
      <trkpt lat="42.84843997" lon="13.36029994">
        <ele>657.00000</ele>
        <time>2024-05-13T13:19:20Z</time>
      </trkpt>
      <trkpt lat="42.84849998" lon="13.36037999">
        <ele>657.00000</ele>
        <time>2024-05-13T13:19:22Z</time>
      </trkpt>
      <trkpt lat="42.84850995" lon="13.36039993">
        <ele>657.00000</ele>
        <time>2024-05-13T13:19:22Z</time>
      </trkpt>
      <trkpt lat="42.84854994" lon="13.36048996">
        <ele>658.00000</ele>
        <time>2024-05-13T13:19:23Z</time>
      </trkpt>
      <trkpt lat="42.84858992" lon="13.36061996">
        <ele>659.00000</ele>
        <time>2024-05-13T13:19:25Z</time>
      </trkpt>
      <trkpt lat="42.84861993" lon="13.36073999">
        <ele>661.00000</ele>
        <time>2024-05-13T13:19:26Z</time>
      </trkpt>
      <trkpt lat="42.84863996" lon="13.36081995">
        <ele>663.00000</ele>
        <time>2024-05-13T13:19:27Z</time>
      </trkpt>
      <trkpt lat="42.84866997" lon="13.36087997">
        <ele>664.00000</ele>
        <time>2024-05-13T13:19:28Z</time>
      </trkpt>
      <trkpt lat="42.84868991" lon="13.36091995">
        <ele>664.00000</ele>
        <time>2024-05-13T13:19:29Z</time>
      </trkpt>
      <trkpt lat="42.84871992" lon="13.36095993">
        <ele>665.00000</ele>
        <time>2024-05-13T13:19:30Z</time>
      </trkpt>
      <trkpt lat="42.84879997" lon="13.36102992">
        <ele>665.00000</ele>
        <time>2024-05-13T13:19:31Z</time>
      </trkpt>
      <trkpt lat="42.84891991" lon="13.36113997">
        <ele>666.00000</ele>
        <time>2024-05-13T13:19:33Z</time>
      </trkpt>
      <trkpt lat="42.84903994" lon="13.36126998">
        <ele>666.00000</ele>
        <time>2024-05-13T13:19:36Z</time>
      </trkpt>
      <trkpt lat="42.84919995" lon="13.36144994">
        <ele>666.00000</ele>
        <time>2024-05-13T13:19:39Z</time>
      </trkpt>
      <trkpt lat="42.84926994" lon="13.36156996">
        <ele>667.00000</ele>
        <time>2024-05-13T13:19:41Z</time>
      </trkpt>
      <trkpt lat="42.84931998" lon="13.36165999">
        <ele>667.00000</ele>
        <time>2024-05-13T13:19:42Z</time>
      </trkpt>
      <trkpt lat="42.84933993" lon="13.36173995">
        <ele>668.00000</ele>
        <time>2024-05-13T13:19:43Z</time>
      </trkpt>
      <trkpt lat="42.84935996" lon="13.36183995">
        <ele>669.00000</ele>
        <time>2024-05-13T13:19:44Z</time>
      </trkpt>
      <trkpt lat="42.84938997" lon="13.36192997">
        <ele>670.00000</ele>
        <time>2024-05-13T13:19:46Z</time>
      </trkpt>
      <trkpt lat="42.84945996" lon="13.36209995">
        <ele>672.00000</ele>
        <time>2024-05-13T13:19:48Z</time>
      </trkpt>
      <trkpt lat="42.84956993" lon="13.36230992">
        <ele>673.00000</ele>
        <time>2024-05-13T13:19:51Z</time>
      </trkpt>
      <trkpt lat="42.84967998" lon="13.36253992">
        <ele>675.00000</ele>
        <time>2024-05-13T13:19:54Z</time>
      </trkpt>
      <trkpt lat="42.84976992" lon="13.36268995">
        <ele>675.00000</ele>
        <time>2024-05-13T13:19:56Z</time>
      </trkpt>
      <trkpt lat="42.84986992" lon="13.36281996">
        <ele>675.00000</ele>
        <time>2024-05-13T13:19:59Z</time>
      </trkpt>
      <trkpt lat="42.85000998" lon="13.36299992">
        <ele>675.00000</ele>
        <time>2024-05-13T13:20:02Z</time>
      </trkpt>
      <trkpt lat="42.85013998" lon="13.36315993">
        <ele>677.00000</ele>
        <time>2024-05-13T13:20:05Z</time>
      </trkpt>
      <trkpt lat="42.85021995" lon="13.36325992">
        <ele>679.00000</ele>
        <time>2024-05-13T13:20:06Z</time>
      </trkpt>
      <trkpt lat="42.85026999" lon="13.36332991">
        <ele>680.00000</ele>
        <time>2024-05-13T13:20:07Z</time>
      </trkpt>
      <trkpt lat="42.85031994" lon="13.36343997">
        <ele>681.00000</ele>
        <time>2024-05-13T13:20:09Z</time>
      </trkpt>
      <trkpt lat="42.85038993" lon="13.36352999">
        <ele>681.00000</ele>
        <time>2024-05-13T13:20:11Z</time>
      </trkpt>
      <trkpt lat="42.85042991" lon="13.36357994">
        <ele>682.00000</ele>
        <time>2024-05-13T13:20:11Z</time>
      </trkpt>
      <trkpt lat="42.85047995" lon="13.36359998">
        <ele>681.00000</ele>
        <time>2024-05-13T13:20:12Z</time>
      </trkpt>
      <trkpt lat="42.85052999" lon="13.36359998">
        <ele>681.00000</ele>
        <time>2024-05-13T13:20:13Z</time>
      </trkpt>
      <trkpt lat="42.85058992" lon="13.36359998">
        <ele>680.00000</ele>
        <time>2024-05-13T13:20:14Z</time>
      </trkpt>
      <trkpt lat="42.85067995" lon="13.36360995">
        <ele>680.00000</ele>
        <time>2024-05-13T13:20:15Z</time>
      </trkpt>
      <trkpt lat="42.85072999" lon="13.36361993">
        <ele>681.00000</ele>
        <time>2024-05-13T13:20:16Z</time>
      </trkpt>
      <trkpt lat="42.85074993" lon="13.36362998">
        <ele>681.00000</ele>
        <time>2024-05-13T13:20:17Z</time>
      </trkpt>
      <trkpt lat="42.85076997" lon="13.36364993">
        <ele>682.00000</ele>
        <time>2024-05-13T13:20:17Z</time>
      </trkpt>
      <trkpt lat="42.85080995" lon="13.36369997">
        <ele>683.00000</ele>
        <time>2024-05-13T13:20:18Z</time>
      </trkpt>
      <trkpt lat="42.85085999" lon="13.36378999">
        <ele>685.00000</ele>
        <time>2024-05-13T13:20:19Z</time>
      </trkpt>
      <trkpt lat="42.85088991" lon="13.36387993">
        <ele>688.00000</ele>
        <time>2024-05-13T13:20:20Z</time>
      </trkpt>
      <trkpt lat="42.85093995" lon="13.36397993">
        <ele>689.00000</ele>
        <time>2024-05-13T13:20:22Z</time>
      </trkpt>
      <trkpt lat="42.85098999" lon="13.36405998">
        <ele>691.00000</ele>
        <time>2024-05-13T13:20:23Z</time>
      </trkpt>
      <trkpt lat="42.85105998" lon="13.36412996">
        <ele>692.00000</ele>
        <time>2024-05-13T13:20:24Z</time>
      </trkpt>
      <trkpt lat="42.85121999" lon="13.36422996">
        <ele>692.00000</ele>
        <time>2024-05-13T13:20:27Z</time>
      </trkpt>
      <trkpt lat="42.85126995" lon="13.36427992">
        <ele>692.00000</ele>
        <time>2024-05-13T13:20:28Z</time>
      </trkpt>
      <trkpt lat="42.85128998" lon="13.36428998">
        <ele>691.00000</ele>
        <time>2024-05-13T13:20:29Z</time>
      </trkpt>
      <trkpt lat="42.85132996" lon="13.36434999">
        <ele>692.00000</ele>
        <time>2024-05-13T13:20:29Z</time>
      </trkpt>
      <trkpt lat="42.85135997" lon="13.36438997">
        <ele>692.00000</ele>
        <time>2024-05-13T13:20:30Z</time>
      </trkpt>
      <trkpt lat="42.85140993" lon="13.36447999">
        <ele>693.00000</ele>
        <time>2024-05-13T13:20:31Z</time>
      </trkpt>
      <trkpt lat="42.85145997" lon="13.36459994">
        <ele>695.00000</ele>
        <time>2024-05-13T13:20:33Z</time>
      </trkpt>
      <trkpt lat="42.85151998" lon="13.36474997">
        <ele>696.00000</ele>
        <time>2024-05-13T13:20:35Z</time>
      </trkpt>
      <trkpt lat="42.85155996" lon="13.36486992">
        <ele>698.00000</ele>
        <time>2024-05-13T13:20:37Z</time>
      </trkpt>
      <trkpt lat="42.85159994" lon="13.36497997">
        <ele>699.00000</ele>
        <time>2024-05-13T13:20:38Z</time>
      </trkpt>
      <trkpt lat="42.85162995" lon="13.36507997">
        <ele>700.00000</ele>
        <time>2024-05-13T13:20:39Z</time>
      </trkpt>
      <trkpt lat="42.85164998" lon="13.36515993">
        <ele>701.00000</ele>
        <time>2024-05-13T13:20:40Z</time>
      </trkpt>
      <trkpt lat="42.85166993" lon="13.36522992">
        <ele>702.00000</ele>
        <time>2024-05-13T13:20:41Z</time>
      </trkpt>
      <trkpt lat="42.85166993" lon="13.36527996">
        <ele>702.00000</ele>
        <time>2024-05-13T13:20:42Z</time>
      </trkpt>
      <trkpt lat="42.85167999" lon="13.36534995">
        <ele>704.00000</ele>
        <time>2024-05-13T13:20:43Z</time>
      </trkpt>
      <trkpt lat="42.85167999" lon="13.36539999">
        <ele>706.00000</ele>
        <time>2024-05-13T13:20:43Z</time>
      </trkpt>
      <trkpt lat="42.85166993" lon="13.36547995">
        <ele>708.00000</ele>
        <time>2024-05-13T13:20:44Z</time>
      </trkpt>
      <trkpt lat="42.85166993" lon="13.36549999">
        <ele>709.00000</ele>
        <time>2024-05-13T13:20:44Z</time>
      </trkpt>
      <trkpt lat="42.85166993" lon="13.36554994">
        <ele>710.00000</ele>
        <time>2024-05-13T13:20:45Z</time>
      </trkpt>
      <trkpt lat="42.85166993" lon="13.36558992">
        <ele>711.00000</ele>
        <time>2024-05-13T13:20:46Z</time>
      </trkpt>
      <trkpt lat="42.85168997" lon="13.36563996">
        <ele>712.00000</ele>
        <time>2024-05-13T13:20:46Z</time>
      </trkpt>
      <trkpt lat="42.85170991" lon="13.36566997">
        <ele>712.00000</ele>
        <time>2024-05-13T13:20:47Z</time>
      </trkpt>
      <trkpt lat="42.85171997" lon="13.36569998">
        <ele>712.00000</ele>
        <time>2024-05-13T13:20:47Z</time>
      </trkpt>
      <trkpt lat="42.85178996" lon="13.36577994">
        <ele>712.00000</ele>
        <time>2024-05-13T13:20:49Z</time>
      </trkpt>
      <trkpt lat="42.85182994" lon="13.36579998">
        <ele>711.00000</ele>
        <time>2024-05-13T13:20:49Z</time>
      </trkpt>
      <trkpt lat="42.85195995" lon="13.36585999">
        <ele>709.00000</ele>
        <time>2024-05-13T13:20:51Z</time>
      </trkpt>
      <trkpt lat="42.85216991" lon="13.36592998">
        <ele>704.00000</ele>
        <time>2024-05-13T13:20:55Z</time>
      </trkpt>
      <trkpt lat="42.85228994" lon="13.36600994">
        <ele>703.00000</ele>
        <time>2024-05-13T13:20:57Z</time>
      </trkpt>
      <trkpt lat="42.85237996" lon="13.36612997">
        <ele>704.00000</ele>
        <time>2024-05-13T13:20:59Z</time>
      </trkpt>
      <trkpt lat="42.85248993" lon="13.36628998">
        <ele>706.00000</ele>
        <time>2024-05-13T13:21:02Z</time>
      </trkpt>
      <trkpt lat="42.85254995" lon="13.36639995">
        <ele>707.00000</ele>
        <time>2024-05-13T13:21:03Z</time>
      </trkpt>
      <trkpt lat="42.85259999" lon="13.36652996">
        <ele>710.00000</ele>
        <time>2024-05-13T13:21:05Z</time>
      </trkpt>
      <trkpt lat="42.85269998" lon="13.36679994">
        <ele>712.00000</ele>
        <time>2024-05-13T13:21:08Z</time>
      </trkpt>
      <trkpt lat="42.85275992" lon="13.36703999">
        <ele>713.00000</ele>
        <time>2024-05-13T13:21:11Z</time>
      </trkpt>
      <trkpt lat="42.85280996" lon="13.36724996">
        <ele>715.00000</ele>
        <time>2024-05-13T13:21:14Z</time>
      </trkpt>
      <trkpt lat="42.85281993" lon="13.36738994">
        <ele>717.00000</ele>
        <time>2024-05-13T13:21:16Z</time>
      </trkpt>
      <trkpt lat="42.85281993" lon="13.36755992">
        <ele>720.00000</ele>
        <time>2024-05-13T13:21:18Z</time>
      </trkpt>
      <trkpt lat="42.85280996" lon="13.36776997">
        <ele>723.00000</ele>
        <time>2024-05-13T13:21:20Z</time>
      </trkpt>
      <trkpt lat="42.85280996" lon="13.36792998">
        <ele>724.00000</ele>
        <time>2024-05-13T13:21:22Z</time>
      </trkpt>
      <trkpt lat="42.85281993" lon="13.36807994">
        <ele>726.00000</ele>
        <time>2024-05-13T13:21:24Z</time>
      </trkpt>
      <trkpt lat="42.85288992" lon="13.36821991">
        <ele>726.00000</ele>
        <time>2024-05-13T13:21:26Z</time>
      </trkpt>
      <trkpt lat="42.85297994" lon="13.36835998">
        <ele>725.00000</ele>
        <time>2024-05-13T13:21:28Z</time>
      </trkpt>
      <trkpt lat="42.85303995" lon="13.36844991">
        <ele>726.00000</ele>
        <time>2024-05-13T13:21:29Z</time>
      </trkpt>
      <trkpt lat="42.85308999" lon="13.36850993">
        <ele>725.00000</ele>
        <time>2024-05-13T13:21:31Z</time>
      </trkpt>
      <trkpt lat="42.85328999" lon="13.36883992">
        <ele>727.00000</ele>
        <time>2024-05-13T13:21:36Z</time>
      </trkpt>
      <trkpt lat="42.85339996" lon="13.36904997">
        <ele>729.00000</ele>
        <time>2024-05-13T13:21:39Z</time>
      </trkpt>
      <trkpt lat="42.85354999" lon="13.36931996">
        <ele>732.00000</ele>
        <time>2024-05-13T13:21:43Z</time>
      </trkpt>
      <trkpt lat="42.85367011" lon="13.36955515">
        <ele>734.00000</ele>
        <time>2024-05-13T13:21:46Z</time>
      </trkpt>
      <trkpt lat="42.85378997" lon="13.36978993">
        <ele>733.00000</ele>
        <time>2024-05-13T13:21:49Z</time>
      </trkpt>
      <trkpt lat="42.85389994" lon="13.36998992">
        <ele>731.00000</ele>
        <time>2024-05-13T13:21:52Z</time>
      </trkpt>
      <trkpt lat="42.85396993" lon="13.37013996">
        <ele>730.00000</ele>
        <time>2024-05-13T13:21:54Z</time>
      </trkpt>
      <trkpt lat="42.85398996" lon="13.37022998">
        <ele>730.00000</ele>
        <time>2024-05-13T13:21:55Z</time>
      </trkpt>
      <trkpt lat="42.85400999" lon="13.37034992">
        <ele>730.00000</ele>
        <time>2024-05-13T13:21:57Z</time>
      </trkpt>
      <trkpt lat="42.85402994" lon="13.37049996">
        <ele>730.00000</ele>
        <time>2024-05-13T13:21:59Z</time>
      </trkpt>
      <trkpt lat="42.85402994" lon="13.37057992">
        <ele>731.00000</ele>
        <time>2024-05-13T13:22:00Z</time>
      </trkpt>
      <trkpt lat="42.85402994" lon="13.37065997">
        <ele>732.00000</ele>
        <time>2024-05-13T13:22:01Z</time>
      </trkpt>
      <trkpt lat="42.85402994" lon="13.37072996">
        <ele>733.00000</ele>
        <time>2024-05-13T13:22:01Z</time>
      </trkpt>
      <trkpt lat="42.85402994" lon="13.37077992">
        <ele>733.00000</ele>
        <time>2024-05-13T13:22:02Z</time>
      </trkpt>
      <trkpt lat="42.85401997" lon="13.37083993">
        <ele>734.00000</ele>
        <time>2024-05-13T13:22:03Z</time>
      </trkpt>
      <trkpt lat="42.85401997" lon="13.37087991">
        <ele>735.00000</ele>
        <time>2024-05-13T13:22:03Z</time>
      </trkpt>
      <trkpt lat="42.85400999" lon="13.37093993">
        <ele>736.00000</ele>
        <time>2024-05-13T13:22:04Z</time>
      </trkpt>
      <trkpt lat="42.85399993" lon="13.37095996">
        <ele>736.00000</ele>
        <time>2024-05-13T13:22:04Z</time>
      </trkpt>
      <trkpt lat="42.85398996" lon="13.37099994">
        <ele>737.00000</ele>
        <time>2024-05-13T13:22:05Z</time>
      </trkpt>
      <trkpt lat="42.85397998" lon="13.37103992">
        <ele>738.00000</ele>
        <time>2024-05-13T13:22:05Z</time>
      </trkpt>
      <trkpt lat="42.85394998" lon="13.37105995">
        <ele>739.00000</ele>
        <time>2024-05-13T13:22:06Z</time>
      </trkpt>
      <trkpt lat="42.85392994" lon="13.37107999">
        <ele>739.00000</ele>
        <time>2024-05-13T13:22:06Z</time>
      </trkpt>
      <trkpt lat="42.85389994" lon="13.37108996">
        <ele>740.00000</ele>
        <time>2024-05-13T13:22:07Z</time>
      </trkpt>
      <trkpt lat="42.85387999" lon="13.37108996">
        <ele>740.00000</ele>
        <time>2024-05-13T13:22:07Z</time>
      </trkpt>
      <trkpt lat="42.85383992" lon="13.37106993">
        <ele>741.00000</ele>
        <time>2024-05-13T13:22:08Z</time>
      </trkpt>
      <trkpt lat="42.85381997" lon="13.37106993">
        <ele>741.00000</ele>
        <time>2024-05-13T13:22:08Z</time>
      </trkpt>
      <trkpt lat="42.85377999" lon="13.37104998">
        <ele>741.00000</ele>
        <time>2024-05-13T13:22:09Z</time>
      </trkpt>
      <trkpt lat="42.85374999" lon="13.37100991">
        <ele>741.00000</ele>
        <time>2024-05-13T13:22:09Z</time>
      </trkpt>
      <trkpt lat="42.85355997" lon="13.37074999">
        <ele>742.00000</ele>
        <time>2024-05-13T13:22:14Z</time>
      </trkpt>
      <trkpt lat="42.85335486" lon="13.37050482">
        <ele>745.00000</ele>
        <time>2024-05-13T13:22:18Z</time>
      </trkpt>
      <trkpt lat="42.85314993" lon="13.37025999">
        <ele>747.00000</ele>
        <time>2024-05-13T13:22:22Z</time>
      </trkpt>
      <trkpt lat="42.85295488" lon="13.37005488">
        <ele>750.00000</ele>
        <time>2024-05-13T13:22:26Z</time>
      </trkpt>
      <trkpt lat="42.85275992" lon="13.36984994">
        <ele>752.00000</ele>
        <time>2024-05-13T13:22:30Z</time>
      </trkpt>
      <trkpt lat="42.85260988" lon="13.36970997">
        <ele>755.00000</ele>
        <time>2024-05-13T13:22:33Z</time>
      </trkpt>
      <trkpt lat="42.85245993" lon="13.36956999">
        <ele>757.00000</ele>
        <time>2024-05-13T13:22:36Z</time>
      </trkpt>
      <trkpt lat="42.85229992" lon="13.36942498">
        <ele>759.00000</ele>
        <time>2024-05-13T13:22:39Z</time>
      </trkpt>
      <trkpt lat="42.85213999" lon="13.36927997">
        <ele>761.00000</ele>
        <time>2024-05-13T13:22:42Z</time>
      </trkpt>
      <trkpt lat="42.85203999" lon="13.36914997">
        <ele>761.00000</ele>
        <time>2024-05-13T13:22:44Z</time>
      </trkpt>
      <trkpt lat="42.85198995" lon="13.36909993">
        <ele>762.00000</ele>
        <time>2024-05-13T13:22:45Z</time>
      </trkpt>
      <trkpt lat="42.85191996" lon="13.36902994">
        <ele>762.00000</ele>
        <time>2024-05-13T13:22:47Z</time>
      </trkpt>
      <trkpt lat="42.85187998" lon="13.36900999">
        <ele>763.00000</ele>
        <time>2024-05-13T13:22:47Z</time>
      </trkpt>
      <trkpt lat="42.85181997" lon="13.36897999">
        <ele>764.00000</ele>
        <time>2024-05-13T13:22:48Z</time>
      </trkpt>
      <trkpt lat="42.85178996" lon="13.36897999">
        <ele>765.00000</ele>
        <time>2024-05-13T13:22:49Z</time>
      </trkpt>
      <trkpt lat="42.85174998" lon="13.36898996">
        <ele>766.00000</ele>
        <time>2024-05-13T13:22:50Z</time>
      </trkpt>
      <trkpt lat="42.85172995" lon="13.36899993">
        <ele>767.00000</ele>
        <time>2024-05-13T13:22:50Z</time>
      </trkpt>
      <trkpt lat="42.85171997" lon="13.36900999">
        <ele>767.00000</ele>
        <time>2024-05-13T13:22:50Z</time>
      </trkpt>
      <trkpt lat="42.85169994" lon="13.36902994">
        <ele>768.00000</ele>
        <time>2024-05-13T13:22:51Z</time>
      </trkpt>
      <trkpt lat="42.85168997" lon="13.36906992">
        <ele>769.00000</ele>
        <time>2024-05-13T13:22:51Z</time>
      </trkpt>
      <trkpt lat="42.85167999" lon="13.36910999">
        <ele>770.00000</ele>
        <time>2024-05-13T13:22:52Z</time>
      </trkpt>
      <trkpt lat="42.85167999" lon="13.36913991">
        <ele>771.00000</ele>
        <time>2024-05-13T13:22:52Z</time>
      </trkpt>
      <trkpt lat="42.85168997" lon="13.36916992">
        <ele>771.00000</ele>
        <time>2024-05-13T13:22:52Z</time>
      </trkpt>
      <trkpt lat="42.85170991" lon="13.36919993">
        <ele>771.00000</ele>
        <time>2024-05-13T13:22:53Z</time>
      </trkpt>
      <trkpt lat="42.85172995" lon="13.36922993">
        <ele>771.00000</ele>
        <time>2024-05-13T13:22:53Z</time>
      </trkpt>
      <trkpt lat="42.85175995" lon="13.36926992">
        <ele>771.00000</ele>
        <time>2024-05-13T13:22:54Z</time>
      </trkpt>
      <trkpt lat="42.85180999" lon="13.36930998">
        <ele>770.00000</ele>
        <time>2024-05-13T13:22:55Z</time>
      </trkpt>
      <trkpt lat="42.85186992" lon="13.36935994">
        <ele>769.00000</ele>
        <time>2024-05-13T13:22:56Z</time>
      </trkpt>
      <trkpt lat="42.85192994" lon="13.36942993">
        <ele>768.00000</ele>
        <time>2024-05-13T13:22:57Z</time>
      </trkpt>
      <trkpt lat="42.85198995" lon="13.36954995">
        <ele>768.00000</ele>
        <time>2024-05-13T13:22:59Z</time>
      </trkpt>
      <trkpt lat="42.85212993" lon="13.36991993">
        <ele>771.00000</ele>
        <time>2024-05-13T13:23:04Z</time>
      </trkpt>
      <trkpt lat="42.85218995" lon="13.37006997">
        <ele>771.00000</ele>
        <time>2024-05-13T13:23:06Z</time>
      </trkpt>
      <trkpt lat="42.85223999" lon="13.37020995">
        <ele>771.00000</ele>
        <time>2024-05-13T13:23:08Z</time>
      </trkpt>
      <trkpt lat="42.85228994" lon="13.37031992">
        <ele>770.00000</ele>
        <time>2024-05-13T13:23:09Z</time>
      </trkpt>
      <trkpt lat="42.85230997" lon="13.37035998">
        <ele>770.00000</ele>
        <time>2024-05-13T13:23:10Z</time>
      </trkpt>
      <trkpt lat="42.85230997" lon="13.37041991">
        <ele>770.00000</ele>
        <time>2024-05-13T13:23:10Z</time>
      </trkpt>
      <trkpt lat="42.85230997" lon="13.37052997">
        <ele>771.00000</ele>
        <time>2024-05-13T13:23:12Z</time>
      </trkpt>
      <trkpt lat="42.85230997" lon="13.37070993">
        <ele>772.00000</ele>
        <time>2024-05-13T13:23:14Z</time>
      </trkpt>
      <trkpt lat="42.85229992" lon="13.37093993">
        <ele>774.00000</ele>
        <time>2024-05-13T13:23:17Z</time>
      </trkpt>
      <trkpt lat="42.85229992" lon="13.37102995">
        <ele>775.00000</ele>
        <time>2024-05-13T13:23:18Z</time>
      </trkpt>
      <trkpt lat="42.85229992" lon="13.37110999">
        <ele>775.00000</ele>
        <time>2024-05-13T13:23:19Z</time>
      </trkpt>
      <trkpt lat="42.85229992" lon="13.37118996">
        <ele>775.00000</ele>
        <time>2024-05-13T13:23:20Z</time>
      </trkpt>
      <trkpt lat="42.85228994" lon="13.37124997">
        <ele>776.00000</ele>
        <time>2024-05-13T13:23:20Z</time>
      </trkpt>
      <trkpt lat="42.85227997" lon="13.37129993">
        <ele>776.00000</ele>
        <time>2024-05-13T13:23:21Z</time>
      </trkpt>
      <trkpt lat="42.85226999" lon="13.37135994">
        <ele>776.00000</ele>
        <time>2024-05-13T13:23:22Z</time>
      </trkpt>
      <trkpt lat="42.85224996" lon="13.37143999">
        <ele>776.00000</ele>
        <time>2024-05-13T13:23:23Z</time>
      </trkpt>
      <trkpt lat="42.85221995" lon="13.37152993">
        <ele>776.00000</ele>
        <time>2024-05-13T13:23:24Z</time>
      </trkpt>
      <trkpt lat="42.85211996" lon="13.37170997">
        <ele>778.00000</ele>
        <time>2024-05-13T13:23:26Z</time>
      </trkpt>
      <trkpt lat="42.85200999" lon="13.37185992">
        <ele>780.00000</ele>
        <time>2024-05-13T13:23:29Z</time>
      </trkpt>
      <trkpt lat="42.85192994" lon="13.37195992">
        <ele>781.00000</ele>
        <time>2024-05-13T13:23:31Z</time>
      </trkpt>
      <trkpt lat="42.85188996" lon="13.37200996">
        <ele>781.00000</ele>
        <time>2024-05-13T13:23:31Z</time>
      </trkpt>
      <trkpt lat="42.85185995" lon="13.37204994">
        <ele>781.00000</ele>
        <time>2024-05-13T13:23:32Z</time>
      </trkpt>
      <trkpt lat="42.85181997" lon="13.37206997">
        <ele>781.00000</ele>
        <time>2024-05-13T13:23:33Z</time>
      </trkpt>
      <trkpt lat="42.85176993" lon="13.37208992">
        <ele>781.00000</ele>
        <time>2024-05-13T13:23:34Z</time>
      </trkpt>
      <trkpt lat="42.85171997" lon="13.37209998">
        <ele>782.00000</ele>
        <time>2024-05-13T13:23:34Z</time>
      </trkpt>
      <trkpt lat="42.85168997" lon="13.37208992">
        <ele>783.00000</ele>
        <time>2024-05-13T13:23:35Z</time>
      </trkpt>
      <trkpt lat="42.85165996" lon="13.37207995">
        <ele>783.00000</ele>
        <time>2024-05-13T13:23:35Z</time>
      </trkpt>
      <trkpt lat="42.85161998" lon="13.37204994">
        <ele>782.00000</ele>
        <time>2024-05-13T13:23:36Z</time>
      </trkpt>
      <trkpt lat="42.85159994" lon="13.37200996">
        <ele>783.00000</ele>
        <time>2024-05-13T13:23:37Z</time>
      </trkpt>
      <trkpt lat="42.85157999" lon="13.37197995">
        <ele>783.00000</ele>
        <time>2024-05-13T13:23:37Z</time>
      </trkpt>
      <trkpt lat="42.85156994" lon="13.37192991">
        <ele>784.00000</ele>
        <time>2024-05-13T13:23:38Z</time>
      </trkpt>
      <trkpt lat="42.85155996" lon="13.37186998">
        <ele>786.00000</ele>
        <time>2024-05-13T13:23:39Z</time>
      </trkpt>
      <trkpt lat="42.85153993" lon="13.37178993">
        <ele>788.00000</ele>
        <time>2024-05-13T13:23:40Z</time>
      </trkpt>
      <trkpt lat="42.85150992" lon="13.37155994">
        <ele>793.00000</ele>
        <time>2024-05-13T13:23:42Z</time>
      </trkpt>
      <trkpt lat="42.85149995" lon="13.37129993">
        <ele>796.00000</ele>
        <time>2024-05-13T13:23:45Z</time>
      </trkpt>
      <trkpt lat="42.85148486" lon="13.37107437">
        <ele>796.00000</ele>
        <time>2024-05-13T13:23:48Z</time>
      </trkpt>
      <trkpt lat="42.85146994" lon="13.37084999">
        <ele>795.00000</ele>
        <time>2024-05-13T13:23:51Z</time>
      </trkpt>
      <trkpt lat="42.85144999" lon="13.37051999">
        <ele>795.00000</ele>
        <time>2024-05-13T13:23:55Z</time>
      </trkpt>
      <trkpt lat="42.85144999" lon="13.37043995">
        <ele>794.00000</ele>
        <time>2024-05-13T13:23:56Z</time>
      </trkpt>
      <trkpt lat="42.85143993" lon="13.37034992">
        <ele>793.00000</ele>
        <time>2024-05-13T13:23:57Z</time>
      </trkpt>
      <trkpt lat="42.85141998" lon="13.37028999">
        <ele>793.00000</ele>
        <time>2024-05-13T13:23:57Z</time>
      </trkpt>
      <trkpt lat="42.85138998" lon="13.37021992">
        <ele>793.00000</ele>
        <time>2024-05-13T13:23:58Z</time>
      </trkpt>
      <trkpt lat="42.85135997" lon="13.37015999">
        <ele>793.00000</ele>
        <time>2024-05-13T13:23:59Z</time>
      </trkpt>
      <trkpt lat="42.85131999" lon="13.37010995">
        <ele>794.00000</ele>
        <time>2024-05-13T13:24:00Z</time>
      </trkpt>
      <trkpt lat="42.85126995" lon="13.37005999">
        <ele>795.00000</ele>
        <time>2024-05-13T13:24:01Z</time>
      </trkpt>
      <trkpt lat="42.85119996" lon="13.36999998">
        <ele>796.00000</ele>
        <time>2024-05-13T13:24:02Z</time>
      </trkpt>
      <trkpt lat="42.85110994" lon="13.36994994">
        <ele>797.00000</ele>
        <time>2024-05-13T13:24:04Z</time>
      </trkpt>
      <trkpt lat="42.85101992" lon="13.36992999">
        <ele>798.00000</ele>
        <time>2024-05-13T13:24:05Z</time>
      </trkpt>
      <trkpt lat="42.85088991" lon="13.36989998">
        <ele>801.00000</ele>
        <time>2024-05-13T13:24:07Z</time>
      </trkpt>
      <trkpt lat="42.85080995" lon="13.36986998">
        <ele>802.00000</ele>
        <time>2024-05-13T13:24:09Z</time>
      </trkpt>
      <trkpt lat="42.85072999" lon="13.36982999">
        <ele>802.00000</ele>
        <time>2024-05-13T13:24:10Z</time>
      </trkpt>
      <trkpt lat="42.85066997" lon="13.36978993">
        <ele>803.00000</ele>
        <time>2024-05-13T13:24:11Z</time>
      </trkpt>
      <trkpt lat="42.85045992" lon="13.36958994">
        <ele>803.00000</ele>
        <time>2024-05-13T13:24:15Z</time>
      </trkpt>
      <trkpt lat="42.85041994" lon="13.36955993">
        <ele>803.00000</ele>
        <time>2024-05-13T13:24:16Z</time>
      </trkpt>
      <trkpt lat="42.85024493" lon="13.36939489">
        <ele>803.00000</ele>
        <time>2024-05-13T13:24:19Z</time>
      </trkpt>
      <trkpt lat="42.85006999" lon="13.36922993">
        <ele>802.00000</ele>
        <time>2024-05-13T13:24:23Z</time>
      </trkpt>
      <trkpt lat="42.84994997" lon="13.36911996">
        <ele>801.00000</ele>
        <time>2024-05-13T13:24:25Z</time>
      </trkpt>
      <trkpt lat="42.84980999" lon="13.36896993">
        <ele>801.00000</ele>
        <time>2024-05-13T13:24:28Z</time>
      </trkpt>
      <trkpt lat="42.84977998" lon="13.36894998">
        <ele>801.00000</ele>
        <time>2024-05-13T13:24:29Z</time>
      </trkpt>
      <trkpt lat="42.84969993" lon="13.36885996">
        <ele>801.00000</ele>
        <time>2024-05-13T13:24:30Z</time>
      </trkpt>
      <trkpt lat="42.84951997" lon="13.36868997">
        <ele>801.00000</ele>
        <time>2024-05-13T13:24:34Z</time>
      </trkpt>
      <trkpt lat="42.84931998" lon="13.36847992">
        <ele>801.00000</ele>
        <time>2024-05-13T13:24:38Z</time>
      </trkpt>
      <trkpt lat="42.84911999" lon="13.36822997">
        <ele>801.00000</ele>
        <time>2024-05-13T13:24:42Z</time>
      </trkpt>
      <trkpt lat="42.84905998" lon="13.36816996">
        <ele>802.00000</ele>
        <time>2024-05-13T13:24:43Z</time>
      </trkpt>
      <trkpt lat="42.84892997" lon="13.36801992">
        <ele>803.00000</ele>
        <time>2024-05-13T13:24:46Z</time>
      </trkpt>
      <trkpt lat="42.84878999" lon="13.36790995">
        <ele>804.00000</ele>
        <time>2024-05-13T13:24:49Z</time>
      </trkpt>
      <trkpt lat="42.84864993" lon="13.36779998">
        <ele>805.00000</ele>
        <time>2024-05-13T13:24:51Z</time>
      </trkpt>
      <trkpt lat="42.84853996" lon="13.36767995">
        <ele>806.00000</ele>
        <time>2024-05-13T13:24:54Z</time>
      </trkpt>
      <trkpt lat="42.84837995" lon="13.36751994">
        <ele>808.00000</ele>
        <time>2024-05-13T13:24:57Z</time>
      </trkpt>
      <trkpt lat="42.84823997" lon="13.36727997">
        <ele>809.00000</ele>
        <time>2024-05-13T13:25:00Z</time>
      </trkpt>
      <trkpt lat="42.84818993" lon="13.36715994">
        <ele>808.00000</ele>
        <time>2024-05-13T13:25:02Z</time>
      </trkpt>
      <trkpt lat="42.84809991" lon="13.36696992">
        <ele>805.00000</ele>
        <time>2024-05-13T13:25:05Z</time>
      </trkpt>
      <trkpt lat="42.84795993" lon="13.36679994">
        <ele>803.00000</ele>
        <time>2024-05-13T13:25:08Z</time>
      </trkpt>
      <trkpt lat="42.84781996" lon="13.36669994">
        <ele>804.00000</ele>
        <time>2024-05-13T13:25:10Z</time>
      </trkpt>
      <trkpt lat="42.84758996" lon="13.36657991">
        <ele>808.00000</ele>
        <time>2024-05-13T13:25:14Z</time>
      </trkpt>
      <trkpt lat="42.84732995" lon="13.36649995">
        <ele>814.00000</ele>
        <time>2024-05-13T13:25:18Z</time>
      </trkpt>
      <trkpt lat="42.84718997" lon="13.36644999">
        <ele>815.00000</ele>
        <time>2024-05-13T13:25:21Z</time>
      </trkpt>
      <trkpt lat="42.84704999" lon="13.36639995">
        <ele>816.00000</ele>
        <time>2024-05-13T13:25:23Z</time>
      </trkpt>
      <trkpt lat="42.84679016" lon="13.36628001">
        <ele>817.00000</ele>
        <time>2024-05-13T13:25:27Z</time>
      </trkpt>
      <trkpt lat="42.84652998" lon="13.36615998">
        <ele>820.00000</ele>
        <time>2024-05-13T13:25:32Z</time>
      </trkpt>
      <trkpt lat="42.84624994" lon="13.36600994">
        <ele>822.00000</ele>
        <time>2024-05-13T13:25:37Z</time>
      </trkpt>
      <trkpt lat="42.84598994" lon="13.36588991">
        <ele>822.00000</ele>
        <time>2024-05-13T13:25:41Z</time>
      </trkpt>
      <trkpt lat="42.84583001" lon="13.36583493">
        <ele>822.00000</ele>
        <time>2024-05-13T13:25:44Z</time>
      </trkpt>
      <trkpt lat="42.84566991" lon="13.36577994">
        <ele>824.00000</ele>
        <time>2024-05-13T13:25:46Z</time>
      </trkpt>
      <trkpt lat="42.84560998" lon="13.36575999">
        <ele>825.00000</ele>
        <time>2024-05-13T13:25:47Z</time>
      </trkpt>
      <trkpt lat="42.84557998" lon="13.36572999">
        <ele>824.00000</ele>
        <time>2024-05-13T13:25:48Z</time>
      </trkpt>
      <trkpt lat="42.84554997" lon="13.36569998">
        <ele>824.00000</ele>
        <time>2024-05-13T13:25:48Z</time>
      </trkpt>
      <trkpt lat="42.84550999" lon="13.36563996">
        <ele>824.00000</ele>
        <time>2024-05-13T13:25:49Z</time>
      </trkpt>
      <trkpt lat="42.84549993" lon="13.36562999">
        <ele>824.00000</ele>
        <time>2024-05-13T13:25:50Z</time>
      </trkpt>
      <trkpt lat="42.84545995" lon="13.36553997">
        <ele>823.00000</ele>
        <time>2024-05-13T13:25:51Z</time>
      </trkpt>
      <trkpt lat="42.84531997" lon="13.36526999">
        <ele>821.00000</ele>
        <time>2024-05-13T13:25:55Z</time>
      </trkpt>
      <trkpt lat="42.84517999" lon="13.36500998">
        <ele>821.00000</ele>
        <time>2024-05-13T13:25:58Z</time>
      </trkpt>
      <trkpt lat="42.84507480" lon="13.36482977">
        <ele>820.00000</ele>
        <time>2024-05-13T13:26:01Z</time>
      </trkpt>
      <trkpt lat="42.84496994" lon="13.36464998">
        <ele>819.00000</ele>
        <time>2024-05-13T13:26:04Z</time>
      </trkpt>
      <trkpt lat="42.84485997" lon="13.36447999">
        <ele>817.00000</ele>
        <time>2024-05-13T13:26:07Z</time>
      </trkpt>
      <trkpt lat="42.84477992" lon="13.36437991">
        <ele>816.00000</ele>
        <time>2024-05-13T13:26:08Z</time>
      </trkpt>
      <trkpt lat="42.84471999" lon="13.36432996">
        <ele>816.00000</ele>
        <time>2024-05-13T13:26:09Z</time>
      </trkpt>
      <trkpt lat="42.84463995" lon="13.36427992">
        <ele>816.00000</ele>
        <time>2024-05-13T13:26:11Z</time>
      </trkpt>
      <trkpt lat="42.84448999" lon="13.36419995">
        <ele>817.00000</ele>
        <time>2024-05-13T13:26:13Z</time>
      </trkpt>
      <trkpt lat="42.84428011" lon="13.36409501">
        <ele>818.00000</ele>
        <time>2024-05-13T13:26:17Z</time>
      </trkpt>
      <trkpt lat="42.84406998" lon="13.36398999">
        <ele>819.00000</ele>
        <time>2024-05-13T13:26:21Z</time>
      </trkpt>
      <trkpt lat="42.84389999" lon="13.36388496">
        <ele>820.00000</ele>
        <time>2024-05-13T13:26:24Z</time>
      </trkpt>
      <trkpt lat="42.84372992" lon="13.36377994">
        <ele>822.00000</ele>
        <time>2024-05-13T13:26:27Z</time>
      </trkpt>
      <trkpt lat="42.84347997" lon="13.36359495">
        <ele>824.00000</ele>
        <time>2024-05-13T13:26:31Z</time>
      </trkpt>
      <trkpt lat="42.84322994" lon="13.36340996">
        <ele>827.00000</ele>
        <time>2024-05-13T13:26:36Z</time>
      </trkpt>
      <trkpt lat="42.84301998" lon="13.36323997">
        <ele>830.00000</ele>
        <time>2024-05-13T13:26:40Z</time>
      </trkpt>
      <trkpt lat="42.84280993" lon="13.36306999">
        <ele>831.00000</ele>
        <time>2024-05-13T13:26:43Z</time>
      </trkpt>
      <trkpt lat="42.84269995" lon="13.36295993">
        <ele>831.00000</ele>
        <time>2024-05-13T13:26:46Z</time>
      </trkpt>
      <trkpt lat="42.84263994" lon="13.36288995">
        <ele>831.00000</ele>
        <time>2024-05-13T13:26:47Z</time>
      </trkpt>
      <trkpt lat="42.84251991" lon="13.36273999">
        <ele>831.00000</ele>
        <time>2024-05-13T13:26:49Z</time>
      </trkpt>
      <trkpt lat="42.84247993" lon="13.36265995">
        <ele>831.00000</ele>
        <time>2024-05-13T13:26:51Z</time>
      </trkpt>
      <trkpt lat="42.84241992" lon="13.36249994">
        <ele>830.00000</ele>
        <time>2024-05-13T13:26:53Z</time>
      </trkpt>
      <trkpt lat="42.84231992" lon="13.36233993">
        <ele>829.00000</ele>
        <time>2024-05-13T13:26:55Z</time>
      </trkpt>
      <trkpt lat="42.84223996" lon="13.36224999">
        <ele>830.00000</ele>
        <time>2024-05-13T13:26:57Z</time>
      </trkpt>
      <trkpt lat="42.84211993" lon="13.36216994">
        <ele>828.00000</ele>
        <time>2024-05-13T13:26:59Z</time>
      </trkpt>
      <trkpt lat="42.84195992" lon="13.36210993">
        <ele>826.00000</ele>
        <time>2024-05-13T13:27:02Z</time>
      </trkpt>
      <trkpt lat="42.84166999" lon="13.36202996">
        <ele>825.00000</ele>
        <time>2024-05-13T13:27:06Z</time>
      </trkpt>
      <trkpt lat="42.84153998" lon="13.36197992">
        <ele>826.00000</ele>
        <time>2024-05-13T13:27:09Z</time>
      </trkpt>
      <trkpt lat="42.84135994" lon="13.36187993">
        <ele>827.00000</ele>
        <time>2024-05-13T13:27:12Z</time>
      </trkpt>
      <trkpt lat="42.84118996" lon="13.36172997">
        <ele>827.00000</ele>
        <time>2024-05-13T13:27:15Z</time>
      </trkpt>
      <trkpt lat="42.84098996" lon="13.36159997">
        <ele>828.00000</ele>
        <time>2024-05-13T13:27:18Z</time>
      </trkpt>
      <trkpt lat="42.84074999" lon="13.36145999">
        <ele>830.00000</ele>
        <time>2024-05-13T13:27:23Z</time>
      </trkpt>
      <trkpt lat="42.84056005" lon="13.36136997">
        <ele>833.00000</ele>
        <time>2024-05-13T13:27:26Z</time>
      </trkpt>
      <trkpt lat="42.84036995" lon="13.36127995">
        <ele>836.00000</ele>
        <time>2024-05-13T13:27:29Z</time>
      </trkpt>
      <trkpt lat="42.84020994" lon="13.36117995">
        <ele>838.00000</ele>
        <time>2024-05-13T13:27:32Z</time>
      </trkpt>
      <trkpt lat="42.83999998" lon="13.36105993">
        <ele>839.00000</ele>
        <time>2024-05-13T13:27:36Z</time>
      </trkpt>
      <trkpt lat="42.83976998" lon="13.36086999">
        <ele>839.00000</ele>
        <time>2024-05-13T13:27:40Z</time>
      </trkpt>
      <trkpt lat="42.83967996" lon="13.36081995">
        <ele>840.00000</ele>
        <time>2024-05-13T13:27:41Z</time>
      </trkpt>
      <trkpt lat="42.83948994" lon="13.36065994">
        <ele>840.00000</ele>
        <time>2024-05-13T13:27:45Z</time>
      </trkpt>
      <trkpt lat="42.83930998" lon="13.36042994">
        <ele>836.00000</ele>
        <time>2024-05-13T13:27:49Z</time>
      </trkpt>
      <trkpt lat="42.83911476" lon="13.36013968">
        <ele>831.00000</ele>
        <time>2024-05-13T13:27:54Z</time>
      </trkpt>
      <trkpt lat="42.83891997" lon="13.35984991">
        <ele>832.00000</ele>
        <time>2024-05-13T13:27:58Z</time>
      </trkpt>
      <trkpt lat="42.83882995" lon="13.35968999">
        <ele>834.00000</ele>
        <time>2024-05-13T13:28:01Z</time>
      </trkpt>
      <trkpt lat="42.83877999" lon="13.35958999">
        <ele>835.00000</ele>
        <time>2024-05-13T13:28:02Z</time>
      </trkpt>
      <trkpt lat="42.83872995" lon="13.35943995">
        <ele>836.00000</ele>
        <time>2024-05-13T13:28:04Z</time>
      </trkpt>
      <trkpt lat="42.83870992" lon="13.35933996">
        <ele>837.00000</ele>
        <time>2024-05-13T13:28:05Z</time>
      </trkpt>
      <trkpt lat="42.83868997" lon="13.35921993">
        <ele>838.00000</ele>
        <time>2024-05-13T13:28:07Z</time>
      </trkpt>
      <trkpt lat="42.83868997" lon="13.35911993">
        <ele>838.00000</ele>
        <time>2024-05-13T13:28:08Z</time>
      </trkpt>
      <trkpt lat="42.83870992" lon="13.35899999">
        <ele>836.00000</ele>
        <time>2024-05-13T13:28:09Z</time>
      </trkpt>
      <trkpt lat="42.83871998" lon="13.35884995">
        <ele>835.00000</ele>
        <time>2024-05-13T13:28:11Z</time>
      </trkpt>
      <trkpt lat="42.83870992" lon="13.35870997">
        <ele>835.00000</ele>
        <time>2024-05-13T13:28:13Z</time>
      </trkpt>
      <trkpt lat="42.83868997" lon="13.35859992">
        <ele>836.00000</ele>
        <time>2024-05-13T13:28:14Z</time>
      </trkpt>
      <trkpt lat="42.83864999" lon="13.35839993">
        <ele>837.00000</ele>
        <time>2024-05-13T13:28:16Z</time>
      </trkpt>
      <trkpt lat="42.83862995" lon="13.35826992">
        <ele>838.00000</ele>
        <time>2024-05-13T13:28:18Z</time>
      </trkpt>
      <trkpt lat="42.83860992" lon="13.35812995">
        <ele>838.00000</ele>
        <time>2024-05-13T13:28:20Z</time>
      </trkpt>
      <trkpt lat="42.83859995" lon="13.35799994">
        <ele>838.00000</ele>
        <time>2024-05-13T13:28:21Z</time>
      </trkpt>
      <trkpt lat="42.83860992" lon="13.35787991">
        <ele>836.00000</ele>
        <time>2024-05-13T13:28:23Z</time>
      </trkpt>
      <trkpt lat="42.83861998" lon="13.35776994">
        <ele>834.00000</ele>
        <time>2024-05-13T13:28:24Z</time>
      </trkpt>
      <trkpt lat="42.83864999" lon="13.35756995">
        <ele>833.00000</ele>
        <time>2024-05-13T13:28:26Z</time>
      </trkpt>
      <trkpt lat="42.83866994" lon="13.35744992">
        <ele>832.00000</ele>
        <time>2024-05-13T13:28:28Z</time>
      </trkpt>
      <trkpt lat="42.83867999" lon="13.35735999">
        <ele>831.00000</ele>
        <time>2024-05-13T13:28:29Z</time>
      </trkpt>
      <trkpt lat="42.83868997" lon="13.35726996">
        <ele>831.00000</ele>
        <time>2024-05-13T13:28:30Z</time>
      </trkpt>
      <trkpt lat="42.83867999" lon="13.35720995">
        <ele>831.00000</ele>
        <time>2024-05-13T13:28:31Z</time>
      </trkpt>
      <trkpt lat="42.83865996" lon="13.35714993">
        <ele>831.00000</ele>
        <time>2024-05-13T13:28:31Z</time>
      </trkpt>
      <trkpt lat="42.83864999" lon="13.35711993">
        <ele>831.00000</ele>
        <time>2024-05-13T13:28:32Z</time>
      </trkpt>
      <trkpt lat="42.83860992" lon="13.35706997">
        <ele>832.00000</ele>
        <time>2024-05-13T13:28:33Z</time>
      </trkpt>
      <trkpt lat="42.83858997" lon="13.35703996">
        <ele>832.00000</ele>
        <time>2024-05-13T13:28:33Z</time>
      </trkpt>
      <trkpt lat="42.83841999" lon="13.35689999">
        <ele>833.00000</ele>
        <time>2024-05-13T13:28:36Z</time>
      </trkpt>
      <trkpt lat="42.83827993" lon="13.35678993">
        <ele>834.00000</ele>
        <time>2024-05-13T13:28:39Z</time>
      </trkpt>
      <trkpt lat="42.83817993" lon="13.35668994">
        <ele>835.00000</ele>
        <time>2024-05-13T13:28:41Z</time>
      </trkpt>
      <trkpt lat="42.83809997" lon="13.35655993">
        <ele>836.00000</ele>
        <time>2024-05-13T13:28:43Z</time>
      </trkpt>
      <trkpt lat="42.83804993" lon="13.35645994">
        <ele>836.00000</ele>
        <time>2024-05-13T13:28:44Z</time>
      </trkpt>
      <trkpt lat="42.83800994" lon="13.35635994">
        <ele>836.00000</ele>
        <time>2024-05-13T13:28:46Z</time>
      </trkpt>
      <trkpt lat="42.83796996" lon="13.35614997">
        <ele>835.00000</ele>
        <time>2024-05-13T13:28:48Z</time>
      </trkpt>
      <trkpt lat="42.83793996" lon="13.35598996">
        <ele>835.00000</ele>
        <time>2024-05-13T13:28:50Z</time>
      </trkpt>
      <trkpt lat="42.83791992" lon="13.35585996">
        <ele>835.00000</ele>
        <time>2024-05-13T13:28:52Z</time>
      </trkpt>
      <trkpt lat="42.83790995" lon="13.35577991">
        <ele>834.00000</ele>
        <time>2024-05-13T13:28:53Z</time>
      </trkpt>
      <trkpt lat="42.83786997" lon="13.35569995">
        <ele>834.00000</ele>
        <time>2024-05-13T13:28:54Z</time>
      </trkpt>
      <trkpt lat="42.83764994" lon="13.35540994">
        <ele>832.00000</ele>
        <time>2024-05-13T13:28:59Z</time>
      </trkpt>
      <trkpt lat="42.83750485" lon="13.35522478">
        <ele>832.00000</ele>
        <time>2024-05-13T13:29:02Z</time>
      </trkpt>
      <trkpt lat="42.83735993" lon="13.35503996">
        <ele>830.00000</ele>
        <time>2024-05-13T13:29:05Z</time>
      </trkpt>
      <trkpt lat="42.83724476" lon="13.35486478">
        <ele>828.00000</ele>
        <time>2024-05-13T13:29:08Z</time>
      </trkpt>
      <trkpt lat="42.83712993" lon="13.35468993">
        <ele>827.00000</ele>
        <time>2024-05-13T13:29:11Z</time>
      </trkpt>
      <trkpt lat="42.83697998" lon="13.35453998">
        <ele>827.00000</ele>
        <time>2024-05-13T13:29:14Z</time>
      </trkpt>
      <trkpt lat="42.83671997" lon="13.35438994">
        <ele>824.00000</ele>
        <time>2024-05-13T13:29:18Z</time>
      </trkpt>
      <trkpt lat="42.83653507" lon="13.35430000">
        <ele>822.00000</ele>
        <time>2024-05-13T13:29:21Z</time>
      </trkpt>
      <trkpt lat="42.83634999" lon="13.35420998">
        <ele>820.00000</ele>
        <time>2024-05-13T13:29:24Z</time>
      </trkpt>
      <trkpt lat="42.83609996" lon="13.35399993">
        <ele>817.00000</ele>
        <time>2024-05-13T13:29:29Z</time>
      </trkpt>
      <trkpt lat="42.83591992" lon="13.35383992">
        <ele>815.00000</ele>
        <time>2024-05-13T13:29:32Z</time>
      </trkpt>
      <trkpt lat="42.83582998" lon="13.35375996">
        <ele>815.00000</ele>
        <time>2024-05-13T13:29:34Z</time>
      </trkpt>
      <trkpt lat="42.83575999" lon="13.35371998">
        <ele>814.00000</ele>
        <time>2024-05-13T13:29:35Z</time>
      </trkpt>
      <trkpt lat="42.83567994" lon="13.35371998">
        <ele>815.00000</ele>
        <time>2024-05-13T13:29:37Z</time>
      </trkpt>
      <trkpt lat="42.83538993" lon="13.35372995">
        <ele>814.00000</ele>
        <time>2024-05-13T13:29:41Z</time>
      </trkpt>
      <trkpt lat="42.83515515" lon="13.35377488">
        <ele>812.00000</ele>
        <time>2024-05-13T13:29:45Z</time>
      </trkpt>
      <trkpt lat="42.83491996" lon="13.35381997">
        <ele>811.00000</ele>
        <time>2024-05-13T13:29:49Z</time>
      </trkpt>
      <trkpt lat="42.83474016" lon="13.35381997">
        <ele>811.00000</ele>
        <time>2024-05-13T13:29:52Z</time>
      </trkpt>
      <trkpt lat="42.83455995" lon="13.35381997">
        <ele>812.00000</ele>
        <time>2024-05-13T13:29:55Z</time>
      </trkpt>
      <trkpt lat="42.83447999" lon="13.35379994">
        <ele>812.00000</ele>
        <time>2024-05-13T13:29:56Z</time>
      </trkpt>
      <trkpt lat="42.83442995" lon="13.35377999">
        <ele>813.00000</ele>
        <time>2024-05-13T13:29:57Z</time>
      </trkpt>
      <trkpt lat="42.83438997" lon="13.35374998">
        <ele>813.00000</ele>
        <time>2024-05-13T13:29:58Z</time>
      </trkpt>
      <trkpt lat="42.83435996" lon="13.35372995">
        <ele>813.00000</ele>
        <time>2024-05-13T13:29:58Z</time>
      </trkpt>
      <trkpt lat="42.83431998" lon="13.35367999">
        <ele>813.00000</ele>
        <time>2024-05-13T13:29:59Z</time>
      </trkpt>
      <trkpt lat="42.83428997" lon="13.35361998">
        <ele>813.00000</ele>
        <time>2024-05-13T13:30:00Z</time>
      </trkpt>
      <trkpt lat="42.83426994" lon="13.35355997">
        <ele>813.00000</ele>
        <time>2024-05-13T13:30:01Z</time>
      </trkpt>
      <trkpt lat="42.83425997" lon="13.35345997">
        <ele>813.00000</ele>
        <time>2024-05-13T13:30:02Z</time>
      </trkpt>
      <trkpt lat="42.83422996" lon="13.35309997">
        <ele>813.00000</ele>
        <time>2024-05-13T13:30:06Z</time>
      </trkpt>
      <trkpt lat="42.83424664" lon="13.35279252">
        <ele>809.00000</ele>
        <time>2024-05-13T13:30:10Z</time>
      </trkpt>
      <trkpt lat="42.83426332" lon="13.35248515">
        <ele>806.00000</ele>
        <time>2024-05-13T13:30:13Z</time>
      </trkpt>
      <trkpt lat="42.83427991" lon="13.35217997">
        <ele>808.00000</ele>
        <time>2024-05-13T13:30:17Z</time>
      </trkpt>
      <trkpt lat="42.83429995" lon="13.35206991">
        <ele>807.00000</ele>
        <time>2024-05-13T13:30:18Z</time>
      </trkpt>
      <trkpt lat="42.83432995" lon="13.35187998">
        <ele>806.00000</ele>
        <time>2024-05-13T13:30:21Z</time>
      </trkpt>
      <trkpt lat="42.83434999" lon="13.35175995">
        <ele>805.00000</ele>
        <time>2024-05-13T13:30:22Z</time>
      </trkpt>
      <trkpt lat="42.83435996" lon="13.35167999">
        <ele>805.00000</ele>
        <time>2024-05-13T13:30:23Z</time>
      </trkpt>
      <trkpt lat="42.83435996" lon="13.35159994">
        <ele>804.00000</ele>
        <time>2024-05-13T13:30:24Z</time>
      </trkpt>
      <trkpt lat="42.83434999" lon="13.35151998">
        <ele>804.00000</ele>
        <time>2024-05-13T13:30:25Z</time>
      </trkpt>
      <trkpt lat="42.83431998" lon="13.35144999">
        <ele>804.00000</ele>
        <time>2024-05-13T13:30:26Z</time>
      </trkpt>
      <trkpt lat="42.83428997" lon="13.35139995">
        <ele>804.00000</ele>
        <time>2024-05-13T13:30:27Z</time>
      </trkpt>
      <trkpt lat="42.83426994" lon="13.35136994">
        <ele>804.00000</ele>
        <time>2024-05-13T13:30:27Z</time>
      </trkpt>
      <trkpt lat="42.83408998" lon="13.35124991">
        <ele>805.00000</ele>
        <time>2024-05-13T13:30:30Z</time>
      </trkpt>
      <trkpt lat="42.83382997" lon="13.35112997">
        <ele>804.00000</ele>
        <time>2024-05-13T13:30:35Z</time>
      </trkpt>
      <trkpt lat="42.83359997" lon="13.35104992">
        <ele>801.00000</ele>
        <time>2024-05-13T13:30:38Z</time>
      </trkpt>
      <trkpt lat="42.83339998" lon="13.35100994">
        <ele>799.00000</ele>
        <time>2024-05-13T13:30:42Z</time>
      </trkpt>
      <trkpt lat="42.83322991" lon="13.35096996">
        <ele>798.00000</ele>
        <time>2024-05-13T13:30:44Z</time>
      </trkpt>
      <trkpt lat="42.83303998" lon="13.35089997">
        <ele>796.00000</ele>
        <time>2024-05-13T13:30:48Z</time>
      </trkpt>
      <trkpt lat="42.83289992" lon="13.35081992">
        <ele>794.00000</ele>
        <time>2024-05-13T13:30:50Z</time>
      </trkpt>
      <trkpt lat="42.83278995" lon="13.35070995">
        <ele>793.00000</ele>
        <time>2024-05-13T13:30:52Z</time>
      </trkpt>
      <trkpt lat="42.83257998" lon="13.35045992">
        <ele>790.00000</ele>
        <time>2024-05-13T13:30:57Z</time>
      </trkpt>
      <trkpt lat="42.83242986" lon="13.35027979">
        <ele>789.00000</ele>
        <time>2024-05-13T13:31:00Z</time>
      </trkpt>
      <trkpt lat="42.83227999" lon="13.35009992">
        <ele>787.00000</ele>
        <time>2024-05-13T13:31:03Z</time>
      </trkpt>
      <trkpt lat="42.83216994" lon="13.34996991">
        <ele>787.00000</ele>
        <time>2024-05-13T13:31:05Z</time>
      </trkpt>
      <trkpt lat="42.83208997" lon="13.34986992">
        <ele>788.00000</ele>
        <time>2024-05-13T13:31:07Z</time>
      </trkpt>
      <trkpt lat="42.83203993" lon="13.34977998">
        <ele>789.00000</ele>
        <time>2024-05-13T13:31:08Z</time>
      </trkpt>
      <trkpt lat="42.83201999" lon="13.34967998">
        <ele>789.00000</ele>
        <time>2024-05-13T13:31:10Z</time>
      </trkpt>
      <trkpt lat="42.83200993" lon="13.34956993">
        <ele>790.00000</ele>
        <time>2024-05-13T13:31:11Z</time>
      </trkpt>
      <trkpt lat="42.83200993" lon="13.34945996">
        <ele>789.00000</ele>
        <time>2024-05-13T13:31:12Z</time>
      </trkpt>
      <trkpt lat="42.83205997" lon="13.34909996">
        <ele>786.00000</ele>
        <time>2024-05-13T13:31:17Z</time>
      </trkpt>
      <trkpt lat="42.83211998" lon="13.34873995">
        <ele>783.00000</ele>
        <time>2024-05-13T13:31:21Z</time>
      </trkpt>
      <trkpt lat="42.83215502" lon="13.34851942">
        <ele>782.00000</ele>
        <time>2024-05-13T13:31:24Z</time>
      </trkpt>
      <trkpt lat="42.83218997" lon="13.34829999">
        <ele>780.00000</ele>
        <time>2024-05-13T13:31:26Z</time>
      </trkpt>
      <trkpt lat="42.83223993" lon="13.34792993">
        <ele>781.00000</ele>
        <time>2024-05-13T13:31:31Z</time>
      </trkpt>
      <trkpt lat="42.83224998" lon="13.34773999">
        <ele>783.00000</ele>
        <time>2024-05-13T13:31:33Z</time>
      </trkpt>
      <trkpt lat="42.83225996" lon="13.34769993">
        <ele>782.00000</ele>
        <time>2024-05-13T13:31:33Z</time>
      </trkpt>
      <trkpt lat="42.83227999" lon="13.34764997">
        <ele>782.00000</ele>
        <time>2024-05-13T13:31:34Z</time>
      </trkpt>
      <trkpt lat="42.83230992" lon="13.34759993">
        <ele>780.00000</ele>
        <time>2024-05-13T13:31:35Z</time>
      </trkpt>
      <trkpt lat="42.83232995" lon="13.34757998">
        <ele>779.00000</ele>
        <time>2024-05-13T13:31:35Z</time>
      </trkpt>
      <trkpt lat="42.83234998" lon="13.34754997">
        <ele>778.00000</ele>
        <time>2024-05-13T13:31:36Z</time>
      </trkpt>
      <trkpt lat="42.83235996" lon="13.34751997">
        <ele>778.00000</ele>
        <time>2024-05-13T13:31:36Z</time>
      </trkpt>
      <trkpt lat="42.83236993" lon="13.34747998">
        <ele>777.00000</ele>
        <time>2024-05-13T13:31:37Z</time>
      </trkpt>
      <trkpt lat="42.83236993" lon="13.34741997">
        <ele>776.00000</ele>
        <time>2024-05-13T13:31:37Z</time>
      </trkpt>
      <trkpt lat="42.83236993" lon="13.34735996">
        <ele>776.00000</ele>
        <time>2024-05-13T13:31:38Z</time>
      </trkpt>
      <trkpt lat="42.83235996" lon="13.34728997">
        <ele>775.00000</ele>
        <time>2024-05-13T13:31:39Z</time>
      </trkpt>
      <trkpt lat="42.83227999" lon="13.34711998">
        <ele>775.00000</ele>
        <time>2024-05-13T13:31:41Z</time>
      </trkpt>
      <trkpt lat="42.83221998" lon="13.34696995">
        <ele>774.00000</ele>
        <time>2024-05-13T13:31:43Z</time>
      </trkpt>
      <trkpt lat="42.83211998" lon="13.34673995">
        <ele>775.00000</ele>
        <time>2024-05-13T13:31:46Z</time>
      </trkpt>
      <trkpt lat="42.83205997" lon="13.34657994">
        <ele>776.00000</ele>
        <time>2024-05-13T13:31:48Z</time>
      </trkpt>
      <trkpt lat="42.83204999" lon="13.34637994">
        <ele>773.00000</ele>
        <time>2024-05-13T13:31:51Z</time>
      </trkpt>
      <trkpt lat="42.83204999" lon="13.34628992">
        <ele>772.00000</ele>
        <time>2024-05-13T13:31:52Z</time>
      </trkpt>
      <trkpt lat="42.83202996" lon="13.34620996">
        <ele>772.00000</ele>
        <time>2024-05-13T13:31:53Z</time>
      </trkpt>
      <trkpt lat="42.83198998" lon="13.34612991">
        <ele>774.00000</ele>
        <time>2024-05-13T13:31:54Z</time>
      </trkpt>
      <trkpt lat="42.83191999" lon="13.34597996">
        <ele>778.00000</ele>
        <time>2024-05-13T13:31:56Z</time>
      </trkpt>
      <trkpt lat="42.83188998" lon="13.34587996">
        <ele>780.00000</ele>
        <time>2024-05-13T13:31:57Z</time>
      </trkpt>
      <trkpt lat="42.83184992" lon="13.34576999">
        <ele>782.00000</ele>
        <time>2024-05-13T13:31:59Z</time>
      </trkpt>
      <trkpt lat="42.83182997" lon="13.34565994">
        <ele>783.00000</ele>
        <time>2024-05-13T13:32:00Z</time>
      </trkpt>
      <trkpt lat="42.83182997" lon="13.34539993">
        <ele>782.00000</ele>
        <time>2024-05-13T13:32:03Z</time>
      </trkpt>
      <trkpt lat="42.83188998" lon="13.34514998">
        <ele>777.00000</ele>
        <time>2024-05-13T13:32:06Z</time>
      </trkpt>
      <trkpt lat="42.83197992" lon="13.34486994">
        <ele>772.00000</ele>
        <time>2024-05-13T13:32:10Z</time>
      </trkpt>
      <trkpt lat="42.83208997" lon="13.34448999">
        <ele>767.00000</ele>
        <time>2024-05-13T13:32:15Z</time>
      </trkpt>
      <trkpt lat="42.83212996" lon="13.34436996">
        <ele>764.00000</ele>
        <time>2024-05-13T13:32:16Z</time>
      </trkpt>
      <trkpt lat="42.83215996" lon="13.34424993">
        <ele>761.00000</ele>
        <time>2024-05-13T13:32:18Z</time>
      </trkpt>
      <trkpt lat="42.83217991" lon="13.34409998">
        <ele>758.00000</ele>
        <time>2024-05-13T13:32:20Z</time>
      </trkpt>
      <trkpt lat="42.83217991" lon="13.34395992">
        <ele>757.00000</ele>
        <time>2024-05-13T13:32:21Z</time>
      </trkpt>
      <trkpt lat="42.83215996" lon="13.34375993">
        <ele>756.00000</ele>
        <time>2024-05-13T13:32:24Z</time>
      </trkpt>
      <trkpt lat="42.83212996" lon="13.34365993">
        <ele>756.00000</ele>
        <time>2024-05-13T13:32:25Z</time>
      </trkpt>
      <trkpt lat="42.83208997" lon="13.34354996">
        <ele>754.00000</ele>
        <time>2024-05-13T13:32:26Z</time>
      </trkpt>
      <trkpt lat="42.83205997" lon="13.34347997">
        <ele>754.00000</ele>
        <time>2024-05-13T13:32:27Z</time>
      </trkpt>
      <trkpt lat="42.83201999" lon="13.34340998">
        <ele>753.00000</ele>
        <time>2024-05-13T13:32:28Z</time>
      </trkpt>
      <trkpt lat="42.83195997" lon="13.34333991">
        <ele>753.00000</ele>
        <time>2024-05-13T13:32:30Z</time>
      </trkpt>
      <trkpt lat="42.83188998" lon="13.34324997">
        <ele>751.00000</ele>
        <time>2024-05-13T13:32:31Z</time>
      </trkpt>
      <trkpt lat="42.83181999" lon="13.34315995">
        <ele>749.00000</ele>
        <time>2024-05-13T13:32:33Z</time>
      </trkpt>
      <trkpt lat="42.83177993" lon="13.34311997">
        <ele>748.00000</ele>
        <time>2024-05-13T13:32:33Z</time>
      </trkpt>
      <trkpt lat="42.83172997" lon="13.34307999">
        <ele>748.00000</ele>
        <time>2024-05-13T13:32:34Z</time>
      </trkpt>
      <trkpt lat="42.83165998" lon="13.34302995">
        <ele>748.00000</ele>
        <time>2024-05-13T13:32:36Z</time>
      </trkpt>
      <trkpt lat="42.83153995" lon="13.34294999">
        <ele>749.00000</ele>
        <time>2024-05-13T13:32:38Z</time>
      </trkpt>
      <trkpt lat="42.83136997" lon="13.34283993">
        <ele>751.00000</ele>
        <time>2024-05-13T13:32:41Z</time>
      </trkpt>
      <trkpt lat="42.83129998" lon="13.34277992">
        <ele>752.00000</ele>
        <time>2024-05-13T13:32:42Z</time>
      </trkpt>
      <trkpt lat="42.83126997" lon="13.34271999">
        <ele>751.00000</ele>
        <time>2024-05-13T13:32:43Z</time>
      </trkpt>
      <trkpt lat="42.83124994" lon="13.34267992">
        <ele>750.00000</ele>
        <time>2024-05-13T13:32:43Z</time>
      </trkpt>
      <trkpt lat="42.83122999" lon="13.34260993">
        <ele>749.00000</ele>
        <time>2024-05-13T13:32:44Z</time>
      </trkpt>
      <trkpt lat="42.83121993" lon="13.34253994">
        <ele>747.00000</ele>
        <time>2024-05-13T13:32:45Z</time>
      </trkpt>
      <trkpt lat="42.83120996" lon="13.34245998">
        <ele>745.00000</ele>
        <time>2024-05-13T13:32:46Z</time>
      </trkpt>
      <trkpt lat="42.83118993" lon="13.34240994">
        <ele>744.00000</ele>
        <time>2024-05-13T13:32:47Z</time>
      </trkpt>
      <trkpt lat="42.83116998" lon="13.34236996">
        <ele>744.00000</ele>
        <time>2024-05-13T13:32:47Z</time>
      </trkpt>
      <trkpt lat="42.83112999" lon="13.34230994">
        <ele>743.00000</ele>
        <time>2024-05-13T13:32:48Z</time>
      </trkpt>
      <trkpt lat="42.83090989" lon="13.34208489">
        <ele>739.00000</ele>
        <time>2024-05-13T13:32:53Z</time>
      </trkpt>
      <trkpt lat="42.83068994" lon="13.34185992">
        <ele>735.00000</ele>
        <time>2024-05-13T13:32:57Z</time>
      </trkpt>
      <trkpt lat="42.83060998" lon="13.34176998">
        <ele>733.00000</ele>
        <time>2024-05-13T13:32:59Z</time>
      </trkpt>
      <trkpt lat="42.83056992" lon="13.34173997">
        <ele>732.00000</ele>
        <time>2024-05-13T13:33:00Z</time>
      </trkpt>
      <trkpt lat="42.83052993" lon="13.34171994">
        <ele>732.00000</ele>
        <time>2024-05-13T13:33:00Z</time>
      </trkpt>
      <trkpt lat="42.83048995" lon="13.34170997">
        <ele>732.00000</ele>
        <time>2024-05-13T13:33:01Z</time>
      </trkpt>
      <trkpt lat="42.83043991" lon="13.34170997">
        <ele>732.00000</ele>
        <time>2024-05-13T13:33:02Z</time>
      </trkpt>
      <trkpt lat="42.83032994" lon="13.34169999">
        <ele>732.00000</ele>
        <time>2024-05-13T13:33:03Z</time>
      </trkpt>
      <trkpt lat="42.83029993" lon="13.34168993">
        <ele>732.00000</ele>
        <time>2024-05-13T13:33:04Z</time>
      </trkpt>
      <trkpt lat="42.83028996" lon="13.34166998">
        <ele>732.00000</ele>
        <time>2024-05-13T13:33:04Z</time>
      </trkpt>
      <trkpt lat="42.83027999" lon="13.34164995">
        <ele>731.00000</ele>
        <time>2024-05-13T13:33:05Z</time>
      </trkpt>
      <trkpt lat="42.83027999" lon="13.34162992">
        <ele>731.00000</ele>
        <time>2024-05-13T13:33:05Z</time>
      </trkpt>
      <trkpt lat="42.83028996" lon="13.34160997">
        <ele>730.00000</ele>
        <time>2024-05-13T13:33:05Z</time>
      </trkpt>
      <trkpt lat="42.83030999" lon="13.34158994">
        <ele>730.00000</ele>
        <time>2024-05-13T13:33:05Z</time>
      </trkpt>
      <trkpt lat="42.83032994" lon="13.34157996">
        <ele>730.00000</ele>
        <time>2024-05-13T13:33:06Z</time>
      </trkpt>
      <trkpt lat="42.83034997" lon="13.34157996">
        <ele>730.00000</ele>
        <time>2024-05-13T13:33:06Z</time>
      </trkpt>
      <trkpt lat="42.83037998" lon="13.34158994">
        <ele>730.00000</ele>
        <time>2024-05-13T13:33:07Z</time>
      </trkpt>
      <trkpt lat="42.83054997" lon="13.34158994">
        <ele>729.00000</ele>
        <time>2024-05-13T13:33:09Z</time>
      </trkpt>
      <trkpt lat="42.83080997" lon="13.34165993">
        <ele>728.00000</ele>
        <time>2024-05-13T13:33:14Z</time>
      </trkpt>
      <trkpt lat="42.83098977" lon="13.34171483">
        <ele>726.00000</ele>
        <time>2024-05-13T13:33:17Z</time>
      </trkpt>
      <trkpt lat="42.83116998" lon="13.34176998">
        <ele>724.00000</ele>
        <time>2024-05-13T13:33:19Z</time>
      </trkpt>
      <trkpt lat="42.83141992" lon="13.34190996">
        <ele>722.00000</ele>
        <time>2024-05-13T13:33:24Z</time>
      </trkpt>
      <trkpt lat="42.83164992" lon="13.34201993">
        <ele>719.00000</ele>
        <time>2024-05-13T13:33:28Z</time>
      </trkpt>
      <trkpt lat="42.83179996" lon="13.34203996">
        <ele>715.00000</ele>
        <time>2024-05-13T13:33:30Z</time>
      </trkpt>
      <trkpt lat="42.83210456" lon="13.34211481">
        <ele>709.00000</ele>
        <time>2024-05-13T13:33:35Z</time>
      </trkpt>
      <trkpt lat="42.83240991" lon="13.34218991">
        <ele>708.00000</ele>
        <time>2024-05-13T13:33:40Z</time>
      </trkpt>
      <trkpt lat="42.83264963" lon="13.34223987">
        <ele>706.00000</ele>
        <time>2024-05-13T13:33:44Z</time>
      </trkpt>
      <trkpt lat="42.83288994" lon="13.34228999">
        <ele>701.00000</ele>
        <time>2024-05-13T13:33:48Z</time>
      </trkpt>
      <trkpt lat="42.83292992" lon="13.34229997">
        <ele>701.00000</ele>
        <time>2024-05-13T13:33:48Z</time>
      </trkpt>
      <trkpt lat="42.83295993" lon="13.34228999">
        <ele>700.00000</ele>
        <time>2024-05-13T13:33:49Z</time>
      </trkpt>
      <trkpt lat="42.83298994" lon="13.34228999">
        <ele>699.00000</ele>
        <time>2024-05-13T13:33:49Z</time>
      </trkpt>
      <trkpt lat="42.83300997" lon="13.34226996">
        <ele>699.00000</ele>
        <time>2024-05-13T13:33:50Z</time>
      </trkpt>
      <trkpt lat="42.83301995" lon="13.34224993">
        <ele>698.00000</ele>
        <time>2024-05-13T13:33:50Z</time>
      </trkpt>
      <trkpt lat="42.83303998" lon="13.34219997">
        <ele>698.00000</ele>
        <time>2024-05-13T13:33:51Z</time>
      </trkpt>
      <trkpt lat="42.83316998" lon="13.34256995">
        <ele>698.00000</ele>
        <time>2024-05-13T13:33:56Z</time>
      </trkpt>
      <trkpt lat="42.83321994" lon="13.34273993">
        <ele>698.00000</ele>
        <time>2024-05-13T13:33:58Z</time>
      </trkpt>
      <trkpt lat="42.83323997" lon="13.34291998">
        <ele>697.00000</ele>
        <time>2024-05-13T13:34:00Z</time>
      </trkpt>
      <trkpt lat="42.83324995" lon="13.34310991">
        <ele>697.00000</ele>
        <time>2024-05-13T13:34:02Z</time>
      </trkpt>
      <trkpt lat="42.83327333" lon="13.34350084">
        <ele>697.00000</ele>
        <time>2024-05-13T13:34:07Z</time>
      </trkpt>
      <trkpt lat="42.83329672" lon="13.34389178">
        <ele>697.00000</ele>
        <time>2024-05-13T13:34:11Z</time>
      </trkpt>
      <trkpt lat="42.83331993" lon="13.34427994">
        <ele>696.00000</ele>
        <time>2024-05-13T13:34:16Z</time>
      </trkpt>
      <trkpt lat="42.83334994" lon="13.34459560">
        <ele>697.00000</ele>
        <time>2024-05-13T13:34:20Z</time>
      </trkpt>
      <trkpt lat="42.83337995" lon="13.34490993">
        <ele>698.00000</ele>
        <time>2024-05-13T13:34:23Z</time>
      </trkpt>
      <trkpt lat="42.83342504" lon="13.34516549">
        <ele>698.00000</ele>
        <time>2024-05-13T13:34:26Z</time>
      </trkpt>
      <trkpt lat="42.83346997" lon="13.34541996">
        <ele>698.00000</ele>
        <time>2024-05-13T13:34:30Z</time>
      </trkpt>
      <trkpt lat="42.83357013" lon="13.34571543">
        <ele>696.00000</ele>
        <time>2024-05-13T13:34:33Z</time>
      </trkpt>
      <trkpt lat="42.83366996" lon="13.34600997">
        <ele>697.00000</ele>
        <time>2024-05-13T13:34:37Z</time>
      </trkpt>
      <trkpt lat="42.83380994" lon="13.34629998">
        <ele>699.00000</ele>
        <time>2024-05-13T13:34:41Z</time>
      </trkpt>
      <trkpt lat="42.83398998" lon="13.34651992">
        <ele>701.00000</ele>
        <time>2024-05-13T13:34:45Z</time>
      </trkpt>
      <trkpt lat="42.83422987" lon="13.34672989">
        <ele>705.00000</ele>
        <time>2024-05-13T13:34:50Z</time>
      </trkpt>
      <trkpt lat="42.83446993" lon="13.34693994">
        <ele>704.00000</ele>
        <time>2024-05-13T13:34:54Z</time>
      </trkpt>
      <trkpt lat="42.83473991" lon="13.34714999">
        <ele>704.00000</ele>
        <time>2024-05-13T13:34:59Z</time>
      </trkpt>
      <trkpt lat="42.83490478" lon="13.34725485">
        <ele>701.00000</ele>
        <time>2024-05-13T13:35:02Z</time>
      </trkpt>
      <trkpt lat="42.83506999" lon="13.34735996">
        <ele>697.00000</ele>
        <time>2024-05-13T13:35:05Z</time>
      </trkpt>
      <trkpt lat="42.83515993" lon="13.34739994">
        <ele>695.00000</ele>
        <time>2024-05-13T13:35:07Z</time>
      </trkpt>
      <trkpt lat="42.83522992" lon="13.34741997">
        <ele>694.00000</ele>
        <time>2024-05-13T13:35:08Z</time>
      </trkpt>
      <trkpt lat="42.83528993" lon="13.34740991">
        <ele>694.00000</ele>
        <time>2024-05-13T13:35:09Z</time>
      </trkpt>
      <trkpt lat="42.83548464" lon="13.34735493">
        <ele>698.00000</ele>
        <time>2024-05-13T13:35:12Z</time>
      </trkpt>
      <trkpt lat="42.83567994" lon="13.34729994">
        <ele>701.00000</ele>
        <time>2024-05-13T13:35:15Z</time>
      </trkpt>
      <trkpt lat="42.83594992" lon="13.34723993">
        <ele>704.00000</ele>
        <time>2024-05-13T13:35:19Z</time>
      </trkpt>
      <trkpt lat="42.83624991" lon="13.34715996">
        <ele>706.00000</ele>
        <time>2024-05-13T13:35:24Z</time>
      </trkpt>
      <trkpt lat="42.83632996" lon="13.34715996">
        <ele>705.00000</ele>
        <time>2024-05-13T13:35:26Z</time>
      </trkpt>
      <trkpt lat="42.83660958" lon="13.34722987">
        <ele>701.00000</ele>
        <time>2024-05-13T13:35:30Z</time>
      </trkpt>
      <trkpt lat="42.83688995" lon="13.34729994">
        <ele>701.00000</ele>
        <time>2024-05-13T13:35:35Z</time>
      </trkpt>
      <trkpt lat="42.83697998" lon="13.34734998">
        <ele>700.00000</ele>
        <time>2024-05-13T13:35:36Z</time>
      </trkpt>
      <trkpt lat="42.83703999" lon="13.34739994">
        <ele>700.00000</ele>
        <time>2024-05-13T13:35:37Z</time>
      </trkpt>
      <trkpt lat="42.83709992" lon="13.34745995">
        <ele>699.00000</ele>
        <time>2024-05-13T13:35:39Z</time>
      </trkpt>
      <trkpt lat="42.83715994" lon="13.34750999">
        <ele>699.00000</ele>
        <time>2024-05-13T13:35:40Z</time>
      </trkpt>
      <trkpt lat="42.83725993" lon="13.34757998">
        <ele>698.00000</ele>
        <time>2024-05-13T13:35:42Z</time>
      </trkpt>
      <trkpt lat="42.83747468" lon="13.34765986">
        <ele>703.00000</ele>
        <time>2024-05-13T13:35:45Z</time>
      </trkpt>
      <trkpt lat="42.83768992" lon="13.34773999">
        <ele>700.00000</ele>
        <time>2024-05-13T13:35:49Z</time>
      </trkpt>
      <trkpt lat="42.83775991" lon="13.34774997">
        <ele>699.00000</ele>
        <time>2024-05-13T13:35:50Z</time>
      </trkpt>
      <trkpt lat="42.83783996" lon="13.34774997">
        <ele>698.00000</ele>
        <time>2024-05-13T13:35:51Z</time>
      </trkpt>
      <trkpt lat="42.83797994" lon="13.34769993">
        <ele>698.00000</ele>
        <time>2024-05-13T13:35:53Z</time>
      </trkpt>
      <trkpt lat="42.83809997" lon="13.34763991">
        <ele>699.00000</ele>
        <time>2024-05-13T13:35:55Z</time>
      </trkpt>
      <trkpt lat="42.83820994" lon="13.34755995">
        <ele>699.00000</ele>
        <time>2024-05-13T13:35:57Z</time>
      </trkpt>
      <trkpt lat="42.83841999" lon="13.34733992">
        <ele>703.00000</ele>
        <time>2024-05-13T13:36:02Z</time>
      </trkpt>
      <trkpt lat="42.83844999" lon="13.34731997">
        <ele>703.00000</ele>
        <time>2024-05-13T13:36:02Z</time>
      </trkpt>
      <trkpt lat="42.83848998" lon="13.34730992">
        <ele>703.00000</ele>
        <time>2024-05-13T13:36:03Z</time>
      </trkpt>
      <trkpt lat="42.83858997" lon="13.34729994">
        <ele>701.00000</ele>
        <time>2024-05-13T13:36:04Z</time>
      </trkpt>
      <trkpt lat="42.83882467" lon="13.34728997">
        <ele>699.00000</ele>
        <time>2024-05-13T13:36:08Z</time>
      </trkpt>
      <trkpt lat="42.83905995" lon="13.34727999">
        <ele>696.00000</ele>
        <time>2024-05-13T13:36:12Z</time>
      </trkpt>
      <trkpt lat="42.83910999" lon="13.34726993">
        <ele>696.00000</ele>
        <time>2024-05-13T13:36:13Z</time>
      </trkpt>
      <trkpt lat="42.83929489" lon="13.34712493">
        <ele>698.00000</ele>
        <time>2024-05-13T13:36:16Z</time>
      </trkpt>
      <trkpt lat="42.83947996" lon="13.34697992">
        <ele>702.00000</ele>
        <time>2024-05-13T13:36:20Z</time>
      </trkpt>
      <trkpt lat="42.83951994" lon="13.34696995">
        <ele>702.00000</ele>
        <time>2024-05-13T13:36:20Z</time>
      </trkpt>
      <trkpt lat="42.83956998" lon="13.34696995">
        <ele>703.00000</ele>
        <time>2024-05-13T13:36:21Z</time>
      </trkpt>
      <trkpt lat="42.83961994" lon="13.34700993">
        <ele>701.00000</ele>
        <time>2024-05-13T13:36:22Z</time>
      </trkpt>
      <trkpt lat="42.83979998" lon="13.34719995">
        <ele>694.00000</ele>
        <time>2024-05-13T13:36:26Z</time>
      </trkpt>
      <trkpt lat="42.83985991" lon="13.34723993">
        <ele>691.00000</ele>
        <time>2024-05-13T13:36:27Z</time>
      </trkpt>
      <trkpt lat="42.83999981" lon="13.34734990">
        <ele>687.00000</ele>
        <time>2024-05-13T13:36:29Z</time>
      </trkpt>
      <trkpt lat="42.84013995" lon="13.34745995">
        <ele>684.00000</ele>
        <time>2024-05-13T13:36:32Z</time>
      </trkpt>
      <trkpt lat="42.84032486" lon="13.34759985">
        <ele>682.00000</ele>
        <time>2024-05-13T13:36:35Z</time>
      </trkpt>
      <trkpt lat="42.84050993" lon="13.34773999">
        <ele>684.00000</ele>
        <time>2024-05-13T13:36:39Z</time>
      </trkpt>
      <trkpt lat="42.84069484" lon="13.34789489">
        <ele>688.00000</ele>
        <time>2024-05-13T13:36:42Z</time>
      </trkpt>
      <trkpt lat="42.84087999" lon="13.34804995">
        <ele>689.00000</ele>
        <time>2024-05-13T13:36:46Z</time>
      </trkpt>
      <trkpt lat="42.84112324" lon="13.34828322">
        <ele>683.00000</ele>
        <time>2024-05-13T13:36:50Z</time>
      </trkpt>
      <trkpt lat="42.84136656" lon="13.34851657">
        <ele>679.00000</ele>
        <time>2024-05-13T13:36:55Z</time>
      </trkpt>
      <trkpt lat="42.84160997" lon="13.34874993">
        <ele>674.00000</ele>
        <time>2024-05-13T13:37:00Z</time>
      </trkpt>
      <trkpt lat="42.84178993" lon="13.34890491">
        <ele>673.00000</ele>
        <time>2024-05-13T13:37:03Z</time>
      </trkpt>
      <trkpt lat="42.84196997" lon="13.34905997">
        <ele>672.00000</ele>
        <time>2024-05-13T13:37:07Z</time>
      </trkpt>
      <trkpt lat="42.84222998" lon="13.34926994">
        <ele>672.00000</ele>
        <time>2024-05-13T13:37:12Z</time>
      </trkpt>
      <trkpt lat="42.84243492" lon="13.34948494">
        <ele>669.00000</ele>
        <time>2024-05-13T13:37:16Z</time>
      </trkpt>
      <trkpt lat="42.84263994" lon="13.34969993">
        <ele>668.00000</ele>
        <time>2024-05-13T13:37:20Z</time>
      </trkpt>
      <trkpt lat="42.84274999" lon="13.34984997">
        <ele>666.00000</ele>
        <time>2024-05-13T13:37:22Z</time>
      </trkpt>
      <trkpt lat="42.84284999" lon="13.35001995">
        <ele>664.00000</ele>
        <time>2024-05-13T13:37:25Z</time>
      </trkpt>
      <trkpt lat="42.84296005" lon="13.35025020">
        <ele>663.00000</ele>
        <time>2024-05-13T13:37:28Z</time>
      </trkpt>
      <trkpt lat="42.84306993" lon="13.35047995">
        <ele>661.00000</ele>
        <time>2024-05-13T13:37:31Z</time>
      </trkpt>
      <trkpt lat="42.84307999" lon="13.35049998">
        <ele>661.00000</ele>
        <time>2024-05-13T13:37:32Z</time>
      </trkpt>
      <trkpt lat="42.84320010" lon="13.35073024">
        <ele>660.00000</ele>
        <time>2024-05-13T13:37:35Z</time>
      </trkpt>
      <trkpt lat="42.84331996" lon="13.35095998">
        <ele>657.00000</ele>
        <time>2024-05-13T13:37:38Z</time>
      </trkpt>
      <trkpt lat="42.84334997" lon="13.35099996">
        <ele>657.00000</ele>
        <time>2024-05-13T13:37:39Z</time>
      </trkpt>
      <trkpt lat="42.84336992" lon="13.35101991">
        <ele>656.00000</ele>
        <time>2024-05-13T13:37:39Z</time>
      </trkpt>
      <trkpt lat="42.84339993" lon="13.35103995">
        <ele>656.00000</ele>
        <time>2024-05-13T13:37:40Z</time>
      </trkpt>
      <trkpt lat="42.84345994" lon="13.35106995">
        <ele>656.00000</ele>
        <time>2024-05-13T13:37:41Z</time>
      </trkpt>
      <trkpt lat="42.84372992" lon="13.35105998">
        <ele>658.00000</ele>
        <time>2024-05-13T13:37:45Z</time>
      </trkpt>
      <trkpt lat="42.84376999" lon="13.35105998">
        <ele>658.00000</ele>
        <time>2024-05-13T13:37:46Z</time>
      </trkpt>
      <trkpt lat="42.84380997" lon="13.35106995">
        <ele>657.00000</ele>
        <time>2024-05-13T13:37:47Z</time>
      </trkpt>
      <trkpt lat="42.84398993" lon="13.35108999">
        <ele>657.00000</ele>
        <time>2024-05-13T13:37:49Z</time>
      </trkpt>
      <trkpt lat="42.84421297" lon="13.35114321">
        <ele>655.00000</ele>
        <time>2024-05-13T13:37:53Z</time>
      </trkpt>
      <trkpt lat="42.84443610" lon="13.35119644">
        <ele>653.00000</ele>
        <time>2024-05-13T13:37:57Z</time>
      </trkpt>
      <trkpt lat="42.84465998" lon="13.35124991">
        <ele>646.00000</ele>
        <time>2024-05-13T13:38:00Z</time>
      </trkpt>
      <trkpt lat="42.84473994" lon="13.35123994">
        <ele>644.00000</ele>
        <time>2024-05-13T13:38:02Z</time>
      </trkpt>
      <trkpt lat="42.84478998" lon="13.35119996">
        <ele>643.00000</ele>
        <time>2024-05-13T13:38:03Z</time>
      </trkpt>
      <trkpt lat="42.84481999" lon="13.35112997">
        <ele>643.00000</ele>
        <time>2024-05-13T13:38:03Z</time>
      </trkpt>
      <trkpt lat="42.84483994" lon="13.35106995">
        <ele>643.00000</ele>
        <time>2024-05-13T13:38:04Z</time>
      </trkpt>
      <trkpt lat="42.84482996" lon="13.35098999">
        <ele>643.00000</ele>
        <time>2024-05-13T13:38:05Z</time>
      </trkpt>
      <trkpt lat="42.84480482" lon="13.35076443">
        <ele>644.00000</ele>
        <time>2024-05-13T13:38:08Z</time>
      </trkpt>
      <trkpt lat="42.84477992" lon="13.35053997">
        <ele>644.00000</ele>
        <time>2024-05-13T13:38:11Z</time>
      </trkpt>
      <trkpt lat="42.84475998" lon="13.35040996">
        <ele>645.00000</ele>
        <time>2024-05-13T13:38:12Z</time>
      </trkpt>
      <trkpt lat="42.84475998" lon="13.35022992">
        <ele>644.00000</ele>
        <time>2024-05-13T13:38:14Z</time>
      </trkpt>
      <trkpt lat="42.84476995" lon="13.35005993">
        <ele>645.00000</ele>
        <time>2024-05-13T13:38:16Z</time>
      </trkpt>
      <trkpt lat="42.84479996" lon="13.34977922">
        <ele>644.00000</ele>
        <time>2024-05-13T13:38:20Z</time>
      </trkpt>
      <trkpt lat="42.84482996" lon="13.34949994">
        <ele>644.00000</ele>
        <time>2024-05-13T13:38:23Z</time>
      </trkpt>
      <trkpt lat="42.84484991" lon="13.34934999">
        <ele>644.00000</ele>
        <time>2024-05-13T13:38:25Z</time>
      </trkpt>
      <trkpt lat="42.84488998" lon="13.34920993">
        <ele>644.00000</ele>
        <time>2024-05-13T13:38:26Z</time>
      </trkpt>
      <trkpt lat="42.84494999" lon="13.34908998">
        <ele>641.00000</ele>
        <time>2024-05-13T13:38:28Z</time>
      </trkpt>
      <trkpt lat="42.84515015" lon="13.34876300">
        <ele>636.00000</ele>
        <time>2024-05-13T13:38:33Z</time>
      </trkpt>
      <trkpt lat="42.84535031" lon="13.34843602">
        <ele>633.00000</ele>
        <time>2024-05-13T13:38:38Z</time>
      </trkpt>
      <trkpt lat="42.84554997" lon="13.34810997">
        <ele>637.00000</ele>
        <time>2024-05-13T13:38:43Z</time>
      </trkpt>
      <trkpt lat="42.84563999" lon="13.34798994">
        <ele>634.00000</ele>
        <time>2024-05-13T13:38:45Z</time>
      </trkpt>
      <trkpt lat="42.84574996" lon="13.34790998">
        <ele>629.00000</ele>
        <time>2024-05-13T13:38:47Z</time>
      </trkpt>
      <trkpt lat="42.84585993" lon="13.34781995">
        <ele>625.00000</ele>
        <time>2024-05-13T13:38:49Z</time>
      </trkpt>
      <trkpt lat="42.84591995" lon="13.34775994">
        <ele>623.00000</ele>
        <time>2024-05-13T13:38:50Z</time>
      </trkpt>
      <trkpt lat="42.84596999" lon="13.34766992">
        <ele>623.00000</ele>
        <time>2024-05-13T13:38:52Z</time>
      </trkpt>
      <trkpt lat="42.84604995" lon="13.34744998">
        <ele>624.00000</ele>
        <time>2024-05-13T13:38:55Z</time>
      </trkpt>
      <trkpt lat="42.84610996" lon="13.34727999">
        <ele>624.00000</ele>
        <time>2024-05-13T13:38:57Z</time>
      </trkpt>
      <trkpt lat="42.84614995" lon="13.34718997">
        <ele>625.00000</ele>
        <time>2024-05-13T13:38:58Z</time>
      </trkpt>
      <trkpt lat="42.84619999" lon="13.34708997">
        <ele>625.00000</ele>
        <time>2024-05-13T13:39:00Z</time>
      </trkpt>
      <trkpt lat="42.84630996" lon="13.34698998">
        <ele>621.00000</ele>
        <time>2024-05-13T13:39:02Z</time>
      </trkpt>
      <trkpt lat="42.84645999" lon="13.34687992">
        <ele>618.00000</ele>
        <time>2024-05-13T13:39:04Z</time>
      </trkpt>
      <trkpt lat="42.84656996" lon="13.34679996">
        <ele>616.00000</ele>
        <time>2024-05-13T13:39:06Z</time>
      </trkpt>
      <trkpt lat="42.84674992" lon="13.34668999">
        <ele>614.00000</ele>
        <time>2024-05-13T13:39:10Z</time>
      </trkpt>
      <trkpt lat="42.84676996" lon="13.34674992">
        <ele>613.00000</ele>
        <time>2024-05-13T13:39:10Z</time>
      </trkpt>
      <trkpt lat="42.84681991" lon="13.34684992">
        <ele>613.00000</ele>
        <time>2024-05-13T13:39:12Z</time>
      </trkpt>
      <trkpt lat="42.84687993" lon="13.34695997">
        <ele>614.00000</ele>
        <time>2024-05-13T13:39:13Z</time>
      </trkpt>
      <trkpt lat="42.84691999" lon="13.34702996">
        <ele>615.00000</ele>
        <time>2024-05-13T13:39:14Z</time>
      </trkpt>
      <trkpt lat="42.84693994" lon="13.34711998">
        <ele>616.00000</ele>
        <time>2024-05-13T13:39:15Z</time>
      </trkpt>
      <trkpt lat="42.84692997" lon="13.34724999">
        <ele>616.00000</ele>
        <time>2024-05-13T13:39:17Z</time>
      </trkpt>
      <trkpt lat="42.84691999" lon="13.34737999">
        <ele>617.00000</ele>
        <time>2024-05-13T13:39:19Z</time>
      </trkpt>
      <trkpt lat="42.84682477" lon="13.34769800">
        <ele>616.00000</ele>
        <time>2024-05-13T13:39:23Z</time>
      </trkpt>
      <trkpt lat="42.84672955" lon="13.34801609">
        <ele>614.00000</ele>
        <time>2024-05-13T13:39:27Z</time>
      </trkpt>
      <trkpt lat="42.84663442" lon="13.34833418">
        <ele>615.00000</ele>
        <time>2024-05-13T13:39:31Z</time>
      </trkpt>
      <trkpt lat="42.84653996" lon="13.34864993">
        <ele>617.00000</ele>
        <time>2024-05-13T13:39:35Z</time>
      </trkpt>
      <trkpt lat="42.84649997" lon="13.34874993">
        <ele>618.00000</ele>
        <time>2024-05-13T13:39:36Z</time>
      </trkpt>
      <trkpt lat="42.84636972" lon="13.34903701">
        <ele>617.00000</ele>
        <time>2024-05-13T13:39:40Z</time>
      </trkpt>
      <trkpt lat="42.84623955" lon="13.34932409">
        <ele>616.00000</ele>
        <time>2024-05-13T13:39:44Z</time>
      </trkpt>
      <trkpt lat="42.84610996" lon="13.34960999">
        <ele>612.00000</ele>
        <time>2024-05-13T13:39:48Z</time>
      </trkpt>
      <trkpt lat="42.84608993" lon="13.34969993">
        <ele>612.00000</ele>
        <time>2024-05-13T13:39:49Z</time>
      </trkpt>
      <trkpt lat="42.84608993" lon="13.34977998">
        <ele>612.00000</ele>
        <time>2024-05-13T13:39:50Z</time>
      </trkpt>
      <trkpt lat="42.84609999" lon="13.34983999">
        <ele>612.00000</ele>
        <time>2024-05-13T13:39:51Z</time>
      </trkpt>
      <trkpt lat="42.84611994" lon="13.34989992">
        <ele>613.00000</ele>
        <time>2024-05-13T13:39:51Z</time>
      </trkpt>
      <trkpt lat="42.84628498" lon="13.35011500">
        <ele>621.00000</ele>
        <time>2024-05-13T13:39:55Z</time>
      </trkpt>
      <trkpt lat="42.84644993" lon="13.35032992">
        <ele>623.00000</ele>
        <time>2024-05-13T13:39:59Z</time>
      </trkpt>
      <trkpt lat="42.84649997" lon="13.35039999">
        <ele>623.00000</ele>
        <time>2024-05-13T13:40:00Z</time>
      </trkpt>
      <trkpt lat="42.84652998" lon="13.35048993">
        <ele>622.00000</ele>
        <time>2024-05-13T13:40:01Z</time>
      </trkpt>
      <trkpt lat="42.84655999" lon="13.35057995">
        <ele>621.00000</ele>
        <time>2024-05-13T13:40:02Z</time>
      </trkpt>
      <trkpt lat="42.84665680" lon="13.35091388">
        <ele>621.00000</ele>
        <time>2024-05-13T13:40:06Z</time>
      </trkpt>
      <trkpt lat="42.84675361" lon="13.35124790">
        <ele>623.00000</ele>
        <time>2024-05-13T13:40:11Z</time>
      </trkpt>
      <trkpt lat="42.84684992" lon="13.35157999">
        <ele>625.00000</ele>
        <time>2024-05-13T13:40:15Z</time>
      </trkpt>
      <trkpt lat="42.84685998" lon="13.35166993">
        <ele>625.00000</ele>
        <time>2024-05-13T13:40:16Z</time>
      </trkpt>
      <trkpt lat="42.84684992" lon="13.35177998">
        <ele>625.00000</ele>
        <time>2024-05-13T13:40:17Z</time>
      </trkpt>
      <trkpt lat="42.84682997" lon="13.35193991">
        <ele>625.00000</ele>
        <time>2024-05-13T13:40:19Z</time>
      </trkpt>
      <trkpt lat="42.84681991" lon="13.35203999">
        <ele>623.00000</ele>
        <time>2024-05-13T13:40:20Z</time>
      </trkpt>
      <trkpt lat="42.84683994" lon="13.35211995">
        <ele>623.00000</ele>
        <time>2024-05-13T13:40:21Z</time>
      </trkpt>
      <trkpt lat="42.84687993" lon="13.35219992">
        <ele>624.00000</ele>
        <time>2024-05-13T13:40:23Z</time>
      </trkpt>
      <trkpt lat="42.84695997" lon="13.35229991">
        <ele>626.00000</ele>
        <time>2024-05-13T13:40:24Z</time>
      </trkpt>
      <trkpt lat="42.84718000" lon="13.35256503">
        <ele>629.00000</ele>
        <time>2024-05-13T13:40:29Z</time>
      </trkpt>
      <trkpt lat="42.84739994" lon="13.35282999">
        <ele>630.00000</ele>
        <time>2024-05-13T13:40:34Z</time>
      </trkpt>
      <trkpt lat="42.84749994" lon="13.35296996">
        <ele>627.00000</ele>
        <time>2024-05-13T13:40:36Z</time>
      </trkpt>
      <trkpt lat="42.84755995" lon="13.35308999">
        <ele>626.00000</ele>
        <time>2024-05-13T13:40:38Z</time>
      </trkpt>
      <trkpt lat="42.84761996" lon="13.35320994">
        <ele>626.00000</ele>
        <time>2024-05-13T13:40:39Z</time>
      </trkpt>
      <trkpt lat="42.84769498" lon="13.35341529">
        <ele>622.00000</ele>
        <time>2024-05-13T13:40:42Z</time>
      </trkpt>
      <trkpt lat="42.84776992" lon="13.35361998">
        <ele>619.00000</ele>
        <time>2024-05-13T13:40:45Z</time>
      </trkpt>
      <trkpt lat="42.84786991" lon="13.35382995">
        <ele>618.00000</ele>
        <time>2024-05-13T13:40:48Z</time>
      </trkpt>
      <trkpt lat="42.84793999" lon="13.35396992">
        <ele>617.00000</ele>
        <time>2024-05-13T13:40:50Z</time>
      </trkpt>
      <trkpt lat="42.84814995" lon="13.35424996">
        <ele>615.00000</ele>
        <time>2024-05-13T13:40:54Z</time>
      </trkpt>
      <trkpt lat="42.84820997" lon="13.35428995">
        <ele>615.00000</ele>
        <time>2024-05-13T13:40:55Z</time>
      </trkpt>
      <trkpt lat="42.84826998" lon="13.35430998">
        <ele>616.00000</ele>
        <time>2024-05-13T13:40:56Z</time>
      </trkpt>
      <trkpt lat="42.84830996" lon="13.35428995">
        <ele>617.00000</ele>
        <time>2024-05-13T13:40:57Z</time>
      </trkpt>
      <trkpt lat="42.84845002" lon="13.35407973">
        <ele>624.00000</ele>
        <time>2024-05-13T13:41:00Z</time>
      </trkpt>
      <trkpt lat="42.84858992" lon="13.35386993">
        <ele>627.00000</ele>
        <time>2024-05-13T13:41:04Z</time>
      </trkpt>
      <trkpt lat="42.84864993" lon="13.35380991">
        <ele>628.00000</ele>
        <time>2024-05-13T13:41:05Z</time>
      </trkpt>
      <trkpt lat="42.84870995" lon="13.35378997">
        <ele>627.00000</ele>
        <time>2024-05-13T13:41:06Z</time>
      </trkpt>
      <trkpt lat="42.84876996" lon="13.35378997">
        <ele>627.00000</ele>
        <time>2024-05-13T13:41:07Z</time>
      </trkpt>
      <trkpt lat="42.84880994" lon="13.35381997">
        <ele>626.00000</ele>
        <time>2024-05-13T13:41:08Z</time>
      </trkpt>
      <trkpt lat="42.84883995" lon="13.35384998">
        <ele>625.00000</ele>
        <time>2024-05-13T13:41:08Z</time>
      </trkpt>
      <trkpt lat="42.84885998" lon="13.35389994">
        <ele>624.00000</ele>
        <time>2024-05-13T13:41:09Z</time>
      </trkpt>
      <trkpt lat="42.84888496" lon="13.35417059">
        <ele>619.00000</ele>
        <time>2024-05-13T13:41:12Z</time>
      </trkpt>
      <trkpt lat="42.84890994" lon="13.35443998">
        <ele>613.00000</ele>
        <time>2024-05-13T13:41:15Z</time>
      </trkpt>
      <trkpt lat="42.84891991" lon="13.35454995">
        <ele>611.00000</ele>
        <time>2024-05-13T13:41:17Z</time>
      </trkpt>
      <trkpt lat="42.84893995" lon="13.35462992">
        <ele>610.00000</ele>
        <time>2024-05-13T13:41:18Z</time>
      </trkpt>
      <trkpt lat="42.84896995" lon="13.35465992">
        <ele>609.00000</ele>
        <time>2024-05-13T13:41:18Z</time>
      </trkpt>
      <trkpt lat="42.84899996" lon="13.35466998">
        <ele>609.00000</ele>
        <time>2024-05-13T13:41:19Z</time>
      </trkpt>
      <trkpt lat="42.84903994" lon="13.35465992">
        <ele>609.00000</ele>
        <time>2024-05-13T13:41:19Z</time>
      </trkpt>
      <trkpt lat="42.84907992" lon="13.35460997">
        <ele>610.00000</ele>
        <time>2024-05-13T13:41:20Z</time>
      </trkpt>
      <trkpt lat="42.84919509" lon="13.35427436">
        <ele>616.00000</ele>
        <time>2024-05-13T13:41:25Z</time>
      </trkpt>
      <trkpt lat="42.84930992" lon="13.35393992">
        <ele>622.00000</ele>
        <time>2024-05-13T13:41:29Z</time>
      </trkpt>
      <trkpt lat="42.84932996" lon="13.35388996">
        <ele>622.00000</ele>
        <time>2024-05-13T13:41:30Z</time>
      </trkpt>
      <trkpt lat="42.84936994" lon="13.35385995">
        <ele>623.00000</ele>
        <time>2024-05-13T13:41:30Z</time>
      </trkpt>
      <trkpt lat="42.84942995" lon="13.35383992">
        <ele>624.00000</ele>
        <time>2024-05-13T13:41:31Z</time>
      </trkpt>
      <trkpt lat="42.84948997" lon="13.35383992">
        <ele>627.00000</ele>
        <time>2024-05-13T13:41:32Z</time>
      </trkpt>
      <trkpt lat="42.84953992" lon="13.35386993">
        <ele>629.00000</ele>
        <time>2024-05-13T13:41:33Z</time>
      </trkpt>
      <trkpt lat="42.84959994" lon="13.35391997">
        <ele>632.00000</ele>
        <time>2024-05-13T13:41:34Z</time>
      </trkpt>
      <trkpt lat="42.84963992" lon="13.35399993">
        <ele>632.00000</ele>
        <time>2024-05-13T13:41:35Z</time>
      </trkpt>
      <trkpt lat="42.84966993" lon="13.35407998">
        <ele>633.00000</ele>
        <time>2024-05-13T13:41:36Z</time>
      </trkpt>
      <trkpt lat="42.84970999" lon="13.35420998">
        <ele>632.00000</ele>
        <time>2024-05-13T13:41:38Z</time>
      </trkpt>
      <trkpt lat="42.84975995" lon="13.35441995">
        <ele>632.00000</ele>
        <time>2024-05-13T13:41:41Z</time>
      </trkpt>
      <trkpt lat="42.84982508" lon="13.35471550">
        <ele>627.00000</ele>
        <time>2024-05-13T13:41:44Z</time>
      </trkpt>
      <trkpt lat="42.84988995" lon="13.35500995">
        <ele>620.00000</ele>
        <time>2024-05-13T13:41:48Z</time>
      </trkpt>
      <trkpt lat="42.84990998" lon="13.35508991">
        <ele>617.00000</ele>
        <time>2024-05-13T13:41:49Z</time>
      </trkpt>
      <trkpt lat="42.84995994" lon="13.35513995">
        <ele>617.00000</ele>
        <time>2024-05-13T13:41:50Z</time>
      </trkpt>
      <trkpt lat="42.85003999" lon="13.35517994">
        <ele>617.00000</ele>
        <time>2024-05-13T13:41:51Z</time>
      </trkpt>
      <trkpt lat="42.85028994" lon="13.35522998">
        <ele>622.00000</ele>
        <time>2024-05-13T13:41:55Z</time>
      </trkpt>
      <trkpt lat="42.85035992" lon="13.35524993">
        <ele>623.00000</ele>
        <time>2024-05-13T13:41:57Z</time>
      </trkpt>
      <trkpt lat="42.85041994" lon="13.35527993">
        <ele>623.00000</ele>
        <time>2024-05-13T13:41:58Z</time>
      </trkpt>
      <trkpt lat="42.85049999" lon="13.35532997">
        <ele>623.00000</ele>
        <time>2024-05-13T13:41:59Z</time>
      </trkpt>
      <trkpt lat="42.85059998" lon="13.35540994">
        <ele>621.00000</ele>
        <time>2024-05-13T13:42:01Z</time>
      </trkpt>
      <trkpt lat="42.85064994" lon="13.35540994">
        <ele>621.00000</ele>
        <time>2024-05-13T13:42:02Z</time>
      </trkpt>
      <trkpt lat="42.85068992" lon="13.35538999">
        <ele>622.00000</ele>
        <time>2024-05-13T13:42:02Z</time>
      </trkpt>
      <trkpt lat="42.85072999" lon="13.35535998">
        <ele>623.00000</ele>
        <time>2024-05-13T13:42:03Z</time>
      </trkpt>
      <trkpt lat="42.85090995" lon="13.35522998">
        <ele>629.00000</ele>
        <time>2024-05-13T13:42:06Z</time>
      </trkpt>
      <trkpt lat="42.85097993" lon="13.35522998">
        <ele>630.00000</ele>
        <time>2024-05-13T13:42:07Z</time>
      </trkpt>
      <trkpt lat="42.85103995" lon="13.35524993">
        <ele>630.00000</ele>
        <time>2024-05-13T13:42:08Z</time>
      </trkpt>
      <trkpt lat="42.85107993" lon="13.35530994">
        <ele>629.00000</ele>
        <time>2024-05-13T13:42:09Z</time>
      </trkpt>
      <trkpt lat="42.85121010" lon="13.35562041">
        <ele>626.00000</ele>
        <time>2024-05-13T13:42:14Z</time>
      </trkpt>
      <trkpt lat="42.85133994" lon="13.35592995">
        <ele>622.00000</ele>
        <time>2024-05-13T13:42:18Z</time>
      </trkpt>
      <trkpt lat="42.85136994" lon="13.35599994">
        <ele>621.00000</ele>
        <time>2024-05-13T13:42:19Z</time>
      </trkpt>
      <trkpt lat="42.85152501" lon="13.35620999">
        <ele>622.00000</ele>
        <time>2024-05-13T13:42:22Z</time>
      </trkpt>
      <trkpt lat="42.85167999" lon="13.35641996">
        <ele>624.00000</ele>
        <time>2024-05-13T13:42:26Z</time>
      </trkpt>
      <trkpt lat="42.85181502" lon="13.35660000">
        <ele>622.00000</ele>
        <time>2024-05-13T13:42:29Z</time>
      </trkpt>
      <trkpt lat="42.85194997" lon="13.35677996">
        <ele>620.00000</ele>
        <time>2024-05-13T13:42:32Z</time>
      </trkpt>
      <trkpt lat="42.85201996" lon="13.35686998">
        <ele>616.00000</ele>
        <time>2024-05-13T13:42:33Z</time>
      </trkpt>
      <trkpt lat="42.85205994" lon="13.35691994">
        <ele>614.00000</ele>
        <time>2024-05-13T13:42:34Z</time>
      </trkpt>
      <trkpt lat="42.85209992" lon="13.35695992">
        <ele>612.00000</ele>
        <time>2024-05-13T13:42:35Z</time>
      </trkpt>
      <trkpt lat="42.85211996" lon="13.35696998">
        <ele>612.00000</ele>
        <time>2024-05-13T13:42:35Z</time>
      </trkpt>
      <trkpt lat="42.85213999" lon="13.35697995">
        <ele>611.00000</ele>
        <time>2024-05-13T13:42:36Z</time>
      </trkpt>
      <trkpt lat="42.85215994" lon="13.35698992">
        <ele>611.00000</ele>
        <time>2024-05-13T13:42:36Z</time>
      </trkpt>
      <trkpt lat="42.85218995" lon="13.35698992">
        <ele>611.00000</ele>
        <time>2024-05-13T13:42:36Z</time>
      </trkpt>
      <trkpt lat="42.85221995" lon="13.35698992">
        <ele>610.00000</ele>
        <time>2024-05-13T13:42:37Z</time>
      </trkpt>
      <trkpt lat="42.85223999" lon="13.35697995">
        <ele>609.00000</ele>
        <time>2024-05-13T13:42:37Z</time>
      </trkpt>
      <trkpt lat="42.85224996" lon="13.35695992">
        <ele>609.00000</ele>
        <time>2024-05-13T13:42:38Z</time>
      </trkpt>
      <trkpt lat="42.85225993" lon="13.35692999">
        <ele>609.00000</ele>
        <time>2024-05-13T13:42:38Z</time>
      </trkpt>
      <trkpt lat="42.85226999" lon="13.35685992">
        <ele>610.00000</ele>
        <time>2024-05-13T13:42:39Z</time>
      </trkpt>
      <trkpt lat="42.85228198" lon="13.35645088">
        <ele>616.00000</ele>
        <time>2024-05-13T13:42:44Z</time>
      </trkpt>
      <trkpt lat="42.85229397" lon="13.35604193">
        <ele>618.00000</ele>
        <time>2024-05-13T13:42:48Z</time>
      </trkpt>
      <trkpt lat="42.85230604" lon="13.35563298">
        <ele>617.00000</ele>
        <time>2024-05-13T13:42:53Z</time>
      </trkpt>
      <trkpt lat="42.85231802" lon="13.35522403">
        <ele>620.00000</ele>
        <time>2024-05-13T13:42:58Z</time>
      </trkpt>
      <trkpt lat="42.85232992" lon="13.35481993">
        <ele>620.00000</ele>
        <time>2024-05-13T13:43:03Z</time>
      </trkpt>
      <trkpt lat="42.85235993" lon="13.35465992">
        <ele>620.00000</ele>
        <time>2024-05-13T13:43:05Z</time>
      </trkpt>
      <trkpt lat="42.85240997" lon="13.35453998">
        <ele>621.00000</ele>
        <time>2024-05-13T13:43:06Z</time>
      </trkpt>
      <trkpt lat="42.85247996" lon="13.35448994">
        <ele>621.00000</ele>
        <time>2024-05-13T13:43:08Z</time>
      </trkpt>
      <trkpt lat="42.85256998" lon="13.35447996">
        <ele>624.00000</ele>
        <time>2024-05-13T13:43:09Z</time>
      </trkpt>
      <trkpt lat="42.85265992" lon="13.35451995">
        <ele>627.00000</ele>
        <time>2024-05-13T13:43:11Z</time>
      </trkpt>
      <trkpt lat="42.85274994" lon="13.35460997">
        <ele>629.00000</ele>
        <time>2024-05-13T13:43:12Z</time>
      </trkpt>
      <trkpt lat="42.85278992" lon="13.35469999">
        <ele>628.00000</ele>
        <time>2024-05-13T13:43:14Z</time>
      </trkpt>
      <trkpt lat="42.85285999" lon="13.35490526">
        <ele>621.00000</ele>
        <time>2024-05-13T13:43:16Z</time>
      </trkpt>
      <trkpt lat="42.85292998" lon="13.35510995">
        <ele>616.00000</ele>
        <time>2024-05-13T13:43:19Z</time>
      </trkpt>
      <trkpt lat="42.85297994" lon="13.35522998">
        <ele>614.00000</ele>
        <time>2024-05-13T13:43:21Z</time>
      </trkpt>
      <trkpt lat="42.85300995" lon="13.35531991">
        <ele>613.00000</ele>
        <time>2024-05-13T13:43:22Z</time>
      </trkpt>
      <trkpt lat="42.85301992" lon="13.35542997">
        <ele>613.00000</ele>
        <time>2024-05-13T13:43:23Z</time>
      </trkpt>
      <trkpt lat="42.85305999" lon="13.35578997">
        <ele>609.00000</ele>
        <time>2024-05-13T13:43:27Z</time>
      </trkpt>
      <trkpt lat="42.85307994" lon="13.35588997">
        <ele>607.00000</ele>
        <time>2024-05-13T13:43:29Z</time>
      </trkpt>
      <trkpt lat="42.85309997" lon="13.35595996">
        <ele>605.00000</ele>
        <time>2024-05-13T13:43:29Z</time>
      </trkpt>
      <trkpt lat="42.85314993" lon="13.35600991">
        <ele>603.00000</ele>
        <time>2024-05-13T13:43:30Z</time>
      </trkpt>
      <trkpt lat="42.85318999" lon="13.35601997">
        <ele>602.00000</ele>
        <time>2024-05-13T13:43:31Z</time>
      </trkpt>
      <trkpt lat="42.85323995" lon="13.35600991">
        <ele>602.00000</ele>
        <time>2024-05-13T13:43:32Z</time>
      </trkpt>
      <trkpt lat="42.85328999" lon="13.35597999">
        <ele>603.00000</ele>
        <time>2024-05-13T13:43:33Z</time>
      </trkpt>
      <trkpt lat="42.85334992" lon="13.35590992">
        <ele>604.00000</ele>
        <time>2024-05-13T13:43:34Z</time>
      </trkpt>
      <trkpt lat="42.85342996" lon="13.35578997">
        <ele>606.00000</ele>
        <time>2024-05-13T13:43:36Z</time>
      </trkpt>
      <trkpt lat="42.85351999" lon="13.35562996">
        <ele>608.00000</ele>
        <time>2024-05-13T13:43:38Z</time>
      </trkpt>
      <trkpt lat="42.85364001" lon="13.35542972">
        <ele>610.00000</ele>
        <time>2024-05-13T13:43:41Z</time>
      </trkpt>
      <trkpt lat="42.85375996" lon="13.35522998">
        <ele>613.00000</ele>
        <time>2024-05-13T13:43:44Z</time>
      </trkpt>
      <trkpt lat="42.85379994" lon="13.35518999">
        <ele>614.00000</ele>
        <time>2024-05-13T13:43:45Z</time>
      </trkpt>
      <trkpt lat="42.85386993" lon="13.35516996">
        <ele>615.00000</ele>
        <time>2024-05-13T13:43:46Z</time>
      </trkpt>
      <trkpt lat="42.85393992" lon="13.35519997">
        <ele>614.00000</ele>
        <time>2024-05-13T13:43:47Z</time>
      </trkpt>
      <trkpt lat="42.85400999" lon="13.35525998">
        <ele>612.00000</ele>
        <time>2024-05-13T13:43:49Z</time>
      </trkpt>
      <trkpt lat="42.85403992" lon="13.35537993">
        <ele>610.00000</ele>
        <time>2024-05-13T13:43:50Z</time>
      </trkpt>
      <trkpt lat="42.85404997" lon="13.35557992">
        <ele>607.00000</ele>
        <time>2024-05-13T13:43:53Z</time>
      </trkpt>
      <trkpt lat="42.85402994" lon="13.35572996">
        <ele>605.00000</ele>
        <time>2024-05-13T13:43:54Z</time>
      </trkpt>
      <trkpt lat="42.85396993" lon="13.35603992">
        <ele>602.00000</ele>
        <time>2024-05-13T13:43:58Z</time>
      </trkpt>
      <trkpt lat="42.85391980" lon="13.35626539">
        <ele>604.00000</ele>
        <time>2024-05-13T13:44:01Z</time>
      </trkpt>
      <trkpt lat="42.85386993" lon="13.35648994">
        <ele>608.00000</ele>
        <time>2024-05-13T13:44:04Z</time>
      </trkpt>
      <trkpt lat="42.85380992" lon="13.35672992">
        <ele>612.00000</ele>
        <time>2024-05-13T13:44:07Z</time>
      </trkpt>
      <trkpt lat="42.85366969" lon="13.35708548">
        <ele>609.00000</ele>
        <time>2024-05-13T13:44:11Z</time>
      </trkpt>
      <trkpt lat="42.85352996" lon="13.35743995">
        <ele>604.00000</ele>
        <time>2024-05-13T13:44:16Z</time>
      </trkpt>
      <trkpt lat="42.85344991" lon="13.35767992">
        <ele>599.00000</ele>
        <time>2024-05-13T13:44:19Z</time>
      </trkpt>
      <trkpt lat="42.85341999" lon="13.35780993">
        <ele>598.00000</ele>
        <time>2024-05-13T13:44:21Z</time>
      </trkpt>
      <trkpt lat="42.85338487" lon="13.35803037">
        <ele>598.00000</ele>
        <time>2024-05-13T13:44:24Z</time>
      </trkpt>
      <trkpt lat="42.85334992" lon="13.35824998">
        <ele>596.00000</ele>
        <time>2024-05-13T13:44:26Z</time>
      </trkpt>
      <trkpt lat="42.85334992" lon="13.35832994">
        <ele>596.00000</ele>
        <time>2024-05-13T13:44:27Z</time>
      </trkpt>
      <trkpt lat="42.85335998" lon="13.35838995">
        <ele>595.00000</ele>
        <time>2024-05-13T13:44:28Z</time>
      </trkpt>
      <trkpt lat="42.85337992" lon="13.35845994">
        <ele>593.00000</ele>
        <time>2024-05-13T13:44:29Z</time>
      </trkpt>
      <trkpt lat="42.85342996" lon="13.35851996">
        <ele>593.00000</ele>
        <time>2024-05-13T13:44:30Z</time>
      </trkpt>
      <trkpt lat="42.85363985" lon="13.35865985">
        <ele>596.00000</ele>
        <time>2024-05-13T13:44:34Z</time>
      </trkpt>
      <trkpt lat="42.85384998" lon="13.35879991">
        <ele>593.00000</ele>
        <time>2024-05-13T13:44:37Z</time>
      </trkpt>
      <trkpt lat="42.85392994" lon="13.35881995">
        <ele>593.00000</ele>
        <time>2024-05-13T13:44:39Z</time>
      </trkpt>
      <trkpt lat="42.85399993" lon="13.35882992">
        <ele>594.00000</ele>
        <time>2024-05-13T13:44:40Z</time>
      </trkpt>
      <trkpt lat="42.85406992" lon="13.35882992">
        <ele>595.00000</ele>
        <time>2024-05-13T13:44:41Z</time>
      </trkpt>
      <trkpt lat="42.85429992" lon="13.35875993">
        <ele>598.00000</ele>
        <time>2024-05-13T13:44:45Z</time>
      </trkpt>
      <trkpt lat="42.85434996" lon="13.35873998">
        <ele>599.00000</ele>
        <time>2024-05-13T13:44:45Z</time>
      </trkpt>
      <trkpt lat="42.85438994" lon="13.35874996">
        <ele>599.00000</ele>
        <time>2024-05-13T13:44:46Z</time>
      </trkpt>
      <trkpt lat="42.85442993" lon="13.35876999">
        <ele>598.00000</ele>
        <time>2024-05-13T13:44:47Z</time>
      </trkpt>
      <trkpt lat="42.85462321" lon="13.35893318">
        <ele>592.00000</ele>
        <time>2024-05-13T13:44:50Z</time>
      </trkpt>
      <trkpt lat="42.85481650" lon="13.35909646">
        <ele>586.00000</ele>
        <time>2024-05-13T13:44:54Z</time>
      </trkpt>
      <trkpt lat="42.85500995" lon="13.35925991">
        <ele>581.00000</ele>
        <time>2024-05-13T13:44:58Z</time>
      </trkpt>
      <trkpt lat="42.85506997" lon="13.35929998">
        <ele>578.00000</ele>
        <time>2024-05-13T13:44:59Z</time>
      </trkpt>
      <trkpt lat="42.85508992" lon="13.35929998">
        <ele>578.00000</ele>
        <time>2024-05-13T13:44:59Z</time>
      </trkpt>
      <trkpt lat="42.85511992" lon="13.35927994">
        <ele>578.00000</ele>
        <time>2024-05-13T13:45:00Z</time>
      </trkpt>
      <trkpt lat="42.85514993" lon="13.35922999">
        <ele>579.00000</ele>
        <time>2024-05-13T13:45:00Z</time>
      </trkpt>
      <trkpt lat="42.85529008" lon="13.35887434">
        <ele>582.00000</ele>
        <time>2024-05-13T13:45:05Z</time>
      </trkpt>
      <trkpt lat="42.85543031" lon="13.35851878">
        <ele>583.00000</ele>
        <time>2024-05-13T13:45:10Z</time>
      </trkpt>
      <trkpt lat="42.85557053" lon="13.35816322">
        <ele>580.00000</ele>
        <time>2024-05-13T13:45:15Z</time>
      </trkpt>
      <trkpt lat="42.85570993" lon="13.35780993">
        <ele>586.00000</ele>
        <time>2024-05-13T13:45:19Z</time>
      </trkpt>
      <trkpt lat="42.85576994" lon="13.35773994">
        <ele>586.00000</ele>
        <time>2024-05-13T13:45:21Z</time>
      </trkpt>
      <trkpt lat="42.85582995" lon="13.35771999">
        <ele>585.00000</ele>
        <time>2024-05-13T13:45:22Z</time>
      </trkpt>
      <trkpt lat="42.85589994" lon="13.35772996">
        <ele>586.00000</ele>
        <time>2024-05-13T13:45:23Z</time>
      </trkpt>
      <trkpt lat="42.85594998" lon="13.35777992">
        <ele>585.00000</ele>
        <time>2024-05-13T13:45:24Z</time>
      </trkpt>
      <trkpt lat="42.85598997" lon="13.35785997">
        <ele>585.00000</ele>
        <time>2024-05-13T13:45:25Z</time>
      </trkpt>
      <trkpt lat="42.85600991" lon="13.35795996">
        <ele>583.00000</ele>
        <time>2024-05-13T13:45:26Z</time>
      </trkpt>
      <trkpt lat="42.85597982" lon="13.35837093">
        <ele>580.00000</ele>
        <time>2024-05-13T13:45:31Z</time>
      </trkpt>
      <trkpt lat="42.85594998" lon="13.35877996">
        <ele>580.00000</ele>
        <time>2024-05-13T13:45:36Z</time>
      </trkpt>
      <trkpt lat="42.85594998" lon="13.35894995">
        <ele>580.00000</ele>
        <time>2024-05-13T13:45:38Z</time>
      </trkpt>
      <trkpt lat="42.85596993" lon="13.35932998">
        <ele>580.00000</ele>
        <time>2024-05-13T13:45:42Z</time>
      </trkpt>
      <trkpt lat="42.85597999" lon="13.35945999">
        <ele>580.00000</ele>
        <time>2024-05-13T13:45:44Z</time>
      </trkpt>
      <trkpt lat="42.85596993" lon="13.35956996">
        <ele>580.00000</ele>
        <time>2024-05-13T13:45:45Z</time>
      </trkpt>
      <trkpt lat="42.85594982" lon="13.35992074">
        <ele>580.00000</ele>
        <time>2024-05-13T13:45:49Z</time>
      </trkpt>
      <trkpt lat="42.85592978" lon="13.36027161">
        <ele>580.00000</ele>
        <time>2024-05-13T13:45:53Z</time>
      </trkpt>
      <trkpt lat="42.85590992" lon="13.36061996">
        <ele>575.00000</ele>
        <time>2024-05-13T13:45:57Z</time>
      </trkpt>
      <trkpt lat="42.85590992" lon="13.36069992">
        <ele>573.00000</ele>
        <time>2024-05-13T13:45:58Z</time>
      </trkpt>
      <trkpt lat="42.85591998" lon="13.36077997">
        <ele>570.00000</ele>
        <time>2024-05-13T13:45:59Z</time>
      </trkpt>
      <trkpt lat="42.85593993" lon="13.36084996">
        <ele>570.00000</ele>
        <time>2024-05-13T13:46:00Z</time>
      </trkpt>
      <trkpt lat="42.85608510" lon="13.36117031">
        <ele>568.00000</ele>
        <time>2024-05-13T13:46:05Z</time>
      </trkpt>
      <trkpt lat="42.85622994" lon="13.36148992">
        <ele>567.00000</ele>
        <time>2024-05-13T13:46:09Z</time>
      </trkpt>
      <trkpt lat="42.85627998" lon="13.36157994">
        <ele>567.00000</ele>
        <time>2024-05-13T13:46:10Z</time>
      </trkpt>
      <trkpt lat="42.85634997" lon="13.36164993">
        <ele>567.00000</ele>
        <time>2024-05-13T13:46:12Z</time>
      </trkpt>
      <trkpt lat="42.85660981" lon="13.36183986">
        <ele>570.00000</ele>
        <time>2024-05-13T13:46:17Z</time>
      </trkpt>
      <trkpt lat="42.85686998" lon="13.36202996">
        <ele>571.00000</ele>
        <time>2024-05-13T13:46:21Z</time>
      </trkpt>
      <trkpt lat="42.85691994" lon="13.36206994">
        <ele>570.00000</ele>
        <time>2024-05-13T13:46:22Z</time>
      </trkpt>
      <trkpt lat="42.85697995" lon="13.36212996">
        <ele>569.00000</ele>
        <time>2024-05-13T13:46:23Z</time>
      </trkpt>
      <trkpt lat="42.85707995" lon="13.36225996">
        <ele>562.00000</ele>
        <time>2024-05-13T13:46:26Z</time>
      </trkpt>
      <trkpt lat="42.85713996" lon="13.36230992">
        <ele>559.00000</ele>
        <time>2024-05-13T13:46:27Z</time>
      </trkpt>
      <trkpt lat="42.85720995" lon="13.36230992">
        <ele>559.00000</ele>
        <time>2024-05-13T13:46:28Z</time>
      </trkpt>
      <trkpt lat="42.85726997" lon="13.36229994">
        <ele>559.00000</ele>
        <time>2024-05-13T13:46:29Z</time>
      </trkpt>
      <trkpt lat="42.85739997" lon="13.36219995">
        <ele>563.00000</ele>
        <time>2024-05-13T13:46:31Z</time>
      </trkpt>
      <trkpt lat="42.85762988" lon="13.36200993">
        <ele>568.00000</ele>
        <time>2024-05-13T13:46:35Z</time>
      </trkpt>
      <trkpt lat="42.85785980" lon="13.36182000">
        <ele>567.00000</ele>
        <time>2024-05-13T13:46:40Z</time>
      </trkpt>
      <trkpt lat="42.85808997" lon="13.36162998">
        <ele>566.00000</ele>
        <time>2024-05-13T13:46:44Z</time>
      </trkpt>
      <trkpt lat="42.85812995" lon="13.36160995">
        <ele>565.00000</ele>
        <time>2024-05-13T13:46:45Z</time>
      </trkpt>
      <trkpt lat="42.85829977" lon="13.36152001">
        <ele>560.00000</ele>
        <time>2024-05-13T13:46:48Z</time>
      </trkpt>
      <trkpt lat="42.85846992" lon="13.36142999">
        <ele>560.00000</ele>
        <time>2024-05-13T13:46:51Z</time>
      </trkpt>
      <trkpt lat="42.85852993" lon="13.36137995">
        <ele>560.00000</ele>
        <time>2024-05-13T13:46:52Z</time>
      </trkpt>
      <trkpt lat="42.85862993" lon="13.36128992">
        <ele>560.00000</ele>
        <time>2024-05-13T13:46:54Z</time>
      </trkpt>
      <trkpt lat="42.85871995" lon="13.36118993">
        <ele>560.00000</ele>
        <time>2024-05-13T13:46:56Z</time>
      </trkpt>
      <trkpt lat="42.85885993" lon="13.36103998">
        <ele>557.00000</ele>
        <time>2024-05-13T13:46:58Z</time>
      </trkpt>
      <trkpt lat="42.85892992" lon="13.36099999">
        <ele>556.00000</ele>
        <time>2024-05-13T13:47:00Z</time>
      </trkpt>
      <trkpt lat="42.85898993" lon="13.36100997">
        <ele>556.00000</ele>
        <time>2024-05-13T13:47:01Z</time>
      </trkpt>
      <trkpt lat="42.85904995" lon="13.36103998">
        <ele>555.00000</ele>
        <time>2024-05-13T13:47:02Z</time>
      </trkpt>
      <trkpt lat="42.85908993" lon="13.36109999">
        <ele>553.00000</ele>
        <time>2024-05-13T13:47:03Z</time>
      </trkpt>
      <trkpt lat="42.85910996" lon="13.36117995">
        <ele>554.00000</ele>
        <time>2024-05-13T13:47:04Z</time>
      </trkpt>
      <trkpt lat="42.85910996" lon="13.36128992">
        <ele>556.00000</ele>
        <time>2024-05-13T13:47:05Z</time>
      </trkpt>
      <trkpt lat="42.85908993" lon="13.36137995">
        <ele>557.00000</ele>
        <time>2024-05-13T13:47:06Z</time>
      </trkpt>
      <trkpt lat="42.85906998" lon="13.36145999">
        <ele>558.00000</ele>
        <time>2024-05-13T13:47:07Z</time>
      </trkpt>
      <trkpt lat="42.85900996" lon="13.36160995">
        <ele>561.00000</ele>
        <time>2024-05-13T13:47:09Z</time>
      </trkpt>
      <trkpt lat="42.85892992" lon="13.36176996">
        <ele>563.00000</ele>
        <time>2024-05-13T13:47:11Z</time>
      </trkpt>
      <trkpt lat="42.85884995" lon="13.36190993">
        <ele>564.00000</ele>
        <time>2024-05-13T13:47:13Z</time>
      </trkpt>
      <trkpt lat="42.85878994" lon="13.36199996">
        <ele>563.00000</ele>
        <time>2024-05-13T13:47:15Z</time>
      </trkpt>
      <trkpt lat="42.85869992" lon="13.36209995">
        <ele>560.00000</ele>
        <time>2024-05-13T13:47:17Z</time>
      </trkpt>
      <trkpt lat="42.85852490" lon="13.36226985">
        <ele>556.00000</ele>
        <time>2024-05-13T13:47:20Z</time>
      </trkpt>
      <trkpt lat="42.85834997" lon="13.36243992">
        <ele>556.00000</ele>
        <time>2024-05-13T13:47:23Z</time>
      </trkpt>
      <trkpt lat="42.85822995" lon="13.36260999">
        <ele>558.00000</ele>
        <time>2024-05-13T13:47:26Z</time>
      </trkpt>
      <trkpt lat="42.85805996" lon="13.36293999">
        <ele>552.00000</ele>
        <time>2024-05-13T13:47:31Z</time>
      </trkpt>
      <trkpt lat="42.85795485" lon="13.36311005">
        <ele>550.00000</ele>
        <time>2024-05-13T13:47:34Z</time>
      </trkpt>
      <trkpt lat="42.85784999" lon="13.36327996">
        <ele>547.00000</ele>
        <time>2024-05-13T13:47:36Z</time>
      </trkpt>
      <trkpt lat="42.85769979" lon="13.36352018">
        <ele>547.00000</ele>
        <time>2024-05-13T13:47:40Z</time>
      </trkpt>
      <trkpt lat="42.85754992" lon="13.36375999">
        <ele>546.00000</ele>
        <time>2024-05-13T13:47:44Z</time>
      </trkpt>
      <trkpt lat="42.85752997" lon="13.36384993">
        <ele>546.00000</ele>
        <time>2024-05-13T13:47:45Z</time>
      </trkpt>
      <trkpt lat="42.85751991" lon="13.36393995">
        <ele>545.00000</ele>
        <time>2024-05-13T13:47:46Z</time>
      </trkpt>
      <trkpt lat="42.85752997" lon="13.36408998">
        <ele>542.00000</ele>
        <time>2024-05-13T13:47:48Z</time>
      </trkpt>
      <trkpt lat="42.85754992" lon="13.36418998">
        <ele>541.00000</ele>
        <time>2024-05-13T13:47:49Z</time>
      </trkpt>
      <trkpt lat="42.85767992" lon="13.36443993">
        <ele>541.00000</ele>
        <time>2024-05-13T13:47:52Z</time>
      </trkpt>
      <trkpt lat="42.85780993" lon="13.36456993">
        <ele>543.00000</ele>
        <time>2024-05-13T13:47:55Z</time>
      </trkpt>
      <trkpt lat="42.85796994" lon="13.36472994">
        <ele>543.00000</ele>
        <time>2024-05-13T13:47:58Z</time>
      </trkpt>
      <trkpt lat="42.85811997" lon="13.36485994">
        <ele>542.00000</ele>
        <time>2024-05-13T13:48:01Z</time>
      </trkpt>
      <trkpt lat="42.85820991" lon="13.36489993">
        <ele>542.00000</ele>
        <time>2024-05-13T13:48:02Z</time>
      </trkpt>
      <trkpt lat="42.85828996" lon="13.36490998">
        <ele>543.00000</ele>
        <time>2024-05-13T13:48:04Z</time>
      </trkpt>
      <trkpt lat="42.85848995" lon="13.36491996">
        <ele>545.00000</ele>
        <time>2024-05-13T13:48:07Z</time>
      </trkpt>
      <trkpt lat="42.85864996" lon="13.36492993">
        <ele>547.00000</ele>
        <time>2024-05-13T13:48:10Z</time>
      </trkpt>
      <trkpt lat="42.85869992" lon="13.36496992">
        <ele>548.00000</ele>
        <time>2024-05-13T13:48:10Z</time>
      </trkpt>
      <trkpt lat="42.85873998" lon="13.36500998">
        <ele>548.00000</ele>
        <time>2024-05-13T13:48:11Z</time>
      </trkpt>
      <trkpt lat="42.85875993" lon="13.36505994">
        <ele>547.00000</ele>
        <time>2024-05-13T13:48:12Z</time>
      </trkpt>
      <trkpt lat="42.85877997" lon="13.36512993">
        <ele>546.00000</ele>
        <time>2024-05-13T13:48:13Z</time>
      </trkpt>
      <trkpt lat="42.85878994" lon="13.36522992">
        <ele>545.00000</ele>
        <time>2024-05-13T13:48:14Z</time>
      </trkpt>
      <trkpt lat="42.85882992" lon="13.36536998">
        <ele>543.00000</ele>
        <time>2024-05-13T13:48:16Z</time>
      </trkpt>
      <trkpt lat="42.85891994" lon="13.36559998">
        <ele>542.00000</ele>
        <time>2024-05-13T13:48:19Z</time>
      </trkpt>
      <trkpt lat="42.85908993" lon="13.36585999">
        <ele>545.00000</ele>
        <time>2024-05-13T13:48:23Z</time>
      </trkpt>
      <trkpt lat="42.85918992" lon="13.36605998">
        <ele>543.00000</ele>
        <time>2024-05-13T13:48:26Z</time>
      </trkpt>
      <trkpt lat="42.85925991" lon="13.36620993">
        <ele>541.00000</ele>
        <time>2024-05-13T13:48:28Z</time>
      </trkpt>
      <trkpt lat="42.85929998" lon="13.36629996">
        <ele>540.00000</ele>
        <time>2024-05-13T13:48:29Z</time>
      </trkpt>
      <trkpt lat="42.85934993" lon="13.36641998">
        <ele>538.00000</ele>
        <time>2024-05-13T13:48:31Z</time>
      </trkpt>
      <trkpt lat="42.85937994" lon="13.36646994">
        <ele>537.00000</ele>
        <time>2024-05-13T13:48:31Z</time>
      </trkpt>
      <trkpt lat="42.85942998" lon="13.36649995">
        <ele>538.00000</ele>
        <time>2024-05-13T13:48:32Z</time>
      </trkpt>
      <trkpt lat="42.85945999" lon="13.36650992">
        <ele>539.00000</ele>
        <time>2024-05-13T13:48:33Z</time>
      </trkpt>
      <trkpt lat="42.85950995" lon="13.36651998">
        <ele>539.00000</ele>
        <time>2024-05-13T13:48:34Z</time>
      </trkpt>
      <trkpt lat="42.85968999" lon="13.36644999">
        <ele>545.00000</ele>
        <time>2024-05-13T13:48:37Z</time>
      </trkpt>
      <trkpt lat="42.85984992" lon="13.36641998">
        <ele>545.00000</ele>
        <time>2024-05-13T13:48:39Z</time>
      </trkpt>
      <trkpt lat="42.85987992" lon="13.36643993">
        <ele>544.00000</ele>
        <time>2024-05-13T13:48:40Z</time>
      </trkpt>
      <trkpt lat="42.85990993" lon="13.36644999">
        <ele>543.00000</ele>
        <time>2024-05-13T13:48:40Z</time>
      </trkpt>
      <trkpt lat="42.85991999" lon="13.36647992">
        <ele>543.00000</ele>
        <time>2024-05-13T13:48:41Z</time>
      </trkpt>
      <trkpt lat="42.85993994" lon="13.36650992">
        <ele>542.00000</ele>
        <time>2024-05-13T13:48:41Z</time>
      </trkpt>
      <trkpt lat="42.85993994" lon="13.36652996">
        <ele>542.00000</ele>
        <time>2024-05-13T13:48:41Z</time>
      </trkpt>
      <trkpt lat="42.85994991" lon="13.36658997">
        <ele>541.00000</ele>
        <time>2024-05-13T13:48:42Z</time>
      </trkpt>
      <trkpt lat="42.85993994" lon="13.36681997">
        <ele>538.00000</ele>
        <time>2024-05-13T13:48:45Z</time>
      </trkpt>
      <trkpt lat="42.85993994" lon="13.36698995">
        <ele>537.00000</ele>
        <time>2024-05-13T13:48:47Z</time>
      </trkpt>
      <trkpt lat="42.85993994" lon="13.36710998">
        <ele>538.00000</ele>
        <time>2024-05-13T13:48:48Z</time>
      </trkpt>
      <trkpt lat="42.85991999" lon="13.36718995">
        <ele>538.00000</ele>
        <time>2024-05-13T13:48:49Z</time>
      </trkpt>
      <trkpt lat="42.85989996" lon="13.36723999">
        <ele>538.00000</ele>
        <time>2024-05-13T13:48:50Z</time>
      </trkpt>
      <trkpt lat="42.85988998" lon="13.36725994">
        <ele>538.00000</ele>
        <time>2024-05-13T13:48:50Z</time>
      </trkpt>
      <trkpt lat="42.85985997" lon="13.36728994">
        <ele>537.00000</ele>
        <time>2024-05-13T13:48:51Z</time>
      </trkpt>
      <trkpt lat="42.85983994" lon="13.36731995">
        <ele>537.00000</ele>
        <time>2024-05-13T13:48:51Z</time>
      </trkpt>
      <trkpt lat="42.85980993" lon="13.36733998">
        <ele>536.00000</ele>
        <time>2024-05-13T13:48:52Z</time>
      </trkpt>
      <trkpt lat="42.85977993" lon="13.36736999">
        <ele>535.00000</ele>
        <time>2024-05-13T13:48:52Z</time>
      </trkpt>
      <trkpt lat="42.85965998" lon="13.36742992">
        <ele>531.00000</ele>
        <time>2024-05-13T13:48:54Z</time>
      </trkpt>
      <trkpt lat="42.85953995" lon="13.36754995">
        <ele>527.00000</ele>
        <time>2024-05-13T13:48:57Z</time>
      </trkpt>
      <trkpt lat="42.85947994" lon="13.36761994">
        <ele>525.00000</ele>
        <time>2024-05-13T13:48:58Z</time>
      </trkpt>
      <trkpt lat="42.85943996" lon="13.36766998">
        <ele>524.00000</ele>
        <time>2024-05-13T13:48:59Z</time>
      </trkpt>
      <trkpt lat="42.85941992" lon="13.36770996">
        <ele>523.00000</ele>
        <time>2024-05-13T13:48:59Z</time>
      </trkpt>
      <trkpt lat="42.85939997" lon="13.36776997">
        <ele>522.00000</ele>
        <time>2024-05-13T13:49:00Z</time>
      </trkpt>
      <trkpt lat="42.85938992" lon="13.36782999">
        <ele>523.00000</ele>
        <time>2024-05-13T13:49:01Z</time>
      </trkpt>
      <trkpt lat="42.85938489" lon="13.36808555">
        <ele>526.00000</ele>
        <time>2024-05-13T13:49:04Z</time>
      </trkpt>
      <trkpt lat="42.85937994" lon="13.36833994">
        <ele>529.00000</ele>
        <time>2024-05-13T13:49:07Z</time>
      </trkpt>
      <trkpt lat="42.85935983" lon="13.36873582">
        <ele>529.00000</ele>
        <time>2024-05-13T13:49:12Z</time>
      </trkpt>
      <trkpt lat="42.85933996" lon="13.36912994">
        <ele>528.00000</ele>
        <time>2024-05-13T13:49:16Z</time>
      </trkpt>
      <trkpt lat="42.85932990" lon="13.36949572">
        <ele>527.00000</ele>
        <time>2024-05-13T13:49:21Z</time>
      </trkpt>
      <trkpt lat="42.85931993" lon="13.36985992">
        <ele>524.00000</ele>
        <time>2024-05-13T13:49:25Z</time>
      </trkpt>
      <trkpt lat="42.85933996" lon="13.37017994">
        <ele>523.00000</ele>
        <time>2024-05-13T13:49:29Z</time>
      </trkpt>
      <trkpt lat="42.85938506" lon="13.37042042">
        <ele>524.00000</ele>
        <time>2024-05-13T13:49:32Z</time>
      </trkpt>
      <trkpt lat="42.85942998" lon="13.37065997">
        <ele>525.00000</ele>
        <time>2024-05-13T13:49:34Z</time>
      </trkpt>
      <trkpt lat="42.85945999" lon="13.37098997">
        <ele>525.00000</ele>
        <time>2024-05-13T13:49:38Z</time>
      </trkpt>
      <trkpt lat="42.85947994" lon="13.37140998">
        <ele>524.00000</ele>
        <time>2024-05-13T13:49:43Z</time>
      </trkpt>
      <trkpt lat="42.85948991" lon="13.37159992">
        <ele>525.00000</ele>
        <time>2024-05-13T13:49:46Z</time>
      </trkpt>
      <trkpt lat="42.85948991" lon="13.37166999">
        <ele>525.00000</ele>
        <time>2024-05-13T13:49:46Z</time>
      </trkpt>
      <trkpt lat="42.85948991" lon="13.37175993">
        <ele>523.00000</ele>
        <time>2024-05-13T13:49:47Z</time>
      </trkpt>
      <trkpt lat="42.85949997" lon="13.37185992">
        <ele>522.00000</ele>
        <time>2024-05-13T13:49:49Z</time>
      </trkpt>
      <trkpt lat="42.85950995" lon="13.37193997">
        <ele>520.00000</ele>
        <time>2024-05-13T13:49:50Z</time>
      </trkpt>
      <trkpt lat="42.85952998" lon="13.37200996">
        <ele>520.00000</ele>
        <time>2024-05-13T13:49:51Z</time>
      </trkpt>
      <trkpt lat="42.85955999" lon="13.37205992">
        <ele>520.00000</ele>
        <time>2024-05-13T13:49:51Z</time>
      </trkpt>
      <trkpt lat="42.85960994" lon="13.37209998">
        <ele>521.00000</ele>
        <time>2024-05-13T13:49:52Z</time>
      </trkpt>
      <trkpt lat="42.85965998" lon="13.37210996">
        <ele>522.00000</ele>
        <time>2024-05-13T13:49:53Z</time>
      </trkpt>
      <trkpt lat="42.85972997" lon="13.37210996">
        <ele>524.00000</ele>
        <time>2024-05-13T13:49:54Z</time>
      </trkpt>
      <trkpt lat="42.85979996" lon="13.37208992">
        <ele>524.00000</ele>
        <time>2024-05-13T13:49:55Z</time>
      </trkpt>
      <trkpt lat="42.85985997" lon="13.37206997">
        <ele>524.00000</ele>
        <time>2024-05-13T13:49:56Z</time>
      </trkpt>
      <trkpt lat="42.86004999" lon="13.37187996">
        <ele>529.00000</ele>
        <time>2024-05-13T13:50:00Z</time>
      </trkpt>
      <trkpt lat="42.86022995" lon="13.37171995">
        <ele>532.00000</ele>
        <time>2024-05-13T13:50:03Z</time>
      </trkpt>
      <trkpt lat="42.86032995" lon="13.37162992">
        <ele>534.00000</ele>
        <time>2024-05-13T13:50:05Z</time>
      </trkpt>
      <trkpt lat="42.86042994" lon="13.37157997">
        <ele>535.00000</ele>
        <time>2024-05-13T13:50:07Z</time>
      </trkpt>
      <trkpt lat="42.86050999" lon="13.37156999">
        <ele>534.00000</ele>
        <time>2024-05-13T13:50:08Z</time>
      </trkpt>
      <trkpt lat="42.86056992" lon="13.37156999">
        <ele>533.00000</ele>
        <time>2024-05-13T13:50:09Z</time>
      </trkpt>
      <trkpt lat="42.86059993" lon="13.37156999">
        <ele>533.00000</ele>
        <time>2024-05-13T13:50:10Z</time>
      </trkpt>
      <trkpt lat="42.86063999" lon="13.37157997">
        <ele>532.00000</ele>
        <time>2024-05-13T13:50:10Z</time>
      </trkpt>
      <trkpt lat="42.86067998" lon="13.37159992">
        <ele>531.00000</ele>
        <time>2024-05-13T13:50:11Z</time>
      </trkpt>
      <trkpt lat="42.86070998" lon="13.37162992">
        <ele>530.00000</ele>
        <time>2024-05-13T13:50:12Z</time>
      </trkpt>
      <trkpt lat="42.86072993" lon="13.37165993">
        <ele>529.00000</ele>
        <time>2024-05-13T13:50:12Z</time>
      </trkpt>
      <trkpt lat="42.86075994" lon="13.37170997">
        <ele>529.00000</ele>
        <time>2024-05-13T13:50:13Z</time>
      </trkpt>
      <trkpt lat="42.86077997" lon="13.37175993">
        <ele>529.00000</ele>
        <time>2024-05-13T13:50:14Z</time>
      </trkpt>
      <trkpt lat="42.86078995" lon="13.37182992">
        <ele>528.00000</ele>
        <time>2024-05-13T13:50:14Z</time>
      </trkpt>
      <trkpt lat="42.86078995" lon="13.37186998">
        <ele>528.00000</ele>
        <time>2024-05-13T13:50:15Z</time>
      </trkpt>
      <trkpt lat="42.86079992" lon="13.37191994">
        <ele>528.00000</ele>
        <time>2024-05-13T13:50:16Z</time>
      </trkpt>
      <trkpt lat="42.86078995" lon="13.37197995">
        <ele>529.00000</ele>
        <time>2024-05-13T13:50:16Z</time>
      </trkpt>
      <trkpt lat="42.86077997" lon="13.37202999">
        <ele>529.00000</ele>
        <time>2024-05-13T13:50:17Z</time>
      </trkpt>
      <trkpt lat="42.86076991" lon="13.37206997">
        <ele>529.00000</ele>
        <time>2024-05-13T13:50:17Z</time>
      </trkpt>
      <trkpt lat="42.86074996" lon="13.37210996">
        <ele>530.00000</ele>
        <time>2024-05-13T13:50:18Z</time>
      </trkpt>
      <trkpt lat="42.86072993" lon="13.37214994">
        <ele>530.00000</ele>
        <time>2024-05-13T13:50:19Z</time>
      </trkpt>
      <trkpt lat="42.86069992" lon="13.37218992">
        <ele>529.00000</ele>
        <time>2024-05-13T13:50:19Z</time>
      </trkpt>
      <trkpt lat="42.86047487" lon="13.37243995">
        <ele>526.00000</ele>
        <time>2024-05-13T13:50:24Z</time>
      </trkpt>
      <trkpt lat="42.86024998" lon="13.37268998">
        <ele>524.00000</ele>
        <time>2024-05-13T13:50:28Z</time>
      </trkpt>
      <trkpt lat="42.86009986" lon="13.37285494">
        <ele>526.00000</ele>
        <time>2024-05-13T13:50:32Z</time>
      </trkpt>
      <trkpt lat="42.85994991" lon="13.37301998">
        <ele>528.00000</ele>
        <time>2024-05-13T13:50:35Z</time>
      </trkpt>
      <trkpt lat="42.85977490" lon="13.37317488">
        <ele>524.00000</ele>
        <time>2024-05-13T13:50:38Z</time>
      </trkpt>
      <trkpt lat="42.85959997" lon="13.37332994">
        <ele>520.00000</ele>
        <time>2024-05-13T13:50:41Z</time>
      </trkpt>
      <trkpt lat="42.85934993" lon="13.37350999">
        <ele>516.00000</ele>
        <time>2024-05-13T13:50:46Z</time>
      </trkpt>
      <trkpt lat="42.85915003" lon="13.37363990">
        <ele>513.00000</ele>
        <time>2024-05-13T13:50:49Z</time>
      </trkpt>
      <trkpt lat="42.85894995" lon="13.37376999">
        <ele>513.00000</ele>
        <time>2024-05-13T13:50:53Z</time>
      </trkpt>
      <trkpt lat="42.85881995" lon="13.37391994">
        <ele>513.00000</ele>
        <time>2024-05-13T13:50:56Z</time>
      </trkpt>
      <trkpt lat="42.85876999" lon="13.37396998">
        <ele>513.00000</ele>
        <time>2024-05-13T13:50:57Z</time>
      </trkpt>
      <trkpt lat="42.85873998" lon="13.37403997">
        <ele>513.00000</ele>
        <time>2024-05-13T13:50:58Z</time>
      </trkpt>
      <trkpt lat="42.85867997" lon="13.37417995">
        <ele>514.00000</ele>
        <time>2024-05-13T13:51:00Z</time>
      </trkpt>
      <trkpt lat="42.85864996" lon="13.37425991">
        <ele>514.00000</ele>
        <time>2024-05-13T13:51:01Z</time>
      </trkpt>
      <trkpt lat="42.85863999" lon="13.37431993">
        <ele>514.00000</ele>
        <time>2024-05-13T13:51:01Z</time>
      </trkpt>
      <trkpt lat="42.85862993" lon="13.37437994">
        <ele>514.00000</ele>
        <time>2024-05-13T13:51:02Z</time>
      </trkpt>
      <trkpt lat="42.85862993" lon="13.37443996">
        <ele>515.00000</ele>
        <time>2024-05-13T13:51:03Z</time>
      </trkpt>
      <trkpt lat="42.85862993" lon="13.37447994">
        <ele>515.00000</ele>
        <time>2024-05-13T13:51:03Z</time>
      </trkpt>
      <trkpt lat="42.85863999" lon="13.37456996">
        <ele>516.00000</ele>
        <time>2024-05-13T13:51:04Z</time>
      </trkpt>
      <trkpt lat="42.85865994" lon="13.37466996">
        <ele>516.00000</ele>
        <time>2024-05-13T13:51:06Z</time>
      </trkpt>
      <trkpt lat="42.85867997" lon="13.37472997">
        <ele>517.00000</ele>
        <time>2024-05-13T13:51:06Z</time>
      </trkpt>
      <trkpt lat="42.85871995" lon="13.37478999">
        <ele>517.00000</ele>
        <time>2024-05-13T13:51:07Z</time>
      </trkpt>
      <trkpt lat="42.85881995" lon="13.37489996">
        <ele>518.00000</ele>
        <time>2024-05-13T13:51:09Z</time>
      </trkpt>
      <trkpt lat="42.85891994" lon="13.37500993">
        <ele>519.00000</ele>
        <time>2024-05-13T13:51:11Z</time>
      </trkpt>
      <trkpt lat="42.85901994" lon="13.37510992">
        <ele>518.00000</ele>
        <time>2024-05-13T13:51:13Z</time>
      </trkpt>
      <trkpt lat="42.85923996" lon="13.37523993">
        <ele>520.00000</ele>
        <time>2024-05-13T13:51:17Z</time>
      </trkpt>
      <trkpt lat="42.85937994" lon="13.37537999">
        <ele>521.00000</ele>
        <time>2024-05-13T13:51:20Z</time>
      </trkpt>
      <trkpt lat="42.85945999" lon="13.37548996">
        <ele>520.00000</ele>
        <time>2024-05-13T13:51:22Z</time>
      </trkpt>
      <trkpt lat="42.85957507" lon="13.37568509">
        <ele>519.00000</ele>
        <time>2024-05-13T13:51:25Z</time>
      </trkpt>
      <trkpt lat="42.85968999" lon="13.37587997">
        <ele>517.00000</ele>
        <time>2024-05-13T13:51:28Z</time>
      </trkpt>
      <trkpt lat="42.85982687" lon="13.37626059">
        <ele>517.00000</ele>
        <time>2024-05-13T13:51:33Z</time>
      </trkpt>
      <trkpt lat="42.85996374" lon="13.37664121">
        <ele>517.00000</ele>
        <time>2024-05-13T13:51:38Z</time>
      </trkpt>
      <trkpt lat="42.86009995" lon="13.37701999">
        <ele>510.00000</ele>
        <time>2024-05-13T13:51:43Z</time>
      </trkpt>
      <trkpt lat="42.86018997" lon="13.37716994">
        <ele>508.00000</ele>
        <time>2024-05-13T13:51:45Z</time>
      </trkpt>
      <trkpt lat="42.86031997" lon="13.37732995">
        <ele>508.00000</ele>
        <time>2024-05-13T13:51:48Z</time>
      </trkpt>
      <trkpt lat="42.86036993" lon="13.37739994">
        <ele>508.00000</ele>
        <time>2024-05-13T13:51:49Z</time>
      </trkpt>
      <trkpt lat="42.86041997" lon="13.37747999">
        <ele>509.00000</ele>
        <time>2024-05-13T13:51:50Z</time>
      </trkpt>
      <trkpt lat="42.86044998" lon="13.37752995">
        <ele>509.00000</ele>
        <time>2024-05-13T13:51:51Z</time>
      </trkpt>
      <trkpt lat="42.86044998" lon="13.37756993">
        <ele>509.00000</ele>
        <time>2024-05-13T13:51:51Z</time>
      </trkpt>
      <trkpt lat="42.86046992" lon="13.37765995">
        <ele>509.00000</ele>
        <time>2024-05-13T13:51:52Z</time>
      </trkpt>
      <trkpt lat="42.86046992" lon="13.37795994">
        <ele>509.00000</ele>
        <time>2024-05-13T13:51:56Z</time>
      </trkpt>
      <trkpt lat="42.86044981" lon="13.37818047">
        <ele>510.00000</ele>
        <time>2024-05-13T13:51:59Z</time>
      </trkpt>
      <trkpt lat="42.86042994" lon="13.37839999">
        <ele>509.00000</ele>
        <time>2024-05-13T13:52:01Z</time>
      </trkpt>
      <trkpt lat="42.86043489" lon="13.37862043">
        <ele>507.00000</ele>
        <time>2024-05-13T13:52:04Z</time>
      </trkpt>
      <trkpt lat="42.86043992" lon="13.37883995">
        <ele>505.00000</ele>
        <time>2024-05-13T13:52:06Z</time>
      </trkpt>
      <trkpt lat="42.86043992" lon="13.37890994">
        <ele>504.00000</ele>
        <time>2024-05-13T13:52:07Z</time>
      </trkpt>
      <trkpt lat="42.86044998" lon="13.37897993">
        <ele>504.00000</ele>
        <time>2024-05-13T13:52:08Z</time>
      </trkpt>
      <trkpt lat="42.86045995" lon="13.37904992">
        <ele>504.00000</ele>
        <time>2024-05-13T13:52:09Z</time>
      </trkpt>
      <trkpt lat="42.86047998" lon="13.37917992">
        <ele>504.00000</ele>
        <time>2024-05-13T13:52:10Z</time>
      </trkpt>
      <trkpt lat="42.86051996" lon="13.37930993">
        <ele>505.00000</ele>
        <time>2024-05-13T13:52:12Z</time>
      </trkpt>
      <trkpt lat="42.86060010" lon="13.37959709">
        <ele>504.00000</ele>
        <time>2024-05-13T13:52:16Z</time>
      </trkpt>
      <trkpt lat="42.86068023" lon="13.37988434">
        <ele>503.00000</ele>
        <time>2024-05-13T13:52:19Z</time>
      </trkpt>
      <trkpt lat="42.86075994" lon="13.38016999">
        <ele>500.00000</ele>
        <time>2024-05-13T13:52:23Z</time>
      </trkpt>
      <trkpt lat="42.86086010" lon="13.38053729">
        <ele>496.00000</ele>
        <time>2024-05-13T13:52:27Z</time>
      </trkpt>
      <trkpt lat="42.86096027" lon="13.38090467">
        <ele>496.00000</ele>
        <time>2024-05-13T13:52:32Z</time>
      </trkpt>
      <trkpt lat="42.86105993" lon="13.38126995">
        <ele>493.00000</ele>
        <time>2024-05-13T13:52:37Z</time>
      </trkpt>
      <trkpt lat="42.86111994" lon="13.38164999">
        <ele>492.00000</ele>
        <time>2024-05-13T13:52:41Z</time>
      </trkpt>
      <trkpt lat="42.86114995" lon="13.38197998">
        <ele>490.00000</ele>
        <time>2024-05-13T13:52:45Z</time>
      </trkpt>
      <trkpt lat="42.86115992" lon="13.38227997">
        <ele>490.00000</ele>
        <time>2024-05-13T13:52:49Z</time>
      </trkpt>
      <trkpt lat="42.86116990" lon="13.38256060">
        <ele>492.00000</ele>
        <time>2024-05-13T13:52:52Z</time>
      </trkpt>
      <trkpt lat="42.86117996" lon="13.38283997">
        <ele>491.00000</ele>
        <time>2024-05-13T13:52:55Z</time>
      </trkpt>
      <trkpt lat="42.86119496" lon="13.38314062">
        <ele>486.00000</ele>
        <time>2024-05-13T13:52:59Z</time>
      </trkpt>
      <trkpt lat="42.86120996" lon="13.38343994">
        <ele>482.00000</ele>
        <time>2024-05-13T13:53:02Z</time>
      </trkpt>
      <trkpt lat="42.86120996" lon="13.38381998">
        <ele>479.00000</ele>
        <time>2024-05-13T13:53:07Z</time>
      </trkpt>
      <trkpt lat="42.86118314" lon="13.38421418">
        <ele>475.00000</ele>
        <time>2024-05-13T13:53:11Z</time>
      </trkpt>
      <trkpt lat="42.86115640" lon="13.38460846">
        <ele>474.00000</ele>
        <time>2024-05-13T13:53:16Z</time>
      </trkpt>
      <trkpt lat="42.86112992" lon="13.38499998">
        <ele>473.00000</ele>
        <time>2024-05-13T13:53:21Z</time>
      </trkpt>
      <trkpt lat="42.86108993" lon="13.38524993">
        <ele>472.00000</ele>
        <time>2024-05-13T13:53:24Z</time>
      </trkpt>
      <trkpt lat="42.86107988" lon="13.38549544">
        <ele>469.00000</ele>
        <time>2024-05-13T13:53:27Z</time>
      </trkpt>
      <trkpt lat="42.86106999" lon="13.38573994">
        <ele>466.00000</ele>
        <time>2024-05-13T13:53:30Z</time>
      </trkpt>
      <trkpt lat="42.86107996" lon="13.38591998">
        <ele>465.00000</ele>
        <time>2024-05-13T13:53:32Z</time>
      </trkpt>
      <trkpt lat="42.86110997" lon="13.38615995">
        <ele>465.00000</ele>
        <time>2024-05-13T13:53:35Z</time>
      </trkpt>
      <trkpt lat="42.86114995" lon="13.38633991">
        <ele>466.00000</ele>
        <time>2024-05-13T13:53:37Z</time>
      </trkpt>
      <trkpt lat="42.86118993" lon="13.38653999">
        <ele>466.00000</ele>
        <time>2024-05-13T13:53:39Z</time>
      </trkpt>
      <trkpt lat="42.86121994" lon="13.38663998">
        <ele>467.00000</ele>
        <time>2024-05-13T13:53:40Z</time>
      </trkpt>
      <trkpt lat="42.86124994" lon="13.38673998">
        <ele>467.00000</ele>
        <time>2024-05-13T13:53:42Z</time>
      </trkpt>
      <trkpt lat="42.86126998" lon="13.38688993">
        <ele>466.00000</ele>
        <time>2024-05-13T13:53:44Z</time>
      </trkpt>
      <trkpt lat="42.86129998" lon="13.38699999">
        <ele>465.00000</ele>
        <time>2024-05-13T13:53:45Z</time>
      </trkpt>
      <trkpt lat="42.86133997" lon="13.38720995">
        <ele>465.00000</ele>
        <time>2024-05-13T13:53:47Z</time>
      </trkpt>
      <trkpt lat="42.86135992" lon="13.38730995">
        <ele>465.00000</ele>
        <time>2024-05-13T13:53:49Z</time>
      </trkpt>
      <trkpt lat="42.86135992" lon="13.38740995">
        <ele>464.00000</ele>
        <time>2024-05-13T13:53:50Z</time>
      </trkpt>
      <trkpt lat="42.86135992" lon="13.38749997">
        <ele>464.00000</ele>
        <time>2024-05-13T13:53:51Z</time>
      </trkpt>
      <trkpt lat="42.86134994" lon="13.38761991">
        <ele>463.00000</ele>
        <time>2024-05-13T13:53:52Z</time>
      </trkpt>
      <trkpt lat="42.86132999" lon="13.38778998">
        <ele>462.00000</ele>
        <time>2024-05-13T13:53:54Z</time>
      </trkpt>
      <trkpt lat="42.86129998" lon="13.38817999">
        <ele>459.00000</ele>
        <time>2024-05-13T13:53:59Z</time>
      </trkpt>
      <trkpt lat="42.86133334" lon="13.38846389">
        <ele>459.00000</ele>
        <time>2024-05-13T13:54:02Z</time>
      </trkpt>
      <trkpt lat="42.86136679" lon="13.38874787">
        <ele>458.00000</ele>
        <time>2024-05-13T13:54:06Z</time>
      </trkpt>
      <trkpt lat="42.86139998" lon="13.38902992">
        <ele>459.00000</ele>
        <time>2024-05-13T13:54:09Z</time>
      </trkpt>
      <trkpt lat="42.86146008" lon="13.38942077">
        <ele>460.00000</ele>
        <time>2024-05-13T13:54:14Z</time>
      </trkpt>
      <trkpt lat="42.86151993" lon="13.38980994">
        <ele>459.00000</ele>
        <time>2024-05-13T13:54:18Z</time>
      </trkpt>
      <trkpt lat="42.86154993" lon="13.38990993">
        <ele>459.00000</ele>
        <time>2024-05-13T13:54:20Z</time>
      </trkpt>
      <trkpt lat="42.86157994" lon="13.38998998">
        <ele>459.00000</ele>
        <time>2024-05-13T13:54:21Z</time>
      </trkpt>
      <trkpt lat="42.86158991" lon="13.39007992">
        <ele>459.00000</ele>
        <time>2024-05-13T13:54:22Z</time>
      </trkpt>
      <trkpt lat="42.86158991" lon="13.39017991">
        <ele>458.00000</ele>
        <time>2024-05-13T13:54:23Z</time>
      </trkpt>
      <trkpt lat="42.86158991" lon="13.39038996">
        <ele>457.00000</ele>
        <time>2024-05-13T13:54:26Z</time>
      </trkpt>
      <trkpt lat="42.86154993" lon="13.39051997">
        <ele>456.00000</ele>
        <time>2024-05-13T13:54:27Z</time>
      </trkpt>
      <trkpt lat="42.86151993" lon="13.39070999">
        <ele>454.00000</ele>
        <time>2024-05-13T13:54:29Z</time>
      </trkpt>
      <trkpt lat="42.86151993" lon="13.39083999">
        <ele>453.00000</ele>
        <time>2024-05-13T13:54:31Z</time>
      </trkpt>
      <trkpt lat="42.86152998" lon="13.39094996">
        <ele>452.00000</ele>
        <time>2024-05-13T13:54:32Z</time>
      </trkpt>
      <trkpt lat="42.86156997" lon="13.39110997">
        <ele>451.00000</ele>
        <time>2024-05-13T13:54:34Z</time>
      </trkpt>
      <trkpt lat="42.86161992" lon="13.39126998">
        <ele>451.00000</ele>
        <time>2024-05-13T13:54:36Z</time>
      </trkpt>
      <trkpt lat="42.86173995" lon="13.39160995">
        <ele>451.00000</ele>
        <time>2024-05-13T13:54:41Z</time>
      </trkpt>
      <trkpt lat="42.86189007" lon="13.39188018">
        <ele>453.00000</ele>
        <time>2024-05-13T13:54:45Z</time>
      </trkpt>
      <trkpt lat="42.86203994" lon="13.39214991">
        <ele>455.00000</ele>
        <time>2024-05-13T13:54:49Z</time>
      </trkpt>
      <trkpt lat="42.86216005" lon="13.39241025">
        <ele>457.00000</ele>
        <time>2024-05-13T13:54:52Z</time>
      </trkpt>
      <trkpt lat="42.86227991" lon="13.39266993">
        <ele>457.00000</ele>
        <time>2024-05-13T13:54:56Z</time>
      </trkpt>
      <trkpt lat="42.86235996" lon="13.39287025">
        <ele>456.00000</ele>
        <time>2024-05-13T13:54:59Z</time>
      </trkpt>
      <trkpt lat="42.86243992" lon="13.39306999">
        <ele>455.00000</ele>
        <time>2024-05-13T13:55:01Z</time>
      </trkpt>
      <trkpt lat="42.86253992" lon="13.39346998">
        <ele>455.00000</ele>
        <time>2024-05-13T13:55:06Z</time>
      </trkpt>
      <trkpt lat="42.86257999" lon="13.39382571">
        <ele>456.00000</ele>
        <time>2024-05-13T13:55:11Z</time>
      </trkpt>
      <trkpt lat="42.86261997" lon="13.39417993">
        <ele>455.00000</ele>
        <time>2024-05-13T13:55:15Z</time>
      </trkpt>
      <trkpt lat="42.86264000" lon="13.39455074">
        <ele>453.00000</ele>
        <time>2024-05-13T13:55:19Z</time>
      </trkpt>
      <trkpt lat="42.86265995" lon="13.39491996">
        <ele>454.00000</ele>
        <time>2024-05-13T13:55:23Z</time>
      </trkpt>
      <trkpt lat="42.86270001" lon="13.39516547">
        <ele>453.00000</ele>
        <time>2024-05-13T13:55:26Z</time>
      </trkpt>
      <trkpt lat="42.86273991" lon="13.39540997">
        <ele>447.00000</ele>
        <time>2024-05-13T13:55:29Z</time>
      </trkpt>
      <trkpt lat="42.86279993" lon="13.39564994">
        <ele>441.00000</ele>
        <time>2024-05-13T13:55:32Z</time>
      </trkpt>
      <trkpt lat="42.86283999" lon="13.39582999">
        <ele>438.00000</ele>
        <time>2024-05-13T13:55:35Z</time>
      </trkpt>
      <trkpt lat="42.86288995" lon="13.39597994">
        <ele>438.00000</ele>
        <time>2024-05-13T13:55:37Z</time>
      </trkpt>
      <trkpt lat="42.86292993" lon="13.39609997">
        <ele>439.00000</ele>
        <time>2024-05-13T13:55:38Z</time>
      </trkpt>
      <trkpt lat="42.86295994" lon="13.39620994">
        <ele>440.00000</ele>
        <time>2024-05-13T13:55:39Z</time>
      </trkpt>
      <trkpt lat="42.86297997" lon="13.39630994">
        <ele>440.00000</ele>
        <time>2024-05-13T13:55:41Z</time>
      </trkpt>
      <trkpt lat="42.86298994" lon="13.39640993">
        <ele>441.00000</ele>
        <time>2024-05-13T13:55:42Z</time>
      </trkpt>
      <trkpt lat="42.86301995" lon="13.39654999">
        <ele>443.00000</ele>
        <time>2024-05-13T13:55:44Z</time>
      </trkpt>
      <trkpt lat="42.86302993" lon="13.39667991">
        <ele>444.00000</ele>
        <time>2024-05-13T13:55:45Z</time>
      </trkpt>
      <trkpt lat="42.86302993" lon="13.39673993">
        <ele>444.00000</ele>
        <time>2024-05-13T13:55:46Z</time>
      </trkpt>
      <trkpt lat="42.86300998" lon="13.39680992">
        <ele>444.00000</ele>
        <time>2024-05-13T13:55:47Z</time>
      </trkpt>
      <trkpt lat="42.86298994" lon="13.39691997">
        <ele>445.00000</ele>
        <time>2024-05-13T13:55:48Z</time>
      </trkpt>
      <trkpt lat="42.86294996" lon="13.39705995">
        <ele>445.00000</ele>
        <time>2024-05-13T13:55:50Z</time>
      </trkpt>
      <trkpt lat="42.86287997" lon="13.39726991">
        <ele>445.00000</ele>
        <time>2024-05-13T13:55:53Z</time>
      </trkpt>
      <trkpt lat="42.86280998" lon="13.39744996">
        <ele>444.00000</ele>
        <time>2024-05-13T13:55:55Z</time>
      </trkpt>
      <trkpt lat="42.86279490" lon="13.39768549">
        <ele>447.00000</ele>
        <time>2024-05-13T13:55:58Z</time>
      </trkpt>
      <trkpt lat="42.86277998" lon="13.39791993">
        <ele>448.00000</ele>
        <time>2024-05-13T13:56:00Z</time>
      </trkpt>
      <trkpt lat="42.86274486" lon="13.39828077">
        <ele>447.00000</ele>
        <time>2024-05-13T13:56:05Z</time>
      </trkpt>
      <trkpt lat="42.86270999" lon="13.39863994">
        <ele>443.00000</ele>
        <time>2024-05-13T13:56:09Z</time>
      </trkpt>
      <trkpt lat="42.86268996" lon="13.39897999">
        <ele>441.00000</ele>
        <time>2024-05-13T13:56:13Z</time>
      </trkpt>
      <trkpt lat="42.86269993" lon="13.39915995">
        <ele>440.00000</ele>
        <time>2024-05-13T13:56:15Z</time>
      </trkpt>
      <trkpt lat="42.86271996" lon="13.39932993">
        <ele>439.00000</ele>
        <time>2024-05-13T13:56:17Z</time>
      </trkpt>
      <trkpt lat="42.86273991" lon="13.39943999">
        <ele>438.00000</ele>
        <time>2024-05-13T13:56:18Z</time>
      </trkpt>
      <trkpt lat="42.86277998" lon="13.39954996">
        <ele>437.00000</ele>
        <time>2024-05-13T13:56:20Z</time>
      </trkpt>
      <trkpt lat="42.86283999" lon="13.39968994">
        <ele>436.00000</ele>
        <time>2024-05-13T13:56:22Z</time>
      </trkpt>
      <trkpt lat="42.86291996" lon="13.39979999">
        <ele>435.00000</ele>
        <time>2024-05-13T13:56:24Z</time>
      </trkpt>
      <trkpt lat="42.86303998" lon="13.39986998">
        <ele>435.00000</ele>
        <time>2024-05-13T13:56:26Z</time>
      </trkpt>
      <trkpt lat="42.86312992" lon="13.39991994">
        <ele>436.00000</ele>
        <time>2024-05-13T13:56:27Z</time>
      </trkpt>
      <trkpt lat="42.86320997" lon="13.39993997">
        <ele>438.00000</ele>
        <time>2024-05-13T13:56:29Z</time>
      </trkpt>
      <trkpt lat="42.86330997" lon="13.39996998">
        <ele>440.00000</ele>
        <time>2024-05-13T13:56:30Z</time>
      </trkpt>
      <trkpt lat="42.86338993" lon="13.39998993">
        <ele>443.00000</ele>
        <time>2024-05-13T13:56:32Z</time>
      </trkpt>
      <trkpt lat="42.86350996" lon="13.40002999">
        <ele>449.00000</ele>
        <time>2024-05-13T13:56:34Z</time>
      </trkpt>
      <trkpt lat="42.86370995" lon="13.40016997">
        <ele>457.00000</ele>
        <time>2024-05-13T13:56:37Z</time>
      </trkpt>
      <trkpt lat="42.86379997" lon="13.40026997">
        <ele>459.00000</ele>
        <time>2024-05-13T13:56:39Z</time>
      </trkpt>
      <trkpt lat="42.86386996" lon="13.40036996">
        <ele>460.00000</ele>
        <time>2024-05-13T13:56:41Z</time>
      </trkpt>
      <trkpt lat="42.86391992" lon="13.40051991">
        <ele>457.00000</ele>
        <time>2024-05-13T13:56:43Z</time>
      </trkpt>
      <trkpt lat="42.86394992" lon="13.40067992">
        <ele>454.00000</ele>
        <time>2024-05-13T13:56:44Z</time>
      </trkpt>
      <trkpt lat="42.86397993" lon="13.40109994">
        <ele>444.00000</ele>
        <time>2024-05-13T13:56:49Z</time>
      </trkpt>
      <trkpt lat="42.86397490" lon="13.40143572">
        <ele>439.00000</ele>
        <time>2024-05-13T13:56:53Z</time>
      </trkpt>
      <trkpt lat="42.86396996" lon="13.40176999">
        <ele>435.00000</ele>
        <time>2024-05-13T13:56:57Z</time>
      </trkpt>
      <trkpt lat="42.86397490" lon="13.40218590">
        <ele>431.00000</ele>
        <time>2024-05-13T13:57:02Z</time>
      </trkpt>
      <trkpt lat="42.86397993" lon="13.40259997">
        <ele>430.00000</ele>
        <time>2024-05-13T13:57:07Z</time>
      </trkpt>
      <trkpt lat="42.86398999" lon="13.40296994">
        <ele>429.00000</ele>
        <time>2024-05-13T13:57:11Z</time>
      </trkpt>
      <trkpt lat="42.86398999" lon="13.40324998">
        <ele>430.00000</ele>
        <time>2024-05-13T13:57:15Z</time>
      </trkpt>
      <trkpt lat="42.86398999" lon="13.40340999">
        <ele>430.00000</ele>
        <time>2024-05-13T13:57:17Z</time>
      </trkpt>
      <trkpt lat="42.86397993" lon="13.40350999">
        <ele>430.00000</ele>
        <time>2024-05-13T13:57:18Z</time>
      </trkpt>
      <trkpt lat="42.86397993" lon="13.40363999">
        <ele>430.00000</ele>
        <time>2024-05-13T13:57:19Z</time>
      </trkpt>
      <trkpt lat="42.86396996" lon="13.40375994">
        <ele>430.00000</ele>
        <time>2024-05-13T13:57:21Z</time>
      </trkpt>
      <trkpt lat="42.86396996" lon="13.40385993">
        <ele>430.00000</ele>
        <time>2024-05-13T13:57:22Z</time>
      </trkpt>
      <trkpt lat="42.86394992" lon="13.40406998">
        <ele>432.00000</ele>
        <time>2024-05-13T13:57:24Z</time>
      </trkpt>
      <trkpt lat="42.86392997" lon="13.40414995">
        <ele>432.00000</ele>
        <time>2024-05-13T13:57:25Z</time>
      </trkpt>
      <trkpt lat="42.86389997" lon="13.40424994">
        <ele>432.00000</ele>
        <time>2024-05-13T13:57:27Z</time>
      </trkpt>
      <trkpt lat="42.86386996" lon="13.40434994">
        <ele>433.00000</ele>
        <time>2024-05-13T13:57:28Z</time>
      </trkpt>
      <trkpt lat="42.86380995" lon="13.40447994">
        <ele>432.00000</ele>
        <time>2024-05-13T13:57:30Z</time>
      </trkpt>
      <trkpt lat="42.86369981" lon="13.40463501">
        <ele>428.00000</ele>
        <time>2024-05-13T13:57:32Z</time>
      </trkpt>
      <trkpt lat="42.86358992" lon="13.40478999">
        <ele>425.00000</ele>
        <time>2024-05-13T13:57:35Z</time>
      </trkpt>
      <trkpt lat="42.86341231" lon="13.40501253">
        <ele>424.00000</ele>
        <time>2024-05-13T13:57:39Z</time>
      </trkpt>
      <trkpt lat="42.86323478" lon="13.40523515">
        <ele>423.00000</ele>
        <time>2024-05-13T13:57:43Z</time>
      </trkpt>
      <trkpt lat="42.86305717" lon="13.40545778">
        <ele>423.00000</ele>
        <time>2024-05-13T13:57:46Z</time>
      </trkpt>
      <trkpt lat="42.86287997" lon="13.40567998">
        <ele>423.00000</ele>
        <time>2024-05-13T13:57:50Z</time>
      </trkpt>
      <trkpt lat="42.86267730" lon="13.40595013">
        <ele>423.00000</ele>
        <time>2024-05-13T13:57:55Z</time>
      </trkpt>
      <trkpt lat="42.86247471" lon="13.40622028">
        <ele>422.00000</ele>
        <time>2024-05-13T13:57:59Z</time>
      </trkpt>
      <trkpt lat="42.86227212" lon="13.40649043">
        <ele>421.00000</ele>
        <time>2024-05-13T13:58:04Z</time>
      </trkpt>
      <trkpt lat="42.86206995" lon="13.40675999">
        <ele>421.00000</ele>
        <time>2024-05-13T13:58:08Z</time>
      </trkpt>
      <trkpt lat="42.86197992" lon="13.40695998">
        <ele>421.00000</ele>
        <time>2024-05-13T13:58:11Z</time>
      </trkpt>
      <trkpt lat="42.86187993" lon="13.40718998">
        <ele>421.00000</ele>
        <time>2024-05-13T13:58:14Z</time>
      </trkpt>
      <trkpt lat="42.86178999" lon="13.40737991">
        <ele>420.00000</ele>
        <time>2024-05-13T13:58:17Z</time>
      </trkpt>
      <trkpt lat="42.86166485" lon="13.40752995">
        <ele>416.00000</ele>
        <time>2024-05-13T13:58:20Z</time>
      </trkpt>
      <trkpt lat="42.86153996" lon="13.40767999">
        <ele>417.00000</ele>
        <time>2024-05-13T13:58:22Z</time>
      </trkpt>
      <trkpt lat="42.86133997" lon="13.40791996">
        <ele>418.00000</ele>
        <time>2024-05-13T13:58:27Z</time>
      </trkpt>
      <trkpt lat="42.86128993" lon="13.40807997">
        <ele>419.00000</ele>
        <time>2024-05-13T13:58:29Z</time>
      </trkpt>
      <trkpt lat="42.86122991" lon="13.40824996">
        <ele>418.00000</ele>
        <time>2024-05-13T13:58:31Z</time>
      </trkpt>
      <trkpt lat="42.86120996" lon="13.40836999">
        <ele>417.00000</ele>
        <time>2024-05-13T13:58:32Z</time>
      </trkpt>
      <trkpt lat="42.86120996" lon="13.40851994">
        <ele>417.00000</ele>
        <time>2024-05-13T13:58:34Z</time>
      </trkpt>
      <trkpt lat="42.86120996" lon="13.40862999">
        <ele>417.00000</ele>
        <time>2024-05-13T13:58:35Z</time>
      </trkpt>
      <trkpt lat="42.86123997" lon="13.40891992">
        <ele>415.00000</ele>
        <time>2024-05-13T13:58:39Z</time>
      </trkpt>
      <trkpt lat="42.86126998" lon="13.40905998">
        <ele>415.00000</ele>
        <time>2024-05-13T13:58:41Z</time>
      </trkpt>
      <trkpt lat="42.86137509" lon="13.40938051">
        <ele>414.00000</ele>
        <time>2024-05-13T13:58:45Z</time>
      </trkpt>
      <trkpt lat="42.86147994" lon="13.40969994">
        <ele>412.00000</ele>
        <time>2024-05-13T13:58:49Z</time>
      </trkpt>
      <trkpt lat="42.86158011" lon="13.40998702">
        <ele>413.00000</ele>
        <time>2024-05-13T13:58:53Z</time>
      </trkpt>
      <trkpt lat="42.86168027" lon="13.41027419">
        <ele>412.00000</ele>
        <time>2024-05-13T13:58:56Z</time>
      </trkpt>
      <trkpt lat="42.86177993" lon="13.41055992">
        <ele>413.00000</ele>
        <time>2024-05-13T13:59:00Z</time>
      </trkpt>
      <trkpt lat="42.86193517" lon="13.41093049">
        <ele>415.00000</ele>
        <time>2024-05-13T13:59:05Z</time>
      </trkpt>
      <trkpt lat="42.86208998" lon="13.41129996">
        <ele>419.00000</ele>
        <time>2024-05-13T13:59:10Z</time>
      </trkpt>
      <trkpt lat="42.86215997" lon="13.41142997">
        <ele>420.00000</ele>
        <time>2024-05-13T13:59:12Z</time>
      </trkpt>
      <trkpt lat="42.86219995" lon="13.41151999">
        <ele>420.00000</ele>
        <time>2024-05-13T13:59:13Z</time>
      </trkpt>
      <trkpt lat="42.86222996" lon="13.41162996">
        <ele>419.00000</ele>
        <time>2024-05-13T13:59:15Z</time>
      </trkpt>
      <trkpt lat="42.86225996" lon="13.41175996">
        <ele>419.00000</ele>
        <time>2024-05-13T13:59:16Z</time>
      </trkpt>
      <trkpt lat="42.86226994" lon="13.41182995">
        <ele>419.00000</ele>
        <time>2024-05-13T13:59:17Z</time>
      </trkpt>
      <trkpt lat="42.86227991" lon="13.41213991">
        <ele>415.00000</ele>
        <time>2024-05-13T13:59:21Z</time>
      </trkpt>
      <trkpt lat="42.86227991" lon="13.41250997">
        <ele>411.00000</ele>
        <time>2024-05-13T13:59:25Z</time>
      </trkpt>
      <trkpt lat="42.86233004" lon="13.41284064">
        <ele>411.00000</ele>
        <time>2024-05-13T13:59:29Z</time>
      </trkpt>
      <trkpt lat="42.86237999" lon="13.41316997">
        <ele>411.00000</ele>
        <time>2024-05-13T13:59:33Z</time>
      </trkpt>
      <trkpt lat="42.86243506" lon="13.41346560">
        <ele>411.00000</ele>
        <time>2024-05-13T13:59:36Z</time>
      </trkpt>
      <trkpt lat="42.86248996" lon="13.41375997">
        <ele>411.00000</ele>
        <time>2024-05-13T13:59:40Z</time>
      </trkpt>
      <trkpt lat="42.86250497" lon="13.41408066">
        <ele>408.00000</ele>
        <time>2024-05-13T13:59:44Z</time>
      </trkpt>
      <trkpt lat="42.86251997" lon="13.41439993">
        <ele>404.00000</ele>
        <time>2024-05-13T13:59:48Z</time>
      </trkpt>
      <trkpt lat="42.86254000" lon="13.41468726">
        <ele>400.00000</ele>
        <time>2024-05-13T13:59:51Z</time>
      </trkpt>
      <trkpt lat="42.86256004" lon="13.41497459">
        <ele>398.00000</ele>
        <time>2024-05-13T13:59:54Z</time>
      </trkpt>
      <trkpt lat="42.86257999" lon="13.41525999">
        <ele>399.00000</ele>
        <time>2024-05-13T13:59:58Z</time>
      </trkpt>
      <trkpt lat="42.86260496" lon="13.41557063">
        <ele>398.00000</ele>
        <time>2024-05-13T14:00:01Z</time>
      </trkpt>
      <trkpt lat="42.86262994" lon="13.41587992">
        <ele>397.00000</ele>
        <time>2024-05-13T14:00:05Z</time>
      </trkpt>
      <trkpt lat="42.86267663" lon="13.41619055">
        <ele>399.00000</ele>
        <time>2024-05-13T14:00:09Z</time>
      </trkpt>
      <trkpt lat="42.86272340" lon="13.41650127">
        <ele>400.00000</ele>
        <time>2024-05-13T14:00:13Z</time>
      </trkpt>
      <trkpt lat="42.86276992" lon="13.41680997">
        <ele>399.00000</ele>
        <time>2024-05-13T14:00:16Z</time>
      </trkpt>
      <trkpt lat="42.86281669" lon="13.41713402">
        <ele>398.00000</ele>
        <time>2024-05-13T14:00:20Z</time>
      </trkpt>
      <trkpt lat="42.86286346" lon="13.41745806">
        <ele>397.00000</ele>
        <time>2024-05-13T14:00:24Z</time>
      </trkpt>
      <trkpt lat="42.86290998" lon="13.41777993">
        <ele>398.00000</ele>
        <time>2024-05-13T14:00:28Z</time>
      </trkpt>
      <trkpt lat="42.86294996" lon="13.41804999">
        <ele>398.00000</ele>
        <time>2024-05-13T14:00:31Z</time>
      </trkpt>
      <trkpt lat="42.86295994" lon="13.41821998">
        <ele>399.00000</ele>
        <time>2024-05-13T14:00:33Z</time>
      </trkpt>
      <trkpt lat="42.86293999" lon="13.41840991">
        <ele>400.00000</ele>
        <time>2024-05-13T14:00:35Z</time>
      </trkpt>
      <trkpt lat="42.86288995" lon="13.41862994">
        <ele>399.00000</ele>
        <time>2024-05-13T14:00:38Z</time>
      </trkpt>
      <trkpt lat="42.86285994" lon="13.41874997">
        <ele>400.00000</ele>
        <time>2024-05-13T14:00:40Z</time>
      </trkpt>
      <trkpt lat="42.86280998" lon="13.41903998">
        <ele>398.00000</ele>
        <time>2024-05-13T14:00:43Z</time>
      </trkpt>
      <trkpt lat="42.86277998" lon="13.41921994">
        <ele>396.00000</ele>
        <time>2024-05-13T14:00:45Z</time>
      </trkpt>
      <trkpt lat="42.86276992" lon="13.41946997">
        <ele>397.00000</ele>
        <time>2024-05-13T14:00:48Z</time>
      </trkpt>
      <trkpt lat="42.86279993" lon="13.41983743">
        <ele>399.00000</ele>
        <time>2024-05-13T14:00:53Z</time>
      </trkpt>
      <trkpt lat="42.86283002" lon="13.42020498">
        <ele>400.00000</ele>
        <time>2024-05-13T14:00:57Z</time>
      </trkpt>
      <trkpt lat="42.86285994" lon="13.42056993">
        <ele>400.00000</ele>
        <time>2024-05-13T14:01:01Z</time>
      </trkpt>
      <trkpt lat="42.86287997" lon="13.42086556">
        <ele>400.00000</ele>
        <time>2024-05-13T14:01:05Z</time>
      </trkpt>
      <trkpt lat="42.86289992" lon="13.42115993">
        <ele>397.00000</ele>
        <time>2024-05-13T14:01:08Z</time>
      </trkpt>
      <trkpt lat="42.86290495" lon="13.42138540">
        <ele>395.00000</ele>
        <time>2024-05-13T14:01:11Z</time>
      </trkpt>
      <trkpt lat="42.86290998" lon="13.42160996">
        <ele>393.00000</ele>
        <time>2024-05-13T14:01:14Z</time>
      </trkpt>
      <trkpt lat="42.86287997" lon="13.42198999">
        <ele>392.00000</ele>
        <time>2024-05-13T14:01:18Z</time>
      </trkpt>
      <trkpt lat="42.86286992" lon="13.42221999">
        <ele>393.00000</ele>
        <time>2024-05-13T14:01:21Z</time>
      </trkpt>
      <trkpt lat="42.86287494" lon="13.42249056">
        <ele>394.00000</ele>
        <time>2024-05-13T14:01:24Z</time>
      </trkpt>
      <trkpt lat="42.86287997" lon="13.42275995">
        <ele>394.00000</ele>
        <time>2024-05-13T14:01:27Z</time>
      </trkpt>
      <trkpt lat="42.86291501" lon="13.42316589">
        <ele>394.00000</ele>
        <time>2024-05-13T14:01:32Z</time>
      </trkpt>
      <trkpt lat="42.86294996" lon="13.42356998">
        <ele>392.00000</ele>
        <time>2024-05-13T14:01:37Z</time>
      </trkpt>
      <trkpt lat="42.86297326" lon="13.42386058">
        <ele>389.00000</ele>
        <time>2024-05-13T14:01:40Z</time>
      </trkpt>
      <trkpt lat="42.86299665" lon="13.42415126">
        <ele>386.00000</ele>
        <time>2024-05-13T14:01:44Z</time>
      </trkpt>
      <trkpt lat="42.86301995" lon="13.42443994">
        <ele>387.00000</ele>
        <time>2024-05-13T14:01:47Z</time>
      </trkpt>
      <trkpt lat="42.86301492" lon="13.42466541">
        <ele>388.00000</ele>
        <time>2024-05-13T14:01:50Z</time>
      </trkpt>
      <trkpt lat="42.86300998" lon="13.42488996">
        <ele>388.00000</ele>
        <time>2024-05-13T14:01:52Z</time>
      </trkpt>
      <trkpt lat="42.86298986" lon="13.42516053">
        <ele>388.00000</ele>
        <time>2024-05-13T14:01:55Z</time>
      </trkpt>
      <trkpt lat="42.86296991" lon="13.42542992">
        <ele>387.00000</ele>
        <time>2024-05-13T14:01:59Z</time>
      </trkpt>
      <trkpt lat="42.86294996" lon="13.42571994">
        <ele>386.00000</ele>
        <time>2024-05-13T14:02:02Z</time>
      </trkpt>
      <trkpt lat="42.86294996" lon="13.42605999">
        <ele>387.00000</ele>
        <time>2024-05-13T14:02:06Z</time>
      </trkpt>
      <trkpt lat="42.86298994" lon="13.42642997">
        <ele>389.00000</ele>
        <time>2024-05-13T14:02:10Z</time>
      </trkpt>
      <trkpt lat="42.86302993" lon="13.42683993">
        <ele>392.00000</ele>
        <time>2024-05-13T14:02:15Z</time>
      </trkpt>
      <trkpt lat="42.86307997" lon="13.42712994">
        <ele>394.00000</ele>
        <time>2024-05-13T14:02:19Z</time>
      </trkpt>
      <trkpt lat="42.86317996" lon="13.42749992">
        <ele>394.00000</ele>
        <time>2024-05-13T14:02:23Z</time>
      </trkpt>
      <trkpt lat="42.86325993" lon="13.42786998">
        <ele>392.00000</ele>
        <time>2024-05-13T14:02:28Z</time>
      </trkpt>
      <trkpt lat="42.86330997" lon="13.42812999">
        <ele>392.00000</ele>
        <time>2024-05-13T14:02:31Z</time>
      </trkpt>
      <trkpt lat="42.86335992" lon="13.42840994">
        <ele>389.00000</ele>
        <time>2024-05-13T14:02:35Z</time>
      </trkpt>
      <trkpt lat="42.86344994" lon="13.42871999">
        <ele>386.00000</ele>
        <time>2024-05-13T14:02:39Z</time>
      </trkpt>
      <trkpt lat="42.86356997" lon="13.42898997">
        <ele>386.00000</ele>
        <time>2024-05-13T14:02:42Z</time>
      </trkpt>
      <trkpt lat="42.86365999" lon="13.42913992">
        <ele>388.00000</ele>
        <time>2024-05-13T14:02:44Z</time>
      </trkpt>
      <trkpt lat="42.86377994" lon="13.42930999">
        <ele>389.00000</ele>
        <time>2024-05-13T14:02:47Z</time>
      </trkpt>
      <trkpt lat="42.86390994" lon="13.42949992">
        <ele>390.00000</ele>
        <time>2024-05-13T14:02:50Z</time>
      </trkpt>
      <trkpt lat="42.86396996" lon="13.42960998">
        <ele>390.00000</ele>
        <time>2024-05-13T14:02:52Z</time>
      </trkpt>
      <trkpt lat="42.86412008" lon="13.42988524">
        <ele>389.00000</ele>
        <time>2024-05-13T14:02:56Z</time>
      </trkpt>
      <trkpt lat="42.86426994" lon="13.43015992">
        <ele>386.00000</ele>
        <time>2024-05-13T14:03:00Z</time>
      </trkpt>
      <trkpt lat="42.86442996" lon="13.43044993">
        <ele>382.00000</ele>
        <time>2024-05-13T14:03:04Z</time>
      </trkpt>
      <trkpt lat="42.86456993" lon="13.43068999">
        <ele>381.00000</ele>
        <time>2024-05-13T14:03:08Z</time>
      </trkpt>
      <trkpt lat="42.86470999" lon="13.43098998">
        <ele>381.00000</ele>
        <time>2024-05-13T14:03:12Z</time>
      </trkpt>
      <trkpt lat="42.86470999" lon="13.43100992">
        <ele>381.00000</ele>
        <time>2024-05-13T14:03:12Z</time>
      </trkpt>
      <trkpt lat="42.86474998" lon="13.43110992">
        <ele>380.00000</ele>
        <time>2024-05-13T14:03:14Z</time>
      </trkpt>
      <trkpt lat="42.86477998" lon="13.43125996">
        <ele>380.00000</ele>
        <time>2024-05-13T14:03:15Z</time>
      </trkpt>
      <trkpt lat="42.86480999" lon="13.43141997">
        <ele>380.00000</ele>
        <time>2024-05-13T14:03:17Z</time>
      </trkpt>
      <trkpt lat="42.86483991" lon="13.43164997">
        <ele>379.00000</ele>
        <time>2024-05-13T14:03:20Z</time>
      </trkpt>
      <trkpt lat="42.86487495" lon="13.43190050">
        <ele>378.00000</ele>
        <time>2024-05-13T14:03:23Z</time>
      </trkpt>
      <trkpt lat="42.86490999" lon="13.43214995">
        <ele>376.00000</ele>
        <time>2024-05-13T14:03:26Z</time>
      </trkpt>
      <trkpt lat="42.86496506" lon="13.43242554">
        <ele>372.00000</ele>
        <time>2024-05-13T14:03:29Z</time>
      </trkpt>
      <trkpt lat="42.86501996" lon="13.43269997">
        <ele>371.00000</ele>
        <time>2024-05-13T14:03:33Z</time>
      </trkpt>
      <trkpt lat="42.86516010" lon="13.43302032">
        <ele>373.00000</ele>
        <time>2024-05-13T14:03:37Z</time>
      </trkpt>
      <trkpt lat="42.86529991" lon="13.43333993">
        <ele>373.00000</ele>
        <time>2024-05-13T14:03:42Z</time>
      </trkpt>
      <trkpt lat="42.86541340" lon="13.43364704">
        <ele>374.00000</ele>
        <time>2024-05-13T14:03:46Z</time>
      </trkpt>
      <trkpt lat="42.86552698" lon="13.43395424">
        <ele>376.00000</ele>
        <time>2024-05-13T14:03:50Z</time>
      </trkpt>
      <trkpt lat="42.86563997" lon="13.43425992">
        <ele>376.00000</ele>
        <time>2024-05-13T14:03:54Z</time>
      </trkpt>
      <trkpt lat="42.86566997" lon="13.43433997">
        <ele>376.00000</ele>
        <time>2024-05-13T14:03:55Z</time>
      </trkpt>
      <trkpt lat="42.86581682" lon="13.43467709">
        <ele>376.00000</ele>
        <time>2024-05-13T14:03:59Z</time>
      </trkpt>
      <trkpt lat="42.86596368" lon="13.43501421">
        <ele>373.00000</ele>
        <time>2024-05-13T14:04:04Z</time>
      </trkpt>
      <trkpt lat="42.86610994" lon="13.43534999">
        <ele>371.00000</ele>
        <time>2024-05-13T14:04:09Z</time>
      </trkpt>
      <trkpt lat="42.86626509" lon="13.43563028">
        <ele>372.00000</ele>
        <time>2024-05-13T14:04:13Z</time>
      </trkpt>
      <trkpt lat="42.86642024" lon="13.43591057">
        <ele>376.00000</ele>
        <time>2024-05-13T14:04:17Z</time>
      </trkpt>
      <trkpt lat="42.86657539" lon="13.43619086">
        <ele>374.00000</ele>
        <time>2024-05-13T14:04:21Z</time>
      </trkpt>
      <trkpt lat="42.86672995" lon="13.43646998">
        <ele>371.00000</ele>
        <time>2024-05-13T14:04:25Z</time>
      </trkpt>
      <trkpt lat="42.86685501" lon="13.43662999">
        <ele>370.00000</ele>
        <time>2024-05-13T14:04:28Z</time>
      </trkpt>
      <trkpt lat="42.86697998" lon="13.43678992">
        <ele>367.00000</ele>
        <time>2024-05-13T14:04:31Z</time>
      </trkpt>
      <trkpt lat="42.86714997" lon="13.43698999">
        <ele>363.00000</ele>
        <time>2024-05-13T14:04:34Z</time>
      </trkpt>
      <trkpt lat="42.86731492" lon="13.43715998">
        <ele>363.00000</ele>
        <time>2024-05-13T14:04:37Z</time>
      </trkpt>
      <trkpt lat="42.86747996" lon="13.43732996">
        <ele>365.00000</ele>
        <time>2024-05-13T14:04:41Z</time>
      </trkpt>
      <trkpt lat="42.86770996" lon="13.43760992">
        <ele>365.00000</ele>
        <time>2024-05-13T14:04:46Z</time>
      </trkpt>
      <trkpt lat="42.86786008" lon="13.43786012">
        <ele>362.00000</ele>
        <time>2024-05-13T14:04:50Z</time>
      </trkpt>
      <trkpt lat="42.86800995" lon="13.43810998">
        <ele>359.00000</ele>
        <time>2024-05-13T14:04:53Z</time>
      </trkpt>
      <trkpt lat="42.86806996" lon="13.43832992">
        <ele>357.00000</ele>
        <time>2024-05-13T14:04:56Z</time>
      </trkpt>
      <trkpt lat="42.86811992" lon="13.43847996">
        <ele>357.00000</ele>
        <time>2024-05-13T14:04:58Z</time>
      </trkpt>
      <trkpt lat="42.86813995" lon="13.43871549">
        <ele>357.00000</ele>
        <time>2024-05-13T14:05:01Z</time>
      </trkpt>
      <trkpt lat="42.86815999" lon="13.43894993">
        <ele>357.00000</ele>
        <time>2024-05-13T14:05:04Z</time>
      </trkpt>
      <trkpt lat="42.86816996" lon="13.43896997">
        <ele>357.00000</ele>
        <time>2024-05-13T14:05:04Z</time>
      </trkpt>
      <trkpt lat="42.86820994" lon="13.43925998">
        <ele>358.00000</ele>
        <time>2024-05-13T14:05:07Z</time>
      </trkpt>
      <trkpt lat="42.86825998" lon="13.43960070">
        <ele>356.00000</ele>
        <time>2024-05-13T14:05:11Z</time>
      </trkpt>
      <trkpt lat="42.86830994" lon="13.43993992">
        <ele>355.00000</ele>
        <time>2024-05-13T14:05:15Z</time>
      </trkpt>
      <trkpt lat="42.86839677" lon="13.44026723">
        <ele>357.00000</ele>
        <time>2024-05-13T14:05:20Z</time>
      </trkpt>
      <trkpt lat="42.86848361" lon="13.44059455">
        <ele>359.00000</ele>
        <time>2024-05-13T14:05:24Z</time>
      </trkpt>
      <trkpt lat="42.86856994" lon="13.44091993">
        <ele>363.00000</ele>
        <time>2024-05-13T14:05:28Z</time>
      </trkpt>
      <trkpt lat="42.86865997" lon="13.44131992">
        <ele>363.00000</ele>
        <time>2024-05-13T14:05:33Z</time>
      </trkpt>
      <trkpt lat="42.86873004" lon="13.44162384">
        <ele>363.00000</ele>
        <time>2024-05-13T14:05:36Z</time>
      </trkpt>
      <trkpt lat="42.86880020" lon="13.44192777">
        <ele>363.00000</ele>
        <time>2024-05-13T14:05:40Z</time>
      </trkpt>
      <trkpt lat="42.86886993" lon="13.44222994">
        <ele>361.00000</ele>
        <time>2024-05-13T14:05:44Z</time>
      </trkpt>
      <trkpt lat="42.86893506" lon="13.44250051">
        <ele>361.00000</ele>
        <time>2024-05-13T14:05:47Z</time>
      </trkpt>
      <trkpt lat="42.86899994" lon="13.44276999">
        <ele>361.00000</ele>
        <time>2024-05-13T14:05:51Z</time>
      </trkpt>
      <trkpt lat="42.86904998" lon="13.44311993">
        <ele>359.00000</ele>
        <time>2024-05-13T14:05:55Z</time>
      </trkpt>
      <trkpt lat="42.86904486" lon="13.44335043">
        <ele>358.00000</ele>
        <time>2024-05-13T14:05:57Z</time>
      </trkpt>
      <trkpt lat="42.86903992" lon="13.44357993">
        <ele>358.00000</ele>
        <time>2024-05-13T14:06:00Z</time>
      </trkpt>
      <trkpt lat="42.86901997" lon="13.44373994">
        <ele>358.00000</ele>
        <time>2024-05-13T14:06:02Z</time>
      </trkpt>
      <trkpt lat="42.86898996" lon="13.44392996">
        <ele>358.00000</ele>
        <time>2024-05-13T14:06:04Z</time>
      </trkpt>
      <trkpt lat="42.86892995" lon="13.44411998">
        <ele>355.00000</ele>
        <time>2024-05-13T14:06:07Z</time>
      </trkpt>
      <trkpt lat="42.86888477" lon="13.44433539">
        <ele>353.00000</ele>
        <time>2024-05-13T14:06:09Z</time>
      </trkpt>
      <trkpt lat="42.86883993" lon="13.44454997">
        <ele>351.00000</ele>
        <time>2024-05-13T14:06:12Z</time>
      </trkpt>
      <trkpt lat="42.86872970" lon="13.44489807">
        <ele>350.00000</ele>
        <time>2024-05-13T14:06:17Z</time>
      </trkpt>
      <trkpt lat="42.86861948" lon="13.44524617">
        <ele>350.00000</ele>
        <time>2024-05-13T14:06:21Z</time>
      </trkpt>
      <trkpt lat="42.86850934" lon="13.44559435">
        <ele>352.00000</ele>
        <time>2024-05-13T14:06:25Z</time>
      </trkpt>
      <trkpt lat="42.86839996" lon="13.44593994">
        <ele>355.00000</ele>
        <time>2024-05-13T14:06:30Z</time>
      </trkpt>
      <trkpt lat="42.86833995" lon="13.44622995">
        <ele>356.00000</ele>
        <time>2024-05-13T14:06:33Z</time>
      </trkpt>
      <trkpt lat="42.86830994" lon="13.44640991">
        <ele>356.00000</ele>
        <time>2024-05-13T14:06:36Z</time>
      </trkpt>
      <trkpt lat="42.86826996" lon="13.44668995">
        <ele>356.00000</ele>
        <time>2024-05-13T14:06:39Z</time>
      </trkpt>
      <trkpt lat="42.86827993" lon="13.44700997">
        <ele>356.00000</ele>
        <time>2024-05-13T14:06:43Z</time>
      </trkpt>
      <trkpt lat="42.86831991" lon="13.44741993">
        <ele>360.00000</ele>
        <time>2024-05-13T14:06:48Z</time>
      </trkpt>
      <trkpt lat="42.86839007" lon="13.44783081">
        <ele>360.00000</ele>
        <time>2024-05-13T14:06:53Z</time>
      </trkpt>
      <trkpt lat="42.86845997" lon="13.44823993">
        <ele>354.00000</ele>
        <time>2024-05-13T14:06:57Z</time>
      </trkpt>
      <trkpt lat="42.86846995" lon="13.44831998">
        <ele>352.00000</ele>
        <time>2024-05-13T14:06:58Z</time>
      </trkpt>
      <trkpt lat="42.86849996" lon="13.44840992">
        <ele>352.00000</ele>
        <time>2024-05-13T14:07:00Z</time>
      </trkpt>
      <trkpt lat="42.86854991" lon="13.44848996">
        <ele>352.00000</ele>
        <time>2024-05-13T14:07:01Z</time>
      </trkpt>
      <trkpt lat="42.86859995" lon="13.44853992">
        <ele>353.00000</ele>
        <time>2024-05-13T14:07:02Z</time>
      </trkpt>
      <trkpt lat="42.86866994" lon="13.44857999">
        <ele>353.00000</ele>
        <time>2024-05-13T14:07:03Z</time>
      </trkpt>
      <trkpt lat="42.86872996" lon="13.44859994">
        <ele>354.00000</ele>
        <time>2024-05-13T14:07:04Z</time>
      </trkpt>
      <trkpt lat="42.86879994" lon="13.44860999">
        <ele>355.00000</ele>
        <time>2024-05-13T14:07:05Z</time>
      </trkpt>
      <trkpt lat="42.86882995" lon="13.44861997">
        <ele>355.00000</ele>
        <time>2024-05-13T14:07:06Z</time>
      </trkpt>
      <trkpt lat="42.86890991" lon="13.44861997">
        <ele>356.00000</ele>
        <time>2024-05-13T14:07:07Z</time>
      </trkpt>
      <trkpt lat="42.86904000" lon="13.44885013">
        <ele>356.00000</ele>
        <time>2024-05-13T14:07:10Z</time>
      </trkpt>
      <trkpt lat="42.86916992" lon="13.44907997">
        <ele>354.00000</ele>
        <time>2024-05-13T14:07:14Z</time>
      </trkpt>
      <trkpt lat="42.86927998" lon="13.44928516">
        <ele>353.00000</ele>
        <time>2024-05-13T14:07:17Z</time>
      </trkpt>
      <trkpt lat="42.86938995" lon="13.44948993">
        <ele>350.00000</ele>
        <time>2024-05-13T14:07:20Z</time>
      </trkpt>
      <trkpt lat="42.86950503" lon="13.44970509">
        <ele>348.00000</ele>
        <time>2024-05-13T14:07:23Z</time>
      </trkpt>
      <trkpt lat="42.86961995" lon="13.44991992">
        <ele>348.00000</ele>
        <time>2024-05-13T14:07:26Z</time>
      </trkpt>
      <trkpt lat="42.86978993" lon="13.45021999">
        <ele>346.00000</ele>
        <time>2024-05-13T14:07:30Z</time>
      </trkpt>
      <trkpt lat="42.86985992" lon="13.45034999">
        <ele>345.00000</ele>
        <time>2024-05-13T14:07:32Z</time>
      </trkpt>
      <trkpt lat="42.86990996" lon="13.45045996">
        <ele>344.00000</ele>
        <time>2024-05-13T14:07:34Z</time>
      </trkpt>
      <trkpt lat="42.86996997" lon="13.45063992">
        <ele>342.00000</ele>
        <time>2024-05-13T14:07:36Z</time>
      </trkpt>
      <trkpt lat="42.87003996" lon="13.45084997">
        <ele>340.00000</ele>
        <time>2024-05-13T14:07:39Z</time>
      </trkpt>
      <trkpt lat="42.87009998" lon="13.45104997">
        <ele>340.00000</ele>
        <time>2024-05-13T14:07:41Z</time>
      </trkpt>
      <trkpt lat="42.87014993" lon="13.45120998">
        <ele>340.00000</ele>
        <time>2024-05-13T14:07:43Z</time>
      </trkpt>
      <trkpt lat="42.87026996" lon="13.45159999">
        <ele>337.00000</ele>
        <time>2024-05-13T14:07:48Z</time>
      </trkpt>
      <trkpt lat="42.87031992" lon="13.45173996">
        <ele>336.00000</ele>
        <time>2024-05-13T14:07:50Z</time>
      </trkpt>
      <trkpt lat="42.87037993" lon="13.45188992">
        <ele>336.00000</ele>
        <time>2024-05-13T14:07:52Z</time>
      </trkpt>
      <trkpt lat="42.87041991" lon="13.45196996">
        <ele>336.00000</ele>
        <time>2024-05-13T14:07:53Z</time>
      </trkpt>
      <trkpt lat="42.87047993" lon="13.45210994">
        <ele>334.00000</ele>
        <time>2024-05-13T14:07:55Z</time>
      </trkpt>
      <trkpt lat="42.87050994" lon="13.45214992">
        <ele>334.00000</ele>
        <time>2024-05-13T14:07:56Z</time>
      </trkpt>
      <trkpt lat="42.87053994" lon="13.45217993">
        <ele>335.00000</ele>
        <time>2024-05-13T14:07:57Z</time>
      </trkpt>
      <trkpt lat="42.87056995" lon="13.45219996">
        <ele>335.00000</ele>
        <time>2024-05-13T14:07:57Z</time>
      </trkpt>
      <trkpt lat="42.87059996" lon="13.45222997">
        <ele>335.00000</ele>
        <time>2024-05-13T14:07:58Z</time>
      </trkpt>
      <trkpt lat="42.87066995" lon="13.45224992">
        <ele>336.00000</ele>
        <time>2024-05-13T14:07:59Z</time>
      </trkpt>
      <trkpt lat="42.87084999" lon="13.45225998">
        <ele>338.00000</ele>
        <time>2024-05-13T14:08:02Z</time>
      </trkpt>
      <trkpt lat="42.87094999" lon="13.45226995">
        <ele>340.00000</ele>
        <time>2024-05-13T14:08:03Z</time>
      </trkpt>
      <trkpt lat="42.87102995" lon="13.45228998">
        <ele>341.00000</ele>
        <time>2024-05-13T14:08:05Z</time>
      </trkpt>
      <trkpt lat="42.87108996" lon="13.45232997">
        <ele>342.00000</ele>
        <time>2024-05-13T14:08:06Z</time>
      </trkpt>
      <trkpt lat="42.87114998" lon="13.45236995">
        <ele>343.00000</ele>
        <time>2024-05-13T14:08:07Z</time>
      </trkpt>
      <trkpt lat="42.87118996" lon="13.45240993">
        <ele>343.00000</ele>
        <time>2024-05-13T14:08:08Z</time>
      </trkpt>
      <trkpt lat="42.87121997" lon="13.45244999">
        <ele>343.00000</ele>
        <time>2024-05-13T14:08:08Z</time>
      </trkpt>
      <trkpt lat="42.87122994" lon="13.45247992">
        <ele>343.00000</ele>
        <time>2024-05-13T14:08:09Z</time>
      </trkpt>
      <trkpt lat="42.87123992" lon="13.45250993">
        <ele>342.00000</ele>
        <time>2024-05-13T14:08:09Z</time>
      </trkpt>
      <trkpt lat="42.87125995" lon="13.45258997">
        <ele>342.00000</ele>
        <time>2024-05-13T14:08:10Z</time>
      </trkpt>
      <trkpt lat="42.87124997" lon="13.45263993">
        <ele>340.00000</ele>
        <time>2024-05-13T14:08:11Z</time>
      </trkpt>
      <trkpt lat="42.87123992" lon="13.45269994">
        <ele>339.00000</ele>
        <time>2024-05-13T14:08:11Z</time>
      </trkpt>
      <trkpt lat="42.87122994" lon="13.45272995">
        <ele>338.00000</ele>
        <time>2024-05-13T14:08:12Z</time>
      </trkpt>
      <trkpt lat="42.87120999" lon="13.45276993">
        <ele>336.00000</ele>
        <time>2024-05-13T14:08:12Z</time>
      </trkpt>
      <trkpt lat="42.87118996" lon="13.45278996">
        <ele>335.00000</ele>
        <time>2024-05-13T14:08:13Z</time>
      </trkpt>
      <trkpt lat="42.87116993" lon="13.45280991">
        <ele>334.00000</ele>
        <time>2024-05-13T14:08:13Z</time>
      </trkpt>
      <trkpt lat="42.87109994" lon="13.45286993">
        <ele>330.00000</ele>
        <time>2024-05-13T14:08:14Z</time>
      </trkpt>
      <trkpt lat="42.87085996" lon="13.45306992">
        <ele>322.00000</ele>
        <time>2024-05-13T14:08:19Z</time>
      </trkpt>
      <trkpt lat="42.87069995" lon="13.45321996">
        <ele>322.00000</ele>
        <time>2024-05-13T14:08:22Z</time>
      </trkpt>
      <trkpt lat="42.87048999" lon="13.45344996">
        <ele>323.00000</ele>
        <time>2024-05-13T14:08:26Z</time>
      </trkpt>
      <trkpt lat="42.87039997" lon="13.45352992">
        <ele>326.00000</ele>
        <time>2024-05-13T14:08:28Z</time>
      </trkpt>
      <trkpt lat="42.87033995" lon="13.45358993">
        <ele>327.00000</ele>
        <time>2024-05-13T14:08:29Z</time>
      </trkpt>
      <trkpt lat="42.87032998" lon="13.45361994">
        <ele>328.00000</ele>
        <time>2024-05-13T14:08:30Z</time>
      </trkpt>
      <trkpt lat="42.87030994" lon="13.45363997">
        <ele>328.00000</ele>
        <time>2024-05-13T14:08:30Z</time>
      </trkpt>
      <trkpt lat="42.87029997" lon="13.45368993">
        <ele>329.00000</ele>
        <time>2024-05-13T14:08:31Z</time>
      </trkpt>
      <trkpt lat="42.87029997" lon="13.45374994">
        <ele>329.00000</ele>
        <time>2024-05-13T14:08:31Z</time>
      </trkpt>
      <trkpt lat="42.87029997" lon="13.45379998">
        <ele>330.00000</ele>
        <time>2024-05-13T14:08:32Z</time>
      </trkpt>
      <trkpt lat="42.87030994" lon="13.45383997">
        <ele>330.00000</ele>
        <time>2024-05-13T14:08:32Z</time>
      </trkpt>
      <trkpt lat="42.87031992" lon="13.45387995">
        <ele>330.00000</ele>
        <time>2024-05-13T14:08:33Z</time>
      </trkpt>
      <trkpt lat="42.87032998" lon="13.45391993">
        <ele>330.00000</ele>
        <time>2024-05-13T14:08:33Z</time>
      </trkpt>
      <trkpt lat="42.87034993" lon="13.45395999">
        <ele>330.00000</ele>
        <time>2024-05-13T14:08:34Z</time>
      </trkpt>
      <trkpt lat="42.87047993" lon="13.45411003">
        <ele>329.00000</ele>
        <time>2024-05-13T14:08:37Z</time>
      </trkpt>
      <trkpt lat="42.87060993" lon="13.45425998">
        <ele>329.00000</ele>
        <time>2024-05-13T14:08:39Z</time>
      </trkpt>
      <trkpt lat="42.87079995" lon="13.45445998">
        <ele>329.00000</ele>
        <time>2024-05-13T14:08:43Z</time>
      </trkpt>
      <trkpt lat="42.87080992" lon="13.45445998">
        <ele>329.00000</ele>
        <time>2024-05-13T14:08:43Z</time>
      </trkpt>
      <trkpt lat="42.87087991" lon="13.45456995">
        <ele>329.00000</ele>
        <time>2024-05-13T14:08:45Z</time>
      </trkpt>
      <trkpt lat="42.87092995" lon="13.45464999">
        <ele>329.00000</ele>
        <time>2024-05-13T14:08:46Z</time>
      </trkpt>
      <trkpt lat="42.87097999" lon="13.45477991">
        <ele>329.00000</ele>
        <time>2024-05-13T14:08:48Z</time>
      </trkpt>
      <trkpt lat="42.87099994" lon="13.45486993">
        <ele>330.00000</ele>
        <time>2024-05-13T14:08:49Z</time>
      </trkpt>
      <trkpt lat="42.87100992" lon="13.45502994">
        <ele>330.00000</ele>
        <time>2024-05-13T14:08:51Z</time>
      </trkpt>
      <trkpt lat="42.87100992" lon="13.45512994">
        <ele>331.00000</ele>
        <time>2024-05-13T14:08:52Z</time>
      </trkpt>
      <trkpt lat="42.87098997" lon="13.45538995">
        <ele>332.00000</ele>
        <time>2024-05-13T14:08:55Z</time>
      </trkpt>
      <trkpt lat="42.87095485" lon="13.45569061">
        <ele>331.00000</ele>
        <time>2024-05-13T14:08:59Z</time>
      </trkpt>
      <trkpt lat="42.87091998" lon="13.45598992">
        <ele>330.00000</ele>
        <time>2024-05-13T14:09:03Z</time>
      </trkpt>
      <trkpt lat="42.87088997" lon="13.45625999">
        <ele>328.00000</ele>
        <time>2024-05-13T14:09:06Z</time>
      </trkpt>
      <trkpt lat="42.87085988" lon="13.45649049">
        <ele>325.00000</ele>
        <time>2024-05-13T14:09:08Z</time>
      </trkpt>
      <trkpt lat="42.87082996" lon="13.45671999">
        <ele>325.00000</ele>
        <time>2024-05-13T14:09:11Z</time>
      </trkpt>
      <trkpt lat="42.87080992" lon="13.45703992">
        <ele>325.00000</ele>
        <time>2024-05-13T14:09:15Z</time>
      </trkpt>
      <trkpt lat="42.87080992" lon="13.45740999">
        <ele>326.00000</ele>
        <time>2024-05-13T14:09:19Z</time>
      </trkpt>
      <trkpt lat="42.87081990" lon="13.45769564">
        <ele>324.00000</ele>
        <time>2024-05-13T14:09:23Z</time>
      </trkpt>
      <trkpt lat="42.87082996" lon="13.45797996">
        <ele>324.00000</ele>
        <time>2024-05-13T14:09:26Z</time>
      </trkpt>
      <trkpt lat="42.87083490" lon="13.45820543">
        <ele>324.00000</ele>
        <time>2024-05-13T14:09:29Z</time>
      </trkpt>
      <trkpt lat="42.87083993" lon="13.45842998">
        <ele>324.00000</ele>
        <time>2024-05-13T14:09:31Z</time>
      </trkpt>
      <trkpt lat="42.87082987" lon="13.45864548">
        <ele>323.00000</ele>
        <time>2024-05-13T14:09:34Z</time>
      </trkpt>
      <trkpt lat="42.87081998" lon="13.45885997">
        <ele>319.00000</ele>
        <time>2024-05-13T14:09:36Z</time>
      </trkpt>
      <trkpt lat="42.87079995" lon="13.45897992">
        <ele>319.00000</ele>
        <time>2024-05-13T14:09:38Z</time>
      </trkpt>
      <trkpt lat="42.87077992" lon="13.45910992">
        <ele>318.00000</ele>
        <time>2024-05-13T14:09:39Z</time>
      </trkpt>
      <trkpt lat="42.87068998" lon="13.45944997">
        <ele>319.00000</ele>
        <time>2024-05-13T14:09:44Z</time>
      </trkpt>
      <trkpt lat="42.87059971" lon="13.45975046">
        <ele>319.00000</ele>
        <time>2024-05-13T14:09:48Z</time>
      </trkpt>
      <trkpt lat="42.87050952" lon="13.46005104">
        <ele>319.00000</ele>
        <time>2024-05-13T14:09:51Z</time>
      </trkpt>
      <trkpt lat="42.87041991" lon="13.46034994">
        <ele>319.00000</ele>
        <time>2024-05-13T14:09:55Z</time>
      </trkpt>
      <trkpt lat="42.87033643" lon="13.46063710">
        <ele>319.00000</ele>
        <time>2024-05-13T14:09:59Z</time>
      </trkpt>
      <trkpt lat="42.87025295" lon="13.46092435">
        <ele>318.00000</ele>
        <time>2024-05-13T14:10:02Z</time>
      </trkpt>
      <trkpt lat="42.87016997" lon="13.46120992">
        <ele>318.00000</ele>
        <time>2024-05-13T14:10:06Z</time>
      </trkpt>
      <trkpt lat="42.87015999" lon="13.46125996">
        <ele>318.00000</ele>
        <time>2024-05-13T14:10:07Z</time>
      </trkpt>
      <trkpt lat="42.87004977" lon="13.46159549">
        <ele>318.00000</ele>
        <time>2024-05-13T14:10:11Z</time>
      </trkpt>
      <trkpt lat="42.86993997" lon="13.46192993">
        <ele>317.00000</ele>
        <time>2024-05-13T14:10:15Z</time>
      </trkpt>
      <trkpt lat="42.86982974" lon="13.46230057">
        <ele>315.00000</ele>
        <time>2024-05-13T14:10:20Z</time>
      </trkpt>
      <trkpt lat="42.86971952" lon="13.46267131">
        <ele>313.00000</ele>
        <time>2024-05-13T14:10:25Z</time>
      </trkpt>
      <trkpt lat="42.86960997" lon="13.46303994">
        <ele>312.00000</ele>
        <time>2024-05-13T14:10:29Z</time>
      </trkpt>
      <trkpt lat="42.86959991" lon="13.46306995">
        <ele>312.00000</ele>
        <time>2024-05-13T14:10:30Z</time>
      </trkpt>
      <trkpt lat="42.86948994" lon="13.46343993">
        <ele>310.00000</ele>
        <time>2024-05-13T14:10:34Z</time>
      </trkpt>
      <trkpt lat="42.86934996" lon="13.46375995">
        <ele>307.00000</ele>
        <time>2024-05-13T14:10:39Z</time>
      </trkpt>
      <trkpt lat="42.86923480" lon="13.46394008">
        <ele>307.00000</ele>
        <time>2024-05-13T14:10:42Z</time>
      </trkpt>
      <trkpt lat="42.86911997" lon="13.46411995">
        <ele>308.00000</ele>
        <time>2024-05-13T14:10:44Z</time>
      </trkpt>
      <trkpt lat="42.86898485" lon="13.46429505">
        <ele>310.00000</ele>
        <time>2024-05-13T14:10:47Z</time>
      </trkpt>
      <trkpt lat="42.86884998" lon="13.46446998">
        <ele>311.00000</ele>
        <time>2024-05-13T14:10:50Z</time>
      </trkpt>
      <trkpt lat="42.86875996" lon="13.46458992">
        <ele>312.00000</ele>
        <time>2024-05-13T14:10:52Z</time>
      </trkpt>
      <trkpt lat="42.86862988" lon="13.46475999">
        <ele>312.00000</ele>
        <time>2024-05-13T14:10:55Z</time>
      </trkpt>
      <trkpt lat="42.86849996" lon="13.46492998">
        <ele>313.00000</ele>
        <time>2024-05-13T14:10:58Z</time>
      </trkpt>
      <trkpt lat="42.86832486" lon="13.46515000">
        <ele>314.00000</ele>
        <time>2024-05-13T14:11:02Z</time>
      </trkpt>
      <trkpt lat="42.86814993" lon="13.46536994">
        <ele>311.00000</ele>
        <time>2024-05-13T14:11:06Z</time>
      </trkpt>
      <trkpt lat="42.86796477" lon="13.46561000">
        <ele>308.00000</ele>
        <time>2024-05-13T14:11:10Z</time>
      </trkpt>
      <trkpt lat="42.86777970" lon="13.46585014">
        <ele>307.00000</ele>
        <time>2024-05-13T14:11:14Z</time>
      </trkpt>
      <trkpt lat="42.86759463" lon="13.46609028">
        <ele>307.00000</ele>
        <time>2024-05-13T14:11:18Z</time>
      </trkpt>
      <trkpt lat="42.86740997" lon="13.46632992">
        <ele>307.00000</ele>
        <time>2024-05-13T14:11:22Z</time>
      </trkpt>
      <trkpt lat="42.86723488" lon="13.46655498">
        <ele>307.00000</ele>
        <time>2024-05-13T14:11:26Z</time>
      </trkpt>
      <trkpt lat="42.86705978" lon="13.46678012">
        <ele>309.00000</ele>
        <time>2024-05-13T14:11:30Z</time>
      </trkpt>
      <trkpt lat="42.86688468" lon="13.46700525">
        <ele>310.00000</ele>
        <time>2024-05-13T14:11:34Z</time>
      </trkpt>
      <trkpt lat="42.86670992" lon="13.46722997">
        <ele>311.00000</ele>
        <time>2024-05-13T14:11:38Z</time>
      </trkpt>
      <trkpt lat="42.86648998" lon="13.46750993">
        <ele>309.00000</ele>
        <time>2024-05-13T14:11:42Z</time>
      </trkpt>
      <trkpt lat="42.86632988" lon="13.46771998">
        <ele>310.00000</ele>
        <time>2024-05-13T14:11:46Z</time>
      </trkpt>
      <trkpt lat="42.86616995" lon="13.46792994">
        <ele>314.00000</ele>
        <time>2024-05-13T14:11:49Z</time>
      </trkpt>
      <trkpt lat="42.86601975" lon="13.46821518">
        <ele>316.00000</ele>
        <time>2024-05-13T14:11:54Z</time>
      </trkpt>
      <trkpt lat="42.86586997" lon="13.46849991">
        <ele>315.00000</ele>
        <time>2024-05-13T14:11:58Z</time>
      </trkpt>
      <trkpt lat="42.86572228" lon="13.46878523">
        <ele>317.00000</ele>
        <time>2024-05-13T14:12:02Z</time>
      </trkpt>
      <trkpt lat="42.86557459" lon="13.46907055">
        <ele>321.00000</ele>
        <time>2024-05-13T14:12:06Z</time>
      </trkpt>
      <trkpt lat="42.86542690" lon="13.46935587">
        <ele>321.00000</ele>
        <time>2024-05-13T14:12:10Z</time>
      </trkpt>
      <trkpt lat="42.86527996" lon="13.46963994">
        <ele>323.00000</ele>
        <time>2024-05-13T14:12:14Z</time>
      </trkpt>
      <trkpt lat="42.86511970" lon="13.46995694">
        <ele>319.00000</ele>
        <time>2024-05-13T14:12:19Z</time>
      </trkpt>
      <trkpt lat="42.86495952" lon="13.47027403">
        <ele>315.00000</ele>
        <time>2024-05-13T14:12:23Z</time>
      </trkpt>
      <trkpt lat="42.86479993" lon="13.47058994">
        <ele>313.00000</ele>
        <time>2024-05-13T14:12:28Z</time>
      </trkpt>
      <trkpt lat="42.86471997" lon="13.47081994">
        <ele>314.00000</ele>
        <time>2024-05-13T14:12:31Z</time>
      </trkpt>
      <trkpt lat="42.86468996" lon="13.47093997">
        <ele>313.00000</ele>
        <time>2024-05-13T14:12:32Z</time>
      </trkpt>
      <trkpt lat="42.86467999" lon="13.47100996">
        <ele>313.00000</ele>
        <time>2024-05-13T14:12:33Z</time>
      </trkpt>
      <trkpt lat="42.86469994" lon="13.47128991">
        <ele>310.00000</ele>
        <time>2024-05-13T14:12:36Z</time>
      </trkpt>
      <trkpt lat="42.86469994" lon="13.47157054">
        <ele>309.00000</ele>
        <time>2024-05-13T14:12:40Z</time>
      </trkpt>
      <trkpt lat="42.86469994" lon="13.47184999">
        <ele>307.00000</ele>
        <time>2024-05-13T14:12:43Z</time>
      </trkpt>
      <trkpt lat="42.86463992" lon="13.47212995">
        <ele>307.00000</ele>
        <time>2024-05-13T14:12:46Z</time>
      </trkpt>
      <trkpt lat="42.86457999" lon="13.47241996">
        <ele>305.00000</ele>
        <time>2024-05-13T14:12:50Z</time>
      </trkpt>
      <trkpt lat="42.86449994" lon="13.47268994">
        <ele>305.00000</ele>
        <time>2024-05-13T14:12:53Z</time>
      </trkpt>
      <trkpt lat="42.86443482" lon="13.47291030">
        <ele>304.00000</ele>
        <time>2024-05-13T14:12:56Z</time>
      </trkpt>
      <trkpt lat="42.86436994" lon="13.47312999">
        <ele>303.00000</ele>
        <time>2024-05-13T14:12:59Z</time>
      </trkpt>
      <trkpt lat="42.86434999" lon="13.47318992">
        <ele>302.00000</ele>
        <time>2024-05-13T14:13:00Z</time>
      </trkpt>
      <trkpt lat="42.86427992" lon="13.47348991">
        <ele>301.00000</ele>
        <time>2024-05-13T14:13:03Z</time>
      </trkpt>
      <trkpt lat="42.86419996" lon="13.47374992">
        <ele>301.00000</ele>
        <time>2024-05-13T14:13:07Z</time>
      </trkpt>
      <trkpt lat="42.86414992" lon="13.47384992">
        <ele>301.00000</ele>
        <time>2024-05-13T14:13:08Z</time>
      </trkpt>
      <trkpt lat="42.86410993" lon="13.47393994">
        <ele>301.00000</ele>
        <time>2024-05-13T14:13:09Z</time>
      </trkpt>
      <trkpt lat="42.86401991" lon="13.47402996">
        <ele>301.00000</ele>
        <time>2024-05-13T14:13:11Z</time>
      </trkpt>
      <trkpt lat="42.86394992" lon="13.47406994">
        <ele>302.00000</ele>
        <time>2024-05-13T14:13:12Z</time>
      </trkpt>
      <trkpt lat="42.86383995" lon="13.47413993">
        <ele>302.00000</ele>
        <time>2024-05-13T14:13:14Z</time>
      </trkpt>
      <trkpt lat="42.86358992" lon="13.47430991">
        <ele>301.00000</ele>
        <time>2024-05-13T14:13:19Z</time>
      </trkpt>
      <trkpt lat="42.86344994" lon="13.47439994">
        <ele>301.00000</ele>
        <time>2024-05-13T14:13:21Z</time>
      </trkpt>
      <trkpt lat="42.86322506" lon="13.47452734">
        <ele>300.00000</ele>
        <time>2024-05-13T14:13:25Z</time>
      </trkpt>
      <trkpt lat="42.86300025" lon="13.47465475">
        <ele>299.00000</ele>
        <time>2024-05-13T14:13:29Z</time>
      </trkpt>
      <trkpt lat="42.86277537" lon="13.47478215">
        <ele>297.00000</ele>
        <time>2024-05-13T14:13:33Z</time>
      </trkpt>
      <trkpt lat="42.86254998" lon="13.47490997">
        <ele>298.00000</ele>
        <time>2024-05-13T14:13:37Z</time>
      </trkpt>
      <trkpt lat="42.86228008" lon="13.47506781">
        <ele>300.00000</ele>
        <time>2024-05-13T14:13:42Z</time>
      </trkpt>
      <trkpt lat="42.86201027" lon="13.47522572">
        <ele>300.00000</ele>
        <time>2024-05-13T14:13:46Z</time>
      </trkpt>
      <trkpt lat="42.86174045" lon="13.47538364">
        <ele>298.00000</ele>
        <time>2024-05-13T14:13:51Z</time>
      </trkpt>
      <trkpt lat="42.86147064" lon="13.47554155">
        <ele>297.00000</ele>
        <time>2024-05-13T14:13:56Z</time>
      </trkpt>
      <trkpt lat="42.86119999" lon="13.47569997">
        <ele>297.00000</ele>
        <time>2024-05-13T14:14:00Z</time>
      </trkpt>
      <trkpt lat="42.86093344" lon="13.47585646">
        <ele>296.00000</ele>
        <time>2024-05-13T14:14:05Z</time>
      </trkpt>
      <trkpt lat="42.86066698" lon="13.47601303">
        <ele>295.00000</ele>
        <time>2024-05-13T14:14:10Z</time>
      </trkpt>
      <trkpt lat="42.86040044" lon="13.47616961">
        <ele>294.00000</ele>
        <time>2024-05-13T14:14:14Z</time>
      </trkpt>
      <trkpt lat="42.86013398" lon="13.47632618">
        <ele>291.00000</ele>
        <time>2024-05-13T14:14:19Z</time>
      </trkpt>
      <trkpt lat="42.85986743" lon="13.47648267">
        <ele>291.00000</ele>
        <time>2024-05-13T14:14:24Z</time>
      </trkpt>
      <trkpt lat="42.85959997" lon="13.47663992">
        <ele>292.00000</ele>
        <time>2024-05-13T14:14:28Z</time>
      </trkpt>
      <trkpt lat="42.85936670" lon="13.47681652">
        <ele>292.00000</ele>
        <time>2024-05-13T14:14:33Z</time>
      </trkpt>
      <trkpt lat="42.85913343" lon="13.47699313">
        <ele>291.00000</ele>
        <time>2024-05-13T14:14:37Z</time>
      </trkpt>
      <trkpt lat="42.85889999" lon="13.47716999">
        <ele>290.00000</ele>
        <time>2024-05-13T14:14:41Z</time>
      </trkpt>
      <trkpt lat="42.85862993" lon="13.47737995">
        <ele>288.00000</ele>
        <time>2024-05-13T14:14:46Z</time>
      </trkpt>
      <trkpt lat="42.85845994" lon="13.47753996">
        <ele>287.00000</ele>
        <time>2024-05-13T14:14:49Z</time>
      </trkpt>
      <trkpt lat="42.85830991" lon="13.47767986">
        <ele>287.00000</ele>
        <time>2024-05-13T14:14:52Z</time>
      </trkpt>
      <trkpt lat="42.85815996" lon="13.47781992">
        <ele>287.00000</ele>
        <time>2024-05-13T14:14:55Z</time>
      </trkpt>
      <trkpt lat="42.85794999" lon="13.47797993">
        <ele>286.00000</ele>
        <time>2024-05-13T14:14:59Z</time>
      </trkpt>
      <trkpt lat="42.85770499" lon="13.47817481">
        <ele>286.00000</ele>
        <time>2024-05-13T14:15:04Z</time>
      </trkpt>
      <trkpt lat="42.85745998" lon="13.47836994">
        <ele>285.00000</ele>
        <time>2024-05-13T14:15:08Z</time>
      </trkpt>
      <trkpt lat="42.85739997" lon="13.47841998">
        <ele>285.00000</ele>
        <time>2024-05-13T14:15:09Z</time>
      </trkpt>
      <trkpt lat="42.85734993" lon="13.47845996">
        <ele>284.00000</ele>
        <time>2024-05-13T14:15:10Z</time>
      </trkpt>
      <trkpt lat="42.85724993" lon="13.47854998">
        <ele>283.00000</ele>
        <time>2024-05-13T14:15:12Z</time>
      </trkpt>
      <trkpt lat="42.85704994" lon="13.47871997">
        <ele>282.00000</ele>
        <time>2024-05-13T14:15:16Z</time>
      </trkpt>
      <trkpt lat="42.85680326" lon="13.47895659">
        <ele>283.00000</ele>
        <time>2024-05-13T14:15:21Z</time>
      </trkpt>
      <trkpt lat="42.85655658" lon="13.47919321">
        <ele>283.00000</ele>
        <time>2024-05-13T14:15:25Z</time>
      </trkpt>
      <trkpt lat="42.85630999" lon="13.47942992">
        <ele>283.00000</ele>
        <time>2024-05-13T14:15:30Z</time>
      </trkpt>
      <trkpt lat="42.85609985" lon="13.47966243">
        <ele>282.00000</ele>
        <time>2024-05-13T14:15:35Z</time>
      </trkpt>
      <trkpt lat="42.85588980" lon="13.47989503">
        <ele>281.00000</ele>
        <time>2024-05-13T14:15:39Z</time>
      </trkpt>
      <trkpt lat="42.85567975" lon="13.48012754">
        <ele>281.00000</ele>
        <time>2024-05-13T14:15:43Z</time>
      </trkpt>
      <trkpt lat="42.85546995" lon="13.48035997">
        <ele>281.00000</ele>
        <time>2024-05-13T14:15:48Z</time>
      </trkpt>
      <trkpt lat="42.85527977" lon="13.48062006">
        <ele>280.00000</ele>
        <time>2024-05-13T14:15:52Z</time>
      </trkpt>
      <trkpt lat="42.85508992" lon="13.48087999">
        <ele>281.00000</ele>
        <time>2024-05-13T14:15:56Z</time>
      </trkpt>
      <trkpt lat="42.85492974" lon="13.48114016">
        <ele>280.00000</ele>
        <time>2024-05-13T14:16:00Z</time>
      </trkpt>
      <trkpt lat="42.85476998" lon="13.48139991">
        <ele>278.00000</ele>
        <time>2024-05-13T14:16:04Z</time>
      </trkpt>
      <trkpt lat="42.85470996" lon="13.48148994">
        <ele>278.00000</ele>
        <time>2024-05-13T14:16:06Z</time>
      </trkpt>
      <trkpt lat="42.85457996" lon="13.48172999">
        <ele>280.00000</ele>
        <time>2024-05-13T14:16:09Z</time>
      </trkpt>
      <trkpt lat="42.85453998" lon="13.48184994">
        <ele>280.00000</ele>
        <time>2024-05-13T14:16:11Z</time>
      </trkpt>
      <trkpt lat="42.85448994" lon="13.48203996">
        <ele>280.00000</ele>
        <time>2024-05-13T14:16:13Z</time>
      </trkpt>
      <trkpt lat="42.85445993" lon="13.48217993">
        <ele>279.00000</ele>
        <time>2024-05-13T14:16:15Z</time>
      </trkpt>
      <trkpt lat="42.85440998" lon="13.48244992">
        <ele>279.00000</ele>
        <time>2024-05-13T14:16:18Z</time>
      </trkpt>
      <trkpt lat="42.85438994" lon="13.48261998">
        <ele>279.00000</ele>
        <time>2024-05-13T14:16:20Z</time>
      </trkpt>
      <trkpt lat="42.85435994" lon="13.48277991">
        <ele>279.00000</ele>
        <time>2024-05-13T14:16:22Z</time>
      </trkpt>
      <trkpt lat="42.85432993" lon="13.48290991">
        <ele>279.00000</ele>
        <time>2024-05-13T14:16:24Z</time>
      </trkpt>
      <trkpt lat="42.85426991" lon="13.48311997">
        <ele>278.00000</ele>
        <time>2024-05-13T14:16:26Z</time>
      </trkpt>
      <trkpt lat="42.85416992" lon="13.48339992">
        <ele>277.00000</ele>
        <time>2024-05-13T14:16:30Z</time>
      </trkpt>
      <trkpt lat="42.85408996" lon="13.48353998">
        <ele>276.00000</ele>
        <time>2024-05-13T14:16:32Z</time>
      </trkpt>
      <trkpt lat="42.85401997" lon="13.48363998">
        <ele>276.00000</ele>
        <time>2024-05-13T14:16:34Z</time>
      </trkpt>
      <trkpt lat="42.85395995" lon="13.48368993">
        <ele>277.00000</ele>
        <time>2024-05-13T14:16:35Z</time>
      </trkpt>
      <trkpt lat="42.85385996" lon="13.48377996">
        <ele>277.00000</ele>
        <time>2024-05-13T14:16:37Z</time>
      </trkpt>
      <trkpt lat="42.85371998" lon="13.48386998">
        <ele>277.00000</ele>
        <time>2024-05-13T14:16:39Z</time>
      </trkpt>
      <trkpt lat="42.85345997" lon="13.48400996">
        <ele>277.00000</ele>
        <time>2024-05-13T14:16:44Z</time>
      </trkpt>
      <trkpt lat="42.85318999" lon="13.48409998">
        <ele>276.00000</ele>
        <time>2024-05-13T14:16:48Z</time>
      </trkpt>
      <trkpt lat="42.85303995" lon="13.48412998">
        <ele>275.00000</ele>
        <time>2024-05-13T14:16:51Z</time>
      </trkpt>
      <trkpt lat="42.85290995" lon="13.48413996">
        <ele>274.00000</ele>
        <time>2024-05-13T14:16:53Z</time>
      </trkpt>
      <trkpt lat="42.85269998" lon="13.48410995">
        <ele>272.00000</ele>
        <time>2024-05-13T14:16:56Z</time>
      </trkpt>
      <trkpt lat="42.85263997" lon="13.48410995">
        <ele>271.00000</ele>
        <time>2024-05-13T14:16:57Z</time>
      </trkpt>
      <trkpt lat="42.85233998" lon="13.48402999">
        <ele>267.00000</ele>
        <time>2024-05-13T14:17:02Z</time>
      </trkpt>
      <trkpt lat="42.85223999" lon="13.48402999">
        <ele>266.00000</ele>
        <time>2024-05-13T14:17:03Z</time>
      </trkpt>
      <trkpt lat="42.85222993" lon="13.48402999">
        <ele>266.00000</ele>
        <time>2024-05-13T14:17:04Z</time>
      </trkpt>
      <trkpt lat="42.85214996" lon="13.48403996">
        <ele>267.00000</ele>
        <time>2024-05-13T14:17:05Z</time>
      </trkpt>
      <trkpt lat="42.85206992" lon="13.48405991">
        <ele>267.00000</ele>
        <time>2024-05-13T14:17:06Z</time>
      </trkpt>
      <trkpt lat="42.85200999" lon="13.48408992">
        <ele>268.00000</ele>
        <time>2024-05-13T14:17:07Z</time>
      </trkpt>
      <trkpt lat="42.85189993" lon="13.48415999">
        <ele>269.00000</ele>
        <time>2024-05-13T14:17:09Z</time>
      </trkpt>
      <trkpt lat="42.85175995" lon="13.48426996">
        <ele>271.00000</ele>
        <time>2024-05-13T14:17:12Z</time>
      </trkpt>
      <trkpt lat="42.85169994" lon="13.48433995">
        <ele>271.00000</ele>
        <time>2024-05-13T14:17:13Z</time>
      </trkpt>
      <trkpt lat="42.85162995" lon="13.48442997">
        <ele>272.00000</ele>
        <time>2024-05-13T14:17:15Z</time>
      </trkpt>
      <trkpt lat="42.85151478" lon="13.48460507">
        <ele>272.00000</ele>
        <time>2024-05-13T14:17:17Z</time>
      </trkpt>
      <trkpt lat="42.85139995" lon="13.48477992">
        <ele>271.00000</ele>
        <time>2024-05-13T14:17:20Z</time>
      </trkpt>
      <trkpt lat="42.85125981" lon="13.48499005">
        <ele>271.00000</ele>
        <time>2024-05-13T14:17:23Z</time>
      </trkpt>
      <trkpt lat="42.85111991" lon="13.48519993">
        <ele>271.00000</ele>
        <time>2024-05-13T14:17:27Z</time>
      </trkpt>
      <trkpt lat="42.85096644" lon="13.48543345">
        <ele>269.00000</ele>
        <time>2024-05-13T14:17:30Z</time>
      </trkpt>
      <trkpt lat="42.85081297" lon="13.48566697">
        <ele>267.00000</ele>
        <time>2024-05-13T14:17:34Z</time>
      </trkpt>
      <trkpt lat="42.85065991" lon="13.48589999">
        <ele>267.00000</ele>
        <time>2024-05-13T14:17:38Z</time>
      </trkpt>
      <trkpt lat="42.85048641" lon="13.48615681">
        <ele>266.00000</ele>
        <time>2024-05-13T14:17:42Z</time>
      </trkpt>
      <trkpt lat="42.85031299" lon="13.48641363">
        <ele>263.00000</ele>
        <time>2024-05-13T14:17:46Z</time>
      </trkpt>
      <trkpt lat="42.85013998" lon="13.48666995">
        <ele>264.00000</ele>
        <time>2024-05-13T14:17:50Z</time>
      </trkpt>
      <trkpt lat="42.85002993" lon="13.48687992">
        <ele>266.00000</ele>
        <time>2024-05-13T14:17:53Z</time>
      </trkpt>
      <trkpt lat="42.84997997" lon="13.48701998">
        <ele>267.00000</ele>
        <time>2024-05-13T14:17:55Z</time>
      </trkpt>
      <trkpt lat="42.84986992" lon="13.48735995">
        <ele>268.00000</ele>
        <time>2024-05-13T14:17:59Z</time>
      </trkpt>
      <trkpt lat="42.84979993" lon="13.48760998">
        <ele>268.00000</ele>
        <time>2024-05-13T14:18:02Z</time>
      </trkpt>
      <trkpt lat="42.84972994" lon="13.48787996">
        <ele>266.00000</ele>
        <time>2024-05-13T14:18:06Z</time>
      </trkpt>
      <trkpt lat="42.84966993" lon="13.48806998">
        <ele>264.00000</ele>
        <time>2024-05-13T14:18:08Z</time>
      </trkpt>
      <trkpt lat="42.84961997" lon="13.48818993">
        <ele>264.00000</ele>
        <time>2024-05-13T14:18:10Z</time>
      </trkpt>
      <trkpt lat="42.84953992" lon="13.48833996">
        <ele>263.00000</ele>
        <time>2024-05-13T14:18:12Z</time>
      </trkpt>
      <trkpt lat="42.84940975" lon="13.48860022">
        <ele>262.00000</ele>
        <time>2024-05-13T14:18:16Z</time>
      </trkpt>
      <trkpt lat="42.84927992" lon="13.48885998">
        <ele>263.00000</ele>
        <time>2024-05-13T14:18:20Z</time>
      </trkpt>
      <trkpt lat="42.84915980" lon="13.48907019">
        <ele>263.00000</ele>
        <time>2024-05-13T14:18:23Z</time>
      </trkpt>
      <trkpt lat="42.84903994" lon="13.48927999">
        <ele>261.00000</ele>
        <time>2024-05-13T14:18:26Z</time>
      </trkpt>
      <trkpt lat="42.84894992" lon="13.48940991">
        <ele>260.00000</ele>
        <time>2024-05-13T14:18:28Z</time>
      </trkpt>
      <trkpt lat="42.84887993" lon="13.48948996">
        <ele>260.00000</ele>
        <time>2024-05-13T14:18:29Z</time>
      </trkpt>
      <trkpt lat="42.84884992" lon="13.48951997">
        <ele>259.00000</ele>
        <time>2024-05-13T14:18:30Z</time>
      </trkpt>
      <trkpt lat="42.84880994" lon="13.48953992">
        <ele>258.00000</ele>
        <time>2024-05-13T14:18:31Z</time>
      </trkpt>
      <trkpt lat="42.84877994" lon="13.48954997">
        <ele>258.00000</ele>
        <time>2024-05-13T14:18:31Z</time>
      </trkpt>
      <trkpt lat="42.84874993" lon="13.48955995">
        <ele>258.00000</ele>
        <time>2024-05-13T14:18:32Z</time>
      </trkpt>
      <trkpt lat="42.84869997" lon="13.48956992">
        <ele>257.00000</ele>
        <time>2024-05-13T14:18:32Z</time>
      </trkpt>
      <trkpt lat="42.84862998" lon="13.48956992">
        <ele>257.00000</ele>
        <time>2024-05-13T14:18:34Z</time>
      </trkpt>
      <trkpt lat="42.84858992" lon="13.48955995">
        <ele>257.00000</ele>
        <time>2024-05-13T14:18:34Z</time>
      </trkpt>
      <trkpt lat="42.84854994" lon="13.48954997">
        <ele>257.00000</ele>
        <time>2024-05-13T14:18:35Z</time>
      </trkpt>
      <trkpt lat="42.84849998" lon="13.48951997">
        <ele>257.00000</ele>
        <time>2024-05-13T14:18:36Z</time>
      </trkpt>
      <trkpt lat="42.84836998" lon="13.48943992">
        <ele>257.00000</ele>
        <time>2024-05-13T14:18:38Z</time>
      </trkpt>
      <trkpt lat="42.84812992" lon="13.48920992">
        <ele>257.00000</ele>
        <time>2024-05-13T14:18:43Z</time>
      </trkpt>
      <trkpt lat="42.84797485" lon="13.48901982">
        <ele>257.00000</ele>
        <time>2024-05-13T14:18:46Z</time>
      </trkpt>
      <trkpt lat="42.84781996" lon="13.48882997">
        <ele>257.00000</ele>
        <time>2024-05-13T14:18:49Z</time>
      </trkpt>
      <trkpt lat="42.84756992" lon="13.48859494">
        <ele>258.00000</ele>
        <time>2024-05-13T14:18:54Z</time>
      </trkpt>
      <trkpt lat="42.84731998" lon="13.48835991">
        <ele>260.00000</ele>
        <time>2024-05-13T14:18:59Z</time>
      </trkpt>
      <trkpt lat="42.84711001" lon="13.48819496">
        <ele>259.00000</ele>
        <time>2024-05-13T14:19:03Z</time>
      </trkpt>
      <trkpt lat="42.84689996" lon="13.48802992">
        <ele>259.00000</ele>
        <time>2024-05-13T14:19:07Z</time>
      </trkpt>
      <trkpt lat="42.84673500" lon="13.48790494">
        <ele>259.00000</ele>
        <time>2024-05-13T14:19:10Z</time>
      </trkpt>
      <trkpt lat="42.84656996" lon="13.48777997">
        <ele>260.00000</ele>
        <time>2024-05-13T14:19:13Z</time>
      </trkpt>
      <trkpt lat="42.84642999" lon="13.48771995">
        <ele>261.00000</ele>
        <time>2024-05-13T14:19:15Z</time>
      </trkpt>
      <trkpt lat="42.84630996" lon="13.48768995">
        <ele>262.00000</ele>
        <time>2024-05-13T14:19:17Z</time>
      </trkpt>
      <trkpt lat="42.84612991" lon="13.48766991">
        <ele>261.00000</ele>
        <time>2024-05-13T14:19:20Z</time>
      </trkpt>
      <trkpt lat="42.84596504" lon="13.48766983">
        <ele>259.00000</ele>
        <time>2024-05-13T14:19:23Z</time>
      </trkpt>
      <trkpt lat="42.84579992" lon="13.48766991">
        <ele>256.00000</ele>
        <time>2024-05-13T14:19:25Z</time>
      </trkpt>
      <trkpt lat="42.84554997" lon="13.48767997">
        <ele>255.00000</ele>
        <time>2024-05-13T14:19:29Z</time>
      </trkpt>
      <trkpt lat="42.84548996" lon="13.48768995">
        <ele>254.00000</ele>
        <time>2024-05-13T14:19:30Z</time>
      </trkpt>
      <trkpt lat="42.84526348" lon="13.48773982">
        <ele>253.00000</ele>
        <time>2024-05-13T14:19:34Z</time>
      </trkpt>
      <trkpt lat="42.84503708" lon="13.48778977">
        <ele>255.00000</ele>
        <time>2024-05-13T14:19:38Z</time>
      </trkpt>
      <trkpt lat="42.84480993" lon="13.48783998">
        <ele>256.00000</ele>
        <time>2024-05-13T14:19:41Z</time>
      </trkpt>
      <trkpt lat="42.84456015" lon="13.48790737">
        <ele>255.00000</ele>
        <time>2024-05-13T14:19:45Z</time>
      </trkpt>
      <trkpt lat="42.84431045" lon="13.48797476">
        <ele>255.00000</ele>
        <time>2024-05-13T14:19:49Z</time>
      </trkpt>
      <trkpt lat="42.84406076" lon="13.48804224">
        <ele>255.00000</ele>
        <time>2024-05-13T14:19:54Z</time>
      </trkpt>
      <trkpt lat="42.84380997" lon="13.48810996">
        <ele>255.00000</ele>
        <time>2024-05-13T14:19:58Z</time>
      </trkpt>
      <trkpt lat="42.84355348" lon="13.48818649">
        <ele>255.00000</ele>
        <time>2024-05-13T14:20:02Z</time>
      </trkpt>
      <trkpt lat="42.84329708" lon="13.48826310">
        <ele>255.00000</ele>
        <time>2024-05-13T14:20:06Z</time>
      </trkpt>
      <trkpt lat="42.84303992" lon="13.48833996">
        <ele>256.00000</ele>
        <time>2024-05-13T14:20:10Z</time>
      </trkpt>
      <trkpt lat="42.84275997" lon="13.48841993">
        <ele>255.00000</ele>
        <time>2024-05-13T14:20:15Z</time>
      </trkpt>
      <trkpt lat="42.84271999" lon="13.48842998">
        <ele>255.00000</ele>
        <time>2024-05-13T14:20:15Z</time>
      </trkpt>
      <trkpt lat="42.84255512" lon="13.48847483">
        <ele>253.00000</ele>
        <time>2024-05-13T14:20:18Z</time>
      </trkpt>
      <trkpt lat="42.84238999" lon="13.48851992">
        <ele>253.00000</ele>
        <time>2024-05-13T14:20:21Z</time>
      </trkpt>
      <trkpt lat="42.84228991" lon="13.48854993">
        <ele>253.00000</ele>
        <time>2024-05-13T14:20:22Z</time>
      </trkpt>
      <trkpt lat="42.84211993" lon="13.48859997">
        <ele>253.00000</ele>
        <time>2024-05-13T14:20:25Z</time>
      </trkpt>
      <trkpt lat="42.84201993" lon="13.48862998">
        <ele>253.00000</ele>
        <time>2024-05-13T14:20:27Z</time>
      </trkpt>
      <trkpt lat="42.84192999" lon="13.48864993">
        <ele>253.00000</ele>
        <time>2024-05-13T14:20:28Z</time>
      </trkpt>
      <trkpt lat="42.84180996" lon="13.48868999">
        <ele>251.00000</ele>
        <time>2024-05-13T14:20:30Z</time>
      </trkpt>
      <trkpt lat="42.84161995" lon="13.48877993">
        <ele>250.00000</ele>
        <time>2024-05-13T14:20:34Z</time>
      </trkpt>
      <trkpt lat="42.84149992" lon="13.48882997">
        <ele>251.00000</ele>
        <time>2024-05-13T14:20:36Z</time>
      </trkpt>
      <trkpt lat="42.84143999" lon="13.48885998">
        <ele>251.00000</ele>
        <time>2024-05-13T14:20:37Z</time>
      </trkpt>
      <trkpt lat="42.84140998" lon="13.48887993">
        <ele>251.00000</ele>
        <time>2024-05-13T14:20:37Z</time>
      </trkpt>
      <trkpt lat="42.84122994" lon="13.48898998">
        <ele>253.00000</ele>
        <time>2024-05-13T14:20:40Z</time>
      </trkpt>
      <trkpt lat="42.84106004" lon="13.48908486">
        <ele>254.00000</ele>
        <time>2024-05-13T14:20:43Z</time>
      </trkpt>
      <trkpt lat="42.84088997" lon="13.48917991">
        <ele>255.00000</ele>
        <time>2024-05-13T14:20:46Z</time>
      </trkpt>
      <trkpt lat="42.84074999" lon="13.48925996">
        <ele>255.00000</ele>
        <time>2024-05-13T14:20:49Z</time>
      </trkpt>
      <trkpt lat="42.84064999" lon="13.48933992">
        <ele>255.00000</ele>
        <time>2024-05-13T14:20:50Z</time>
      </trkpt>
      <trkpt lat="42.84062996" lon="13.48935996">
        <ele>255.00000</ele>
        <time>2024-05-13T14:20:51Z</time>
      </trkpt>
      <trkpt lat="42.84047992" lon="13.48950999">
        <ele>256.00000</ele>
        <time>2024-05-13T14:20:54Z</time>
      </trkpt>
      <trkpt lat="42.84041999" lon="13.48961996">
        <ele>254.00000</ele>
        <time>2024-05-13T14:20:55Z</time>
      </trkpt>
      <trkpt lat="42.84037993" lon="13.48969993">
        <ele>253.00000</ele>
        <time>2024-05-13T14:20:57Z</time>
      </trkpt>
      <trkpt lat="42.84028999" lon="13.48992993">
        <ele>249.00000</ele>
        <time>2024-05-13T14:21:00Z</time>
      </trkpt>
      <trkpt lat="42.84015974" lon="13.49025037">
        <ele>248.00000</ele>
        <time>2024-05-13T14:21:04Z</time>
      </trkpt>
      <trkpt lat="42.84002998" lon="13.49056997">
        <ele>248.00000</ele>
        <time>2024-05-13T14:21:08Z</time>
      </trkpt>
      <trkpt lat="42.83994994" lon="13.49072998">
        <ele>246.00000</ele>
        <time>2024-05-13T14:21:11Z</time>
      </trkpt>
      <trkpt lat="42.83981993" lon="13.49091991">
        <ele>245.00000</ele>
        <time>2024-05-13T14:21:14Z</time>
      </trkpt>
      <trkpt lat="42.83967484" lon="13.49109493">
        <ele>246.00000</ele>
        <time>2024-05-13T14:21:17Z</time>
      </trkpt>
      <trkpt lat="42.83952992" lon="13.49126994">
        <ele>247.00000</ele>
        <time>2024-05-13T14:21:20Z</time>
      </trkpt>
      <trkpt lat="42.83937980" lon="13.49148502">
        <ele>247.00000</ele>
        <time>2024-05-13T14:21:23Z</time>
      </trkpt>
      <trkpt lat="42.83922993" lon="13.49169993">
        <ele>245.00000</ele>
        <time>2024-05-13T14:21:27Z</time>
      </trkpt>
      <trkpt lat="42.83909984" lon="13.49184494">
        <ele>245.00000</ele>
        <time>2024-05-13T14:21:29Z</time>
      </trkpt>
      <trkpt lat="42.83896992" lon="13.49198995">
        <ele>245.00000</ele>
        <time>2024-05-13T14:21:32Z</time>
      </trkpt>
      <trkpt lat="42.83879994" lon="13.49215993">
        <ele>245.00000</ele>
        <time>2024-05-13T14:21:36Z</time>
      </trkpt>
      <trkpt lat="42.83870992" lon="13.49222992">
        <ele>245.00000</ele>
        <time>2024-05-13T14:21:37Z</time>
      </trkpt>
      <trkpt lat="42.83856499" lon="13.49234484">
        <ele>245.00000</ele>
        <time>2024-05-13T14:21:40Z</time>
      </trkpt>
      <trkpt lat="42.83841999" lon="13.49245992">
        <ele>244.00000</ele>
        <time>2024-05-13T14:21:43Z</time>
      </trkpt>
      <trkpt lat="42.83826006" lon="13.49254986">
        <ele>245.00000</ele>
        <time>2024-05-13T14:21:45Z</time>
      </trkpt>
      <trkpt lat="42.83809997" lon="13.49263996">
        <ele>246.00000</ele>
        <time>2024-05-13T14:21:48Z</time>
      </trkpt>
      <trkpt lat="42.83789344" lon="13.49273988">
        <ele>246.00000</ele>
        <time>2024-05-13T14:21:52Z</time>
      </trkpt>
      <trkpt lat="42.83768691" lon="13.49283979">
        <ele>245.00000</ele>
        <time>2024-05-13T14:21:55Z</time>
      </trkpt>
      <trkpt lat="42.83747996" lon="13.49293995">
        <ele>243.00000</ele>
        <time>2024-05-13T14:21:59Z</time>
      </trkpt>
      <trkpt lat="42.83728013" lon="13.49301983">
        <ele>244.00000</ele>
        <time>2024-05-13T14:22:02Z</time>
      </trkpt>
      <trkpt lat="42.83707997" lon="13.49309996">
        <ele>243.00000</ele>
        <time>2024-05-13T14:22:05Z</time>
      </trkpt>
      <trkpt lat="42.83685995" lon="13.49314992">
        <ele>241.00000</ele>
        <time>2024-05-13T14:22:09Z</time>
      </trkpt>
      <trkpt lat="42.83667999" lon="13.49315998">
        <ele>238.00000</ele>
        <time>2024-05-13T14:22:12Z</time>
      </trkpt>
      <trkpt lat="42.83639995" lon="13.49314992">
        <ele>238.00000</ele>
        <time>2024-05-13T14:22:16Z</time>
      </trkpt>
      <trkpt lat="42.83615520" lon="13.49312989">
        <ele>238.00000</ele>
        <time>2024-05-13T14:22:20Z</time>
      </trkpt>
      <trkpt lat="42.83590994" lon="13.49310994">
        <ele>236.00000</ele>
        <time>2024-05-13T14:22:24Z</time>
      </trkpt>
      <trkpt lat="42.83560995" lon="13.49306995">
        <ele>235.00000</ele>
        <time>2024-05-13T14:22:29Z</time>
      </trkpt>
      <trkpt lat="42.83536998" lon="13.49305998">
        <ele>237.00000</ele>
        <time>2024-05-13T14:22:33Z</time>
      </trkpt>
      <trkpt lat="42.83513998" lon="13.49303995">
        <ele>240.00000</ele>
        <time>2024-05-13T14:22:36Z</time>
      </trkpt>
      <trkpt lat="42.83498995" lon="13.49302997">
        <ele>241.00000</ele>
        <time>2024-05-13T14:22:39Z</time>
      </trkpt>
      <trkpt lat="42.83473991" lon="13.49304992">
        <ele>242.00000</ele>
        <time>2024-05-13T14:22:43Z</time>
      </trkpt>
      <trkpt lat="42.83467998" lon="13.49306995">
        <ele>243.00000</ele>
        <time>2024-05-13T14:22:44Z</time>
      </trkpt>
      <trkpt lat="42.83459994" lon="13.49308999">
        <ele>243.00000</ele>
        <time>2024-05-13T14:22:45Z</time>
      </trkpt>
      <trkpt lat="42.83442995" lon="13.49318998">
        <ele>243.00000</ele>
        <time>2024-05-13T14:22:48Z</time>
      </trkpt>
      <trkpt lat="42.83424999" lon="13.49333994">
        <ele>242.00000</ele>
        <time>2024-05-13T14:22:51Z</time>
      </trkpt>
      <trkpt lat="42.83411999" lon="13.49347991">
        <ele>241.00000</ele>
        <time>2024-05-13T14:22:54Z</time>
      </trkpt>
      <trkpt lat="42.83392326" lon="13.49369659">
        <ele>240.00000</ele>
        <time>2024-05-13T14:22:58Z</time>
      </trkpt>
      <trkpt lat="42.83372654" lon="13.49391334">
        <ele>237.00000</ele>
        <time>2024-05-13T14:23:02Z</time>
      </trkpt>
      <trkpt lat="42.83352999" lon="13.49412993">
        <ele>235.00000</ele>
        <time>2024-05-13T14:23:06Z</time>
      </trkpt>
      <trkpt lat="42.83333653" lon="13.49434660">
        <ele>233.00000</ele>
        <time>2024-05-13T14:23:10Z</time>
      </trkpt>
      <trkpt lat="42.83314316" lon="13.49456336">
        <ele>232.00000</ele>
        <time>2024-05-13T14:23:14Z</time>
      </trkpt>
      <trkpt lat="42.83294996" lon="13.49477995">
        <ele>233.00000</ele>
        <time>2024-05-13T14:23:18Z</time>
      </trkpt>
      <trkpt lat="42.83275994" lon="13.49498991">
        <ele>233.00000</ele>
        <time>2024-05-13T14:23:22Z</time>
      </trkpt>
      <trkpt lat="42.83258995" lon="13.49519996">
        <ele>233.00000</ele>
        <time>2024-05-13T14:23:26Z</time>
      </trkpt>
      <trkpt lat="42.83242994" lon="13.49537992">
        <ele>233.00000</ele>
        <time>2024-05-13T14:23:29Z</time>
      </trkpt>
      <trkpt lat="42.83226993" lon="13.49552996">
        <ele>233.00000</ele>
        <time>2024-05-13T14:23:32Z</time>
      </trkpt>
      <trkpt lat="42.83217991" lon="13.49562996">
        <ele>232.00000</ele>
        <time>2024-05-13T14:23:34Z</time>
      </trkpt>
      <trkpt lat="42.83199995" lon="13.49575996">
        <ele>232.00000</ele>
        <time>2024-05-13T14:23:37Z</time>
      </trkpt>
      <trkpt lat="42.83183994" lon="13.49583992">
        <ele>232.00000</ele>
        <time>2024-05-13T14:23:40Z</time>
      </trkpt>
      <trkpt lat="42.83167012" lon="13.49587982">
        <ele>232.00000</ele>
        <time>2024-05-13T14:23:43Z</time>
      </trkpt>
      <trkpt lat="42.83149997" lon="13.49591997">
        <ele>232.00000</ele>
        <time>2024-05-13T14:23:46Z</time>
      </trkpt>
      <trkpt lat="42.83127517" lon="13.49597487">
        <ele>231.00000</ele>
        <time>2024-05-13T14:23:49Z</time>
      </trkpt>
      <trkpt lat="42.83104995" lon="13.49602994">
        <ele>231.00000</ele>
        <time>2024-05-13T14:23:53Z</time>
      </trkpt>
      <trkpt lat="42.83089010" lon="13.49605986">
        <ele>231.00000</ele>
        <time>2024-05-13T14:23:56Z</time>
      </trkpt>
      <trkpt lat="42.83072993" lon="13.49608995">
        <ele>231.00000</ele>
        <time>2024-05-13T14:23:58Z</time>
      </trkpt>
      <trkpt lat="42.83057008" lon="13.49611493">
        <ele>230.00000</ele>
        <time>2024-05-13T14:24:01Z</time>
      </trkpt>
      <trkpt lat="42.83040999" lon="13.49613999">
        <ele>230.00000</ele>
        <time>2024-05-13T14:24:03Z</time>
      </trkpt>
      <trkpt lat="42.83027999" lon="13.49612994">
        <ele>230.00000</ele>
        <time>2024-05-13T14:24:05Z</time>
      </trkpt>
      <trkpt lat="42.83000531" lon="13.49611493">
        <ele>230.00000</ele>
        <time>2024-05-13T14:24:10Z</time>
      </trkpt>
      <trkpt lat="42.82972997" lon="13.49609993">
        <ele>228.00000</ele>
        <time>2024-05-13T14:24:14Z</time>
      </trkpt>
      <trkpt lat="42.82954514" lon="13.49607990">
        <ele>227.00000</ele>
        <time>2024-05-13T14:24:17Z</time>
      </trkpt>
      <trkpt lat="42.82935999" lon="13.49605995">
        <ele>227.00000</ele>
        <time>2024-05-13T14:24:20Z</time>
      </trkpt>
      <trkpt lat="42.82917995" lon="13.49603991">
        <ele>228.00000</ele>
        <time>2024-05-13T14:24:23Z</time>
      </trkpt>
      <trkpt lat="42.82887996" lon="13.49602994">
        <ele>225.00000</ele>
        <time>2024-05-13T14:24:28Z</time>
      </trkpt>
      <trkpt lat="42.82865515" lon="13.49601494">
        <ele>225.00000</ele>
        <time>2024-05-13T14:24:31Z</time>
      </trkpt>
      <trkpt lat="42.82842993" lon="13.49599993">
        <ele>226.00000</ele>
        <time>2024-05-13T14:24:35Z</time>
      </trkpt>
      <trkpt lat="42.82818996" lon="13.49603991">
        <ele>227.00000</ele>
        <time>2024-05-13T14:24:39Z</time>
      </trkpt>
      <trkpt lat="42.82796993" lon="13.49607998">
        <ele>228.00000</ele>
        <time>2024-05-13T14:24:42Z</time>
      </trkpt>
      <trkpt lat="42.82781504" lon="13.49612985">
        <ele>227.00000</ele>
        <time>2024-05-13T14:24:45Z</time>
      </trkpt>
      <trkpt lat="42.82765997" lon="13.49617998">
        <ele>228.00000</ele>
        <time>2024-05-13T14:24:48Z</time>
      </trkpt>
      <trkpt lat="42.82735998" lon="13.49629992">
        <ele>230.00000</ele>
        <time>2024-05-13T14:24:53Z</time>
      </trkpt>
      <trkpt lat="42.82712512" lon="13.49639975">
        <ele>230.00000</ele>
        <time>2024-05-13T14:24:56Z</time>
      </trkpt>
      <trkpt lat="42.82688993" lon="13.49649991">
        <ele>232.00000</ele>
        <time>2024-05-13T14:25:00Z</time>
      </trkpt>
      <trkpt lat="42.82663998" lon="13.49660997">
        <ele>234.00000</ele>
        <time>2024-05-13T14:25:05Z</time>
      </trkpt>
      <trkpt lat="42.82641995" lon="13.49674995">
        <ele>233.00000</ele>
        <time>2024-05-13T14:25:08Z</time>
      </trkpt>
      <trkpt lat="42.82625491" lon="13.49688992">
        <ele>230.00000</ele>
        <time>2024-05-13T14:25:12Z</time>
      </trkpt>
      <trkpt lat="42.82608996" lon="13.49702998">
        <ele>227.00000</ele>
        <time>2024-05-13T14:25:15Z</time>
      </trkpt>
      <trkpt lat="42.82591486" lon="13.49724506">
        <ele>226.00000</ele>
        <time>2024-05-13T14:25:18Z</time>
      </trkpt>
      <trkpt lat="42.82573993" lon="13.49745998">
        <ele>225.00000</ele>
        <time>2024-05-13T14:25:22Z</time>
      </trkpt>
      <trkpt lat="42.82568997" lon="13.49750993">
        <ele>225.00000</ele>
        <time>2024-05-13T14:25:23Z</time>
      </trkpt>
      <trkpt lat="42.82553985" lon="13.49772007">
        <ele>224.00000</ele>
        <time>2024-05-13T14:25:27Z</time>
      </trkpt>
      <trkpt lat="42.82538998" lon="13.49792995">
        <ele>224.00000</ele>
        <time>2024-05-13T14:25:30Z</time>
      </trkpt>
      <trkpt lat="42.82524984" lon="13.49810496">
        <ele>224.00000</ele>
        <time>2024-05-13T14:25:33Z</time>
      </trkpt>
      <trkpt lat="42.82510994" lon="13.49827998">
        <ele>222.00000</ele>
        <time>2024-05-13T14:25:36Z</time>
      </trkpt>
      <trkpt lat="42.82496997" lon="13.49846991">
        <ele>219.00000</ele>
        <time>2024-05-13T14:25:39Z</time>
      </trkpt>
      <trkpt lat="42.82483996" lon="13.49865993">
        <ele>216.00000</ele>
        <time>2024-05-13T14:25:42Z</time>
      </trkpt>
      <trkpt lat="42.82476997" lon="13.49879999">
        <ele>214.00000</ele>
        <time>2024-05-13T14:25:44Z</time>
      </trkpt>
      <trkpt lat="42.82469999" lon="13.49894994">
        <ele>214.00000</ele>
        <time>2024-05-13T14:25:47Z</time>
      </trkpt>
      <trkpt lat="42.82462480" lon="13.49915019">
        <ele>215.00000</ele>
        <time>2024-05-13T14:25:49Z</time>
      </trkpt>
      <trkpt lat="42.82454995" lon="13.49934993">
        <ele>216.00000</ele>
        <time>2024-05-13T14:25:52Z</time>
      </trkpt>
      <trkpt lat="42.82445976" lon="13.49959527">
        <ele>215.00000</ele>
        <time>2024-05-13T14:25:55Z</time>
      </trkpt>
      <trkpt lat="42.82436999" lon="13.49983993">
        <ele>215.00000</ele>
        <time>2024-05-13T14:25:58Z</time>
      </trkpt>
      <trkpt lat="42.82423999" lon="13.50018996">
        <ele>215.00000</ele>
        <time>2024-05-13T14:26:03Z</time>
      </trkpt>
      <trkpt lat="42.82421995" lon="13.50023992">
        <ele>215.00000</ele>
        <time>2024-05-13T14:26:04Z</time>
      </trkpt>
      <trkpt lat="42.82417997" lon="13.50031997">
        <ele>215.00000</ele>
        <time>2024-05-13T14:26:05Z</time>
      </trkpt>
      <trkpt lat="42.82410998" lon="13.50043999">
        <ele>216.00000</ele>
        <time>2024-05-13T14:26:06Z</time>
      </trkpt>
      <trkpt lat="42.82404997" lon="13.50051996">
        <ele>216.00000</ele>
        <time>2024-05-13T14:26:08Z</time>
      </trkpt>
      <trkpt lat="42.82397998" lon="13.50058995">
        <ele>216.00000</ele>
        <time>2024-05-13T14:26:09Z</time>
      </trkpt>
      <trkpt lat="42.82387998" lon="13.50065994">
        <ele>216.00000</ele>
        <time>2024-05-13T14:26:11Z</time>
      </trkpt>
      <trkpt lat="42.82378996" lon="13.50071995">
        <ele>217.00000</ele>
        <time>2024-05-13T14:26:13Z</time>
      </trkpt>
      <trkpt lat="42.82361998" lon="13.50081995">
        <ele>219.00000</ele>
        <time>2024-05-13T14:26:16Z</time>
      </trkpt>
      <trkpt lat="42.82346994" lon="13.50091994">
        <ele>219.00000</ele>
        <time>2024-05-13T14:26:18Z</time>
      </trkpt>
      <trkpt lat="42.82330993" lon="13.50102991">
        <ele>219.00000</ele>
        <time>2024-05-13T14:26:21Z</time>
      </trkpt>
      <trkpt lat="42.82305998" lon="13.50124994">
        <ele>220.00000</ele>
        <time>2024-05-13T14:26:26Z</time>
      </trkpt>
      <trkpt lat="42.82289000" lon="13.50138992">
        <ele>221.00000</ele>
        <time>2024-05-13T14:26:29Z</time>
      </trkpt>
      <trkpt lat="42.82271993" lon="13.50152998">
        <ele>223.00000</ele>
        <time>2024-05-13T14:26:32Z</time>
      </trkpt>
      <trkpt lat="42.82249999" lon="13.50167993">
        <ele>226.00000</ele>
        <time>2024-05-13T14:26:36Z</time>
      </trkpt>
      <trkpt lat="42.82228994" lon="13.50180993">
        <ele>229.00000</ele>
        <time>2024-05-13T14:26:40Z</time>
      </trkpt>
      <trkpt lat="42.82206991" lon="13.50193994">
        <ele>227.00000</ele>
        <time>2024-05-13T14:26:44Z</time>
      </trkpt>
      <trkpt lat="42.82187998" lon="13.50204999">
        <ele>226.00000</ele>
        <time>2024-05-13T14:26:47Z</time>
      </trkpt>
      <trkpt lat="42.82180999" lon="13.50210992">
        <ele>225.00000</ele>
        <time>2024-05-13T14:26:48Z</time>
      </trkpt>
      <trkpt lat="42.82167999" lon="13.50220992">
        <ele>226.00000</ele>
        <time>2024-05-13T14:26:51Z</time>
      </trkpt>
      <trkpt lat="42.82160991" lon="13.50230991">
        <ele>227.00000</ele>
        <time>2024-05-13T14:26:52Z</time>
      </trkpt>
      <trkpt lat="42.82155996" lon="13.50238996">
        <ele>230.00000</ele>
        <time>2024-05-13T14:26:54Z</time>
      </trkpt>
      <trkpt lat="42.82149994" lon="13.50251996">
        <ele>233.00000</ele>
        <time>2024-05-13T14:26:55Z</time>
      </trkpt>
      <trkpt lat="42.82144999" lon="13.50264997">
        <ele>234.00000</ele>
        <time>2024-05-13T14:26:57Z</time>
      </trkpt>
      <trkpt lat="42.82139995" lon="13.50276991">
        <ele>235.00000</ele>
        <time>2024-05-13T14:26:59Z</time>
      </trkpt>
      <trkpt lat="42.82138997" lon="13.50283998">
        <ele>234.00000</ele>
        <time>2024-05-13T14:27:00Z</time>
      </trkpt>
      <trkpt lat="42.82135996" lon="13.50306998">
        <ele>231.00000</ele>
        <time>2024-05-13T14:27:02Z</time>
      </trkpt>
      <trkpt lat="42.82134999" lon="13.50320996">
        <ele>230.00000</ele>
        <time>2024-05-13T14:27:04Z</time>
      </trkpt>
      <trkpt lat="42.82135996" lon="13.50335991">
        <ele>228.00000</ele>
        <time>2024-05-13T14:27:06Z</time>
      </trkpt>
      <trkpt lat="42.82138997" lon="13.50359997">
        <ele>224.00000</ele>
        <time>2024-05-13T14:27:09Z</time>
      </trkpt>
      <trkpt lat="42.82140992" lon="13.50381991">
        <ele>221.00000</ele>
        <time>2024-05-13T14:27:11Z</time>
      </trkpt>
      <trkpt lat="42.82146667" lon="13.50424085">
        <ele>220.00000</ele>
        <time>2024-05-13T14:27:16Z</time>
      </trkpt>
      <trkpt lat="42.82152350" lon="13.50466179">
        <ele>223.00000</ele>
        <time>2024-05-13T14:27:21Z</time>
      </trkpt>
      <trkpt lat="42.82157999" lon="13.50507996">
        <ele>220.00000</ele>
        <time>2024-05-13T14:27:26Z</time>
      </trkpt>
      <trkpt lat="42.82145996" lon="13.50531994">
        <ele>220.00000</ele>
        <time>2024-05-13T14:27:30Z</time>
      </trkpt>
      <trkpt lat="42.82142995" lon="13.50542999">
        <ele>220.00000</ele>
        <time>2024-05-13T14:27:31Z</time>
      </trkpt>
      <trkpt lat="42.82137991" lon="13.50551993">
        <ele>220.00000</ele>
        <time>2024-05-13T14:27:32Z</time>
      </trkpt>
      <trkpt lat="42.82134999" lon="13.50557995">
        <ele>219.00000</ele>
        <time>2024-05-13T14:27:33Z</time>
      </trkpt>
      <trkpt lat="42.82137991" lon="13.50562999">
        <ele>219.00000</ele>
        <time>2024-05-13T14:27:34Z</time>
      </trkpt>
      <trkpt lat="42.82144999" lon="13.50574993">
        <ele>218.00000</ele>
        <time>2024-05-13T14:27:36Z</time>
      </trkpt>
      <trkpt lat="42.82149994" lon="13.50582998">
        <ele>218.00000</ele>
        <time>2024-05-13T14:27:37Z</time>
      </trkpt>
      <trkpt lat="42.82152995" lon="13.50589997">
        <ele>217.00000</ele>
        <time>2024-05-13T14:27:38Z</time>
      </trkpt>
      <trkpt lat="42.82154998" lon="13.50595998">
        <ele>217.00000</ele>
        <time>2024-05-13T14:27:39Z</time>
      </trkpt>
      <trkpt lat="42.82158996" lon="13.50604992">
        <ele>216.00000</ele>
        <time>2024-05-13T14:27:40Z</time>
      </trkpt>
      <trkpt lat="42.82160991" lon="13.50612997">
        <ele>215.00000</ele>
        <time>2024-05-13T14:27:41Z</time>
      </trkpt>
      <trkpt lat="42.82164998" lon="13.50628998">
        <ele>214.00000</ele>
        <time>2024-05-13T14:27:43Z</time>
      </trkpt>
      <trkpt lat="42.82164998" lon="13.50629995">
        <ele>214.00000</ele>
        <time>2024-05-13T14:27:43Z</time>
      </trkpt>
      <trkpt lat="42.82173682" lon="13.50668736">
        <ele>211.00000</ele>
        <time>2024-05-13T14:27:48Z</time>
      </trkpt>
      <trkpt lat="42.82182365" lon="13.50707486">
        <ele>208.00000</ele>
        <time>2024-05-13T14:27:53Z</time>
      </trkpt>
      <trkpt lat="42.82190999" lon="13.50745992">
        <ele>207.00000</ele>
        <time>2024-05-13T14:27:57Z</time>
      </trkpt>
      <trkpt lat="42.82193999" lon="13.50759998">
        <ele>208.00000</ele>
        <time>2024-05-13T14:27:59Z</time>
      </trkpt>
      <trkpt lat="42.82194997" lon="13.50761993">
        <ele>208.00000</ele>
        <time>2024-05-13T14:27:59Z</time>
      </trkpt>
      <trkpt lat="42.82200998" lon="13.50782998">
        <ele>209.00000</ele>
        <time>2024-05-13T14:28:02Z</time>
      </trkpt>
      <trkpt lat="42.82205994" lon="13.50793995">
        <ele>209.00000</ele>
        <time>2024-05-13T14:28:04Z</time>
      </trkpt>
      <trkpt lat="42.82209992" lon="13.50800994">
        <ele>209.00000</ele>
        <time>2024-05-13T14:28:05Z</time>
      </trkpt>
      <trkpt lat="42.82216999" lon="13.50808999">
        <ele>209.00000</ele>
        <time>2024-05-13T14:28:06Z</time>
      </trkpt>
      <trkpt lat="42.82218994" lon="13.50809996">
        <ele>209.00000</ele>
        <time>2024-05-13T14:28:06Z</time>
      </trkpt>
      <trkpt lat="42.82224996" lon="13.50813995">
        <ele>209.00000</ele>
        <time>2024-05-13T14:28:08Z</time>
      </trkpt>
      <trkpt lat="42.82230997" lon="13.50815998">
        <ele>209.00000</ele>
        <time>2024-05-13T14:28:09Z</time>
      </trkpt>
      <trkpt lat="42.82232992" lon="13.50816995">
        <ele>209.00000</ele>
        <time>2024-05-13T14:28:09Z</time>
      </trkpt>
      <trkpt lat="42.82233998" lon="13.50816995">
        <ele>209.00000</ele>
        <time>2024-05-13T14:28:09Z</time>
      </trkpt>
      <trkpt lat="42.82235993" lon="13.50815998">
        <ele>209.00000</ele>
        <time>2024-05-13T14:28:09Z</time>
      </trkpt>
      <trkpt lat="42.82262999" lon="13.50826995">
        <ele>207.00000</ele>
        <time>2024-05-13T14:28:14Z</time>
      </trkpt>
      <trkpt lat="42.82278975" lon="13.50832485">
        <ele>207.00000</ele>
        <time>2024-05-13T14:28:17Z</time>
      </trkpt>
      <trkpt lat="42.82294993" lon="13.50837992">
        <ele>206.00000</ele>
        <time>2024-05-13T14:28:19Z</time>
      </trkpt>
      <trkpt lat="42.82314967" lon="13.50844983">
        <ele>206.00000</ele>
        <time>2024-05-13T14:28:22Z</time>
      </trkpt>
      <trkpt lat="42.82334991" lon="13.50851998">
        <ele>205.00000</ele>
        <time>2024-05-13T14:28:26Z</time>
      </trkpt>
      <trkpt lat="42.82360992" lon="13.50860992">
        <ele>205.00000</ele>
        <time>2024-05-13T14:28:30Z</time>
      </trkpt>
      <trkpt lat="42.82371997" lon="13.50864998">
        <ele>205.00000</ele>
        <time>2024-05-13T14:28:32Z</time>
      </trkpt>
      <trkpt lat="42.82380999" lon="13.50866993">
        <ele>206.00000</ele>
        <time>2024-05-13T14:28:33Z</time>
      </trkpt>
      <trkpt lat="42.82390999" lon="13.50867999">
        <ele>207.00000</ele>
        <time>2024-05-13T14:28:35Z</time>
      </trkpt>
      <trkpt lat="42.82408995" lon="13.50873992">
        <ele>208.00000</ele>
        <time>2024-05-13T14:28:38Z</time>
      </trkpt>
      <trkpt lat="42.82430998" lon="13.50880991">
        <ele>208.00000</ele>
        <time>2024-05-13T14:28:42Z</time>
      </trkpt>
      <trkpt lat="42.82447996" lon="13.50890999">
        <ele>207.00000</ele>
        <time>2024-05-13T14:28:44Z</time>
      </trkpt>
      <trkpt lat="42.82465992" lon="13.50897998">
        <ele>207.00000</ele>
        <time>2024-05-13T14:28:47Z</time>
      </trkpt>
      <trkpt lat="42.82496242" lon="13.50908551">
        <ele>207.00000</ele>
        <time>2024-05-13T14:28:52Z</time>
      </trkpt>
      <trkpt lat="42.82526501" lon="13.50919112">
        <ele>211.00000</ele>
        <time>2024-05-13T14:28:57Z</time>
      </trkpt>
      <trkpt lat="42.82556751" lon="13.50929673">
        <ele>213.00000</ele>
        <time>2024-05-13T14:29:02Z</time>
      </trkpt>
      <trkpt lat="42.82587010" lon="13.50940234">
        <ele>208.00000</ele>
        <time>2024-05-13T14:29:07Z</time>
      </trkpt>
      <trkpt lat="42.82617269" lon="13.50950796">
        <ele>205.00000</ele>
        <time>2024-05-13T14:29:12Z</time>
      </trkpt>
      <trkpt lat="42.82647519" lon="13.50961357">
        <ele>206.00000</ele>
        <time>2024-05-13T14:29:17Z</time>
      </trkpt>
      <trkpt lat="42.82677995" lon="13.50971993">
        <ele>207.00000</ele>
        <time>2024-05-13T14:29:22Z</time>
      </trkpt>
      <trkpt lat="42.82686998" lon="13.50974994">
        <ele>207.00000</ele>
        <time>2024-05-13T14:29:24Z</time>
      </trkpt>
      <trkpt lat="42.82712764" lon="13.50983980">
        <ele>204.00000</ele>
        <time>2024-05-13T14:29:28Z</time>
      </trkpt>
      <trkpt lat="42.82738538" lon="13.50992973">
        <ele>203.00000</ele>
        <time>2024-05-13T14:29:32Z</time>
      </trkpt>
      <trkpt lat="42.82764312" lon="13.51001967">
        <ele>203.00000</ele>
        <time>2024-05-13T14:29:37Z</time>
      </trkpt>
      <trkpt lat="42.82790087" lon="13.51010953">
        <ele>204.00000</ele>
        <time>2024-05-13T14:29:41Z</time>
      </trkpt>
      <trkpt lat="42.82815995" lon="13.51019997">
        <ele>204.00000</ele>
        <time>2024-05-13T14:29:45Z</time>
      </trkpt>
      <trkpt lat="42.82839967" lon="13.51027322">
        <ele>202.00000</ele>
        <time>2024-05-13T14:29:49Z</time>
      </trkpt>
      <trkpt lat="42.82863940" lon="13.51034648">
        <ele>202.00000</ele>
        <time>2024-05-13T14:29:53Z</time>
      </trkpt>
      <trkpt lat="42.82887996" lon="13.51041999">
        <ele>200.00000</ele>
        <time>2024-05-13T14:29:57Z</time>
      </trkpt>
      <trkpt lat="42.82915966" lon="13.51051479">
        <ele>200.00000</ele>
        <time>2024-05-13T14:30:02Z</time>
      </trkpt>
      <trkpt lat="42.82943995" lon="13.51060993">
        <ele>201.00000</ele>
        <time>2024-05-13T14:30:06Z</time>
      </trkpt>
      <trkpt lat="42.82965973" lon="13.51070975">
        <ele>200.00000</ele>
        <time>2024-05-13T14:30:10Z</time>
      </trkpt>
      <trkpt lat="42.82987992" lon="13.51080992">
        <ele>201.00000</ele>
        <time>2024-05-13T14:30:14Z</time>
      </trkpt>
      <trkpt lat="42.83005996" lon="13.51090991">
        <ele>202.00000</ele>
        <time>2024-05-13T14:30:17Z</time>
      </trkpt>
      <trkpt lat="42.83008997" lon="13.51101997">
        <ele>200.00000</ele>
        <time>2024-05-13T14:30:18Z</time>
      </trkpt>
      <trkpt lat="42.83010992" lon="13.51108996">
        <ele>199.00000</ele>
        <time>2024-05-13T14:30:19Z</time>
      </trkpt>
      <trkpt lat="42.83011998" lon="13.51116992">
        <ele>197.00000</ele>
        <time>2024-05-13T14:30:20Z</time>
      </trkpt>
      <trkpt lat="42.83014998" lon="13.51136991">
        <ele>193.00000</ele>
        <time>2024-05-13T14:30:22Z</time>
      </trkpt>
      <trkpt lat="42.83017002" lon="13.51164056">
        <ele>193.00000</ele>
        <time>2024-05-13T14:30:26Z</time>
      </trkpt>
      <trkpt lat="42.83018996" lon="13.51190996">
        <ele>195.00000</ele>
        <time>2024-05-13T14:30:29Z</time>
      </trkpt>
      <trkpt lat="42.83020991" lon="13.51213996">
        <ele>198.00000</ele>
        <time>2024-05-13T14:30:32Z</time>
      </trkpt>
      <trkpt lat="42.83024998" lon="13.51246065">
        <ele>200.00000</ele>
        <time>2024-05-13T14:30:35Z</time>
      </trkpt>
      <trkpt lat="42.83028996" lon="13.51277992">
        <ele>201.00000</ele>
        <time>2024-05-13T14:30:39Z</time>
      </trkpt>
      <trkpt lat="42.83034997" lon="13.51303992">
        <ele>202.00000</ele>
        <time>2024-05-13T14:30:42Z</time>
      </trkpt>
      <trkpt lat="42.83036992" lon="13.51313992">
        <ele>202.00000</ele>
        <time>2024-05-13T14:30:44Z</time>
      </trkpt>
      <trkpt lat="42.83043505" lon="13.51344058">
        <ele>203.00000</ele>
        <time>2024-05-13T14:30:47Z</time>
      </trkpt>
      <trkpt lat="42.83049993" lon="13.51373998">
        <ele>204.00000</ele>
        <time>2024-05-13T14:30:51Z</time>
      </trkpt>
      <trkpt lat="42.83050999" lon="13.51375993">
        <ele>204.00000</ele>
        <time>2024-05-13T14:30:51Z</time>
      </trkpt>
      <trkpt lat="42.83061266" lon="13.51410300">
        <ele>205.00000</ele>
        <time>2024-05-13T14:30:56Z</time>
      </trkpt>
      <trkpt lat="42.83071534" lon="13.51444615">
        <ele>208.00000</ele>
        <time>2024-05-13T14:31:00Z</time>
      </trkpt>
      <trkpt lat="42.83081802" lon="13.51478931">
        <ele>207.00000</ele>
        <time>2024-05-13T14:31:04Z</time>
      </trkpt>
      <trkpt lat="42.83091994" lon="13.51512995">
        <ele>207.00000</ele>
        <time>2024-05-13T14:31:09Z</time>
      </trkpt>
      <trkpt lat="42.83105992" lon="13.51548995">
        <ele>208.00000</ele>
        <time>2024-05-13T14:31:14Z</time>
      </trkpt>
      <trkpt lat="42.83107995" lon="13.51551996">
        <ele>208.00000</ele>
        <time>2024-05-13T14:31:14Z</time>
      </trkpt>
      <trkpt lat="42.83111994" lon="13.51558995">
        <ele>208.00000</ele>
        <time>2024-05-13T14:31:15Z</time>
      </trkpt>
      <trkpt lat="42.83129998" lon="13.51584996">
        <ele>206.00000</ele>
        <time>2024-05-13T14:31:19Z</time>
      </trkpt>
      <trkpt lat="42.83152495" lon="13.51606654">
        <ele>204.00000</ele>
        <time>2024-05-13T14:31:24Z</time>
      </trkpt>
      <trkpt lat="42.83174992" lon="13.51628322">
        <ele>206.00000</ele>
        <time>2024-05-13T14:31:28Z</time>
      </trkpt>
      <trkpt lat="42.83197489" lon="13.51649989">
        <ele>209.00000</ele>
        <time>2024-05-13T14:31:32Z</time>
      </trkpt>
      <trkpt lat="42.83219994" lon="13.51671656">
        <ele>213.00000</ele>
        <time>2024-05-13T14:31:37Z</time>
      </trkpt>
      <trkpt lat="42.83242492" lon="13.51693323">
        <ele>215.00000</ele>
        <time>2024-05-13T14:31:41Z</time>
      </trkpt>
      <trkpt lat="42.83264997" lon="13.51714999">
        <ele>216.00000</ele>
        <time>2024-05-13T14:31:46Z</time>
      </trkpt>
      <trkpt lat="42.83288994" lon="13.51733992">
        <ele>219.00000</ele>
        <time>2024-05-13T14:31:50Z</time>
      </trkpt>
      <trkpt lat="42.83317468" lon="13.51748979">
        <ele>218.00000</ele>
        <time>2024-05-13T14:31:55Z</time>
      </trkpt>
      <trkpt lat="42.83345991" lon="13.51763991">
        <ele>216.00000</ele>
        <time>2024-05-13T14:32:00Z</time>
      </trkpt>
      <trkpt lat="42.83364976" lon="13.51774485">
        <ele>216.00000</ele>
        <time>2024-05-13T14:32:03Z</time>
      </trkpt>
      <trkpt lat="42.83383995" lon="13.51784996">
        <ele>217.00000</ele>
        <time>2024-05-13T14:32:06Z</time>
      </trkpt>
      <trkpt lat="42.83401999" lon="13.51794996">
        <ele>219.00000</ele>
        <time>2024-05-13T14:32:10Z</time>
      </trkpt>
      <trkpt lat="42.83421998" lon="13.51804995">
        <ele>219.00000</ele>
        <time>2024-05-13T14:32:13Z</time>
      </trkpt>
      <trkpt lat="42.83429995" lon="13.51810997">
        <ele>220.00000</ele>
        <time>2024-05-13T14:32:14Z</time>
      </trkpt>
      <trkpt lat="42.83441998" lon="13.51819999">
        <ele>220.00000</ele>
        <time>2024-05-13T14:32:17Z</time>
      </trkpt>
      <trkpt lat="42.83450991" lon="13.51829999">
        <ele>220.00000</ele>
        <time>2024-05-13T14:32:19Z</time>
      </trkpt>
      <trkpt lat="42.83459994" lon="13.51840996">
        <ele>220.00000</ele>
        <time>2024-05-13T14:32:20Z</time>
      </trkpt>
      <trkpt lat="42.83468996" lon="13.51854993">
        <ele>220.00000</ele>
        <time>2024-05-13T14:32:23Z</time>
      </trkpt>
      <trkpt lat="42.83469993" lon="13.51857994">
        <ele>221.00000</ele>
        <time>2024-05-13T14:32:23Z</time>
      </trkpt>
      <trkpt lat="42.83484494" lon="13.51876501">
        <ele>221.00000</ele>
        <time>2024-05-13T14:32:26Z</time>
      </trkpt>
      <trkpt lat="42.83498995" lon="13.51894992">
        <ele>222.00000</ele>
        <time>2024-05-13T14:32:29Z</time>
      </trkpt>
      <trkpt lat="42.83516999" lon="13.51919995">
        <ele>224.00000</ele>
        <time>2024-05-13T14:32:33Z</time>
      </trkpt>
      <trkpt lat="42.83525993" lon="13.51929995">
        <ele>225.00000</ele>
        <time>2024-05-13T14:32:35Z</time>
      </trkpt>
      <trkpt lat="42.83536998" lon="13.51939994">
        <ele>226.00000</ele>
        <time>2024-05-13T14:32:37Z</time>
      </trkpt>
      <trkpt lat="42.83557995" lon="13.51953992">
        <ele>226.00000</ele>
        <time>2024-05-13T14:32:41Z</time>
      </trkpt>
      <trkpt lat="42.83571993" lon="13.51960999">
        <ele>226.00000</ele>
        <time>2024-05-13T14:32:44Z</time>
      </trkpt>
      <trkpt lat="42.83584993" lon="13.51963992">
        <ele>224.00000</ele>
        <time>2024-05-13T14:32:46Z</time>
      </trkpt>
      <trkpt lat="42.83600994" lon="13.51964998">
        <ele>222.00000</ele>
        <time>2024-05-13T14:32:48Z</time>
      </trkpt>
      <trkpt lat="42.83615997" lon="13.51963992">
        <ele>220.00000</ele>
        <time>2024-05-13T14:32:51Z</time>
      </trkpt>
      <trkpt lat="42.83630993" lon="13.51963992">
        <ele>219.00000</ele>
        <time>2024-05-13T14:32:53Z</time>
      </trkpt>
      <trkpt lat="42.83645996" lon="13.51965995">
        <ele>218.00000</ele>
        <time>2024-05-13T14:32:55Z</time>
      </trkpt>
      <trkpt lat="42.83663992" lon="13.51970999">
        <ele>217.00000</ele>
        <time>2024-05-13T14:32:58Z</time>
      </trkpt>
      <trkpt lat="42.83674998" lon="13.51978995">
        <ele>217.00000</ele>
        <time>2024-05-13T14:33:00Z</time>
      </trkpt>
      <trkpt lat="42.83689993" lon="13.51993999">
        <ele>219.00000</ele>
        <time>2024-05-13T14:33:03Z</time>
      </trkpt>
      <trkpt lat="42.83704997" lon="13.52013998">
        <ele>220.00000</ele>
        <time>2024-05-13T14:33:07Z</time>
      </trkpt>
      <trkpt lat="42.83717997" lon="13.52030997">
        <ele>221.00000</ele>
        <time>2024-05-13T14:33:10Z</time>
      </trkpt>
      <trkpt lat="42.83730997" lon="13.52042991">
        <ele>221.00000</ele>
        <time>2024-05-13T14:33:12Z</time>
      </trkpt>
      <trkpt lat="42.83743998" lon="13.52048993">
        <ele>220.00000</ele>
        <time>2024-05-13T14:33:14Z</time>
      </trkpt>
      <trkpt lat="42.83763997" lon="13.52054994">
        <ele>218.00000</ele>
        <time>2024-05-13T14:33:18Z</time>
      </trkpt>
      <trkpt lat="42.83782999" lon="13.52062999">
        <ele>216.00000</ele>
        <time>2024-05-13T14:33:21Z</time>
      </trkpt>
      <trkpt lat="42.83789997" lon="13.52068992">
        <ele>214.00000</ele>
        <time>2024-05-13T14:33:22Z</time>
      </trkpt>
      <trkpt lat="42.83796996" lon="13.52075999">
        <ele>213.00000</ele>
        <time>2024-05-13T14:33:24Z</time>
      </trkpt>
      <trkpt lat="42.83799997" lon="13.52081992">
        <ele>212.00000</ele>
        <time>2024-05-13T14:33:24Z</time>
      </trkpt>
      <trkpt lat="42.83802998" lon="13.52095998">
        <ele>211.00000</ele>
        <time>2024-05-13T14:33:26Z</time>
      </trkpt>
      <trkpt lat="42.83807993" lon="13.52116995">
        <ele>210.00000</ele>
        <time>2024-05-13T14:33:29Z</time>
      </trkpt>
      <trkpt lat="42.83812997" lon="13.52138997">
        <ele>209.00000</ele>
        <time>2024-05-13T14:33:31Z</time>
      </trkpt>
      <trkpt lat="42.83819996" lon="13.52158997">
        <ele>207.00000</ele>
        <time>2024-05-13T14:33:34Z</time>
      </trkpt>
      <trkpt lat="42.83824992" lon="13.52168996">
        <ele>206.00000</ele>
        <time>2024-05-13T14:33:35Z</time>
      </trkpt>
      <trkpt lat="42.83833994" lon="13.52185995">
        <ele>205.00000</ele>
        <time>2024-05-13T14:33:38Z</time>
      </trkpt>
      <trkpt lat="42.83842996" lon="13.52198995">
        <ele>206.00000</ele>
        <time>2024-05-13T14:33:40Z</time>
      </trkpt>
      <trkpt lat="42.83854999" lon="13.52216505">
        <ele>206.00000</ele>
        <time>2024-05-13T14:33:43Z</time>
      </trkpt>
      <trkpt lat="42.83866994" lon="13.52233998">
        <ele>206.00000</ele>
        <time>2024-05-13T14:33:46Z</time>
      </trkpt>
      <trkpt lat="42.83887504" lon="13.52259504">
        <ele>206.00000</ele>
        <time>2024-05-13T14:33:50Z</time>
      </trkpt>
      <trkpt lat="42.83907998" lon="13.52284993">
        <ele>206.00000</ele>
        <time>2024-05-13T14:33:55Z</time>
      </trkpt>
      <trkpt lat="42.83919992" lon="13.52293996">
        <ele>205.00000</ele>
        <time>2024-05-13T14:33:57Z</time>
      </trkpt>
      <trkpt lat="42.83933999" lon="13.52298991">
        <ele>204.00000</ele>
        <time>2024-05-13T14:33:59Z</time>
      </trkpt>
      <trkpt lat="42.83955967" lon="13.52300483">
        <ele>202.00000</ele>
        <time>2024-05-13T14:34:03Z</time>
      </trkpt>
      <trkpt lat="42.83977995" lon="13.52301992">
        <ele>199.00000</ele>
        <time>2024-05-13T14:34:06Z</time>
      </trkpt>
      <trkpt lat="42.83981993" lon="13.52301992">
        <ele>199.00000</ele>
        <time>2024-05-13T14:34:07Z</time>
      </trkpt>
      <trkpt lat="42.84010458" lon="13.52301992">
        <ele>197.00000</ele>
        <time>2024-05-13T14:34:11Z</time>
      </trkpt>
      <trkpt lat="42.84038999" lon="13.52301992">
        <ele>199.00000</ele>
        <time>2024-05-13T14:34:16Z</time>
      </trkpt>
      <trkpt lat="42.84066458" lon="13.52304490">
        <ele>200.00000</ele>
        <time>2024-05-13T14:34:20Z</time>
      </trkpt>
      <trkpt lat="42.84093992" lon="13.52306996">
        <ele>200.00000</ele>
        <time>2024-05-13T14:34:25Z</time>
      </trkpt>
      <trkpt lat="42.84103992" lon="13.52309997">
        <ele>199.00000</ele>
        <time>2024-05-13T14:34:26Z</time>
      </trkpt>
      <trkpt lat="42.84111997" lon="13.52314992">
        <ele>199.00000</ele>
        <time>2024-05-13T14:34:28Z</time>
      </trkpt>
      <trkpt lat="42.84119993" lon="13.52320994">
        <ele>200.00000</ele>
        <time>2024-05-13T14:34:29Z</time>
      </trkpt>
      <trkpt lat="42.84125994" lon="13.52324992">
        <ele>200.00000</ele>
        <time>2024-05-13T14:34:30Z</time>
      </trkpt>
      <trkpt lat="42.84137997" lon="13.52338998">
        <ele>199.00000</ele>
        <time>2024-05-13T14:34:33Z</time>
      </trkpt>
      <trkpt lat="42.84144996" lon="13.52350993">
        <ele>198.00000</ele>
        <time>2024-05-13T14:34:35Z</time>
      </trkpt>
      <trkpt lat="42.84151995" lon="13.52366994">
        <ele>197.00000</ele>
        <time>2024-05-13T14:34:37Z</time>
      </trkpt>
      <trkpt lat="42.84162506" lon="13.52391527">
        <ele>197.00000</ele>
        <time>2024-05-13T14:34:40Z</time>
      </trkpt>
      <trkpt lat="42.84172992" lon="13.52415994">
        <ele>198.00000</ele>
        <time>2024-05-13T14:34:43Z</time>
      </trkpt>
      <trkpt lat="42.84178993" lon="13.52430998">
        <ele>199.00000</ele>
        <time>2024-05-13T14:34:45Z</time>
      </trkpt>
      <trkpt lat="42.84186998" lon="13.52443998">
        <ele>200.00000</ele>
        <time>2024-05-13T14:34:47Z</time>
      </trkpt>
      <trkpt lat="42.84189999" lon="13.52447996">
        <ele>201.00000</ele>
        <time>2024-05-13T14:34:48Z</time>
      </trkpt>
      <trkpt lat="42.84191993" lon="13.52450997">
        <ele>201.00000</ele>
        <time>2024-05-13T14:34:49Z</time>
      </trkpt>
      <trkpt lat="42.84204994" lon="13.52460997">
        <ele>201.00000</ele>
        <time>2024-05-13T14:34:51Z</time>
      </trkpt>
      <trkpt lat="42.84219981" lon="13.52468482">
        <ele>198.00000</ele>
        <time>2024-05-13T14:34:54Z</time>
      </trkpt>
      <trkpt lat="42.84234993" lon="13.52475992">
        <ele>195.00000</ele>
        <time>2024-05-13T14:34:56Z</time>
      </trkpt>
      <trkpt lat="42.84255998" lon="13.52483997">
        <ele>192.00000</ele>
        <time>2024-05-13T14:35:00Z</time>
      </trkpt>
      <trkpt lat="42.84266995" lon="13.52491993">
        <ele>193.00000</ele>
        <time>2024-05-13T14:35:02Z</time>
      </trkpt>
      <trkpt lat="42.84276994" lon="13.52501993">
        <ele>195.00000</ele>
        <time>2024-05-13T14:35:04Z</time>
      </trkpt>
      <trkpt lat="42.84287991" lon="13.52513995">
        <ele>198.00000</ele>
        <time>2024-05-13T14:35:06Z</time>
      </trkpt>
      <trkpt lat="42.84297999" lon="13.52522998">
        <ele>199.00000</ele>
        <time>2024-05-13T14:35:08Z</time>
      </trkpt>
      <trkpt lat="42.84310991" lon="13.52536492">
        <ele>199.00000</ele>
        <time>2024-05-13T14:35:10Z</time>
      </trkpt>
      <trkpt lat="42.84323992" lon="13.52549996">
        <ele>196.00000</ele>
        <time>2024-05-13T14:35:13Z</time>
      </trkpt>
      <trkpt lat="42.84337989" lon="13.52562988">
        <ele>192.00000</ele>
        <time>2024-05-13T14:35:16Z</time>
      </trkpt>
      <trkpt lat="42.84351996" lon="13.52575996">
        <ele>190.00000</ele>
        <time>2024-05-13T14:35:18Z</time>
      </trkpt>
      <trkpt lat="42.84367997" lon="13.52589994">
        <ele>190.00000</ele>
        <time>2024-05-13T14:35:21Z</time>
      </trkpt>
      <trkpt lat="42.84382984" lon="13.52601989">
        <ele>191.00000</ele>
        <time>2024-05-13T14:35:24Z</time>
      </trkpt>
      <trkpt lat="42.84397996" lon="13.52613992">
        <ele>193.00000</ele>
        <time>2024-05-13T14:35:27Z</time>
      </trkpt>
      <trkpt lat="42.84419981" lon="13.52630982">
        <ele>194.00000</ele>
        <time>2024-05-13T14:35:31Z</time>
      </trkpt>
      <trkpt lat="42.84441992" lon="13.52647997">
        <ele>191.00000</ele>
        <time>2024-05-13T14:35:35Z</time>
      </trkpt>
      <trkpt lat="42.84465998" lon="13.52664995">
        <ele>191.00000</ele>
        <time>2024-05-13T14:35:39Z</time>
      </trkpt>
      <trkpt lat="42.84487984" lon="13.52681483">
        <ele>190.00000</ele>
        <time>2024-05-13T14:35:43Z</time>
      </trkpt>
      <trkpt lat="42.84509995" lon="13.52697995">
        <ele>189.00000</ele>
        <time>2024-05-13T14:35:47Z</time>
      </trkpt>
      <trkpt lat="42.84531997" lon="13.52717994">
        <ele>189.00000</ele>
        <time>2024-05-13T14:35:52Z</time>
      </trkpt>
      <trkpt lat="42.84543992" lon="13.52735999">
        <ele>189.00000</ele>
        <time>2024-05-13T14:35:55Z</time>
      </trkpt>
      <trkpt lat="42.84554997" lon="13.52755998">
        <ele>189.00000</ele>
        <time>2024-05-13T14:35:57Z</time>
      </trkpt>
      <trkpt lat="42.84566991" lon="13.52779995">
        <ele>188.00000</ele>
        <time>2024-05-13T14:36:01Z</time>
      </trkpt>
      <trkpt lat="42.84576999" lon="13.52793993">
        <ele>186.00000</ele>
        <time>2024-05-13T14:36:03Z</time>
      </trkpt>
      <trkpt lat="42.84583998" lon="13.52803993">
        <ele>184.00000</ele>
        <time>2024-05-13T14:36:05Z</time>
      </trkpt>
      <trkpt lat="42.84601994" lon="13.52820999">
        <ele>186.00000</ele>
        <time>2024-05-13T14:36:08Z</time>
      </trkpt>
      <trkpt lat="42.84622488" lon="13.52838987">
        <ele>185.00000</ele>
        <time>2024-05-13T14:36:12Z</time>
      </trkpt>
      <trkpt lat="42.84642999" lon="13.52856991">
        <ele>184.00000</ele>
        <time>2024-05-13T14:36:16Z</time>
      </trkpt>
      <trkpt lat="42.84655999" lon="13.52867997">
        <ele>184.00000</ele>
        <time>2024-05-13T14:36:19Z</time>
      </trkpt>
      <trkpt lat="42.84673995" lon="13.52881995">
        <ele>184.00000</ele>
        <time>2024-05-13T14:36:22Z</time>
      </trkpt>
      <trkpt lat="42.84678999" lon="13.52885993">
        <ele>184.00000</ele>
        <time>2024-05-13T14:36:23Z</time>
      </trkpt>
      <trkpt lat="42.84700993" lon="13.52904994">
        <ele>186.00000</ele>
        <time>2024-05-13T14:36:27Z</time>
      </trkpt>
      <trkpt lat="42.84722987" lon="13.52923485">
        <ele>187.00000</ele>
        <time>2024-05-13T14:36:31Z</time>
      </trkpt>
      <trkpt lat="42.84744998" lon="13.52941992">
        <ele>187.00000</ele>
        <time>2024-05-13T14:36:35Z</time>
      </trkpt>
      <trkpt lat="42.84769993" lon="13.52961991">
        <ele>190.00000</ele>
        <time>2024-05-13T14:36:40Z</time>
      </trkpt>
      <trkpt lat="42.84788978" lon="13.52974983">
        <ele>191.00000</ele>
        <time>2024-05-13T14:36:43Z</time>
      </trkpt>
      <trkpt lat="42.84807996" lon="13.52987992">
        <ele>190.00000</ele>
        <time>2024-05-13T14:36:47Z</time>
      </trkpt>
      <trkpt lat="42.84827476" lon="13.52995485">
        <ele>191.00000</ele>
        <time>2024-05-13T14:36:50Z</time>
      </trkpt>
      <trkpt lat="42.84846997" lon="13.53002996">
        <ele>192.00000</ele>
        <time>2024-05-13T14:36:53Z</time>
      </trkpt>
      <trkpt lat="42.84869997" lon="13.53012995">
        <ele>194.00000</ele>
        <time>2024-05-13T14:36:57Z</time>
      </trkpt>
      <trkpt lat="42.84894992" lon="13.53023992">
        <ele>195.00000</ele>
        <time>2024-05-13T14:37:01Z</time>
      </trkpt>
      <trkpt lat="42.84907992" lon="13.53030991">
        <ele>194.00000</ele>
        <time>2024-05-13T14:37:03Z</time>
      </trkpt>
      <trkpt lat="42.84918998" lon="13.53039993">
        <ele>193.00000</ele>
        <time>2024-05-13T14:37:06Z</time>
      </trkpt>
      <trkpt lat="42.84926994" lon="13.53048996">
        <ele>192.00000</ele>
        <time>2024-05-13T14:37:07Z</time>
      </trkpt>
      <trkpt lat="42.84935996" lon="13.53058995">
        <ele>192.00000</ele>
        <time>2024-05-13T14:37:09Z</time>
      </trkpt>
      <trkpt lat="42.84941998" lon="13.53070998">
        <ele>193.00000</ele>
        <time>2024-05-13T14:37:11Z</time>
      </trkpt>
      <trkpt lat="42.84948997" lon="13.53086999">
        <ele>196.00000</ele>
        <time>2024-05-13T14:37:13Z</time>
      </trkpt>
      <trkpt lat="42.84958996" lon="13.53115992">
        <ele>199.00000</ele>
        <time>2024-05-13T14:37:17Z</time>
      </trkpt>
      <trkpt lat="42.84967998" lon="13.53141993">
        <ele>198.00000</ele>
        <time>2024-05-13T14:37:20Z</time>
      </trkpt>
      <trkpt lat="42.84973992" lon="13.53169997">
        <ele>198.00000</ele>
        <time>2024-05-13T14:37:24Z</time>
      </trkpt>
      <trkpt lat="42.84978996" lon="13.53190993">
        <ele>195.00000</ele>
        <time>2024-05-13T14:37:26Z</time>
      </trkpt>
      <trkpt lat="42.84983991" lon="13.53218997">
        <ele>195.00000</ele>
        <time>2024-05-13T14:37:30Z</time>
      </trkpt>
      <trkpt lat="42.84987998" lon="13.53242995">
        <ele>196.00000</ele>
        <time>2024-05-13T14:37:32Z</time>
      </trkpt>
      <trkpt lat="42.84989993" lon="13.53269993">
        <ele>197.00000</ele>
        <time>2024-05-13T14:37:36Z</time>
      </trkpt>
      <trkpt lat="42.84990496" lon="13.53303571">
        <ele>196.00000</ele>
        <time>2024-05-13T14:37:40Z</time>
      </trkpt>
      <trkpt lat="42.84990998" lon="13.53336998">
        <ele>191.00000</ele>
        <time>2024-05-13T14:37:44Z</time>
      </trkpt>
      <trkpt lat="42.84989993" lon="13.53377994">
        <ele>187.00000</ele>
        <time>2024-05-13T14:37:48Z</time>
      </trkpt>
      <trkpt lat="42.84989322" lon="13.53407397">
        <ele>184.00000</ele>
        <time>2024-05-13T14:37:52Z</time>
      </trkpt>
      <trkpt lat="42.84988651" lon="13.53436801">
        <ele>183.00000</ele>
        <time>2024-05-13T14:37:55Z</time>
      </trkpt>
      <trkpt lat="42.84987998" lon="13.53465995">
        <ele>183.00000</ele>
        <time>2024-05-13T14:37:59Z</time>
      </trkpt>
      <trkpt lat="42.84985986" lon="13.53499406">
        <ele>183.00000</ele>
        <time>2024-05-13T14:38:03Z</time>
      </trkpt>
      <trkpt lat="42.84983983" lon="13.53532816">
        <ele>186.00000</ele>
        <time>2024-05-13T14:38:07Z</time>
      </trkpt>
      <trkpt lat="42.84981996" lon="13.53565991">
        <ele>189.00000</ele>
        <time>2024-05-13T14:38:11Z</time>
      </trkpt>
      <trkpt lat="42.84978652" lon="13.53597063">
        <ele>190.00000</ele>
        <time>2024-05-13T14:38:14Z</time>
      </trkpt>
      <trkpt lat="42.84975307" lon="13.53628135">
        <ele>188.00000</ele>
        <time>2024-05-13T14:38:18Z</time>
      </trkpt>
      <trkpt lat="42.84971997" lon="13.53658997">
        <ele>185.00000</ele>
        <time>2024-05-13T14:38:22Z</time>
      </trkpt>
      <trkpt lat="42.84965978" lon="13.53696573">
        <ele>185.00000</ele>
        <time>2024-05-13T14:38:26Z</time>
      </trkpt>
      <trkpt lat="42.84959994" lon="13.53733998">
        <ele>187.00000</ele>
        <time>2024-05-13T14:38:31Z</time>
      </trkpt>
      <trkpt lat="42.84954981" lon="13.53761550">
        <ele>187.00000</ele>
        <time>2024-05-13T14:38:34Z</time>
      </trkpt>
      <trkpt lat="42.84949994" lon="13.53788992">
        <ele>187.00000</ele>
        <time>2024-05-13T14:38:37Z</time>
      </trkpt>
      <trkpt lat="42.84945996" lon="13.53813995">
        <ele>184.00000</ele>
        <time>2024-05-13T14:38:40Z</time>
      </trkpt>
      <trkpt lat="42.84941998" lon="13.53822997">
        <ele>184.00000</ele>
        <time>2024-05-13T14:38:42Z</time>
      </trkpt>
      <trkpt lat="42.84937480" lon="13.53863582">
        <ele>182.00000</ele>
        <time>2024-05-13T14:38:46Z</time>
      </trkpt>
      <trkpt lat="42.84932996" lon="13.53903992">
        <ele>184.00000</ele>
        <time>2024-05-13T14:38:51Z</time>
      </trkpt>
      <trkpt lat="42.84930992" lon="13.53940998">
        <ele>187.00000</ele>
        <time>2024-05-13T14:38:56Z</time>
      </trkpt>
      <trkpt lat="42.84930992" lon="13.53952992">
        <ele>188.00000</ele>
        <time>2024-05-13T14:38:57Z</time>
      </trkpt>
      <trkpt lat="42.84931998" lon="13.53968993">
        <ele>188.00000</ele>
        <time>2024-05-13T14:38:59Z</time>
      </trkpt>
      <trkpt lat="42.84931998" lon="13.53977995">
        <ele>188.00000</ele>
        <time>2024-05-13T14:39:00Z</time>
      </trkpt>
      <trkpt lat="42.84933993" lon="13.53994994">
        <ele>187.00000</ele>
        <time>2024-05-13T14:39:02Z</time>
      </trkpt>
      <trkpt lat="42.84935996" lon="13.54010995">
        <ele>186.00000</ele>
        <time>2024-05-13T14:39:04Z</time>
      </trkpt>
      <trkpt lat="42.84937497" lon="13.54048579">
        <ele>185.00000</ele>
        <time>2024-05-13T14:39:08Z</time>
      </trkpt>
      <trkpt lat="42.84938997" lon="13.54085996">
        <ele>183.00000</ele>
        <time>2024-05-13T14:39:13Z</time>
      </trkpt>
      <trkpt lat="42.84937991" lon="13.54097999">
        <ele>182.00000</ele>
        <time>2024-05-13T14:39:14Z</time>
      </trkpt>
      <trkpt lat="42.84933993" lon="13.54117998">
        <ele>181.00000</ele>
        <time>2024-05-13T14:39:17Z</time>
      </trkpt>
      <trkpt lat="42.84931998" lon="13.54125995">
        <ele>181.00000</ele>
        <time>2024-05-13T14:39:18Z</time>
      </trkpt>
      <trkpt lat="42.84926994" lon="13.54139992">
        <ele>182.00000</ele>
        <time>2024-05-13T14:39:19Z</time>
      </trkpt>
      <trkpt lat="42.84924999" lon="13.54145994">
        <ele>182.00000</ele>
        <time>2024-05-13T14:39:20Z</time>
      </trkpt>
      <trkpt lat="42.84918998" lon="13.54159992">
        <ele>182.00000</ele>
        <time>2024-05-13T14:39:22Z</time>
      </trkpt>
      <trkpt lat="42.84908998" lon="13.54183997">
        <ele>182.00000</ele>
        <time>2024-05-13T14:39:25Z</time>
      </trkpt>
      <trkpt lat="42.84903994" lon="13.54190996">
        <ele>183.00000</ele>
        <time>2024-05-13T14:39:26Z</time>
      </trkpt>
      <trkpt lat="42.84902997" lon="13.54191994">
        <ele>183.00000</ele>
        <time>2024-05-13T14:39:27Z</time>
      </trkpt>
      <trkpt lat="42.84900994" lon="13.54196998">
        <ele>183.00000</ele>
        <time>2024-05-13T14:39:27Z</time>
      </trkpt>
      <trkpt lat="42.84895998" lon="13.54210996">
        <ele>182.00000</ele>
        <time>2024-05-13T14:39:29Z</time>
      </trkpt>
      <trkpt lat="42.84893995" lon="13.54218992">
        <ele>182.00000</ele>
        <time>2024-05-13T14:39:30Z</time>
      </trkpt>
      <trkpt lat="42.84892997" lon="13.54223996">
        <ele>181.00000</ele>
        <time>2024-05-13T14:39:31Z</time>
      </trkpt>
      <trkpt lat="42.84891991" lon="13.54228992">
        <ele>181.00000</ele>
        <time>2024-05-13T14:39:31Z</time>
      </trkpt>
      <trkpt lat="42.84889996" lon="13.54237994">
        <ele>180.00000</ele>
        <time>2024-05-13T14:39:32Z</time>
      </trkpt>
      <trkpt lat="42.84887993" lon="13.54250994">
        <ele>180.00000</ele>
        <time>2024-05-13T14:39:34Z</time>
      </trkpt>
      <trkpt lat="42.84886996" lon="13.54270993">
        <ele>178.00000</ele>
        <time>2024-05-13T14:39:36Z</time>
      </trkpt>
      <trkpt lat="42.84886996" lon="13.54277992">
        <ele>178.00000</ele>
        <time>2024-05-13T14:39:37Z</time>
      </trkpt>
      <trkpt lat="42.84886996" lon="13.54287992">
        <ele>177.00000</ele>
        <time>2024-05-13T14:39:38Z</time>
      </trkpt>
      <trkpt lat="42.84888999" lon="13.54306994">
        <ele>176.00000</ele>
        <time>2024-05-13T14:39:41Z</time>
      </trkpt>
      <trkpt lat="42.84889996" lon="13.54322995">
        <ele>175.00000</ele>
        <time>2024-05-13T14:39:43Z</time>
      </trkpt>
      <trkpt lat="42.84893995" lon="13.54337998">
        <ele>174.00000</ele>
        <time>2024-05-13T14:39:44Z</time>
      </trkpt>
      <trkpt lat="42.84898999" lon="13.54359992">
        <ele>171.00000</ele>
        <time>2024-05-13T14:39:47Z</time>
      </trkpt>
      <trkpt lat="42.84905000" lon="13.54384040">
        <ele>169.00000</ele>
        <time>2024-05-13T14:39:50Z</time>
      </trkpt>
      <trkpt lat="42.84910993" lon="13.54407995">
        <ele>168.00000</ele>
        <time>2024-05-13T14:39:53Z</time>
      </trkpt>
      <trkpt lat="42.84911999" lon="13.54412999">
        <ele>168.00000</ele>
        <time>2024-05-13T14:39:54Z</time>
      </trkpt>
      <trkpt lat="42.84917992" lon="13.54426997">
        <ele>167.00000</ele>
        <time>2024-05-13T14:39:56Z</time>
      </trkpt>
      <trkpt lat="42.84921999" lon="13.54443996">
        <ele>167.00000</ele>
        <time>2024-05-13T14:39:58Z</time>
      </trkpt>
      <trkpt lat="42.84925997" lon="13.54458999">
        <ele>167.00000</ele>
        <time>2024-05-13T14:40:00Z</time>
      </trkpt>
      <trkpt lat="42.84929995" lon="13.54471991">
        <ele>168.00000</ele>
        <time>2024-05-13T14:40:01Z</time>
      </trkpt>
      <trkpt lat="42.84930992" lon="13.54477993">
        <ele>168.00000</ele>
        <time>2024-05-13T14:40:02Z</time>
      </trkpt>
      <trkpt lat="42.84933993" lon="13.54484992">
        <ele>169.00000</ele>
        <time>2024-05-13T14:40:03Z</time>
      </trkpt>
      <trkpt lat="42.84938997" lon="13.54498998">
        <ele>169.00000</ele>
        <time>2024-05-13T14:40:05Z</time>
      </trkpt>
      <trkpt lat="42.84947999" lon="13.54521998">
        <ele>168.00000</ele>
        <time>2024-05-13T14:40:08Z</time>
      </trkpt>
      <trkpt lat="42.84954998" lon="13.54543992">
        <ele>169.00000</ele>
        <time>2024-05-13T14:40:11Z</time>
      </trkpt>
      <trkpt lat="42.84957999" lon="13.54553991">
        <ele>169.00000</ele>
        <time>2024-05-13T14:40:12Z</time>
      </trkpt>
      <trkpt lat="42.84960991" lon="13.54564997">
        <ele>169.00000</ele>
        <time>2024-05-13T14:40:13Z</time>
      </trkpt>
      <trkpt lat="42.84963992" lon="13.54575994">
        <ele>169.00000</ele>
        <time>2024-05-13T14:40:15Z</time>
      </trkpt>
      <trkpt lat="42.84964998" lon="13.54583999">
        <ele>169.00000</ele>
        <time>2024-05-13T14:40:16Z</time>
      </trkpt>
      <trkpt lat="42.84965995" lon="13.54588994">
        <ele>169.00000</ele>
        <time>2024-05-13T14:40:16Z</time>
      </trkpt>
      <trkpt lat="42.84966993" lon="13.54603998">
        <ele>170.00000</ele>
        <time>2024-05-13T14:40:18Z</time>
      </trkpt>
      <trkpt lat="42.84968996" lon="13.54615992">
        <ele>169.00000</ele>
        <time>2024-05-13T14:40:19Z</time>
      </trkpt>
      <trkpt lat="42.84971997" lon="13.54653074">
        <ele>167.00000</ele>
        <time>2024-05-13T14:40:24Z</time>
      </trkpt>
      <trkpt lat="42.84974997" lon="13.54689996">
        <ele>166.00000</ele>
        <time>2024-05-13T14:40:28Z</time>
      </trkpt>
      <trkpt lat="42.84977998" lon="13.54720062">
        <ele>166.00000</ele>
        <time>2024-05-13T14:40:32Z</time>
      </trkpt>
      <trkpt lat="42.84980999" lon="13.54749994">
        <ele>167.00000</ele>
        <time>2024-05-13T14:40:35Z</time>
      </trkpt>
      <trkpt lat="42.84983497" lon="13.54778056">
        <ele>169.00000</ele>
        <time>2024-05-13T14:40:39Z</time>
      </trkpt>
      <trkpt lat="42.84985994" lon="13.54805993">
        <ele>171.00000</ele>
        <time>2024-05-13T14:40:42Z</time>
      </trkpt>
      <trkpt lat="42.84986992" lon="13.54820997">
        <ele>172.00000</ele>
        <time>2024-05-13T14:40:44Z</time>
      </trkpt>
      <trkpt lat="42.84988995" lon="13.54827996">
        <ele>172.00000</ele>
        <time>2024-05-13T14:40:45Z</time>
      </trkpt>
      <trkpt lat="42.84990998" lon="13.54834995">
        <ele>172.00000</ele>
        <time>2024-05-13T14:40:45Z</time>
      </trkpt>
      <trkpt lat="42.84992993" lon="13.54839999">
        <ele>172.00000</ele>
        <time>2024-05-13T14:40:46Z</time>
      </trkpt>
      <trkpt lat="42.84994997" lon="13.54843997">
        <ele>172.00000</ele>
        <time>2024-05-13T14:40:47Z</time>
      </trkpt>
      <trkpt lat="42.84999992" lon="13.54850996">
        <ele>171.00000</ele>
        <time>2024-05-13T14:40:48Z</time>
      </trkpt>
      <trkpt lat="42.85006999" lon="13.54858992">
        <ele>171.00000</ele>
        <time>2024-05-13T14:40:49Z</time>
      </trkpt>
      <trkpt lat="42.85025993" lon="13.54875999">
        <ele>170.00000</ele>
        <time>2024-05-13T14:40:53Z</time>
      </trkpt>
      <trkpt lat="42.85043997" lon="13.54892998">
        <ele>170.00000</ele>
        <time>2024-05-13T14:40:56Z</time>
      </trkpt>
      <trkpt lat="42.85054994" lon="13.54903995">
        <ele>171.00000</ele>
        <time>2024-05-13T14:40:59Z</time>
      </trkpt>
      <trkpt lat="42.85060996" lon="13.54910993">
        <ele>170.00000</ele>
        <time>2024-05-13T14:41:00Z</time>
      </trkpt>
      <trkpt lat="42.85064994" lon="13.54917992">
        <ele>170.00000</ele>
        <time>2024-05-13T14:41:01Z</time>
      </trkpt>
      <trkpt lat="42.85068992" lon="13.54924991">
        <ele>170.00000</ele>
        <time>2024-05-13T14:41:02Z</time>
      </trkpt>
      <trkpt lat="42.85071993" lon="13.54930993">
        <ele>170.00000</ele>
        <time>2024-05-13T14:41:03Z</time>
      </trkpt>
      <trkpt lat="42.85074993" lon="13.54937992">
        <ele>170.00000</ele>
        <time>2024-05-13T14:41:04Z</time>
      </trkpt>
      <trkpt lat="42.85077994" lon="13.54947991">
        <ele>171.00000</ele>
        <time>2024-05-13T14:41:05Z</time>
      </trkpt>
      <trkpt lat="42.85084507" lon="13.54985567">
        <ele>175.00000</ele>
        <time>2024-05-13T14:41:10Z</time>
      </trkpt>
      <trkpt lat="42.85090995" lon="13.55022992">
        <ele>177.00000</ele>
        <time>2024-05-13T14:41:14Z</time>
      </trkpt>
      <trkpt lat="42.85095504" lon="13.55047040">
        <ele>177.00000</ele>
        <time>2024-05-13T14:41:17Z</time>
      </trkpt>
      <trkpt lat="42.85099997" lon="13.55070996">
        <ele>175.00000</ele>
        <time>2024-05-13T14:41:20Z</time>
      </trkpt>
      <trkpt lat="42.85107507" lon="13.55106568">
        <ele>174.00000</ele>
        <time>2024-05-13T14:41:24Z</time>
      </trkpt>
      <trkpt lat="42.85114992" lon="13.55141999">
        <ele>176.00000</ele>
        <time>2024-05-13T14:41:29Z</time>
      </trkpt>
      <trkpt lat="42.85118998" lon="13.55157991">
        <ele>177.00000</ele>
        <time>2024-05-13T14:41:31Z</time>
      </trkpt>
      <trkpt lat="42.85122997" lon="13.55175996">
        <ele>178.00000</ele>
        <time>2024-05-13T14:41:33Z</time>
      </trkpt>
      <trkpt lat="42.85125997" lon="13.55183992">
        <ele>178.00000</ele>
        <time>2024-05-13T14:41:34Z</time>
      </trkpt>
      <trkpt lat="42.85128998" lon="13.55191997">
        <ele>178.00000</ele>
        <time>2024-05-13T14:41:35Z</time>
      </trkpt>
      <trkpt lat="42.85130993" lon="13.55197998">
        <ele>179.00000</ele>
        <time>2024-05-13T14:41:36Z</time>
      </trkpt>
      <trkpt lat="42.85132996" lon="13.55202994">
        <ele>179.00000</ele>
        <time>2024-05-13T14:41:36Z</time>
      </trkpt>
      <trkpt lat="42.85136994" lon="13.55208995">
        <ele>178.00000</ele>
        <time>2024-05-13T14:41:37Z</time>
      </trkpt>
      <trkpt lat="42.85140993" lon="13.55214997">
        <ele>178.00000</ele>
        <time>2024-05-13T14:41:38Z</time>
      </trkpt>
      <trkpt lat="42.85144999" lon="13.55219992">
        <ele>178.00000</ele>
        <time>2024-05-13T14:41:39Z</time>
      </trkpt>
      <trkpt lat="42.85160992" lon="13.55235993">
        <ele>175.00000</ele>
        <time>2024-05-13T14:41:42Z</time>
      </trkpt>
      <trkpt lat="42.85165996" lon="13.55241995">
        <ele>174.00000</ele>
        <time>2024-05-13T14:41:43Z</time>
      </trkpt>
      <trkpt lat="42.85168997" lon="13.55246999">
        <ele>174.00000</ele>
        <time>2024-05-13T14:41:44Z</time>
      </trkpt>
      <trkpt lat="42.85171997" lon="13.55251994">
        <ele>173.00000</ele>
        <time>2024-05-13T14:41:45Z</time>
      </trkpt>
      <trkpt lat="42.85173992" lon="13.55258993">
        <ele>174.00000</ele>
        <time>2024-05-13T14:41:46Z</time>
      </trkpt>
      <trkpt lat="42.85176993" lon="13.55267995">
        <ele>174.00000</ele>
        <time>2024-05-13T14:41:47Z</time>
      </trkpt>
      <trkpt lat="42.85177999" lon="13.55274994">
        <ele>174.00000</ele>
        <time>2024-05-13T14:41:48Z</time>
      </trkpt>
      <trkpt lat="42.85177999" lon="13.55282999">
        <ele>175.00000</ele>
        <time>2024-05-13T14:41:49Z</time>
      </trkpt>
      <trkpt lat="42.85177999" lon="13.55291993">
        <ele>177.00000</ele>
        <time>2024-05-13T14:41:50Z</time>
      </trkpt>
      <trkpt lat="42.85177999" lon="13.55310995">
        <ele>179.00000</ele>
        <time>2024-05-13T14:41:52Z</time>
      </trkpt>
      <trkpt lat="42.85177999" lon="13.55334992">
        <ele>182.00000</ele>
        <time>2024-05-13T14:41:55Z</time>
      </trkpt>
      <trkpt lat="42.85177999" lon="13.55350993">
        <ele>181.00000</ele>
        <time>2024-05-13T14:41:57Z</time>
      </trkpt>
      <trkpt lat="42.85178996" lon="13.55358998">
        <ele>181.00000</ele>
        <time>2024-05-13T14:41:58Z</time>
      </trkpt>
      <trkpt lat="42.85178996" lon="13.55365997">
        <ele>181.00000</ele>
        <time>2024-05-13T14:41:59Z</time>
      </trkpt>
      <trkpt lat="42.85180999" lon="13.55372996">
        <ele>180.00000</ele>
        <time>2024-05-13T14:41:59Z</time>
      </trkpt>
      <trkpt lat="42.85181997" lon="13.55383993">
        <ele>180.00000</ele>
        <time>2024-05-13T14:42:01Z</time>
      </trkpt>
      <trkpt lat="42.85182994" lon="13.55385996">
        <ele>180.00000</ele>
        <time>2024-05-13T14:42:01Z</time>
      </trkpt>
      <trkpt lat="42.85186992" lon="13.55397999">
        <ele>179.00000</ele>
        <time>2024-05-13T14:42:03Z</time>
      </trkpt>
      <trkpt lat="42.85191996" lon="13.55409993">
        <ele>179.00000</ele>
        <time>2024-05-13T14:42:04Z</time>
      </trkpt>
      <trkpt lat="42.85196992" lon="13.55421996">
        <ele>179.00000</ele>
        <time>2024-05-13T14:42:06Z</time>
      </trkpt>
      <trkpt lat="42.85208500" lon="13.55445524">
        <ele>179.00000</ele>
        <time>2024-05-13T14:42:09Z</time>
      </trkpt>
      <trkpt lat="42.85219992" lon="13.55468994">
        <ele>179.00000</ele>
        <time>2024-05-13T14:42:12Z</time>
      </trkpt>
      <trkpt lat="42.85235507" lon="13.55501532">
        <ele>176.00000</ele>
        <time>2024-05-13T14:42:17Z</time>
      </trkpt>
      <trkpt lat="42.85250997" lon="13.55533995">
        <ele>174.00000</ele>
        <time>2024-05-13T14:42:22Z</time>
      </trkpt>
      <trkpt lat="42.85267517" lon="13.55569040">
        <ele>175.00000</ele>
        <time>2024-05-13T14:42:27Z</time>
      </trkpt>
      <trkpt lat="42.85283996" lon="13.55603992">
        <ele>175.00000</ele>
        <time>2024-05-13T14:42:31Z</time>
      </trkpt>
      <trkpt lat="42.85294004" lon="13.55626020">
        <ele>175.00000</ele>
        <time>2024-05-13T14:42:34Z</time>
      </trkpt>
      <trkpt lat="42.85303995" lon="13.55647997">
        <ele>174.00000</ele>
        <time>2024-05-13T14:42:37Z</time>
      </trkpt>
      <trkpt lat="42.85313509" lon="13.55668516">
        <ele>175.00000</ele>
        <time>2024-05-13T14:42:40Z</time>
      </trkpt>
      <trkpt lat="42.85322997" lon="13.55688993">
        <ele>177.00000</ele>
        <time>2024-05-13T14:42:43Z</time>
      </trkpt>
      <trkpt lat="42.85329996" lon="13.55704994">
        <ele>178.00000</ele>
        <time>2024-05-13T14:42:45Z</time>
      </trkpt>
      <trkpt lat="42.85333994" lon="13.55716997">
        <ele>177.00000</ele>
        <time>2024-05-13T14:42:47Z</time>
      </trkpt>
      <trkpt lat="42.85337992" lon="13.55729998">
        <ele>175.00000</ele>
        <time>2024-05-13T14:42:49Z</time>
      </trkpt>
      <trkpt lat="42.85339996" lon="13.55738991">
        <ele>174.00000</ele>
        <time>2024-05-13T14:42:50Z</time>
      </trkpt>
      <trkpt lat="42.85342996" lon="13.55758999">
        <ele>171.00000</ele>
        <time>2024-05-13T14:42:52Z</time>
      </trkpt>
      <trkpt lat="42.85347992" lon="13.55788998">
        <ele>168.00000</ele>
        <time>2024-05-13T14:42:56Z</time>
      </trkpt>
      <trkpt lat="42.85337976" lon="13.55809014">
        <ele>172.00000</ele>
        <time>2024-05-13T14:42:59Z</time>
      </trkpt>
      <trkpt lat="42.85327993" lon="13.55828996">
        <ele>176.00000</ele>
        <time>2024-05-13T14:43:01Z</time>
      </trkpt>
      <trkpt lat="42.85324992" lon="13.55832994">
        <ele>177.00000</ele>
        <time>2024-05-13T14:43:02Z</time>
      </trkpt>
      <trkpt lat="42.85321991" lon="13.55839993">
        <ele>178.00000</ele>
        <time>2024-05-13T14:43:03Z</time>
      </trkpt>
      <trkpt lat="42.85315998" lon="13.55853999">
        <ele>178.00000</ele>
        <time>2024-05-13T14:43:05Z</time>
      </trkpt>
      <trkpt lat="42.85306476" lon="13.55877527">
        <ele>179.00000</ele>
        <time>2024-05-13T14:43:08Z</time>
      </trkpt>
      <trkpt lat="42.85296997" lon="13.55900997">
        <ele>181.00000</ele>
        <time>2024-05-13T14:43:11Z</time>
      </trkpt>
      <trkpt lat="42.85283996" lon="13.55930996">
        <ele>184.00000</ele>
        <time>2024-05-13T14:43:15Z</time>
      </trkpt>
      <trkpt lat="42.85275992" lon="13.55951992">
        <ele>184.00000</ele>
        <time>2024-05-13T14:43:18Z</time>
      </trkpt>
      <trkpt lat="42.85270996" lon="13.55961992">
        <ele>184.00000</ele>
        <time>2024-05-13T14:43:20Z</time>
      </trkpt>
      <trkpt lat="42.85265992" lon="13.55966996">
        <ele>185.00000</ele>
        <time>2024-05-13T14:43:21Z</time>
      </trkpt>
      <trkpt lat="42.85258993" lon="13.55968999">
        <ele>186.00000</ele>
        <time>2024-05-13T14:43:22Z</time>
      </trkpt>
      <trkpt lat="42.85250997" lon="13.55969997">
        <ele>187.00000</ele>
        <time>2024-05-13T14:43:23Z</time>
      </trkpt>
      <trkpt lat="42.85244995" lon="13.55962998">
        <ele>188.00000</ele>
        <time>2024-05-13T14:43:24Z</time>
      </trkpt>
      <trkpt lat="42.85239991" lon="13.55956996">
        <ele>189.00000</ele>
        <time>2024-05-13T14:43:25Z</time>
      </trkpt>
      <trkpt lat="42.85234996" lon="13.55945999">
        <ele>189.00000</ele>
        <time>2024-05-13T14:43:27Z</time>
      </trkpt>
      <trkpt lat="42.85231995" lon="13.55931993">
        <ele>190.00000</ele>
        <time>2024-05-13T14:43:29Z</time>
      </trkpt>
      <trkpt lat="42.85231995" lon="13.55917995">
        <ele>191.00000</ele>
        <time>2024-05-13T14:43:30Z</time>
      </trkpt>
      <trkpt lat="42.85238994" lon="13.55879992">
        <ele>192.00000</ele>
        <time>2024-05-13T14:43:35Z</time>
      </trkpt>
      <trkpt lat="42.85244501" lon="13.55852935">
        <ele>192.00000</ele>
        <time>2024-05-13T14:43:38Z</time>
      </trkpt>
      <trkpt lat="42.85249999" lon="13.55825996">
        <ele>193.00000</ele>
        <time>2024-05-13T14:43:41Z</time>
      </trkpt>
      <trkpt lat="42.85255003" lon="13.55799433">
        <ele>193.00000</ele>
        <time>2024-05-13T14:43:45Z</time>
      </trkpt>
      <trkpt lat="42.85259999" lon="13.55772997">
        <ele>192.00000</ele>
        <time>2024-05-13T14:43:48Z</time>
      </trkpt>
      <trkpt lat="42.85260996" lon="13.55764992">
        <ele>193.00000</ele>
        <time>2024-05-13T14:43:49Z</time>
      </trkpt>
      <trkpt lat="42.85259999" lon="13.55759996">
        <ele>193.00000</ele>
        <time>2024-05-13T14:43:49Z</time>
      </trkpt>
      <trkpt lat="42.85258993" lon="13.55753995">
        <ele>194.00000</ele>
        <time>2024-05-13T14:43:50Z</time>
      </trkpt>
      <trkpt lat="42.85245993" lon="13.55728992">
        <ele>197.00000</ele>
        <time>2024-05-13T14:43:54Z</time>
      </trkpt>
      <trkpt lat="42.85233973" lon="13.55704626">
        <ele>198.00000</ele>
        <time>2024-05-13T14:43:57Z</time>
      </trkpt>
      <trkpt lat="42.85221962" lon="13.55680259">
        <ele>197.00000</ele>
        <time>2024-05-13T14:44:01Z</time>
      </trkpt>
      <trkpt lat="42.85209992" lon="13.55655994">
        <ele>195.00000</ele>
        <time>2024-05-13T14:44:04Z</time>
      </trkpt>
      <trkpt lat="42.85198643" lon="13.55631628">
        <ele>193.00000</ele>
        <time>2024-05-13T14:44:07Z</time>
      </trkpt>
      <trkpt lat="42.85187294" lon="13.55607261">
        <ele>192.00000</ele>
        <time>2024-05-13T14:44:11Z</time>
      </trkpt>
      <trkpt lat="42.85175995" lon="13.55582996">
        <ele>193.00000</ele>
        <time>2024-05-13T14:44:14Z</time>
      </trkpt>
      <trkpt lat="42.85155661" lon="13.55601654">
        <ele>196.00000</ele>
        <time>2024-05-13T14:44:18Z</time>
      </trkpt>
      <trkpt lat="42.85135326" lon="13.55620320">
        <ele>200.00000</ele>
        <time>2024-05-13T14:44:22Z</time>
      </trkpt>
      <trkpt lat="42.85114992" lon="13.55638995">
        <ele>202.00000</ele>
        <time>2024-05-13T14:44:26Z</time>
      </trkpt>
      <trkpt lat="42.85095999" lon="13.55654996">
        <ele>204.00000</ele>
        <time>2024-05-13T14:44:30Z</time>
      </trkpt>
      <trkpt lat="42.85091992" lon="13.55658994">
        <ele>205.00000</ele>
        <time>2024-05-13T14:44:30Z</time>
      </trkpt>
      <trkpt lat="42.85090995" lon="13.55661995">
        <ele>205.00000</ele>
        <time>2024-05-13T14:44:31Z</time>
      </trkpt>
    </trkseg>
  </trk>
</gpx>

